<?xml version="1.0" encoding="UTF-8" standalone="no" ?>
<gpx xmlns="http://www.topografix.com/GPX/1/1" xmlns:xsi="http://www.w3.org/2001/XMLSchema-instance" xsi:schemaLocation="http://www.topografix.com/GPX/1/1 http://www.topografix.com/GPX/1/1/gpx.xsd" version="1.1" creator="VisuGPX - https://www.visugpx.com">
  <metadata>
    <name>rando 25 avril 2013</name>
    <desc><![CDATA[FR RV MC soleil]]></desc>
  </metadata>
  <trk>
    <name><![CDATA[20/04/2013 9:20]]></name>
    <desc><![CDATA[]]></desc>
    <trkseg>
      <trkpt lat="49.44959" lon="2.06668">
        <ele>155.2</ele>
        <time>2013-04-20T07:22:05.621Z</time>
      </trkpt>
      <trkpt lat="49.44963" lon="2.0667">
        <ele>155.7</ele>
        <time>2013-04-20T07:22:06.621Z</time>
      </trkpt>
      <trkpt lat="49.44964" lon="2.06672">
        <ele>155.9</ele>
        <time>2013-04-20T07:22:07.638Z</time>
      </trkpt>
      <trkpt lat="49.44963" lon="2.06678">
        <ele>156.6</ele>
        <time>2013-04-20T07:22:12.615Z</time>
      </trkpt>
      <trkpt lat="49.44964" lon="2.0668">
        <ele>157.6</ele>
        <time>2013-04-20T07:22:13.815Z</time>
      </trkpt>
      <trkpt lat="49.44976" lon="2.06683">
        <ele>152.4</ele>
        <time>2013-04-20T07:22:14.614Z</time>
      </trkpt>
      <trkpt lat="49.44964" lon="2.0668">
        <ele>151.5</ele>
        <time>2013-04-20T07:22:15.611Z</time>
      </trkpt>
      <trkpt lat="49.44991" lon="2.06711">
        <ele>157.5</ele>
        <time>2013-04-20T07:22:16.620Z</time>
      </trkpt>
      <trkpt lat="49.44986" lon="2.06704">
        <ele>159</ele>
        <time>2013-04-20T07:22:17.613Z</time>
      </trkpt>
      <trkpt lat="49.44981" lon="2.06702">
        <ele>158.7</ele>
        <time>2013-04-20T07:22:18.616Z</time>
      </trkpt>
      <trkpt lat="49.44978" lon="2.06699">
        <ele>159</ele>
        <time>2013-04-20T07:22:22.616Z</time>
      </trkpt>
      <trkpt lat="49.44962" lon="2.06698">
        <ele>149.4</ele>
        <time>2013-04-20T07:22:24.119Z</time>
      </trkpt>
      <trkpt lat="49.44962" lon="2.06699">
        <ele>149.9</ele>
        <time>2013-04-20T07:22:24.608Z</time>
      </trkpt>
      <trkpt lat="49.44975" lon="2.067">
        <ele>147.2</ele>
        <time>2013-04-20T07:22:25.811Z</time>
      </trkpt>
      <trkpt lat="49.44972" lon="2.0671">
        <ele>146.5</ele>
        <time>2013-04-20T07:22:26.620Z</time>
      </trkpt>
      <trkpt lat="49.44967" lon="2.06707">
        <ele>153</ele>
        <time>2013-04-20T07:22:27.609Z</time>
      </trkpt>
      <trkpt lat="49.44966" lon="2.06693">
        <ele>138.5</ele>
        <time>2013-04-20T07:22:29.118Z</time>
      </trkpt>
      <trkpt lat="49.44966" lon="2.06688">
        <ele>152.8</ele>
        <time>2013-04-20T07:22:31.610Z</time>
      </trkpt>
      <trkpt lat="49.44961" lon="2.06701">
        <ele>155.4</ele>
        <time>2013-04-20T07:22:32.610Z</time>
      </trkpt>
      <trkpt lat="49.44964" lon="2.06702">
        <ele>154.6</ele>
        <time>2013-04-20T07:22:34.617Z</time>
      </trkpt>
      <trkpt lat="49.44966" lon="2.06703">
        <ele>155</ele>
        <time>2013-04-20T07:22:35.619Z</time>
      </trkpt>
      <trkpt lat="49.4497" lon="2.06704">
        <ele>154.2</ele>
        <time>2013-04-20T07:22:37.614Z</time>
      </trkpt>
      <trkpt lat="49.44957" lon="2.06707">
        <ele>158.3</ele>
        <time>2013-04-20T07:22:38.614Z</time>
      </trkpt>
      <trkpt lat="49.44959" lon="2.0671">
        <ele>158.4</ele>
        <time>2013-04-20T07:22:42.815Z</time>
      </trkpt>
      <trkpt lat="49.44984" lon="2.06716">
        <ele>161.9</ele>
        <time>2013-04-20T07:22:43.630Z</time>
      </trkpt>
      <trkpt lat="49.44983" lon="2.06716">
        <ele>161.8</ele>
        <time>2013-04-20T07:22:46.613Z</time>
      </trkpt>
      <trkpt lat="49.44997" lon="2.06729">
        <ele>155.2</ele>
        <time>2013-04-20T07:22:47.622Z</time>
      </trkpt>
      <trkpt lat="49.44992" lon="2.06728">
        <ele>158.5</ele>
        <time>2013-04-20T07:22:48.612Z</time>
      </trkpt>
      <trkpt lat="49.44992" lon="2.06727">
        <ele>158.8</ele>
        <time>2013-04-20T07:22:49.612Z</time>
      </trkpt>
      <trkpt lat="49.44981" lon="2.06716">
        <ele>147.3</ele>
        <time>2013-04-20T07:22:50.625Z</time>
      </trkpt>
      <trkpt lat="49.44981" lon="2.06716">
        <ele>147.9</ele>
        <time>2013-04-20T07:22:51.620Z</time>
      </trkpt>
      <trkpt lat="49.44988" lon="2.06718">
        <ele>149.7</ele>
        <time>2013-04-20T07:22:52.619Z</time>
      </trkpt>
      <trkpt lat="49.44987" lon="2.06717">
        <ele>151</ele>
        <time>2013-04-20T07:22:53.616Z</time>
      </trkpt>
      <trkpt lat="49.44993" lon="2.06725">
        <ele>136.4</ele>
        <time>2013-04-20T07:22:54.613Z</time>
      </trkpt>
      <trkpt lat="49.44988" lon="2.0672">
        <ele>145.2</ele>
        <time>2013-04-20T07:22:55.618Z</time>
      </trkpt>
      <trkpt lat="49.44992" lon="2.06716">
        <ele>148.9</ele>
        <time>2013-04-20T07:22:59.615Z</time>
      </trkpt>
      <trkpt lat="49.44999" lon="2.06722">
        <ele>155.4</ele>
        <time>2013-04-20T07:23:00.617Z</time>
      </trkpt>
      <trkpt lat="49.45001" lon="2.06717">
        <ele>160.5</ele>
        <time>2013-04-20T07:23:08.811Z</time>
      </trkpt>
      <trkpt lat="49.44995" lon="2.06694">
        <ele>181</ele>
        <time>2013-04-20T07:23:09.625Z</time>
      </trkpt>
      <trkpt lat="49.44996" lon="2.06699">
        <ele>184.8</ele>
        <time>2013-04-20T07:23:11.611Z</time>
      </trkpt>
      <trkpt lat="49.44998" lon="2.06702">
        <ele>182.9</ele>
        <time>2013-04-20T07:23:12.617Z</time>
      </trkpt>
      <trkpt lat="49.45014" lon="2.06714">
        <ele>163.3</ele>
        <time>2013-04-20T07:23:13.611Z</time>
      </trkpt>
      <trkpt lat="49.45016" lon="2.06713">
        <ele>162.9</ele>
        <time>2013-04-20T07:23:15.619Z</time>
      </trkpt>
      <trkpt lat="49.45031" lon="2.06723">
        <ele>160.2</ele>
        <time>2013-04-20T07:23:16.623Z</time>
      </trkpt>
      <trkpt lat="49.4502" lon="2.06713">
        <ele>170.9</ele>
        <time>2013-04-20T07:23:17.615Z</time>
      </trkpt>
      <trkpt lat="49.45023" lon="2.06712">
        <ele>171.2</ele>
        <time>2013-04-20T07:23:20.622Z</time>
      </trkpt>
      <trkpt lat="49.45024" lon="2.06713">
        <ele>169.8</ele>
        <time>2013-04-20T07:23:21.617Z</time>
      </trkpt>
      <trkpt lat="49.45025" lon="2.06713">
        <ele>169.6</ele>
        <time>2013-04-20T07:23:22.613Z</time>
      </trkpt>
      <trkpt lat="49.45026" lon="2.06703">
        <ele>203.6</ele>
        <time>2013-04-20T07:23:23.622Z</time>
      </trkpt>
      <trkpt lat="49.4503" lon="2.06703">
        <ele>198.4</ele>
        <time>2013-04-20T07:23:27.977Z</time>
      </trkpt>
      <trkpt lat="49.45031" lon="2.06704">
        <ele>197</ele>
        <time>2013-04-20T07:23:28.598Z</time>
      </trkpt>
      <trkpt lat="49.45035" lon="2.06705">
        <ele>192.7</ele>
        <time>2013-04-20T07:23:31.376Z</time>
      </trkpt>
      <trkpt lat="49.45035" lon="2.06704">
        <ele>192.6</ele>
        <time>2013-04-20T07:23:32.383Z</time>
      </trkpt>
      <trkpt lat="49.45036" lon="2.06704">
        <ele>192.2</ele>
        <time>2013-04-20T07:23:39.483Z</time>
      </trkpt>
      <trkpt lat="49.45084" lon="2.06718">
        <ele>202</ele>
        <time>2013-04-20T07:23:40.379Z</time>
      </trkpt>
      <trkpt lat="49.45081" lon="2.06719">
        <ele>151.4</ele>
        <time>2013-04-20T07:23:44.402Z</time>
      </trkpt>
      <trkpt lat="49.45077" lon="2.06693">
        <ele>168.2</ele>
        <time>2013-04-20T07:23:45.401Z</time>
      </trkpt>
      <trkpt lat="49.45076" lon="2.06693">
        <ele>166.3</ele>
        <time>2013-04-20T07:23:47.389Z</time>
      </trkpt>
      <trkpt lat="49.45102" lon="2.06687">
        <ele>208.4</ele>
        <time>2013-04-20T07:23:48.406Z</time>
      </trkpt>
      <trkpt lat="49.45104" lon="2.06687">
        <ele>208.3</ele>
        <time>2013-04-20T07:23:49.397Z</time>
      </trkpt>
      <trkpt lat="49.45077" lon="2.06688">
        <ele>193.5</ele>
        <time>2013-04-20T07:23:50.389Z</time>
      </trkpt>
      <trkpt lat="49.45078" lon="2.06696">
        <ele>182.9</ele>
        <time>2013-04-20T07:23:51.401Z</time>
      </trkpt>
      <trkpt lat="49.4508" lon="2.06698">
        <ele>183.1</ele>
        <time>2013-04-20T07:23:57.593Z</time>
      </trkpt>
      <trkpt lat="49.45067" lon="2.0671">
        <ele>192.5</ele>
        <time>2013-04-20T07:23:58.405Z</time>
      </trkpt>
      <trkpt lat="49.45071" lon="2.06711">
        <ele>187.7</ele>
        <time>2013-04-20T07:24:00.394Z</time>
      </trkpt>
      <trkpt lat="49.45073" lon="2.0671">
        <ele>186.9</ele>
        <time>2013-04-20T07:24:01.394Z</time>
      </trkpt>
      <trkpt lat="49.45079" lon="2.0671">
        <ele>184.7</ele>
        <time>2013-04-20T07:24:02.420Z</time>
      </trkpt>
      <trkpt lat="49.45082" lon="2.06709">
        <ele>181.7</ele>
        <time>2013-04-20T07:24:03.589Z</time>
      </trkpt>
      <trkpt lat="49.45084" lon="2.06696">
        <ele>161.1</ele>
        <time>2013-04-20T07:24:04.404Z</time>
      </trkpt>
      <trkpt lat="49.45088" lon="2.06698">
        <ele>165.6</ele>
        <time>2013-04-20T07:24:07.407Z</time>
      </trkpt>
      <trkpt lat="49.4509" lon="2.06699">
        <ele>166.6</ele>
        <time>2013-04-20T07:24:08.402Z</time>
      </trkpt>
      <trkpt lat="49.45093" lon="2.067">
        <ele>170.4</ele>
        <time>2013-04-20T07:24:10.387Z</time>
      </trkpt>
      <trkpt lat="49.45088" lon="2.06718">
        <ele>194</ele>
        <time>2013-04-20T07:24:11.418Z</time>
      </trkpt>
      <trkpt lat="49.45088" lon="2.06715">
        <ele>196.6</ele>
        <time>2013-04-20T07:24:12.403Z</time>
      </trkpt>
      <trkpt lat="49.45123" lon="2.06718">
        <ele>157.9</ele>
        <time>2013-04-20T07:24:13.390Z</time>
      </trkpt>
      <trkpt lat="49.4512" lon="2.06717">
        <ele>165.2</ele>
        <time>2013-04-20T07:24:16.493Z</time>
      </trkpt>
      <trkpt lat="49.45138" lon="2.06716">
        <ele>213.8</ele>
        <time>2013-04-20T07:24:17.454Z</time>
      </trkpt>
      <trkpt lat="49.45139" lon="2.06717">
        <ele>214.2</ele>
        <time>2013-04-20T07:24:18.405Z</time>
      </trkpt>
      <trkpt lat="49.45119" lon="2.06707">
        <ele>194.7</ele>
        <time>2013-04-20T07:24:19.403Z</time>
      </trkpt>
      <trkpt lat="49.45113" lon="2.06705">
        <ele>188.2</ele>
        <time>2013-04-20T07:24:20.389Z</time>
      </trkpt>
      <trkpt lat="49.45114" lon="2.06702">
        <ele>181.8</ele>
        <time>2013-04-20T07:24:23.397Z</time>
      </trkpt>
      <trkpt lat="49.45118" lon="2.06706">
        <ele>184.2</ele>
        <time>2013-04-20T07:24:24.394Z</time>
      </trkpt>
      <trkpt lat="49.4512" lon="2.06704">
        <ele>184.3</ele>
        <time>2013-04-20T07:24:27.395Z</time>
      </trkpt>
      <trkpt lat="49.45125" lon="2.06707">
        <ele>184.9</ele>
        <time>2013-04-20T07:24:28.397Z</time>
      </trkpt>
      <trkpt lat="49.45101" lon="2.06699">
        <ele>155.1</ele>
        <time>2013-04-20T07:24:29.380Z</time>
      </trkpt>
      <trkpt lat="49.45105" lon="2.067">
        <ele>164.4</ele>
        <time>2013-04-20T07:24:31.398Z</time>
      </trkpt>
      <trkpt lat="49.45106" lon="2.067">
        <ele>167.5</ele>
        <time>2013-04-20T07:24:32.393Z</time>
      </trkpt>
      <trkpt lat="49.4511" lon="2.06701">
        <ele>172</ele>
        <time>2013-04-20T07:24:36.392Z</time>
      </trkpt>
      <trkpt lat="49.45111" lon="2.06701">
        <ele>172.3</ele>
        <time>2013-04-20T07:24:37.392Z</time>
      </trkpt>
      <trkpt lat="49.45115" lon="2.06701">
        <ele>175.2</ele>
        <time>2013-04-20T07:24:38.398Z</time>
      </trkpt>
      <trkpt lat="49.45117" lon="2.06702">
        <ele>176.3</ele>
        <time>2013-04-20T07:24:39.378Z</time>
      </trkpt>
      <trkpt lat="49.4512" lon="2.06702">
        <ele>179</ele>
        <time>2013-04-20T07:24:41.414Z</time>
      </trkpt>
      <trkpt lat="49.45128" lon="2.0671">
        <ele>146.8</ele>
        <time>2013-04-20T07:24:42.393Z</time>
      </trkpt>
      <trkpt lat="49.45134" lon="2.06703">
        <ele>154.4</ele>
        <time>2013-04-20T07:24:43.390Z</time>
      </trkpt>
      <trkpt lat="49.45137" lon="2.06703">
        <ele>162.8</ele>
        <time>2013-04-20T07:24:44.390Z</time>
      </trkpt>
      <trkpt lat="49.45139" lon="2.06704">
        <ele>162.9</ele>
        <time>2013-04-20T07:24:45.398Z</time>
      </trkpt>
      <trkpt lat="49.45143" lon="2.06703">
        <ele>167</ele>
        <time>2013-04-20T07:24:51.391Z</time>
      </trkpt>
      <trkpt lat="49.45171" lon="2.06709">
        <ele>174.1</ele>
        <time>2013-04-20T07:24:52.372Z</time>
      </trkpt>
      <trkpt lat="49.45166" lon="2.06709">
        <ele>175.2</ele>
        <time>2013-04-20T07:24:54.391Z</time>
      </trkpt>
      <trkpt lat="49.45164" lon="2.06707">
        <ele>175.7</ele>
        <time>2013-04-20T07:24:55.454Z</time>
      </trkpt>
      <trkpt lat="49.45164" lon="2.06708">
        <ele>175.5</ele>
        <time>2013-04-20T07:24:56.586Z</time>
      </trkpt>
      <trkpt lat="49.45153" lon="2.06726">
        <ele>131.6</ele>
        <time>2013-04-20T07:24:57.411Z</time>
      </trkpt>
      <trkpt lat="49.45155" lon="2.06728">
        <ele>123.2</ele>
        <time>2013-04-20T07:24:58.392Z</time>
      </trkpt>
      <trkpt lat="49.45155" lon="2.06712">
        <ele>164.8</ele>
        <time>2013-04-20T07:24:59.385Z</time>
      </trkpt>
      <trkpt lat="49.45159" lon="2.06713">
        <ele>163</ele>
        <time>2013-04-20T07:25:01.400Z</time>
      </trkpt>
      <trkpt lat="49.45162" lon="2.06714">
        <ele>160.2</ele>
        <time>2013-04-20T07:25:02.393Z</time>
      </trkpt>
      <trkpt lat="49.45163" lon="2.06708">
        <ele>173.7</ele>
        <time>2013-04-20T07:25:06.425Z</time>
      </trkpt>
      <trkpt lat="49.45162" lon="2.06706">
        <ele>175.4</ele>
        <time>2013-04-20T07:25:07.390Z</time>
      </trkpt>
      <trkpt lat="49.45163" lon="2.06705">
        <ele>176.6</ele>
        <time>2013-04-20T07:25:14.387Z</time>
      </trkpt>
      <trkpt lat="49.45239" lon="2.067">
        <ele>196.9</ele>
        <time>2013-04-20T07:25:15.377Z</time>
      </trkpt>
      <trkpt lat="49.45221" lon="2.067">
        <ele>195.8</ele>
        <time>2013-04-20T07:25:16.404Z</time>
      </trkpt>
      <trkpt lat="49.45219" lon="2.067">
        <ele>198.4</ele>
        <time>2013-04-20T07:25:17.389Z</time>
      </trkpt>
      <trkpt lat="49.45215" lon="2.06699">
        <ele>200.3</ele>
        <time>2013-04-20T07:25:18.398Z</time>
      </trkpt>
      <trkpt lat="49.45215" lon="2.067">
        <ele>201.2</ele>
        <time>2013-04-20T07:25:19.404Z</time>
      </trkpt>
      <trkpt lat="49.4521" lon="2.067">
        <ele>200.4</ele>
        <time>2013-04-20T07:25:20.475Z</time>
      </trkpt>
      <trkpt lat="49.45214" lon="2.06701">
        <ele>187.7</ele>
        <time>2013-04-20T07:25:28.558Z</time>
      </trkpt>
      <trkpt lat="49.45241" lon="2.06725">
        <ele>202.6</ele>
        <time>2013-04-20T07:25:29.422Z</time>
      </trkpt>
      <trkpt lat="49.45242" lon="2.06725">
        <ele>203.6</ele>
        <time>2013-04-20T07:25:30.397Z</time>
      </trkpt>
      <trkpt lat="49.45243" lon="2.06718">
        <ele>202.1</ele>
        <time>2013-04-20T07:25:31.393Z</time>
      </trkpt>
      <trkpt lat="49.4524" lon="2.06716">
        <ele>202.5</ele>
        <time>2013-04-20T07:25:32.396Z</time>
      </trkpt>
      <trkpt lat="49.45238" lon="2.06716">
        <ele>200.6</ele>
        <time>2013-04-20T07:25:33.390Z</time>
      </trkpt>
      <trkpt lat="49.45235" lon="2.06712">
        <ele>198.6</ele>
        <time>2013-04-20T07:25:34.397Z</time>
      </trkpt>
      <trkpt lat="49.45231" lon="2.0671">
        <ele>196.8</ele>
        <time>2013-04-20T07:25:35.401Z</time>
      </trkpt>
      <trkpt lat="49.45231" lon="2.0671">
        <ele>187</ele>
        <time>2013-04-20T07:25:43.523Z</time>
      </trkpt>
      <trkpt lat="49.45221" lon="2.06708">
        <ele>176.6</ele>
        <time>2013-04-20T07:25:44.397Z</time>
      </trkpt>
      <trkpt lat="49.45222" lon="2.06708">
        <ele>177.7</ele>
        <time>2013-04-20T07:25:45.428Z</time>
      </trkpt>
      <trkpt lat="49.4523" lon="2.06695">
        <ele>188.2</ele>
        <time>2013-04-20T07:25:46.395Z</time>
      </trkpt>
      <trkpt lat="49.45235" lon="2.06693">
        <ele>198.3</ele>
        <time>2013-04-20T07:25:47.401Z</time>
      </trkpt>
      <trkpt lat="49.45232" lon="2.06693">
        <ele>198.1</ele>
        <time>2013-04-20T07:25:48.397Z</time>
      </trkpt>
      <trkpt lat="49.45229" lon="2.06694">
        <ele>195.1</ele>
        <time>2013-04-20T07:25:49.397Z</time>
      </trkpt>
      <trkpt lat="49.45231" lon="2.06693">
        <ele>192.4</ele>
        <time>2013-04-20T07:25:51.392Z</time>
      </trkpt>
      <trkpt lat="49.45234" lon="2.06695">
        <ele>193.7</ele>
        <time>2013-04-20T07:25:52.389Z</time>
      </trkpt>
      <trkpt lat="49.45236" lon="2.06696">
        <ele>189.9</ele>
        <time>2013-04-20T07:25:57.608Z</time>
      </trkpt>
      <trkpt lat="49.45266" lon="2.06698">
        <ele>215.6</ele>
        <time>2013-04-20T07:25:58.406Z</time>
      </trkpt>
      <trkpt lat="49.45248" lon="2.06698">
        <ele>209.4</ele>
        <time>2013-04-20T07:25:59.411Z</time>
      </trkpt>
      <trkpt lat="49.45248" lon="2.06696">
        <ele>206.2</ele>
        <time>2013-04-20T07:26:00.435Z</time>
      </trkpt>
      <trkpt lat="49.45256" lon="2.06697">
        <ele>207.6</ele>
        <time>2013-04-20T07:26:01.412Z</time>
      </trkpt>
      <trkpt lat="49.45261" lon="2.06698">
        <ele>205.7</ele>
        <time>2013-04-20T07:26:02.393Z</time>
      </trkpt>
      <trkpt lat="49.45264" lon="2.06695">
        <ele>195.6</ele>
        <time>2013-04-20T07:26:14.422Z</time>
      </trkpt>
      <trkpt lat="49.45268" lon="2.06694">
        <ele>195.6</ele>
        <time>2013-04-20T07:26:15.390Z</time>
      </trkpt>
      <trkpt lat="49.45262" lon="2.06699">
        <ele>190.9</ele>
        <time>2013-04-20T07:26:16.424Z</time>
      </trkpt>
      <trkpt lat="49.45266" lon="2.06699">
        <ele>194.4</ele>
        <time>2013-04-20T07:26:18.386Z</time>
      </trkpt>
      <trkpt lat="49.45267" lon="2.067">
        <ele>194.1</ele>
        <time>2013-04-20T07:26:19.404Z</time>
      </trkpt>
      <trkpt lat="49.45269" lon="2.06698">
        <ele>192.8</ele>
        <time>2013-04-20T07:26:26.411Z</time>
      </trkpt>
      <trkpt lat="49.45292" lon="2.06707">
        <ele>153.2</ele>
        <time>2013-04-20T07:26:27.395Z</time>
      </trkpt>
      <trkpt lat="49.45295" lon="2.06706">
        <ele>155.5</ele>
        <time>2013-04-20T07:26:28.390Z</time>
      </trkpt>
      <trkpt lat="49.45302" lon="2.06703">
        <ele>166.1</ele>
        <time>2013-04-20T07:26:29.389Z</time>
      </trkpt>
      <trkpt lat="49.45298" lon="2.06702">
        <ele>167</ele>
        <time>2013-04-20T07:26:31.399Z</time>
      </trkpt>
      <trkpt lat="49.45296" lon="2.06701">
        <ele>170.3</ele>
        <time>2013-04-20T07:26:32.394Z</time>
      </trkpt>
      <trkpt lat="49.45297" lon="2.06702">
        <ele>176.5</ele>
        <time>2013-04-20T07:26:37.593Z</time>
      </trkpt>
      <trkpt lat="49.45297" lon="2.0671">
        <ele>183.5</ele>
        <time>2013-04-20T07:26:38.406Z</time>
      </trkpt>
      <trkpt lat="49.45299" lon="2.06707">
        <ele>186.7</ele>
        <time>2013-04-20T07:26:48.566Z</time>
      </trkpt>
      <trkpt lat="49.45245" lon="2.06701">
        <ele>171.3</ele>
        <time>2013-04-20T07:26:49.372Z</time>
      </trkpt>
      <trkpt lat="49.45247" lon="2.06702">
        <ele>171.8</ele>
        <time>2013-04-20T07:26:50.394Z</time>
      </trkpt>
      <trkpt lat="49.45263" lon="2.06706">
        <ele>173.6</ele>
        <time>2013-04-20T07:26:51.391Z</time>
      </trkpt>
      <trkpt lat="49.45266" lon="2.06704">
        <ele>176</ele>
        <time>2013-04-20T07:26:52.386Z</time>
      </trkpt>
      <trkpt lat="49.45269" lon="2.06705">
        <ele>174.6</ele>
        <time>2013-04-20T07:26:53.396Z</time>
      </trkpt>
      <trkpt lat="49.45275" lon="2.06705">
        <ele>178.8</ele>
        <time>2013-04-20T07:26:54.397Z</time>
      </trkpt>
      <trkpt lat="49.45279" lon="2.06705">
        <ele>179.5</ele>
        <time>2013-04-20T07:26:55.392Z</time>
      </trkpt>
      <trkpt lat="49.45282" lon="2.06704">
        <ele>181.7</ele>
        <time>2013-04-20T07:26:56.386Z</time>
      </trkpt>
      <trkpt lat="49.45286" lon="2.06704">
        <ele>181.6</ele>
        <time>2013-04-20T07:26:58.395Z</time>
      </trkpt>
      <trkpt lat="49.45289" lon="2.06705">
        <ele>180.5</ele>
        <time>2013-04-20T07:26:59.394Z</time>
      </trkpt>
      <trkpt lat="49.45293" lon="2.06704">
        <ele>183.2</ele>
        <time>2013-04-20T07:27:04.396Z</time>
      </trkpt>
      <trkpt lat="49.45294" lon="2.06704">
        <ele>183.1</ele>
        <time>2013-04-20T07:27:05.403Z</time>
      </trkpt>
      <trkpt lat="49.45299" lon="2.06701">
        <ele>185</ele>
        <time>2013-04-20T07:27:06.392Z</time>
      </trkpt>
      <trkpt lat="49.45302" lon="2.06698">
        <ele>185</ele>
        <time>2013-04-20T07:27:10.456Z</time>
      </trkpt>
      <trkpt lat="49.45303" lon="2.06698">
        <ele>185.9</ele>
        <time>2013-04-20T07:27:11.390Z</time>
      </trkpt>
      <trkpt lat="49.45307" lon="2.06698">
        <ele>187.4</ele>
        <time>2013-04-20T07:27:12.397Z</time>
      </trkpt>
      <trkpt lat="49.45309" lon="2.06698">
        <ele>188</ele>
        <time>2013-04-20T07:27:13.393Z</time>
      </trkpt>
      <trkpt lat="49.45312" lon="2.06696">
        <ele>189</ele>
        <time>2013-04-20T07:27:19.395Z</time>
      </trkpt>
      <trkpt lat="49.45314" lon="2.06697">
        <ele>188.9</ele>
        <time>2013-04-20T07:27:20.396Z</time>
      </trkpt>
      <trkpt lat="49.45373" lon="2.06701">
        <ele>210.7</ele>
        <time>2013-04-20T07:27:21.400Z</time>
      </trkpt>
      <trkpt lat="49.45369" lon="2.06701">
        <ele>208.2</ele>
        <time>2013-04-20T07:27:22.382Z</time>
      </trkpt>
      <trkpt lat="49.45367" lon="2.06699">
        <ele>206.4</ele>
        <time>2013-04-20T07:27:23.399Z</time>
      </trkpt>
      <trkpt lat="49.45363" lon="2.06697">
        <ele>204.4</ele>
        <time>2013-04-20T07:27:28.397Z</time>
      </trkpt>
      <trkpt lat="49.45362" lon="2.06697">
        <ele>203.7</ele>
        <time>2013-04-20T07:27:29.389Z</time>
      </trkpt>
      <trkpt lat="49.45362" lon="2.06697">
        <ele>200.3</ele>
        <time>2013-04-20T07:27:37.440Z</time>
      </trkpt>
      <trkpt lat="49.45371" lon="2.06684">
        <ele>187.8</ele>
        <time>2013-04-20T07:27:38.402Z</time>
      </trkpt>
      <trkpt lat="49.45371" lon="2.06684">
        <ele>186.4</ele>
        <time>2013-04-20T07:27:39.413Z</time>
      </trkpt>
      <trkpt lat="49.45378" lon="2.06692">
        <ele>184</ele>
        <time>2013-04-20T07:27:40.392Z</time>
      </trkpt>
      <trkpt lat="49.45381" lon="2.06691">
        <ele>190.9</ele>
        <time>2013-04-20T07:27:47.395Z</time>
      </trkpt>
      <trkpt lat="49.45382" lon="2.06692">
        <ele>191.8</ele>
        <time>2013-04-20T07:27:48.391Z</time>
      </trkpt>
      <trkpt lat="49.45386" lon="2.06691">
        <ele>193.3</ele>
        <time>2013-04-20T07:27:50.592Z</time>
      </trkpt>
      <trkpt lat="49.45363" lon="2.06679">
        <ele>190</ele>
        <time>2013-04-20T07:27:51.399Z</time>
      </trkpt>
      <trkpt lat="49.45375" lon="2.06685">
        <ele>178.6</ele>
        <time>2013-04-20T07:27:52.401Z</time>
      </trkpt>
      <trkpt lat="49.45376" lon="2.06688">
        <ele>177.4</ele>
        <time>2013-04-20T07:27:53.413Z</time>
      </trkpt>
      <trkpt lat="49.45391" lon="2.0669">
        <ele>181.3</ele>
        <time>2013-04-20T07:27:54.395Z</time>
      </trkpt>
      <trkpt lat="49.45396" lon="2.06687">
        <ele>185.9</ele>
        <time>2013-04-20T07:27:55.401Z</time>
      </trkpt>
      <trkpt lat="49.45399" lon="2.06686">
        <ele>192.1</ele>
        <time>2013-04-20T07:27:56.395Z</time>
      </trkpt>
      <trkpt lat="49.45403" lon="2.06686">
        <ele>197</ele>
        <time>2013-04-20T07:27:57.400Z</time>
      </trkpt>
      <trkpt lat="49.45405" lon="2.06689">
        <ele>195.9</ele>
        <time>2013-04-20T07:27:59.390Z</time>
      </trkpt>
      <trkpt lat="49.45409" lon="2.0669">
        <ele>201.4</ele>
        <time>2013-04-20T07:28:00.389Z</time>
      </trkpt>
      <trkpt lat="49.45408" lon="2.06689">
        <ele>202.3</ele>
        <time>2013-04-20T07:28:07.380Z</time>
      </trkpt>
      <trkpt lat="49.45446" lon="2.06732">
        <ele>200</ele>
        <time>2013-04-20T07:28:08.399Z</time>
      </trkpt>
      <trkpt lat="49.45446" lon="2.06732">
        <ele>199.8</ele>
        <time>2013-04-20T07:28:09.393Z</time>
      </trkpt>
      <trkpt lat="49.45444" lon="2.06715">
        <ele>209.5</ele>
        <time>2013-04-20T07:28:10.388Z</time>
      </trkpt>
      <trkpt lat="49.45439" lon="2.06711">
        <ele>207.7</ele>
        <time>2013-04-20T07:28:11.394Z</time>
      </trkpt>
      <trkpt lat="49.45437" lon="2.06704">
        <ele>206.8</ele>
        <time>2013-04-20T07:28:12.404Z</time>
      </trkpt>
      <trkpt lat="49.45434" lon="2.06702">
        <ele>207.6</ele>
        <time>2013-04-20T07:28:14.387Z</time>
      </trkpt>
      <trkpt lat="49.45432" lon="2.067">
        <ele>206.1</ele>
        <time>2013-04-20T07:28:15.385Z</time>
      </trkpt>
      <trkpt lat="49.45435" lon="2.06697">
        <ele>207.8</ele>
        <time>2013-04-20T07:28:22.384Z</time>
      </trkpt>
      <trkpt lat="49.45435" lon="2.06695">
        <ele>203.6</ele>
        <time>2013-04-20T07:28:23.438Z</time>
      </trkpt>
      <trkpt lat="49.45434" lon="2.06692">
        <ele>201</ele>
        <time>2013-04-20T07:28:26.593Z</time>
      </trkpt>
      <trkpt lat="49.4543" lon="2.06699">
        <ele>195.5</ele>
        <time>2013-04-20T07:28:27.403Z</time>
      </trkpt>
      <trkpt lat="49.45434" lon="2.06699">
        <ele>202.6</ele>
        <time>2013-04-20T07:28:28.393Z</time>
      </trkpt>
      <trkpt lat="49.4544" lon="2.06702">
        <ele>205.5</ele>
        <time>2013-04-20T07:28:29.389Z</time>
      </trkpt>
      <trkpt lat="49.45439" lon="2.06696">
        <ele>204.9</ele>
        <time>2013-04-20T07:28:31.398Z</time>
      </trkpt>
      <trkpt lat="49.45446" lon="2.06698">
        <ele>198</ele>
        <time>2013-04-20T07:28:32.392Z</time>
      </trkpt>
      <trkpt lat="49.45449" lon="2.06694">
        <ele>201.1</ele>
        <time>2013-04-20T07:28:33.386Z</time>
      </trkpt>
      <trkpt lat="49.45452" lon="2.06693">
        <ele>201.2</ele>
        <time>2013-04-20T07:28:34.420Z</time>
      </trkpt>
      <trkpt lat="49.45455" lon="2.06694">
        <ele>201.7</ele>
        <time>2013-04-20T07:28:37.386Z</time>
      </trkpt>
      <trkpt lat="49.45458" lon="2.06693">
        <ele>202.4</ele>
        <time>2013-04-20T07:28:38.400Z</time>
      </trkpt>
      <trkpt lat="49.45453" lon="2.06692">
        <ele>196.4</ele>
        <time>2013-04-20T07:28:39.398Z</time>
      </trkpt>
      <trkpt lat="49.45454" lon="2.06691">
        <ele>195.7</ele>
        <time>2013-04-20T07:28:47.391Z</time>
      </trkpt>
      <trkpt lat="49.45463" lon="2.06671">
        <ele>193.8</ele>
        <time>2013-04-20T07:28:48.388Z</time>
      </trkpt>
      <trkpt lat="49.45462" lon="2.06677">
        <ele>193.8</ele>
        <time>2013-04-20T07:28:49.393Z</time>
      </trkpt>
      <trkpt lat="49.45463" lon="2.06681">
        <ele>193.8</ele>
        <time>2013-04-20T07:28:50.423Z</time>
      </trkpt>
      <trkpt lat="49.45467" lon="2.06682">
        <ele>193.8</ele>
        <time>2013-04-20T07:28:53.389Z</time>
      </trkpt>
      <trkpt lat="49.45467" lon="2.06686">
        <ele>193.8</ele>
        <time>2013-04-20T07:28:54.391Z</time>
      </trkpt>
      <trkpt lat="49.45467" lon="2.06686">
        <ele>193.8</ele>
        <time>2013-04-20T07:28:57.430Z</time>
      </trkpt>
      <trkpt lat="49.45506" lon="2.06692">
        <ele>214.4</ele>
        <time>2013-04-20T07:28:58.395Z</time>
      </trkpt>
      <trkpt lat="49.45484" lon="2.06693">
        <ele>198.9</ele>
        <time>2013-04-20T07:28:59.401Z</time>
      </trkpt>
      <trkpt lat="49.45488" lon="2.06695">
        <ele>198.7</ele>
        <time>2013-04-20T07:29:01.395Z</time>
      </trkpt>
      <trkpt lat="49.45496" lon="2.06694">
        <ele>192.6</ele>
        <time>2013-04-20T07:29:02.407Z</time>
      </trkpt>
      <trkpt lat="49.45498" lon="2.0669">
        <ele>186.8</ele>
        <time>2013-04-20T07:29:08.386Z</time>
      </trkpt>
      <trkpt lat="49.45488" lon="2.06693">
        <ele>161.6</ele>
        <time>2013-04-20T07:29:09.426Z</time>
      </trkpt>
      <trkpt lat="49.45498" lon="2.06684">
        <ele>172.1</ele>
        <time>2013-04-20T07:29:10.390Z</time>
      </trkpt>
      <trkpt lat="49.45494" lon="2.0668">
        <ele>170.7</ele>
        <time>2013-04-20T07:29:13.404Z</time>
      </trkpt>
      <trkpt lat="49.45493" lon="2.06675">
        <ele>172.3</ele>
        <time>2013-04-20T07:29:14.392Z</time>
      </trkpt>
      <trkpt lat="49.45496" lon="2.06672">
        <ele>175.3</ele>
        <time>2013-04-20T07:29:16.395Z</time>
      </trkpt>
      <trkpt lat="49.45497" lon="2.0667">
        <ele>178.1</ele>
        <time>2013-04-20T07:29:17.395Z</time>
      </trkpt>
      <trkpt lat="49.45496" lon="2.06667">
        <ele>178.6</ele>
        <time>2013-04-20T07:29:19.587Z</time>
      </trkpt>
      <trkpt lat="49.45464" lon="2.06645">
        <ele>137</ele>
        <time>2013-04-20T07:29:20.401Z</time>
      </trkpt>
      <trkpt lat="49.45464" lon="2.06644">
        <ele>135.9</ele>
        <time>2013-04-20T07:29:21.395Z</time>
      </trkpt>
      <trkpt lat="49.45471" lon="2.06648">
        <ele>145.5</ele>
        <time>2013-04-20T07:29:22.434Z</time>
      </trkpt>
      <trkpt lat="49.45472" lon="2.06649">
        <ele>149.8</ele>
        <time>2013-04-20T07:29:23.392Z</time>
      </trkpt>
      <trkpt lat="49.45475" lon="2.06652">
        <ele>151.9</ele>
        <time>2013-04-20T07:29:24.401Z</time>
      </trkpt>
      <trkpt lat="49.45477" lon="2.06653">
        <ele>154.2</ele>
        <time>2013-04-20T07:29:26.390Z</time>
      </trkpt>
      <trkpt lat="49.4548" lon="2.06653">
        <ele>156.6</ele>
        <time>2013-04-20T07:29:27.404Z</time>
      </trkpt>
      <trkpt lat="49.45483" lon="2.06649">
        <ele>163.2</ele>
        <time>2013-04-20T07:29:30.585Z</time>
      </trkpt>
      <trkpt lat="49.4553" lon="2.0664">
        <ele>182.7</ele>
        <time>2013-04-20T07:29:31.413Z</time>
      </trkpt>
      <trkpt lat="49.45519" lon="2.06641">
        <ele>182.7</ele>
        <time>2013-04-20T07:29:32.402Z</time>
      </trkpt>
      <trkpt lat="49.45518" lon="2.06636">
        <ele>182.6</ele>
        <time>2013-04-20T07:29:35.396Z</time>
      </trkpt>
      <trkpt lat="49.45533" lon="2.06623">
        <ele>183.7</ele>
        <time>2013-04-20T07:29:37.525Z</time>
      </trkpt>
      <trkpt lat="49.45535" lon="2.0662">
        <ele>191.1</ele>
        <time>2013-04-20T07:29:38.421Z</time>
      </trkpt>
      <trkpt lat="49.45523" lon="2.06624">
        <ele>177.7</ele>
        <time>2013-04-20T07:29:39.403Z</time>
      </trkpt>
      <trkpt lat="49.45523" lon="2.06619">
        <ele>174.4</ele>
        <time>2013-04-20T07:29:44.389Z</time>
      </trkpt>
      <trkpt lat="49.45518" lon="2.06619">
        <ele>168.2</ele>
        <time>2013-04-20T07:29:45.389Z</time>
      </trkpt>
      <trkpt lat="49.45523" lon="2.06617">
        <ele>175</ele>
        <time>2013-04-20T07:29:46.398Z</time>
      </trkpt>
      <trkpt lat="49.45526" lon="2.06614">
        <ele>177.2</ele>
        <time>2013-04-20T07:29:48.389Z</time>
      </trkpt>
      <trkpt lat="49.45528" lon="2.06613">
        <ele>177.1</ele>
        <time>2013-04-20T07:29:49.381Z</time>
      </trkpt>
      <trkpt lat="49.45529" lon="2.06611">
        <ele>174.5</ele>
        <time>2013-04-20T07:29:52.495Z</time>
      </trkpt>
      <trkpt lat="49.45523" lon="2.06596">
        <ele>180.3</ele>
        <time>2013-04-20T07:29:53.398Z</time>
      </trkpt>
      <trkpt lat="49.45523" lon="2.06595">
        <ele>179.1</ele>
        <time>2013-04-20T07:29:57.395Z</time>
      </trkpt>
      <trkpt lat="49.45557" lon="2.06598">
        <ele>217.6</ele>
        <time>2013-04-20T07:29:58.389Z</time>
      </trkpt>
      <trkpt lat="49.45549" lon="2.06597">
        <ele>195.8</ele>
        <time>2013-04-20T07:29:59.387Z</time>
      </trkpt>
      <trkpt lat="49.45546" lon="2.06596">
        <ele>187</ele>
        <time>2013-04-20T07:30:02.397Z</time>
      </trkpt>
      <trkpt lat="49.45544" lon="2.06595">
        <ele>183.8</ele>
        <time>2013-04-20T07:30:03.396Z</time>
      </trkpt>
      <trkpt lat="49.45543" lon="2.0659">
        <ele>178.2</ele>
        <time>2013-04-20T07:30:07.386Z</time>
      </trkpt>
      <trkpt lat="49.45543" lon="2.06589">
        <ele>180.9</ele>
        <time>2013-04-20T07:30:08.385Z</time>
      </trkpt>
      <trkpt lat="49.45506" lon="2.06593">
        <ele>148.9</ele>
        <time>2013-04-20T07:30:09.388Z</time>
      </trkpt>
      <trkpt lat="49.45521" lon="2.06582">
        <ele>154.3</ele>
        <time>2013-04-20T07:30:10.412Z</time>
      </trkpt>
      <trkpt lat="49.45524" lon="2.06581">
        <ele>156.7</ele>
        <time>2013-04-20T07:30:12.443Z</time>
      </trkpt>
      <trkpt lat="49.4553" lon="2.06579">
        <ele>161.7</ele>
        <time>2013-04-20T07:30:13.392Z</time>
      </trkpt>
      <trkpt lat="49.45532" lon="2.06576">
        <ele>165.3</ele>
        <time>2013-04-20T07:30:15.387Z</time>
      </trkpt>
      <trkpt lat="49.45534" lon="2.06573">
        <ele>170.5</ele>
        <time>2013-04-20T07:30:16.396Z</time>
      </trkpt>
      <trkpt lat="49.45534" lon="2.06569">
        <ele>172</ele>
        <time>2013-04-20T07:30:17.407Z</time>
      </trkpt>
      <trkpt lat="49.45538" lon="2.06568">
        <ele>171.4</ele>
        <time>2013-04-20T07:30:18.388Z</time>
      </trkpt>
      <trkpt lat="49.45541" lon="2.06566">
        <ele>172.8</ele>
        <time>2013-04-20T07:30:19.385Z</time>
      </trkpt>
      <trkpt lat="49.45543" lon="2.06567">
        <ele>172.1</ele>
        <time>2013-04-20T07:30:20.396Z</time>
      </trkpt>
      <trkpt lat="49.45535" lon="2.06545">
        <ele>158.5</ele>
        <time>2013-04-20T07:30:21.389Z</time>
      </trkpt>
      <trkpt lat="49.45541" lon="2.06549">
        <ele>158.7</ele>
        <time>2013-04-20T07:30:22.392Z</time>
      </trkpt>
      <trkpt lat="49.45542" lon="2.0655">
        <ele>159.8</ele>
        <time>2013-04-20T07:30:23.385Z</time>
      </trkpt>
      <trkpt lat="49.45545" lon="2.06552">
        <ele>161</ele>
        <time>2013-04-20T07:30:24.391Z</time>
      </trkpt>
      <trkpt lat="49.45549" lon="2.06554">
        <ele>162</ele>
        <time>2013-04-20T07:30:26.418Z</time>
      </trkpt>
      <trkpt lat="49.45551" lon="2.06554">
        <ele>163.5</ele>
        <time>2013-04-20T07:30:27.388Z</time>
      </trkpt>
      <trkpt lat="49.45554" lon="2.06553">
        <ele>166.6</ele>
        <time>2013-04-20T07:30:29.388Z</time>
      </trkpt>
      <trkpt lat="49.45555" lon="2.06552">
        <ele>166</ele>
        <time>2013-04-20T07:30:30.904Z</time>
      </trkpt>
      <trkpt lat="49.45555" lon="2.06551">
        <ele>166</ele>
        <time>2013-04-20T07:30:31.392Z</time>
      </trkpt>
      <trkpt lat="49.45578" lon="2.0655">
        <ele>158.7</ele>
        <time>2013-04-20T07:30:32.398Z</time>
      </trkpt>
      <trkpt lat="49.45573" lon="2.06551">
        <ele>170</ele>
        <time>2013-04-20T07:30:33.431Z</time>
      </trkpt>
      <trkpt lat="49.45573" lon="2.06549">
        <ele>165.6</ele>
        <time>2013-04-20T07:30:35.395Z</time>
      </trkpt>
      <trkpt lat="49.45579" lon="2.06548">
        <ele>171</ele>
        <time>2013-04-20T07:30:36.392Z</time>
      </trkpt>
      <trkpt lat="49.45582" lon="2.06543">
        <ele>170.3</ele>
        <time>2013-04-20T07:30:40.392Z</time>
      </trkpt>
      <trkpt lat="49.45584" lon="2.06541">
        <ele>173.6</ele>
        <time>2013-04-20T07:30:41.383Z</time>
      </trkpt>
      <trkpt lat="49.45587" lon="2.06536">
        <ele>186.5</ele>
        <time>2013-04-20T07:30:45.388Z</time>
      </trkpt>
      <trkpt lat="49.45575" lon="2.06529">
        <ele>165.1</ele>
        <time>2013-04-20T07:30:46.393Z</time>
      </trkpt>
      <trkpt lat="49.45577" lon="2.06523">
        <ele>161</ele>
        <time>2013-04-20T07:30:50.396Z</time>
      </trkpt>
      <trkpt lat="49.45574" lon="2.06522">
        <ele>158.9</ele>
        <time>2013-04-20T07:30:51.394Z</time>
      </trkpt>
      <trkpt lat="49.45577" lon="2.06523">
        <ele>159</ele>
        <time>2013-04-20T07:30:52.374Z</time>
      </trkpt>
      <trkpt lat="49.45602" lon="2.06533">
        <ele>177.3</ele>
        <time>2013-04-20T07:30:53.403Z</time>
      </trkpt>
      <trkpt lat="49.45603" lon="2.06532">
        <ele>176.8</ele>
        <time>2013-04-20T07:30:54.393Z</time>
      </trkpt>
      <trkpt lat="49.45597" lon="2.06525">
        <ele>172.1</ele>
        <time>2013-04-20T07:30:55.429Z</time>
      </trkpt>
      <trkpt lat="49.45589" lon="2.06518">
        <ele>166.9</ele>
        <time>2013-04-20T07:30:56.388Z</time>
      </trkpt>
      <trkpt lat="49.4559" lon="2.06516">
        <ele>165.1</ele>
        <time>2013-04-20T07:31:01.938Z</time>
      </trkpt>
      <trkpt lat="49.45579" lon="2.06498">
        <ele>157.8</ele>
        <time>2013-04-20T07:31:02.395Z</time>
      </trkpt>
      <trkpt lat="49.45579" lon="2.06499">
        <ele>158.1</ele>
        <time>2013-04-20T07:31:06.751Z</time>
      </trkpt>
      <trkpt lat="49.45625" lon="2.06508">
        <ele>198.3</ele>
        <time>2013-04-20T07:31:07.742Z</time>
      </trkpt>
      <trkpt lat="49.4562" lon="2.06506">
        <ele>193.8</ele>
        <time>2013-04-20T07:31:08.742Z</time>
      </trkpt>
      <trkpt lat="49.4561" lon="2.065">
        <ele>190.3</ele>
        <time>2013-04-20T07:31:09.740Z</time>
      </trkpt>
      <trkpt lat="49.45602" lon="2.06497">
        <ele>178</ele>
        <time>2013-04-20T07:31:10.738Z</time>
      </trkpt>
      <trkpt lat="49.45589" lon="2.06493">
        <ele>163.6</ele>
        <time>2013-04-20T07:31:11.742Z</time>
      </trkpt>
      <trkpt lat="49.45586" lon="2.06493">
        <ele>160.8</ele>
        <time>2013-04-20T07:31:15.745Z</time>
      </trkpt>
      <trkpt lat="49.45583" lon="2.06493">
        <ele>157.9</ele>
        <time>2013-04-20T07:31:16.744Z</time>
      </trkpt>
      <trkpt lat="49.45593" lon="2.06507">
        <ele>161</ele>
        <time>2013-04-20T07:31:17.738Z</time>
      </trkpt>
      <trkpt lat="49.45587" lon="2.06494">
        <ele>168.8</ele>
        <time>2013-04-20T07:31:18.747Z</time>
      </trkpt>
      <trkpt lat="49.45584" lon="2.06494">
        <ele>167.8</ele>
        <time>2013-04-20T07:31:19.747Z</time>
      </trkpt>
      <trkpt lat="49.45581" lon="2.06487">
        <ele>170.8</ele>
        <time>2013-04-20T07:31:20.748Z</time>
      </trkpt>
      <trkpt lat="49.4558" lon="2.06483">
        <ele>169.9</ele>
        <time>2013-04-20T07:31:21.740Z</time>
      </trkpt>
      <trkpt lat="49.45573" lon="2.0648">
        <ele>162.7</ele>
        <time>2013-04-20T07:31:22.753Z</time>
      </trkpt>
      <trkpt lat="49.45572" lon="2.06477">
        <ele>157.7</ele>
        <time>2013-04-20T07:31:28.754Z</time>
      </trkpt>
      <trkpt lat="49.45562" lon="2.0647">
        <ele>149.1</ele>
        <time>2013-04-20T07:31:29.733Z</time>
      </trkpt>
      <trkpt lat="49.45562" lon="2.06466">
        <ele>146.7</ele>
        <time>2013-04-20T07:31:34.935Z</time>
      </trkpt>
      <trkpt lat="49.45587" lon="2.06508">
        <ele>92.6</ele>
        <time>2013-04-20T07:31:35.745Z</time>
      </trkpt>
      <trkpt lat="49.45573" lon="2.06487">
        <ele>125.6</ele>
        <time>2013-04-20T07:31:36.737Z</time>
      </trkpt>
      <trkpt lat="49.45573" lon="2.06485">
        <ele>128.5</ele>
        <time>2013-04-20T07:31:37.735Z</time>
      </trkpt>
      <trkpt lat="49.4557" lon="2.06481">
        <ele>133.6</ele>
        <time>2013-04-20T07:31:38.742Z</time>
      </trkpt>
      <trkpt lat="49.45569" lon="2.06478">
        <ele>135.2</ele>
        <time>2013-04-20T07:31:40.738Z</time>
      </trkpt>
      <trkpt lat="49.45567" lon="2.06464">
        <ele>146.5</ele>
        <time>2013-04-20T07:31:41.735Z</time>
      </trkpt>
      <trkpt lat="49.45572" lon="2.06466">
        <ele>136.2</ele>
        <time>2013-04-20T07:31:42.742Z</time>
      </trkpt>
      <trkpt lat="49.45575" lon="2.06459">
        <ele>135.5</ele>
        <time>2013-04-20T07:31:43.740Z</time>
      </trkpt>
      <trkpt lat="49.45576" lon="2.0646">
        <ele>134.2</ele>
        <time>2013-04-20T07:31:44.745Z</time>
      </trkpt>
      <trkpt lat="49.4558" lon="2.06462">
        <ele>129.2</ele>
        <time>2013-04-20T07:31:45.753Z</time>
      </trkpt>
      <trkpt lat="49.45582" lon="2.06459">
        <ele>129.6</ele>
        <time>2013-04-20T07:31:47.809Z</time>
      </trkpt>
      <trkpt lat="49.45587" lon="2.06455">
        <ele>117.9</ele>
        <time>2013-04-20T07:31:48.740Z</time>
      </trkpt>
      <trkpt lat="49.45586" lon="2.06451">
        <ele>123.8</ele>
        <time>2013-04-20T07:31:50.740Z</time>
      </trkpt>
      <trkpt lat="49.45584" lon="2.06437">
        <ele>137.3</ele>
        <time>2013-04-20T07:31:51.740Z</time>
      </trkpt>
      <trkpt lat="49.45588" lon="2.06434">
        <ele>136.6</ele>
        <time>2013-04-20T07:31:53.742Z</time>
      </trkpt>
      <trkpt lat="49.45589" lon="2.06432">
        <ele>138.9</ele>
        <time>2013-04-20T07:31:54.739Z</time>
      </trkpt>
      <trkpt lat="49.45592" lon="2.06428">
        <ele>139.6</ele>
        <time>2013-04-20T07:31:57.772Z</time>
      </trkpt>
      <trkpt lat="49.45593" lon="2.06428">
        <ele>139.5</ele>
        <time>2013-04-20T07:31:58.741Z</time>
      </trkpt>
      <trkpt lat="49.45594" lon="2.06427">
        <ele>140.1</ele>
        <time>2013-04-20T07:31:59.729Z</time>
      </trkpt>
      <trkpt lat="49.45584" lon="2.06409">
        <ele>144.8</ele>
        <time>2013-04-20T07:32:00.746Z</time>
      </trkpt>
      <trkpt lat="49.4559" lon="2.06412">
        <ele>142.1</ele>
        <time>2013-04-20T07:32:01.748Z</time>
      </trkpt>
      <trkpt lat="49.45594" lon="2.06413">
        <ele>143.1</ele>
        <time>2013-04-20T07:32:03.734Z</time>
      </trkpt>
      <trkpt lat="49.45597" lon="2.06414">
        <ele>141</ele>
        <time>2013-04-20T07:32:04.748Z</time>
      </trkpt>
      <trkpt lat="49.45601" lon="2.06413">
        <ele>138.3</ele>
        <time>2013-04-20T07:32:06.734Z</time>
      </trkpt>
      <trkpt lat="49.45602" lon="2.06414">
        <ele>136.3</ele>
        <time>2013-04-20T07:32:07.728Z</time>
      </trkpt>
      <trkpt lat="49.45606" lon="2.06411">
        <ele>134.1</ele>
        <time>2013-04-20T07:32:11.728Z</time>
      </trkpt>
      <trkpt lat="49.45606" lon="2.0641">
        <ele>134.4</ele>
        <time>2013-04-20T07:32:12.740Z</time>
      </trkpt>
      <trkpt lat="49.45603" lon="2.06414">
        <ele>126.7</ele>
        <time>2013-04-20T07:32:13.746Z</time>
      </trkpt>
      <trkpt lat="49.45607" lon="2.06412">
        <ele>126</ele>
        <time>2013-04-20T07:32:14.729Z</time>
      </trkpt>
      <trkpt lat="49.45609" lon="2.0641">
        <ele>125.9</ele>
        <time>2013-04-20T07:32:15.747Z</time>
      </trkpt>
      <trkpt lat="49.45612" lon="2.06406">
        <ele>127.8</ele>
        <time>2013-04-20T07:32:18.733Z</time>
      </trkpt>
      <trkpt lat="49.45613" lon="2.06406">
        <ele>129.2</ele>
        <time>2013-04-20T07:32:19.787Z</time>
      </trkpt>
      <trkpt lat="49.45616" lon="2.06401">
        <ele>133</ele>
        <time>2013-04-20T07:32:22.944Z</time>
      </trkpt>
      <trkpt lat="49.45628" lon="2.0642">
        <ele>133.4</ele>
        <time>2013-04-20T07:32:23.748Z</time>
      </trkpt>
      <trkpt lat="49.45628" lon="2.06417">
        <ele>128.1</ele>
        <time>2013-04-20T07:32:24.736Z</time>
      </trkpt>
      <trkpt lat="49.45618" lon="2.06429">
        <ele>108.9</ele>
        <time>2013-04-20T07:32:25.739Z</time>
      </trkpt>
      <trkpt lat="49.45617" lon="2.06418">
        <ele>113.9</ele>
        <time>2013-04-20T07:32:26.728Z</time>
      </trkpt>
      <trkpt lat="49.45626" lon="2.06418">
        <ele>123.5</ele>
        <time>2013-04-20T07:32:27.748Z</time>
      </trkpt>
      <trkpt lat="49.45626" lon="2.06418">
        <ele>124.4</ele>
        <time>2013-04-20T07:32:28.739Z</time>
      </trkpt>
      <trkpt lat="49.45629" lon="2.0641">
        <ele>129.8</ele>
        <time>2013-04-20T07:32:29.735Z</time>
      </trkpt>
      <trkpt lat="49.4563" lon="2.06407">
        <ele>130.4</ele>
        <time>2013-04-20T07:32:30.735Z</time>
      </trkpt>
      <trkpt lat="49.45632" lon="2.06401">
        <ele>132.8</ele>
        <time>2013-04-20T07:32:31.748Z</time>
      </trkpt>
      <trkpt lat="49.45633" lon="2.06398">
        <ele>132</ele>
        <time>2013-04-20T07:32:33.738Z</time>
      </trkpt>
      <trkpt lat="49.45625" lon="2.06393">
        <ele>117.2</ele>
        <time>2013-04-20T07:32:35.453Z</time>
      </trkpt>
      <trkpt lat="49.45626" lon="2.06386">
        <ele>129.8</ele>
        <time>2013-04-20T07:32:38.779Z</time>
      </trkpt>
      <trkpt lat="49.45613" lon="2.06395">
        <ele>163.7</ele>
        <time>2013-04-20T07:32:39.741Z</time>
      </trkpt>
      <trkpt lat="49.45613" lon="2.06387">
        <ele>157.9</ele>
        <time>2013-04-20T07:32:40.736Z</time>
      </trkpt>
      <trkpt lat="49.45611" lon="2.06382">
        <ele>158.3</ele>
        <time>2013-04-20T07:32:41.737Z</time>
      </trkpt>
      <trkpt lat="49.45611" lon="2.06379">
        <ele>156.8</ele>
        <time>2013-04-20T07:32:42.746Z</time>
      </trkpt>
      <trkpt lat="49.45612" lon="2.06373">
        <ele>154.6</ele>
        <time>2013-04-20T07:32:45.751Z</time>
      </trkpt>
      <trkpt lat="49.45615" lon="2.06372">
        <ele>150.6</ele>
        <time>2013-04-20T07:32:46.747Z</time>
      </trkpt>
      <trkpt lat="49.45623" lon="2.06372">
        <ele>139.6</ele>
        <time>2013-04-20T07:32:47.743Z</time>
      </trkpt>
      <trkpt lat="49.45623" lon="2.0637">
        <ele>139.3</ele>
        <time>2013-04-20T07:32:49.436Z</time>
      </trkpt>
      <trkpt lat="49.45625" lon="2.06345">
        <ele>159.7</ele>
        <time>2013-04-20T07:32:49.747Z</time>
      </trkpt>
      <trkpt lat="49.45632" lon="2.06358">
        <ele>148.5</ele>
        <time>2013-04-20T07:32:50.755Z</time>
      </trkpt>
      <trkpt lat="49.45638" lon="2.06364">
        <ele>147.7</ele>
        <time>2013-04-20T07:32:51.739Z</time>
      </trkpt>
      <trkpt lat="49.45637" lon="2.0637">
        <ele>129.6</ele>
        <time>2013-04-20T07:32:52.732Z</time>
      </trkpt>
      <trkpt lat="49.45636" lon="2.0637">
        <ele>123</ele>
        <time>2013-04-20T07:32:53.746Z</time>
      </trkpt>
      <trkpt lat="49.45636" lon="2.06366">
        <ele>127.7</ele>
        <time>2013-04-20T07:32:54.753Z</time>
      </trkpt>
      <trkpt lat="49.45639" lon="2.06361">
        <ele>131.1</ele>
        <time>2013-04-20T07:32:55.736Z</time>
      </trkpt>
      <trkpt lat="49.45641" lon="2.06381">
        <ele>141.5</ele>
        <time>2013-04-20T07:32:56.733Z</time>
      </trkpt>
      <trkpt lat="49.45634" lon="2.06367">
        <ele>140.1</ele>
        <time>2013-04-20T07:32:57.754Z</time>
      </trkpt>
      <trkpt lat="49.45632" lon="2.0636">
        <ele>140.8</ele>
        <time>2013-04-20T07:32:58.744Z</time>
      </trkpt>
      <trkpt lat="49.4563" lon="2.06358">
        <ele>139.5</ele>
        <time>2013-04-20T07:32:59.733Z</time>
      </trkpt>
      <trkpt lat="49.45629" lon="2.06355">
        <ele>138.1</ele>
        <time>2013-04-20T07:33:00.735Z</time>
      </trkpt>
      <trkpt lat="49.4564" lon="2.06358">
        <ele>133.4</ele>
        <time>2013-04-20T07:33:01.738Z</time>
      </trkpt>
      <trkpt lat="49.45634" lon="2.0635">
        <ele>136.3</ele>
        <time>2013-04-20T07:33:02.739Z</time>
      </trkpt>
      <trkpt lat="49.45633" lon="2.06344">
        <ele>134.2</ele>
        <time>2013-04-20T07:33:04.714Z</time>
      </trkpt>
      <trkpt lat="49.45632" lon="2.06342">
        <ele>134.1</ele>
        <time>2013-04-20T07:33:05.747Z</time>
      </trkpt>
      <trkpt lat="49.4563" lon="2.0634">
        <ele>136.1</ele>
        <time>2013-04-20T07:33:06.934Z</time>
      </trkpt>
      <trkpt lat="49.45629" lon="2.06321">
        <ele>123.8</ele>
        <time>2013-04-20T07:33:07.738Z</time>
      </trkpt>
      <trkpt lat="49.45629" lon="2.06331">
        <ele>127.4</ele>
        <time>2013-04-20T07:33:08.740Z</time>
      </trkpt>
      <trkpt lat="49.45626" lon="2.06327">
        <ele>131.3</ele>
        <time>2013-04-20T07:33:11.737Z</time>
      </trkpt>
      <trkpt lat="49.45625" lon="2.06327">
        <ele>131.4</ele>
        <time>2013-04-20T07:33:12.742Z</time>
      </trkpt>
      <trkpt lat="49.45625" lon="2.06321">
        <ele>131.1</ele>
        <time>2013-04-20T07:33:15.729Z</time>
      </trkpt>
      <trkpt lat="49.45619" lon="2.06315">
        <ele>151.5</ele>
        <time>2013-04-20T07:33:16.746Z</time>
      </trkpt>
      <trkpt lat="49.45621" lon="2.06314">
        <ele>144.2</ele>
        <time>2013-04-20T07:33:18.735Z</time>
      </trkpt>
      <trkpt lat="49.45611" lon="2.06306">
        <ele>126.6</ele>
        <time>2013-04-20T07:33:19.746Z</time>
      </trkpt>
      <trkpt lat="49.45622" lon="2.06311">
        <ele>128.4</ele>
        <time>2013-04-20T07:33:20.752Z</time>
      </trkpt>
      <trkpt lat="49.45622" lon="2.06305">
        <ele>129.2</ele>
        <time>2013-04-20T07:33:26.735Z</time>
      </trkpt>
      <trkpt lat="49.45622" lon="2.06303">
        <ele>130.2</ele>
        <time>2013-04-20T07:33:27.749Z</time>
      </trkpt>
      <trkpt lat="49.45621" lon="2.06302">
        <ele>128.5</ele>
        <time>2013-04-20T07:33:28.920Z</time>
      </trkpt>
      <trkpt lat="49.45627" lon="2.06299">
        <ele>119.3</ele>
        <time>2013-04-20T07:33:29.739Z</time>
      </trkpt>
      <trkpt lat="49.45625" lon="2.06294">
        <ele>121.1</ele>
        <time>2013-04-20T07:33:33.736Z</time>
      </trkpt>
      <trkpt lat="49.45625" lon="2.06292">
        <ele>121.5</ele>
        <time>2013-04-20T07:33:34.744Z</time>
      </trkpt>
      <trkpt lat="49.45626" lon="2.06292">
        <ele>119.6</ele>
        <time>2013-04-20T07:33:35.736Z</time>
      </trkpt>
      <trkpt lat="49.45624" lon="2.06307">
        <ele>127</ele>
        <time>2013-04-20T07:33:36.736Z</time>
      </trkpt>
      <trkpt lat="49.45623" lon="2.06308">
        <ele>124.8</ele>
        <time>2013-04-20T07:33:37.732Z</time>
      </trkpt>
      <trkpt lat="49.45611" lon="2.06264">
        <ele>151.8</ele>
        <time>2013-04-20T07:33:38.753Z</time>
      </trkpt>
      <trkpt lat="49.45612" lon="2.06265">
        <ele>149</ele>
        <time>2013-04-20T07:33:40.732Z</time>
      </trkpt>
      <trkpt lat="49.45612" lon="2.06271">
        <ele>143.3</ele>
        <time>2013-04-20T07:33:41.934Z</time>
      </trkpt>
      <trkpt lat="49.45616" lon="2.06287">
        <ele>116.5</ele>
        <time>2013-04-20T07:33:42.748Z</time>
      </trkpt>
      <trkpt lat="49.45613" lon="2.06282">
        <ele>122</ele>
        <time>2013-04-20T07:33:44.940Z</time>
      </trkpt>
      <trkpt lat="49.45626" lon="2.0629">
        <ele>116.9</ele>
        <time>2013-04-20T07:33:45.898Z</time>
      </trkpt>
      <trkpt lat="49.45603" lon="2.06285">
        <ele>116.7</ele>
        <time>2013-04-20T07:33:46.745Z</time>
      </trkpt>
      <trkpt lat="49.45602" lon="2.06284">
        <ele>116.4</ele>
        <time>2013-04-20T07:33:47.739Z</time>
      </trkpt>
      <trkpt lat="49.45606" lon="2.06276">
        <ele>119.7</ele>
        <time>2013-04-20T07:33:48.733Z</time>
      </trkpt>
      <trkpt lat="49.45606" lon="2.06274">
        <ele>121.2</ele>
        <time>2013-04-20T07:33:51.934Z</time>
      </trkpt>
      <trkpt lat="49.45607" lon="2.06257">
        <ele>137.5</ele>
        <time>2013-04-20T07:33:52.799Z</time>
      </trkpt>
      <trkpt lat="49.45608" lon="2.06261">
        <ele>131.6</ele>
        <time>2013-04-20T07:33:54.869Z</time>
      </trkpt>
      <trkpt lat="49.45626" lon="2.06265">
        <ele>138.3</ele>
        <time>2013-04-20T07:33:55.738Z</time>
      </trkpt>
      <trkpt lat="49.45619" lon="2.06273">
        <ele>132.6</ele>
        <time>2013-04-20T07:33:56.726Z</time>
      </trkpt>
      <trkpt lat="49.45617" lon="2.06266">
        <ele>131.3</ele>
        <time>2013-04-20T07:33:57.748Z</time>
      </trkpt>
      <trkpt lat="49.45618" lon="2.06264">
        <ele>128.8</ele>
        <time>2013-04-20T07:33:58.755Z</time>
      </trkpt>
      <trkpt lat="49.45614" lon="2.0626">
        <ele>120.2</ele>
        <time>2013-04-20T07:34:00.733Z</time>
      </trkpt>
      <trkpt lat="49.45614" lon="2.06259">
        <ele>118.4</ele>
        <time>2013-04-20T07:34:01.743Z</time>
      </trkpt>
      <trkpt lat="49.45613" lon="2.06255">
        <ele>116.7</ele>
        <time>2013-04-20T07:34:06.939Z</time>
      </trkpt>
      <trkpt lat="49.45605" lon="2.06251">
        <ele>114.9</ele>
        <time>2013-04-20T07:34:07.737Z</time>
      </trkpt>
      <trkpt lat="49.45601" lon="2.06252">
        <ele>118.2</ele>
        <time>2013-04-20T07:34:08.729Z</time>
      </trkpt>
      <trkpt lat="49.45604" lon="2.06222">
        <ele>160.2</ele>
        <time>2013-04-20T07:34:09.744Z</time>
      </trkpt>
      <trkpt lat="49.45608" lon="2.0623">
        <ele>139.1</ele>
        <time>2013-04-20T07:34:10.746Z</time>
      </trkpt>
      <trkpt lat="49.45608" lon="2.0623">
        <ele>116.6</ele>
        <time>2013-04-20T07:34:16.749Z</time>
      </trkpt>
      <trkpt lat="49.45614" lon="2.06244">
        <ele>91.5</ele>
        <time>2013-04-20T07:34:17.748Z</time>
      </trkpt>
      <trkpt lat="49.45613" lon="2.0624">
        <ele>94.2</ele>
        <time>2013-04-20T07:34:20.742Z</time>
      </trkpt>
      <trkpt lat="49.45609" lon="2.06234">
        <ele>99.8</ele>
        <time>2013-04-20T07:34:21.756Z</time>
      </trkpt>
      <trkpt lat="49.45601" lon="2.06203">
        <ele>128</ele>
        <time>2013-04-20T07:34:22.728Z</time>
      </trkpt>
      <trkpt lat="49.45605" lon="2.06206">
        <ele>121.5</ele>
        <time>2013-04-20T07:34:23.728Z</time>
      </trkpt>
      <trkpt lat="49.45607" lon="2.06208">
        <ele>117.6</ele>
        <time>2013-04-20T07:34:26.877Z</time>
      </trkpt>
      <trkpt lat="49.45572" lon="2.06176">
        <ele>151.1</ele>
        <time>2013-04-20T07:34:27.746Z</time>
      </trkpt>
      <trkpt lat="49.45583" lon="2.06189">
        <ele>142.1</ele>
        <time>2013-04-20T07:34:28.751Z</time>
      </trkpt>
      <trkpt lat="49.45593" lon="2.06197">
        <ele>128.7</ele>
        <time>2013-04-20T07:34:29.742Z</time>
      </trkpt>
      <trkpt lat="49.45594" lon="2.06195">
        <ele>130.5</ele>
        <time>2013-04-20T07:34:31.751Z</time>
      </trkpt>
      <trkpt lat="49.45597" lon="2.06194">
        <ele>128.5</ele>
        <time>2013-04-20T07:34:32.735Z</time>
      </trkpt>
      <trkpt lat="49.45599" lon="2.06189">
        <ele>119.2</ele>
        <time>2013-04-20T07:34:37.732Z</time>
      </trkpt>
      <trkpt lat="49.45597" lon="2.06187">
        <ele>120.3</ele>
        <time>2013-04-20T07:34:38.735Z</time>
      </trkpt>
      <trkpt lat="49.45599" lon="2.06181">
        <ele>122.9</ele>
        <time>2013-04-20T07:34:41.731Z</time>
      </trkpt>
      <trkpt lat="49.45587" lon="2.0617">
        <ele>147.8</ele>
        <time>2013-04-20T07:34:42.731Z</time>
      </trkpt>
      <trkpt lat="49.4559" lon="2.0617">
        <ele>141</ele>
        <time>2013-04-20T07:34:43.740Z</time>
      </trkpt>
      <trkpt lat="49.45592" lon="2.06169">
        <ele>136.7</ele>
        <time>2013-04-20T07:34:44.803Z</time>
      </trkpt>
      <trkpt lat="49.45606" lon="2.06171">
        <ele>105</ele>
        <time>2013-04-20T07:34:46.058Z</time>
      </trkpt>
      <trkpt lat="49.45594" lon="2.06158">
        <ele>109.4</ele>
        <time>2013-04-20T07:34:46.772Z</time>
      </trkpt>
      <trkpt lat="49.45593" lon="2.06166">
        <ele>121.5</ele>
        <time>2013-04-20T07:34:47.741Z</time>
      </trkpt>
      <trkpt lat="49.45593" lon="2.06161">
        <ele>122.4</ele>
        <time>2013-04-20T07:34:51.933Z</time>
      </trkpt>
      <trkpt lat="49.4559" lon="2.06158">
        <ele>116.3</ele>
        <time>2013-04-20T07:34:52.735Z</time>
      </trkpt>
      <trkpt lat="49.45589" lon="2.06155">
        <ele>124.7</ele>
        <time>2013-04-20T07:34:54.939Z</time>
      </trkpt>
      <trkpt lat="49.456" lon="2.06153">
        <ele>125.4</ele>
        <time>2013-04-20T07:34:56.236Z</time>
      </trkpt>
      <trkpt lat="49.45605" lon="2.06145">
        <ele>111.2</ele>
        <time>2013-04-20T07:34:56.741Z</time>
      </trkpt>
      <trkpt lat="49.45602" lon="2.06148">
        <ele>119.2</ele>
        <time>2013-04-20T07:34:57.786Z</time>
      </trkpt>
      <trkpt lat="49.45597" lon="2.06143">
        <ele>127.1</ele>
        <time>2013-04-20T07:34:58.746Z</time>
      </trkpt>
      <trkpt lat="49.45596" lon="2.06138">
        <ele>129</ele>
        <time>2013-04-20T07:35:01.743Z</time>
      </trkpt>
      <trkpt lat="49.45595" lon="2.06137">
        <ele>128.3</ele>
        <time>2013-04-20T07:35:02.738Z</time>
      </trkpt>
      <trkpt lat="49.45595" lon="2.06134">
        <ele>129.7</ele>
        <time>2013-04-20T07:35:04.733Z</time>
      </trkpt>
      <trkpt lat="49.45604" lon="2.06163">
        <ele>98.7</ele>
        <time>2013-04-20T07:35:05.737Z</time>
      </trkpt>
      <trkpt lat="49.45597" lon="2.06147">
        <ele>109.7</ele>
        <time>2013-04-20T07:35:06.737Z</time>
      </trkpt>
      <trkpt lat="49.45597" lon="2.0614">
        <ele>111.4</ele>
        <time>2013-04-20T07:35:08.744Z</time>
      </trkpt>
      <trkpt lat="49.45597" lon="2.06136">
        <ele>112.7</ele>
        <time>2013-04-20T07:35:09.743Z</time>
      </trkpt>
      <trkpt lat="49.45595" lon="2.06132">
        <ele>115.5</ele>
        <time>2013-04-20T07:35:10.747Z</time>
      </trkpt>
      <trkpt lat="49.45593" lon="2.06128">
        <ele>118</ele>
        <time>2013-04-20T07:35:11.733Z</time>
      </trkpt>
      <trkpt lat="49.45586" lon="2.06123">
        <ele>132.2</ele>
        <time>2013-04-20T07:35:12.714Z</time>
      </trkpt>
      <trkpt lat="49.45592" lon="2.06118">
        <ele>126</ele>
        <time>2013-04-20T07:35:13.721Z</time>
      </trkpt>
      <trkpt lat="49.45605" lon="2.06121">
        <ele>119</ele>
        <time>2013-04-20T07:35:15.338Z</time>
      </trkpt>
      <trkpt lat="49.45589" lon="2.06102">
        <ele>133.9</ele>
        <time>2013-04-20T07:35:15.737Z</time>
      </trkpt>
      <trkpt lat="49.45591" lon="2.06099">
        <ele>124.5</ele>
        <time>2013-04-20T07:35:21.737Z</time>
      </trkpt>
      <trkpt lat="49.4558" lon="2.06121">
        <ele>116.1</ele>
        <time>2013-04-20T07:35:22.744Z</time>
      </trkpt>
      <trkpt lat="49.45583" lon="2.06107">
        <ele>120.6</ele>
        <time>2013-04-20T07:35:23.755Z</time>
      </trkpt>
      <trkpt lat="49.45586" lon="2.06099">
        <ele>122.8</ele>
        <time>2013-04-20T07:35:24.735Z</time>
      </trkpt>
      <trkpt lat="49.45587" lon="2.06094">
        <ele>120.1</ele>
        <time>2013-04-20T07:35:27.724Z</time>
      </trkpt>
      <trkpt lat="49.45585" lon="2.06092">
        <ele>122</ele>
        <time>2013-04-20T07:35:28.876Z</time>
      </trkpt>
      <trkpt lat="49.45584" lon="2.06086">
        <ele>122.5</ele>
        <time>2013-04-20T07:35:30.718Z</time>
      </trkpt>
      <trkpt lat="49.45582" lon="2.06081">
        <ele>125.4</ele>
        <time>2013-04-20T07:35:31.719Z</time>
      </trkpt>
      <trkpt lat="49.45583" lon="2.06079">
        <ele>125.3</ele>
        <time>2013-04-20T07:35:32.750Z</time>
      </trkpt>
      <trkpt lat="49.45604" lon="2.06076">
        <ele>133.2</ele>
        <time>2013-04-20T07:35:33.740Z</time>
      </trkpt>
      <trkpt lat="49.45607" lon="2.06074">
        <ele>121.4</ele>
        <time>2013-04-20T07:35:39.752Z</time>
      </trkpt>
      <trkpt lat="49.45589" lon="2.06077">
        <ele>103.8</ele>
        <time>2013-04-20T07:35:40.755Z</time>
      </trkpt>
      <trkpt lat="49.45593" lon="2.06077">
        <ele>99.5</ele>
        <time>2013-04-20T07:35:41.745Z</time>
      </trkpt>
      <trkpt lat="49.45599" lon="2.06074">
        <ele>104.4</ele>
        <time>2013-04-20T07:35:42.750Z</time>
      </trkpt>
      <trkpt lat="49.45602" lon="2.0607">
        <ele>106.9</ele>
        <time>2013-04-20T07:35:43.753Z</time>
      </trkpt>
      <trkpt lat="49.45603" lon="2.06069">
        <ele>106.8</ele>
        <time>2013-04-20T07:35:44.747Z</time>
      </trkpt>
      <trkpt lat="49.45604" lon="2.06067">
        <ele>106.2</ele>
        <time>2013-04-20T07:35:45.717Z</time>
      </trkpt>
      <trkpt lat="49.45595" lon="2.06058">
        <ele>113.1</ele>
        <time>2013-04-20T07:35:46.744Z</time>
      </trkpt>
      <trkpt lat="49.45601" lon="2.06057">
        <ele>107.8</ele>
        <time>2013-04-20T07:35:47.748Z</time>
      </trkpt>
      <trkpt lat="49.45587" lon="2.06047">
        <ele>108.6</ele>
        <time>2013-04-20T07:35:48.776Z</time>
      </trkpt>
      <trkpt lat="49.45592" lon="2.06046">
        <ele>113.9</ele>
        <time>2013-04-20T07:35:49.788Z</time>
      </trkpt>
      <trkpt lat="49.45592" lon="2.06045">
        <ele>113.9</ele>
        <time>2013-04-20T07:35:50.716Z</time>
      </trkpt>
      <trkpt lat="49.45596" lon="2.06049">
        <ele>110.9</ele>
        <time>2013-04-20T07:35:51.748Z</time>
      </trkpt>
      <trkpt lat="49.45593" lon="2.06046">
        <ele>114.4</ele>
        <time>2013-04-20T07:35:54.748Z</time>
      </trkpt>
      <trkpt lat="49.45592" lon="2.06043">
        <ele>116</ele>
        <time>2013-04-20T07:35:55.758Z</time>
      </trkpt>
      <trkpt lat="49.45595" lon="2.06039">
        <ele>116.1</ele>
        <time>2013-04-20T07:35:57.753Z</time>
      </trkpt>
      <trkpt lat="49.45592" lon="2.06025">
        <ele>110.9</ele>
        <time>2013-04-20T07:35:58.752Z</time>
      </trkpt>
      <trkpt lat="49.45593" lon="2.0602">
        <ele>119.6</ele>
        <time>2013-04-20T07:36:04.734Z</time>
      </trkpt>
      <trkpt lat="49.45593" lon="2.06018">
        <ele>117.3</ele>
        <time>2013-04-20T07:36:05.761Z</time>
      </trkpt>
      <trkpt lat="49.45596" lon="2.06014">
        <ele>115.8</ele>
        <time>2013-04-20T07:36:07.737Z</time>
      </trkpt>
      <trkpt lat="49.45603" lon="2.06029">
        <ele>145.4</ele>
        <time>2013-04-20T07:36:08.748Z</time>
      </trkpt>
      <trkpt lat="49.4561" lon="2.06036">
        <ele>131.9</ele>
        <time>2013-04-20T07:36:09.756Z</time>
      </trkpt>
      <trkpt lat="49.45614" lon="2.0604">
        <ele>125.5</ele>
        <time>2013-04-20T07:36:10.745Z</time>
      </trkpt>
      <trkpt lat="49.45619" lon="2.06041">
        <ele>125.5</ele>
        <time>2013-04-20T07:36:12.748Z</time>
      </trkpt>
      <trkpt lat="49.45619" lon="2.06033">
        <ele>123.8</ele>
        <time>2013-04-20T07:36:13.750Z</time>
      </trkpt>
      <trkpt lat="49.4561" lon="2.06023">
        <ele>111.3</ele>
        <time>2013-04-20T07:36:14.747Z</time>
      </trkpt>
      <trkpt lat="49.45612" lon="2.06017">
        <ele>108.4</ele>
        <time>2013-04-20T07:36:16.756Z</time>
      </trkpt>
      <trkpt lat="49.45613" lon="2.06015">
        <ele>109.1</ele>
        <time>2013-04-20T07:36:17.752Z</time>
      </trkpt>
      <trkpt lat="49.45613" lon="2.0601">
        <ele>110.2</ele>
        <time>2013-04-20T07:36:18.812Z</time>
      </trkpt>
      <trkpt lat="49.45614" lon="2.06008">
        <ele>109.7</ele>
        <time>2013-04-20T07:36:19.736Z</time>
      </trkpt>
      <trkpt lat="49.45617" lon="2.06004">
        <ele>109.9</ele>
        <time>2013-04-20T07:36:22.738Z</time>
      </trkpt>
      <trkpt lat="49.45618" lon="2.06003">
        <ele>110.5</ele>
        <time>2013-04-20T07:36:23.741Z</time>
      </trkpt>
      <trkpt lat="49.45621" lon="2.06">
        <ele>112.8</ele>
        <time>2013-04-20T07:36:26.747Z</time>
      </trkpt>
      <trkpt lat="49.45613" lon="2.05978">
        <ele>110.8</ele>
        <time>2013-04-20T07:36:27.755Z</time>
      </trkpt>
      <trkpt lat="49.45616" lon="2.05982">
        <ele>110.2</ele>
        <time>2013-04-20T07:36:28.750Z</time>
      </trkpt>
      <trkpt lat="49.45617" lon="2.05982">
        <ele>111</ele>
        <time>2013-04-20T07:36:29.748Z</time>
      </trkpt>
      <trkpt lat="49.45619" lon="2.0598">
        <ele>113.5</ele>
        <time>2013-04-20T07:36:30.734Z</time>
      </trkpt>
      <trkpt lat="49.45628" lon="2.05976">
        <ele>111.5</ele>
        <time>2013-04-20T07:36:31.754Z</time>
      </trkpt>
      <trkpt lat="49.45631" lon="2.05978">
        <ele>114.8</ele>
        <time>2013-04-20T07:36:33.823Z</time>
      </trkpt>
      <trkpt lat="49.45635" lon="2.05976">
        <ele>118</ele>
        <time>2013-04-20T07:36:34.731Z</time>
      </trkpt>
      <trkpt lat="49.45638" lon="2.05978">
        <ele>120.5</ele>
        <time>2013-04-20T07:36:35.748Z</time>
      </trkpt>
      <trkpt lat="49.45641" lon="2.05979">
        <ele>121.4</ele>
        <time>2013-04-20T07:36:36.746Z</time>
      </trkpt>
      <trkpt lat="49.45643" lon="2.05982">
        <ele>122</ele>
        <time>2013-04-20T07:36:41.735Z</time>
      </trkpt>
      <trkpt lat="49.45647" lon="2.05981">
        <ele>122.2</ele>
        <time>2013-04-20T07:36:42.745Z</time>
      </trkpt>
      <trkpt lat="49.4565" lon="2.0604">
        <ele>102.5</ele>
        <time>2013-04-20T07:36:43.739Z</time>
      </trkpt>
      <trkpt lat="49.45654" lon="2.05996">
        <ele>112.9</ele>
        <time>2013-04-20T07:36:44.738Z</time>
      </trkpt>
      <trkpt lat="49.45657" lon="2.05991">
        <ele>118.1</ele>
        <time>2013-04-20T07:36:45.728Z</time>
      </trkpt>
      <trkpt lat="49.45658" lon="2.0599">
        <ele>118.8</ele>
        <time>2013-04-20T07:36:46.746Z</time>
      </trkpt>
      <trkpt lat="49.4566" lon="2.05988">
        <ele>117.6</ele>
        <time>2013-04-20T07:36:47.747Z</time>
      </trkpt>
      <trkpt lat="49.45662" lon="2.05984">
        <ele>120.9</ele>
        <time>2013-04-20T07:36:48.810Z</time>
      </trkpt>
      <trkpt lat="49.45664" lon="2.05982">
        <ele>123.2</ele>
        <time>2013-04-20T07:36:49.737Z</time>
      </trkpt>
      <trkpt lat="49.45666" lon="2.0598">
        <ele>124.8</ele>
        <time>2013-04-20T07:36:50.748Z</time>
      </trkpt>
      <trkpt lat="49.45661" lon="2.05982">
        <ele>116</ele>
        <time>2013-04-20T07:36:51.738Z</time>
      </trkpt>
      <trkpt lat="49.45665" lon="2.05979">
        <ele>118.2</ele>
        <time>2013-04-20T07:36:53.797Z</time>
      </trkpt>
      <trkpt lat="49.45666" lon="2.05979">
        <ele>115.7</ele>
        <time>2013-04-20T07:36:54.748Z</time>
      </trkpt>
      <trkpt lat="49.45669" lon="2.05975">
        <ele>112.4</ele>
        <time>2013-04-20T07:36:57.747Z</time>
      </trkpt>
      <trkpt lat="49.4567" lon="2.05974">
        <ele>113.7</ele>
        <time>2013-04-20T07:36:58.797Z</time>
      </trkpt>
      <trkpt lat="49.45677" lon="2.05985">
        <ele>112.1</ele>
        <time>2013-04-20T07:36:59.745Z</time>
      </trkpt>
      <trkpt lat="49.4567" lon="2.05961">
        <ele>124.4</ele>
        <time>2013-04-20T07:37:00.743Z</time>
      </trkpt>
      <trkpt lat="49.45668" lon="2.05953">
        <ele>117.1</ele>
        <time>2013-04-20T07:37:01.752Z</time>
      </trkpt>
      <trkpt lat="49.4567" lon="2.0596">
        <ele>112.6</ele>
        <time>2013-04-20T07:37:02.751Z</time>
      </trkpt>
      <trkpt lat="49.45673" lon="2.05965">
        <ele>111.6</ele>
        <time>2013-04-20T07:37:04.732Z</time>
      </trkpt>
      <trkpt lat="49.45675" lon="2.05963">
        <ele>109.8</ele>
        <time>2013-04-20T07:37:05.744Z</time>
      </trkpt>
      <trkpt lat="49.45679" lon="2.05963">
        <ele>105.5</ele>
        <time>2013-04-20T07:37:06.743Z</time>
      </trkpt>
      <trkpt lat="49.45679" lon="2.05963">
        <ele>110.7</ele>
        <time>2013-04-20T07:37:07.736Z</time>
      </trkpt>
      <trkpt lat="49.45671" lon="2.05923">
        <ele>109.7</ele>
        <time>2013-04-20T07:37:08.756Z</time>
      </trkpt>
      <trkpt lat="49.45678" lon="2.05937">
        <ele>113.2</ele>
        <time>2013-04-20T07:37:09.813Z</time>
      </trkpt>
      <trkpt lat="49.45681" lon="2.0594">
        <ele>113.3</ele>
        <time>2013-04-20T07:37:10.747Z</time>
      </trkpt>
      <trkpt lat="49.45682" lon="2.05946">
        <ele>112.1</ele>
        <time>2013-04-20T07:37:11.744Z</time>
      </trkpt>
      <trkpt lat="49.45683" lon="2.05947">
        <ele>112.5</ele>
        <time>2013-04-20T07:37:12.730Z</time>
      </trkpt>
      <trkpt lat="49.4569" lon="2.05951">
        <ele>110.4</ele>
        <time>2013-04-20T07:37:14.267Z</time>
      </trkpt>
      <trkpt lat="49.45692" lon="2.0596">
        <ele>125.5</ele>
        <time>2013-04-20T07:37:14.729Z</time>
      </trkpt>
      <trkpt lat="49.45695" lon="2.05956">
        <ele>116.5</ele>
        <time>2013-04-20T07:37:19.794Z</time>
      </trkpt>
      <trkpt lat="49.45696" lon="2.05956">
        <ele>116.7</ele>
        <time>2013-04-20T07:37:20.748Z</time>
      </trkpt>
      <trkpt lat="49.45698" lon="2.05952">
        <ele>115</ele>
        <time>2013-04-20T07:37:22.736Z</time>
      </trkpt>
      <trkpt lat="49.45699" lon="2.0595">
        <ele>114.7</ele>
        <time>2013-04-20T07:37:23.732Z</time>
      </trkpt>
      <trkpt lat="49.45702" lon="2.05949">
        <ele>114.1</ele>
        <time>2013-04-20T07:37:25.764Z</time>
      </trkpt>
      <trkpt lat="49.45707" lon="2.0597">
        <ele>101.6</ele>
        <time>2013-04-20T07:37:26.737Z</time>
      </trkpt>
      <trkpt lat="49.45707" lon="2.05966">
        <ele>100.8</ele>
        <time>2013-04-20T07:37:27.732Z</time>
      </trkpt>
      <trkpt lat="49.45708" lon="2.05963">
        <ele>101.7</ele>
        <time>2013-04-20T07:37:28.747Z</time>
      </trkpt>
      <trkpt lat="49.45711" lon="2.05962">
        <ele>101.5</ele>
        <time>2013-04-20T07:37:30.735Z</time>
      </trkpt>
      <trkpt lat="49.45711" lon="2.05957">
        <ele>103.4</ele>
        <time>2013-04-20T07:37:31.750Z</time>
      </trkpt>
      <trkpt lat="49.45715" lon="2.05956">
        <ele>103</ele>
        <time>2013-04-20T07:37:35.747Z</time>
      </trkpt>
      <trkpt lat="49.45716" lon="2.05955">
        <ele>103.2</ele>
        <time>2013-04-20T07:37:36.747Z</time>
      </trkpt>
      <trkpt lat="49.45718" lon="2.05952">
        <ele>103.1</ele>
        <time>2013-04-20T07:37:39.774Z</time>
      </trkpt>
      <trkpt lat="49.45719" lon="2.0595">
        <ele>103</ele>
        <time>2013-04-20T07:37:40.743Z</time>
      </trkpt>
      <trkpt lat="49.4572" lon="2.05948">
        <ele>103.9</ele>
        <time>2013-04-20T07:37:41.734Z</time>
      </trkpt>
      <trkpt lat="49.4573" lon="2.0594">
        <ele>112.2</ele>
        <time>2013-04-20T07:37:42.753Z</time>
      </trkpt>
      <trkpt lat="49.4573" lon="2.05937">
        <ele>110.2</ele>
        <time>2013-04-20T07:37:43.762Z</time>
      </trkpt>
      <trkpt lat="49.45728" lon="2.05932">
        <ele>110.6</ele>
        <time>2013-04-20T07:37:44.725Z</time>
      </trkpt>
      <trkpt lat="49.45728" lon="2.05926">
        <ele>110.5</ele>
        <time>2013-04-20T07:37:46.732Z</time>
      </trkpt>
      <trkpt lat="49.45727" lon="2.0592">
        <ele>110.5</ele>
        <time>2013-04-20T07:37:47.809Z</time>
      </trkpt>
      <trkpt lat="49.45726" lon="2.05914">
        <ele>109.8</ele>
        <time>2013-04-20T07:37:48.745Z</time>
      </trkpt>
      <trkpt lat="49.45726" lon="2.05912">
        <ele>109.4</ele>
        <time>2013-04-20T07:37:49.731Z</time>
      </trkpt>
      <trkpt lat="49.4573" lon="2.0591">
        <ele>110.2</ele>
        <time>2013-04-20T07:37:51.728Z</time>
      </trkpt>
      <trkpt lat="49.45727" lon="2.05905">
        <ele>153.3</ele>
        <time>2013-04-20T07:37:52.737Z</time>
      </trkpt>
      <trkpt lat="49.45713" lon="2.059">
        <ele>132.9</ele>
        <time>2013-04-20T07:37:53.727Z</time>
      </trkpt>
      <trkpt lat="49.45712" lon="2.05895">
        <ele>131.6</ele>
        <time>2013-04-20T07:37:54.801Z</time>
      </trkpt>
      <trkpt lat="49.45714" lon="2.05892">
        <ele>129.3</ele>
        <time>2013-04-20T07:37:55.741Z</time>
      </trkpt>
      <trkpt lat="49.45712" lon="2.05888">
        <ele>128.6</ele>
        <time>2013-04-20T07:37:56.732Z</time>
      </trkpt>
      <trkpt lat="49.45673" lon="2.05865">
        <ele>185.6</ele>
        <time>2013-04-20T07:37:57.747Z</time>
      </trkpt>
      <trkpt lat="49.45676" lon="2.05866">
        <ele>179.2</ele>
        <time>2013-04-20T07:37:59.936Z</time>
      </trkpt>
      <trkpt lat="49.45696" lon="2.05866">
        <ele>133</ele>
        <time>2013-04-20T07:38:00.862Z</time>
      </trkpt>
      <trkpt lat="49.457" lon="2.05867">
        <ele>125.8</ele>
        <time>2013-04-20T07:38:01.729Z</time>
      </trkpt>
      <trkpt lat="49.45705" lon="2.05867">
        <ele>120.2</ele>
        <time>2013-04-20T07:38:02.741Z</time>
      </trkpt>
      <trkpt lat="49.45711" lon="2.05867">
        <ele>114.5</ele>
        <time>2013-04-20T07:38:03.740Z</time>
      </trkpt>
      <trkpt lat="49.45717" lon="2.05864">
        <ele>110.1</ele>
        <time>2013-04-20T07:38:04.726Z</time>
      </trkpt>
      <trkpt lat="49.4571" lon="2.05862">
        <ele>119.2</ele>
        <time>2013-04-20T07:38:05.746Z</time>
      </trkpt>
      <trkpt lat="49.45712" lon="2.05855">
        <ele>118.9</ele>
        <time>2013-04-20T07:38:08.728Z</time>
      </trkpt>
      <trkpt lat="49.45711" lon="2.05853">
        <ele>119.6</ele>
        <time>2013-04-20T07:38:09.776Z</time>
      </trkpt>
      <trkpt lat="49.45711" lon="2.05846">
        <ele>118.3</ele>
        <time>2013-04-20T07:38:12.729Z</time>
      </trkpt>
      <trkpt lat="49.45709" lon="2.05847">
        <ele>118.8</ele>
        <time>2013-04-20T07:38:14.417Z</time>
      </trkpt>
      <trkpt lat="49.45709" lon="2.05845">
        <ele>118.7</ele>
        <time>2013-04-20T07:38:14.733Z</time>
      </trkpt>
      <trkpt lat="49.45717" lon="2.05833">
        <ele>116.4</ele>
        <time>2013-04-20T07:38:15.725Z</time>
      </trkpt>
      <trkpt lat="49.45714" lon="2.05833">
        <ele>112.9</ele>
        <time>2013-04-20T07:38:21.747Z</time>
      </trkpt>
      <trkpt lat="49.45712" lon="2.0583">
        <ele>114.8</ele>
        <time>2013-04-20T07:38:22.934Z</time>
      </trkpt>
      <trkpt lat="49.45724" lon="2.05822">
        <ele>98.2</ele>
        <time>2013-04-20T07:38:23.740Z</time>
      </trkpt>
      <trkpt lat="49.45724" lon="2.05821">
        <ele>98.5</ele>
        <time>2013-04-20T07:38:24.708Z</time>
      </trkpt>
      <trkpt lat="49.45716" lon="2.05823">
        <ele>107.6</ele>
        <time>2013-04-20T07:38:25.738Z</time>
      </trkpt>
      <trkpt lat="49.4571" lon="2.0582">
        <ele>113.8</ele>
        <time>2013-04-20T07:38:26.732Z</time>
      </trkpt>
      <trkpt lat="49.45709" lon="2.05818">
        <ele>113.2</ele>
        <time>2013-04-20T07:38:29.717Z</time>
      </trkpt>
      <trkpt lat="49.45728" lon="2.05811">
        <ele>91.3</ele>
        <time>2013-04-20T07:38:30.726Z</time>
      </trkpt>
      <trkpt lat="49.45716" lon="2.0581">
        <ele>101.1</ele>
        <time>2013-04-20T07:38:31.727Z</time>
      </trkpt>
      <trkpt lat="49.45711" lon="2.0581">
        <ele>108.1</ele>
        <time>2013-04-20T07:38:32.746Z</time>
      </trkpt>
      <trkpt lat="49.45707" lon="2.05808">
        <ele>111.7</ele>
        <time>2013-04-20T07:38:33.738Z</time>
      </trkpt>
      <trkpt lat="49.45704" lon="2.05806">
        <ele>114.9</ele>
        <time>2013-04-20T07:38:34.719Z</time>
      </trkpt>
      <trkpt lat="49.45692" lon="2.05794">
        <ele>141.8</ele>
        <time>2013-04-20T07:38:35.745Z</time>
      </trkpt>
      <trkpt lat="49.45701" lon="2.05793">
        <ele>126.9</ele>
        <time>2013-04-20T07:38:36.754Z</time>
      </trkpt>
      <trkpt lat="49.45698" lon="2.05791">
        <ele>125.6</ele>
        <time>2013-04-20T07:38:39.748Z</time>
      </trkpt>
      <trkpt lat="49.45697" lon="2.05789">
        <ele>124.1</ele>
        <time>2013-04-20T07:38:40.748Z</time>
      </trkpt>
      <trkpt lat="49.45695" lon="2.05788">
        <ele>125.6</ele>
        <time>2013-04-20T07:38:41.731Z</time>
      </trkpt>
      <trkpt lat="49.45692" lon="2.05788">
        <ele>125.5</ele>
        <time>2013-04-20T07:38:42.728Z</time>
      </trkpt>
      <trkpt lat="49.45691" lon="2.05798">
        <ele>133.4</ele>
        <time>2013-04-20T07:38:43.722Z</time>
      </trkpt>
      <trkpt lat="49.45694" lon="2.05795">
        <ele>125.1</ele>
        <time>2013-04-20T07:38:44.735Z</time>
      </trkpt>
      <trkpt lat="49.45694" lon="2.05792">
        <ele>123.6</ele>
        <time>2013-04-20T07:38:45.730Z</time>
      </trkpt>
      <trkpt lat="49.45693" lon="2.05787">
        <ele>121.9</ele>
        <time>2013-04-20T07:38:47.744Z</time>
      </trkpt>
      <trkpt lat="49.45692" lon="2.05785">
        <ele>122</ele>
        <time>2013-04-20T07:38:48.738Z</time>
      </trkpt>
      <trkpt lat="49.45691" lon="2.05778">
        <ele>118.7</ele>
        <time>2013-04-20T07:38:51.744Z</time>
      </trkpt>
      <trkpt lat="49.4569" lon="2.05775">
        <ele>119.2</ele>
        <time>2013-04-20T07:38:52.737Z</time>
      </trkpt>
      <trkpt lat="49.45688" lon="2.05771">
        <ele>118.8</ele>
        <time>2013-04-20T07:38:54.745Z</time>
      </trkpt>
      <trkpt lat="49.45687" lon="2.05768">
        <ele>119.9</ele>
        <time>2013-04-20T07:38:55.737Z</time>
      </trkpt>
      <trkpt lat="49.45685" lon="2.05764">
        <ele>121.2</ele>
        <time>2013-04-20T07:38:57.729Z</time>
      </trkpt>
      <trkpt lat="49.45684" lon="2.05762">
        <ele>122.7</ele>
        <time>2013-04-20T07:38:58.747Z</time>
      </trkpt>
      <trkpt lat="49.45678" lon="2.05752">
        <ele>124.7</ele>
        <time>2013-04-20T07:38:59.745Z</time>
      </trkpt>
      <trkpt lat="49.45675" lon="2.05753">
        <ele>123.1</ele>
        <time>2013-04-20T07:39:01.730Z</time>
      </trkpt>
      <trkpt lat="49.45673" lon="2.05754">
        <ele>128</ele>
        <time>2013-04-20T07:39:02.803Z</time>
      </trkpt>
      <trkpt lat="49.45674" lon="2.05748">
        <ele>124.3</ele>
        <time>2013-04-20T07:39:04.726Z</time>
      </trkpt>
      <trkpt lat="49.45652" lon="2.0575">
        <ele>146.3</ele>
        <time>2013-04-20T07:39:05.731Z</time>
      </trkpt>
      <trkpt lat="49.45656" lon="2.05751">
        <ele>134.5</ele>
        <time>2013-04-20T07:39:06.720Z</time>
      </trkpt>
      <trkpt lat="49.45662" lon="2.05746">
        <ele>131.6</ele>
        <time>2013-04-20T07:39:07.746Z</time>
      </trkpt>
      <trkpt lat="49.45663" lon="2.0574">
        <ele>131.3</ele>
        <time>2013-04-20T07:39:09.743Z</time>
      </trkpt>
      <trkpt lat="49.45664" lon="2.05738">
        <ele>131.3</ele>
        <time>2013-04-20T07:39:10.749Z</time>
      </trkpt>
      <trkpt lat="49.45665" lon="2.05735">
        <ele>130.8</ele>
        <time>2013-04-20T07:39:11.732Z</time>
      </trkpt>
      <trkpt lat="49.45667" lon="2.05732">
        <ele>129</ele>
        <time>2013-04-20T07:39:12.722Z</time>
      </trkpt>
      <trkpt lat="49.45669" lon="2.05726">
        <ele>125.4</ele>
        <time>2013-04-20T07:39:14.736Z</time>
      </trkpt>
      <trkpt lat="49.4567" lon="2.05724">
        <ele>123.6</ele>
        <time>2013-04-20T07:39:15.729Z</time>
      </trkpt>
      <trkpt lat="49.45669" lon="2.05719">
        <ele>122.8</ele>
        <time>2013-04-20T07:39:17.719Z</time>
      </trkpt>
      <trkpt lat="49.45669" lon="2.05717">
        <ele>124</ele>
        <time>2013-04-20T07:39:18.737Z</time>
      </trkpt>
      <trkpt lat="49.45668" lon="2.05713">
        <ele>122.7</ele>
        <time>2013-04-20T07:39:20.982Z</time>
      </trkpt>
      <trkpt lat="49.4567" lon="2.05696">
        <ele>125.1</ele>
        <time>2013-04-20T07:39:21.741Z</time>
      </trkpt>
      <trkpt lat="49.45673" lon="2.05699">
        <ele>121.5</ele>
        <time>2013-04-20T07:39:25.739Z</time>
      </trkpt>
      <trkpt lat="49.45675" lon="2.05696">
        <ele>120.6</ele>
        <time>2013-04-20T07:39:26.730Z</time>
      </trkpt>
      <trkpt lat="49.45712" lon="2.05742">
        <ele>88</ele>
        <time>2013-04-20T07:39:27.802Z</time>
      </trkpt>
      <trkpt lat="49.45707" lon="2.05735">
        <ele>95.4</ele>
        <time>2013-04-20T07:39:28.757Z</time>
      </trkpt>
      <trkpt lat="49.457" lon="2.05727">
        <ele>98.5</ele>
        <time>2013-04-20T07:39:29.748Z</time>
      </trkpt>
      <trkpt lat="49.45698" lon="2.05724">
        <ele>99.2</ele>
        <time>2013-04-20T07:39:31.749Z</time>
      </trkpt>
      <trkpt lat="49.45697" lon="2.05722">
        <ele>101.1</ele>
        <time>2013-04-20T07:39:32.772Z</time>
      </trkpt>
      <trkpt lat="49.45695" lon="2.05717">
        <ele>105.1</ele>
        <time>2013-04-20T07:39:33.762Z</time>
      </trkpt>
      <trkpt lat="49.45695" lon="2.05714">
        <ele>106.3</ele>
        <time>2013-04-20T07:39:34.736Z</time>
      </trkpt>
      <trkpt lat="49.45692" lon="2.05705">
        <ele>108.9</ele>
        <time>2013-04-20T07:39:35.748Z</time>
      </trkpt>
      <trkpt lat="49.45691" lon="2.05698">
        <ele>110.5</ele>
        <time>2013-04-20T07:39:36.752Z</time>
      </trkpt>
      <trkpt lat="49.45691" lon="2.05692">
        <ele>109.9</ele>
        <time>2013-04-20T07:39:37.742Z</time>
      </trkpt>
      <trkpt lat="49.45691" lon="2.05686">
        <ele>110.4</ele>
        <time>2013-04-20T07:39:39.748Z</time>
      </trkpt>
      <trkpt lat="49.45691" lon="2.05683">
        <ele>110.5</ele>
        <time>2013-04-20T07:39:40.745Z</time>
      </trkpt>
      <trkpt lat="49.45692" lon="2.05676">
        <ele>111.6</ele>
        <time>2013-04-20T07:39:42.739Z</time>
      </trkpt>
      <trkpt lat="49.45692" lon="2.05673">
        <ele>111.1</ele>
        <time>2013-04-20T07:39:43.756Z</time>
      </trkpt>
      <trkpt lat="49.45687" lon="2.0567">
        <ele>94.9</ele>
        <time>2013-04-20T07:39:44.816Z</time>
      </trkpt>
      <trkpt lat="49.45687" lon="2.05663">
        <ele>105.6</ele>
        <time>2013-04-20T07:39:45.725Z</time>
      </trkpt>
      <trkpt lat="49.4569" lon="2.05658">
        <ele>110.1</ele>
        <time>2013-04-20T07:39:48.744Z</time>
      </trkpt>
      <trkpt lat="49.45691" lon="2.05657">
        <ele>108.1</ele>
        <time>2013-04-20T07:39:49.727Z</time>
      </trkpt>
      <trkpt lat="49.45691" lon="2.05653">
        <ele>107.8</ele>
        <time>2013-04-20T07:39:50.747Z</time>
      </trkpt>
      <trkpt lat="49.45691" lon="2.0565">
        <ele>107.8</ele>
        <time>2013-04-20T07:39:51.753Z</time>
      </trkpt>
      <trkpt lat="49.45692" lon="2.05648">
        <ele>106.3</ele>
        <time>2013-04-20T07:39:52.741Z</time>
      </trkpt>
      <trkpt lat="49.45681" lon="2.05645">
        <ele>126.2</ele>
        <time>2013-04-20T07:39:53.722Z</time>
      </trkpt>
      <trkpt lat="49.45688" lon="2.05641">
        <ele>115.9</ele>
        <time>2013-04-20T07:39:54.792Z</time>
      </trkpt>
      <trkpt lat="49.45692" lon="2.0564">
        <ele>111.3</ele>
        <time>2013-04-20T07:39:56.741Z</time>
      </trkpt>
      <trkpt lat="49.45694" lon="2.05638">
        <ele>109.8</ele>
        <time>2013-04-20T07:39:57.733Z</time>
      </trkpt>
      <trkpt lat="49.45696" lon="2.05641">
        <ele>100.2</ele>
        <time>2013-04-20T07:40:00.734Z</time>
      </trkpt>
      <trkpt lat="49.45694" lon="2.0563">
        <ele>111.5</ele>
        <time>2013-04-20T07:40:01.726Z</time>
      </trkpt>
      <trkpt lat="49.45695" lon="2.05625">
        <ele>113.1</ele>
        <time>2013-04-20T07:40:04.807Z</time>
      </trkpt>
      <trkpt lat="49.45695" lon="2.05624">
        <ele>112.1</ele>
        <time>2013-04-20T07:40:05.730Z</time>
      </trkpt>
      <trkpt lat="49.45696" lon="2.05621">
        <ele>112.1</ele>
        <time>2013-04-20T07:40:06.745Z</time>
      </trkpt>
      <trkpt lat="49.45722" lon="2.05646">
        <ele>66.1</ele>
        <time>2013-04-20T07:40:07.736Z</time>
      </trkpt>
      <trkpt lat="49.45715" lon="2.05638">
        <ele>77.8</ele>
        <time>2013-04-20T07:40:08.728Z</time>
      </trkpt>
      <trkpt lat="49.45712" lon="2.05633">
        <ele>82.9</ele>
        <time>2013-04-20T07:40:09.780Z</time>
      </trkpt>
      <trkpt lat="49.4571" lon="2.0563">
        <ele>87.8</ele>
        <time>2013-04-20T07:40:10.742Z</time>
      </trkpt>
      <trkpt lat="49.45708" lon="2.05625">
        <ele>91.8</ele>
        <time>2013-04-20T07:40:12.728Z</time>
      </trkpt>
      <trkpt lat="49.45707" lon="2.05623">
        <ele>94.1</ele>
        <time>2013-04-20T07:40:13.742Z</time>
      </trkpt>
      <trkpt lat="49.45707" lon="2.05619">
        <ele>94.7</ele>
        <time>2013-04-20T07:40:16.726Z</time>
      </trkpt>
      <trkpt lat="49.45707" lon="2.05614">
        <ele>96.4</ele>
        <time>2013-04-20T07:40:17.742Z</time>
      </trkpt>
      <trkpt lat="49.45708" lon="2.05607">
        <ele>99.1</ele>
        <time>2013-04-20T07:40:19.807Z</time>
      </trkpt>
      <trkpt lat="49.45708" lon="2.05604">
        <ele>100.1</ele>
        <time>2013-04-20T07:40:20.727Z</time>
      </trkpt>
      <trkpt lat="49.45708" lon="2.05597">
        <ele>102</ele>
        <time>2013-04-20T07:40:22.712Z</time>
      </trkpt>
      <trkpt lat="49.45709" lon="2.05593">
        <ele>103.2</ele>
        <time>2013-04-20T07:40:24.430Z</time>
      </trkpt>
      <trkpt lat="49.45709" lon="2.05591">
        <ele>103.6</ele>
        <time>2013-04-20T07:40:24.708Z</time>
      </trkpt>
      <trkpt lat="49.45679" lon="2.05542">
        <ele>132.3</ele>
        <time>2013-04-20T07:40:25.740Z</time>
      </trkpt>
      <trkpt lat="49.45687" lon="2.05548">
        <ele>123.1</ele>
        <time>2013-04-20T07:40:26.734Z</time>
      </trkpt>
      <trkpt lat="49.45689" lon="2.0555">
        <ele>121.7</ele>
        <time>2013-04-20T07:40:27.705Z</time>
      </trkpt>
      <trkpt lat="49.45692" lon="2.05551">
        <ele>120.5</ele>
        <time>2013-04-20T07:40:28.743Z</time>
      </trkpt>
      <trkpt lat="49.45696" lon="2.05554">
        <ele>118.1</ele>
        <time>2013-04-20T07:40:29.743Z</time>
      </trkpt>
      <trkpt lat="49.45699" lon="2.05555">
        <ele>117.6</ele>
        <time>2013-04-20T07:40:30.727Z</time>
      </trkpt>
      <trkpt lat="49.45714" lon="2.05576">
        <ele>99.6</ele>
        <time>2013-04-20T07:40:31.746Z</time>
      </trkpt>
      <trkpt lat="49.45714" lon="2.05568">
        <ele>108.6</ele>
        <time>2013-04-20T07:40:32.722Z</time>
      </trkpt>
      <trkpt lat="49.45712" lon="2.05557">
        <ele>114.8</ele>
        <time>2013-04-20T07:40:33.741Z</time>
      </trkpt>
      <trkpt lat="49.45709" lon="2.05553">
        <ele>117</ele>
        <time>2013-04-20T07:40:34.733Z</time>
      </trkpt>
      <trkpt lat="49.45708" lon="2.05549">
        <ele>118.3</ele>
        <time>2013-04-20T07:40:35.728Z</time>
      </trkpt>
      <trkpt lat="49.45734" lon="2.05595">
        <ele>85.7</ele>
        <time>2013-04-20T07:40:36.744Z</time>
      </trkpt>
      <trkpt lat="49.45725" lon="2.05584">
        <ele>90</ele>
        <time>2013-04-20T07:40:37.716Z</time>
      </trkpt>
      <trkpt lat="49.45721" lon="2.05577">
        <ele>97.3</ele>
        <time>2013-04-20T07:40:38.734Z</time>
      </trkpt>
      <trkpt lat="49.45717" lon="2.05573">
        <ele>100.6</ele>
        <time>2013-04-20T07:40:39.744Z</time>
      </trkpt>
      <trkpt lat="49.45716" lon="2.05561">
        <ele>105.4</ele>
        <time>2013-04-20T07:40:40.743Z</time>
      </trkpt>
      <trkpt lat="49.45712" lon="2.05546">
        <ele>109.6</ele>
        <time>2013-04-20T07:40:41.736Z</time>
      </trkpt>
      <trkpt lat="49.45711" lon="2.05539">
        <ele>111.9</ele>
        <time>2013-04-20T07:40:42.715Z</time>
      </trkpt>
      <trkpt lat="49.45711" lon="2.05537">
        <ele>112</ele>
        <time>2013-04-20T07:40:43.745Z</time>
      </trkpt>
      <trkpt lat="49.45687" lon="2.05499">
        <ele>154.3</ele>
        <time>2013-04-20T07:40:44.744Z</time>
      </trkpt>
      <trkpt lat="49.45697" lon="2.05541">
        <ele>138.4</ele>
        <time>2013-04-20T07:40:45.806Z</time>
      </trkpt>
      <trkpt lat="49.45696" lon="2.05535">
        <ele>130.1</ele>
        <time>2013-04-20T07:40:51.741Z</time>
      </trkpt>
      <trkpt lat="49.45697" lon="2.05519">
        <ele>130.4</ele>
        <time>2013-04-20T07:40:52.741Z</time>
      </trkpt>
      <trkpt lat="49.45706" lon="2.05527">
        <ele>116.3</ele>
        <time>2013-04-20T07:40:53.727Z</time>
      </trkpt>
      <trkpt lat="49.45707" lon="2.05527">
        <ele>114.2</ele>
        <time>2013-04-20T07:40:54.752Z</time>
      </trkpt>
      <trkpt lat="49.45716" lon="2.05497">
        <ele>125.8</ele>
        <time>2013-04-20T07:40:55.745Z</time>
      </trkpt>
      <trkpt lat="49.45707" lon="2.05502">
        <ele>127.1</ele>
        <time>2013-04-20T07:40:56.732Z</time>
      </trkpt>
      <trkpt lat="49.45703" lon="2.05499">
        <ele>123.7</ele>
        <time>2013-04-20T07:40:58.742Z</time>
      </trkpt>
      <trkpt lat="49.45702" lon="2.05498">
        <ele>123.8</ele>
        <time>2013-04-20T07:40:59.740Z</time>
      </trkpt>
      <trkpt lat="49.45699" lon="2.05494">
        <ele>123.9</ele>
        <time>2013-04-20T07:41:06.742Z</time>
      </trkpt>
      <trkpt lat="49.45695" lon="2.05486">
        <ele>130.4</ele>
        <time>2013-04-20T07:41:07.706Z</time>
      </trkpt>
      <trkpt lat="49.45695" lon="2.05481">
        <ele>130.5</ele>
        <time>2013-04-20T07:41:08.727Z</time>
      </trkpt>
      <trkpt lat="49.45715" lon="2.05472">
        <ele>106.2</ele>
        <time>2013-04-20T07:41:09.756Z</time>
      </trkpt>
      <trkpt lat="49.45699" lon="2.05479">
        <ele>122.2</ele>
        <time>2013-04-20T07:41:10.739Z</time>
      </trkpt>
      <trkpt lat="49.45699" lon="2.05476">
        <ele>120.6</ele>
        <time>2013-04-20T07:41:11.737Z</time>
      </trkpt>
      <trkpt lat="49.45695" lon="2.05469">
        <ele>125.7</ele>
        <time>2013-04-20T07:41:12.728Z</time>
      </trkpt>
      <trkpt lat="49.45693" lon="2.05463">
        <ele>127.1</ele>
        <time>2013-04-20T07:41:14.747Z</time>
      </trkpt>
      <trkpt lat="49.45692" lon="2.05463">
        <ele>126.7</ele>
        <time>2013-04-20T07:41:16.188Z</time>
      </trkpt>
      <trkpt lat="49.45697" lon="2.05456">
        <ele>124.8</ele>
        <time>2013-04-20T07:41:17.493Z</time>
      </trkpt>
      <trkpt lat="49.45697" lon="2.05443">
        <ele>111.1</ele>
        <time>2013-04-20T07:41:17.727Z</time>
      </trkpt>
      <trkpt lat="49.45687" lon="2.05448">
        <ele>121.6</ele>
        <time>2013-04-20T07:41:18.754Z</time>
      </trkpt>
      <trkpt lat="49.45684" lon="2.05445">
        <ele>129.2</ele>
        <time>2013-04-20T07:41:19.732Z</time>
      </trkpt>
      <trkpt lat="49.45683" lon="2.05441">
        <ele>131.8</ele>
        <time>2013-04-20T07:41:20.745Z</time>
      </trkpt>
      <trkpt lat="49.45679" lon="2.05444">
        <ele>137.5</ele>
        <time>2013-04-20T07:41:22.742Z</time>
      </trkpt>
      <trkpt lat="49.45687" lon="2.0546">
        <ele>123.7</ele>
        <time>2013-04-20T07:41:23.730Z</time>
      </trkpt>
      <trkpt lat="49.45691" lon="2.05457">
        <ele>114.4</ele>
        <time>2013-04-20T07:41:24.712Z</time>
      </trkpt>
      <trkpt lat="49.45691" lon="2.05456">
        <ele>114.2</ele>
        <time>2013-04-20T07:41:25.744Z</time>
      </trkpt>
      <trkpt lat="49.4569" lon="2.0545">
        <ele>118.2</ele>
        <time>2013-04-20T07:41:26.739Z</time>
      </trkpt>
      <trkpt lat="49.4569" lon="2.05444">
        <ele>121.9</ele>
        <time>2013-04-20T07:41:27.732Z</time>
      </trkpt>
      <trkpt lat="49.45692" lon="2.05441">
        <ele>119.2</ele>
        <time>2013-04-20T07:41:28.748Z</time>
      </trkpt>
      <trkpt lat="49.45678" lon="2.05405">
        <ele>120.9</ele>
        <time>2013-04-20T07:41:29.723Z</time>
      </trkpt>
      <trkpt lat="49.45679" lon="2.05424">
        <ele>141.3</ele>
        <time>2013-04-20T07:41:30.732Z</time>
      </trkpt>
      <trkpt lat="49.45682" lon="2.05421">
        <ele>135.2</ele>
        <time>2013-04-20T07:41:32.743Z</time>
      </trkpt>
      <trkpt lat="49.45683" lon="2.05418">
        <ele>132.4</ele>
        <time>2013-04-20T07:41:33.740Z</time>
      </trkpt>
      <trkpt lat="49.45684" lon="2.05416">
        <ele>128.7</ele>
        <time>2013-04-20T07:41:34.729Z</time>
      </trkpt>
      <trkpt lat="49.45694" lon="2.05418">
        <ele>119</ele>
        <time>2013-04-20T07:41:35.745Z</time>
      </trkpt>
      <trkpt lat="49.45691" lon="2.05417">
        <ele>121.3</ele>
        <time>2013-04-20T07:41:37.801Z</time>
      </trkpt>
      <trkpt lat="49.45689" lon="2.05415">
        <ele>120</ele>
        <time>2013-04-20T07:41:38.724Z</time>
      </trkpt>
      <trkpt lat="49.4568" lon="2.05402">
        <ele>102.8</ele>
        <time>2013-04-20T07:41:39.737Z</time>
      </trkpt>
      <trkpt lat="49.45686" lon="2.05406">
        <ele>112.3</ele>
        <time>2013-04-20T07:41:40.742Z</time>
      </trkpt>
      <trkpt lat="49.45689" lon="2.05405">
        <ele>114.2</ele>
        <time>2013-04-20T07:41:42.796Z</time>
      </trkpt>
      <trkpt lat="49.45683" lon="2.05412">
        <ele>106.5</ele>
        <time>2013-04-20T07:41:43.746Z</time>
      </trkpt>
      <trkpt lat="49.4568" lon="2.05407">
        <ele>118.3</ele>
        <time>2013-04-20T07:41:44.751Z</time>
      </trkpt>
      <trkpt lat="49.45682" lon="2.05402">
        <ele>117.5</ele>
        <time>2013-04-20T07:41:46.726Z</time>
      </trkpt>
      <trkpt lat="49.45683" lon="2.05396">
        <ele>120</ele>
        <time>2013-04-20T07:41:47.786Z</time>
      </trkpt>
      <trkpt lat="49.45693" lon="2.05378">
        <ele>99.6</ele>
        <time>2013-04-20T07:41:48.734Z</time>
      </trkpt>
      <trkpt lat="49.45693" lon="2.05376">
        <ele>99.6</ele>
        <time>2013-04-20T07:41:49.726Z</time>
      </trkpt>
      <trkpt lat="49.45687" lon="2.05381">
        <ele>136.9</ele>
        <time>2013-04-20T07:41:50.719Z</time>
      </trkpt>
      <trkpt lat="49.45684" lon="2.05381">
        <ele>135.9</ele>
        <time>2013-04-20T07:41:51.739Z</time>
      </trkpt>
      <trkpt lat="49.45681" lon="2.05378">
        <ele>138.3</ele>
        <time>2013-04-20T07:41:52.753Z</time>
      </trkpt>
      <trkpt lat="49.45668" lon="2.05355">
        <ele>138.9</ele>
        <time>2013-04-20T07:41:53.726Z</time>
      </trkpt>
      <trkpt lat="49.45672" lon="2.05363">
        <ele>129.7</ele>
        <time>2013-04-20T07:41:54.752Z</time>
      </trkpt>
      <trkpt lat="49.45673" lon="2.05363">
        <ele>128.2</ele>
        <time>2013-04-20T07:41:56.715Z</time>
      </trkpt>
      <trkpt lat="49.45669" lon="2.05369">
        <ele>148.9</ele>
        <time>2013-04-20T07:41:58.387Z</time>
      </trkpt>
      <trkpt lat="49.4568" lon="2.05373">
        <ele>127.5</ele>
        <time>2013-04-20T07:41:58.718Z</time>
      </trkpt>
      <trkpt lat="49.45683" lon="2.05372">
        <ele>123</ele>
        <time>2013-04-20T07:42:00.731Z</time>
      </trkpt>
      <trkpt lat="49.45687" lon="2.05371">
        <ele>117.2</ele>
        <time>2013-04-20T07:42:01.725Z</time>
      </trkpt>
      <trkpt lat="49.45693" lon="2.05369">
        <ele>119.5</ele>
        <time>2013-04-20T07:42:02.708Z</time>
      </trkpt>
      <trkpt lat="49.4571" lon="2.05382">
        <ele>107.6</ele>
        <time>2013-04-20T07:42:03.734Z</time>
      </trkpt>
      <trkpt lat="49.45706" lon="2.05368">
        <ele>119.3</ele>
        <time>2013-04-20T07:42:04.728Z</time>
      </trkpt>
      <trkpt lat="49.45709" lon="2.05372">
        <ele>118.5</ele>
        <time>2013-04-20T07:42:08.725Z</time>
      </trkpt>
      <trkpt lat="49.45709" lon="2.05373">
        <ele>117.3</ele>
        <time>2013-04-20T07:42:09.768Z</time>
      </trkpt>
      <trkpt lat="49.45712" lon="2.05373">
        <ele>117.5</ele>
        <time>2013-04-20T07:42:11.716Z</time>
      </trkpt>
      <trkpt lat="49.45725" lon="2.05392">
        <ele>125.8</ele>
        <time>2013-04-20T07:42:12.726Z</time>
      </trkpt>
      <trkpt lat="49.45725" lon="2.05389">
        <ele>124.7</ele>
        <time>2013-04-20T07:42:13.741Z</time>
      </trkpt>
      <trkpt lat="49.45724" lon="2.05385">
        <ele>123.7</ele>
        <time>2013-04-20T07:42:14.742Z</time>
      </trkpt>
      <trkpt lat="49.45725" lon="2.05382">
        <ele>123</ele>
        <time>2013-04-20T07:42:15.733Z</time>
      </trkpt>
      <trkpt lat="49.45719" lon="2.05379">
        <ele>114.6</ele>
        <time>2013-04-20T07:42:16.717Z</time>
      </trkpt>
      <trkpt lat="49.45721" lon="2.05378">
        <ele>112</ele>
        <time>2013-04-20T07:42:18.748Z</time>
      </trkpt>
      <trkpt lat="49.45724" lon="2.05386">
        <ele>80.7</ele>
        <time>2013-04-20T07:42:19.738Z</time>
      </trkpt>
      <trkpt lat="49.45722" lon="2.05383">
        <ele>88.9</ele>
        <time>2013-04-20T07:42:20.753Z</time>
      </trkpt>
      <trkpt lat="49.45722" lon="2.05379">
        <ele>96.8</ele>
        <time>2013-04-20T07:42:21.749Z</time>
      </trkpt>
      <trkpt lat="49.45726" lon="2.05378">
        <ele>104.6</ele>
        <time>2013-04-20T07:42:23.725Z</time>
      </trkpt>
      <trkpt lat="49.45727" lon="2.05376">
        <ele>107.9</ele>
        <time>2013-04-20T07:42:24.727Z</time>
      </trkpt>
      <trkpt lat="49.4573" lon="2.05373">
        <ele>110.8</ele>
        <time>2013-04-20T07:42:27.722Z</time>
      </trkpt>
      <trkpt lat="49.45732" lon="2.05372">
        <ele>111.1</ele>
        <time>2013-04-20T07:42:28.743Z</time>
      </trkpt>
      <trkpt lat="49.45736" lon="2.0537">
        <ele>114.1</ele>
        <time>2013-04-20T07:42:30.732Z</time>
      </trkpt>
      <trkpt lat="49.45737" lon="2.05369">
        <ele>114.6</ele>
        <time>2013-04-20T07:42:31.726Z</time>
      </trkpt>
      <trkpt lat="49.45741" lon="2.05368">
        <ele>114.3</ele>
        <time>2013-04-20T07:42:33.742Z</time>
      </trkpt>
      <trkpt lat="49.45742" lon="2.05368">
        <ele>114.2</ele>
        <time>2013-04-20T07:42:34.729Z</time>
      </trkpt>
      <trkpt lat="49.45746" lon="2.05366">
        <ele>113.4</ele>
        <time>2013-04-20T07:42:37.738Z</time>
      </trkpt>
      <trkpt lat="49.45749" lon="2.05365">
        <ele>112.3</ele>
        <time>2013-04-20T07:42:38.731Z</time>
      </trkpt>
      <trkpt lat="49.45753" lon="2.05367">
        <ele>113</ele>
        <time>2013-04-20T07:42:40.748Z</time>
      </trkpt>
      <trkpt lat="49.45754" lon="2.05368">
        <ele>111.3</ele>
        <time>2013-04-20T07:42:41.739Z</time>
      </trkpt>
      <trkpt lat="49.45757" lon="2.05369">
        <ele>110.8</ele>
        <time>2013-04-20T07:42:44.745Z</time>
      </trkpt>
      <trkpt lat="49.45759" lon="2.05369">
        <ele>110.8</ele>
        <time>2013-04-20T07:42:45.734Z</time>
      </trkpt>
      <trkpt lat="49.45761" lon="2.05366">
        <ele>112.1</ele>
        <time>2013-04-20T07:42:46.728Z</time>
      </trkpt>
      <trkpt lat="49.45763" lon="2.05363">
        <ele>113.7</ele>
        <time>2013-04-20T07:42:47.742Z</time>
      </trkpt>
      <trkpt lat="49.45767" lon="2.05363">
        <ele>113</ele>
        <time>2013-04-20T07:42:50.745Z</time>
      </trkpt>
      <trkpt lat="49.45768" lon="2.05361">
        <ele>112.9</ele>
        <time>2013-04-20T07:42:51.742Z</time>
      </trkpt>
      <trkpt lat="49.45771" lon="2.05362">
        <ele>112.6</ele>
        <time>2013-04-20T07:42:53.732Z</time>
      </trkpt>
      <trkpt lat="49.4576" lon="2.05341">
        <ele>117.7</ele>
        <time>2013-04-20T07:42:54.757Z</time>
      </trkpt>
      <trkpt lat="49.45763" lon="2.05346">
        <ele>112.4</ele>
        <time>2013-04-20T07:42:55.746Z</time>
      </trkpt>
      <trkpt lat="49.45767" lon="2.0535">
        <ele>109.2</ele>
        <time>2013-04-20T07:42:56.740Z</time>
      </trkpt>
      <trkpt lat="49.45769" lon="2.05352">
        <ele>110.6</ele>
        <time>2013-04-20T07:42:57.725Z</time>
      </trkpt>
      <trkpt lat="49.45772" lon="2.05356">
        <ele>108.6</ele>
        <time>2013-04-20T07:42:58.743Z</time>
      </trkpt>
      <trkpt lat="49.45775" lon="2.05352">
        <ele>108.6</ele>
        <time>2013-04-20T07:43:01.725Z</time>
      </trkpt>
      <trkpt lat="49.45778" lon="2.05353">
        <ele>108.9</ele>
        <time>2013-04-20T07:43:02.743Z</time>
      </trkpt>
      <trkpt lat="49.45781" lon="2.05353">
        <ele>110.8</ele>
        <time>2013-04-20T07:43:04.731Z</time>
      </trkpt>
      <trkpt lat="49.45783" lon="2.05353">
        <ele>112.4</ele>
        <time>2013-04-20T07:43:05.716Z</time>
      </trkpt>
      <trkpt lat="49.45787" lon="2.05353">
        <ele>112.7</ele>
        <time>2013-04-20T07:43:07.740Z</time>
      </trkpt>
      <trkpt lat="49.45788" lon="2.05351">
        <ele>113.3</ele>
        <time>2013-04-20T07:43:08.726Z</time>
      </trkpt>
      <trkpt lat="49.45791" lon="2.0535">
        <ele>112.3</ele>
        <time>2013-04-20T07:43:10.740Z</time>
      </trkpt>
      <trkpt lat="49.45793" lon="2.05349">
        <ele>112.5</ele>
        <time>2013-04-20T07:43:11.737Z</time>
      </trkpt>
      <trkpt lat="49.45796" lon="2.05348">
        <ele>111.8</ele>
        <time>2013-04-20T07:43:13.740Z</time>
      </trkpt>
      <trkpt lat="49.45797" lon="2.05347">
        <ele>112.6</ele>
        <time>2013-04-20T07:43:14.746Z</time>
      </trkpt>
      <trkpt lat="49.45806" lon="2.05346">
        <ele>116.8</ele>
        <time>2013-04-20T07:43:15.742Z</time>
      </trkpt>
      <trkpt lat="49.4581" lon="2.05344">
        <ele>113.2</ele>
        <time>2013-04-20T07:43:21.742Z</time>
      </trkpt>
      <trkpt lat="49.45794" lon="2.05325">
        <ele>142.8</ele>
        <time>2013-04-20T07:43:22.734Z</time>
      </trkpt>
      <trkpt lat="49.458" lon="2.05331">
        <ele>131.1</ele>
        <time>2013-04-20T07:43:23.725Z</time>
      </trkpt>
      <trkpt lat="49.45804" lon="2.05332">
        <ele>129.7</ele>
        <time>2013-04-20T07:43:25.752Z</time>
      </trkpt>
      <trkpt lat="49.45806" lon="2.05336">
        <ele>128.3</ele>
        <time>2013-04-20T07:43:26.745Z</time>
      </trkpt>
      <trkpt lat="49.45808" lon="2.05336">
        <ele>126</ele>
        <time>2013-04-20T07:43:27.726Z</time>
      </trkpt>
      <trkpt lat="49.45803" lon="2.0535">
        <ele>127.9</ele>
        <time>2013-04-20T07:43:28.749Z</time>
      </trkpt>
      <trkpt lat="49.45814" lon="2.05354">
        <ele>112.9</ele>
        <time>2013-04-20T07:43:29.736Z</time>
      </trkpt>
      <trkpt lat="49.45815" lon="2.05354">
        <ele>113</ele>
        <time>2013-04-20T07:43:30.735Z</time>
      </trkpt>
      <trkpt lat="49.45819" lon="2.05355">
        <ele>108.9</ele>
        <time>2013-04-20T07:43:31.725Z</time>
      </trkpt>
      <trkpt lat="49.45822" lon="2.05355">
        <ele>107.6</ele>
        <time>2013-04-20T07:43:32.742Z</time>
      </trkpt>
      <trkpt lat="49.45825" lon="2.05356">
        <ele>108.8</ele>
        <time>2013-04-20T07:43:33.740Z</time>
      </trkpt>
      <trkpt lat="49.45826" lon="2.05347">
        <ele>111.3</ele>
        <time>2013-04-20T07:43:34.731Z</time>
      </trkpt>
      <trkpt lat="49.45827" lon="2.05345">
        <ele>112.4</ele>
        <time>2013-04-20T07:43:35.726Z</time>
      </trkpt>
      <trkpt lat="49.45832" lon="2.05354">
        <ele>94</ele>
        <time>2013-04-20T07:43:36.741Z</time>
      </trkpt>
      <trkpt lat="49.45832" lon="2.05337">
        <ele>108.7</ele>
        <time>2013-04-20T07:43:37.747Z</time>
      </trkpt>
      <trkpt lat="49.45836" lon="2.05335">
        <ele>115.3</ele>
        <time>2013-04-20T07:43:41.735Z</time>
      </trkpt>
      <trkpt lat="49.45837" lon="2.05333">
        <ele>117</ele>
        <time>2013-04-20T07:43:43.435Z</time>
      </trkpt>
      <trkpt lat="49.45839" lon="2.05334">
        <ele>116.8</ele>
        <time>2013-04-20T07:43:43.709Z</time>
      </trkpt>
      <trkpt lat="49.45853" lon="2.05342">
        <ele>100.8</ele>
        <time>2013-04-20T07:43:44.739Z</time>
      </trkpt>
      <trkpt lat="49.45857" lon="2.05338">
        <ele>119.1</ele>
        <time>2013-04-20T07:43:51.742Z</time>
      </trkpt>
      <trkpt lat="49.45858" lon="2.05338">
        <ele>120.3</ele>
        <time>2013-04-20T07:43:52.734Z</time>
      </trkpt>
      <trkpt lat="49.4586" lon="2.05337">
        <ele>113.5</ele>
        <time>2013-04-20T07:43:57.734Z</time>
      </trkpt>
      <trkpt lat="49.45869" lon="2.05345">
        <ele>125.7</ele>
        <time>2013-04-20T07:43:58.736Z</time>
      </trkpt>
      <trkpt lat="49.45876" lon="2.05347">
        <ele>118.1</ele>
        <time>2013-04-20T07:43:59.740Z</time>
      </trkpt>
      <trkpt lat="49.45876" lon="2.05341">
        <ele>115</ele>
        <time>2013-04-20T07:44:04.731Z</time>
      </trkpt>
      <trkpt lat="49.45878" lon="2.0534">
        <ele>118.2</ele>
        <time>2013-04-20T07:44:05.726Z</time>
      </trkpt>
      <trkpt lat="49.45881" lon="2.05339">
        <ele>118.3</ele>
        <time>2013-04-20T07:44:07.722Z</time>
      </trkpt>
      <trkpt lat="49.45883" lon="2.05339">
        <ele>118.3</ele>
        <time>2013-04-20T07:44:08.726Z</time>
      </trkpt>
      <trkpt lat="49.45887" lon="2.05339">
        <ele>117.7</ele>
        <time>2013-04-20T07:44:11.736Z</time>
      </trkpt>
      <trkpt lat="49.45889" lon="2.0534">
        <ele>120.3</ele>
        <time>2013-04-20T07:44:12.725Z</time>
      </trkpt>
      <trkpt lat="49.45893" lon="2.05339">
        <ele>122.9</ele>
        <time>2013-04-20T07:44:14.743Z</time>
      </trkpt>
      <trkpt lat="49.45895" lon="2.0534">
        <ele>121.4</ele>
        <time>2013-04-20T07:44:15.735Z</time>
      </trkpt>
      <trkpt lat="49.45899" lon="2.05341">
        <ele>119.4</ele>
        <time>2013-04-20T07:44:19.732Z</time>
      </trkpt>
      <trkpt lat="49.459" lon="2.05341">
        <ele>119.8</ele>
        <time>2013-04-20T07:44:20.779Z</time>
      </trkpt>
      <trkpt lat="49.459" lon="2.05337">
        <ele>122.3</ele>
        <time>2013-04-20T07:44:24.746Z</time>
      </trkpt>
      <trkpt lat="49.45897" lon="2.05335">
        <ele>130.7</ele>
        <time>2013-04-20T07:44:25.746Z</time>
      </trkpt>
      <trkpt lat="49.459" lon="2.05331">
        <ele>104.9</ele>
        <time>2013-04-20T07:44:30.735Z</time>
      </trkpt>
      <trkpt lat="49.45902" lon="2.0533">
        <ele>109.3</ele>
        <time>2013-04-20T07:44:31.730Z</time>
      </trkpt>
      <trkpt lat="49.45905" lon="2.05328">
        <ele>110</ele>
        <time>2013-04-20T07:44:32.930Z</time>
      </trkpt>
      <trkpt lat="49.45907" lon="2.05316">
        <ele>125.1</ele>
        <time>2013-04-20T07:44:33.839Z</time>
      </trkpt>
      <trkpt lat="49.45916" lon="2.05319">
        <ele>110.7</ele>
        <time>2013-04-20T07:44:34.738Z</time>
      </trkpt>
      <trkpt lat="49.45917" lon="2.05314">
        <ele>110.7</ele>
        <time>2013-04-20T07:44:39.935Z</time>
      </trkpt>
      <trkpt lat="49.459" lon="2.05303">
        <ele>108.7</ele>
        <time>2013-04-20T07:44:40.746Z</time>
      </trkpt>
      <trkpt lat="49.45901" lon="2.05298">
        <ele>109.3</ele>
        <time>2013-04-20T07:44:41.738Z</time>
      </trkpt>
      <trkpt lat="49.45906" lon="2.05308">
        <ele>109.7</ele>
        <time>2013-04-20T07:44:42.724Z</time>
      </trkpt>
      <trkpt lat="49.45911" lon="2.05308">
        <ele>112.9</ele>
        <time>2013-04-20T07:44:43.744Z</time>
      </trkpt>
      <trkpt lat="49.45914" lon="2.05307">
        <ele>115.9</ele>
        <time>2013-04-20T07:44:44.739Z</time>
      </trkpt>
      <trkpt lat="49.45916" lon="2.05304">
        <ele>117.3</ele>
        <time>2013-04-20T07:44:45.735Z</time>
      </trkpt>
      <trkpt lat="49.4592" lon="2.05301">
        <ele>119.5</ele>
        <time>2013-04-20T07:44:47.736Z</time>
      </trkpt>
      <trkpt lat="49.45926" lon="2.053">
        <ele>107.8</ele>
        <time>2013-04-20T07:44:48.740Z</time>
      </trkpt>
      <trkpt lat="49.45929" lon="2.05296">
        <ele>114.8</ele>
        <time>2013-04-20T07:44:52.742Z</time>
      </trkpt>
      <trkpt lat="49.4593" lon="2.05293">
        <ele>114.8</ele>
        <time>2013-04-20T07:44:53.731Z</time>
      </trkpt>
      <trkpt lat="49.45932" lon="2.05296">
        <ele>113</ele>
        <time>2013-04-20T07:44:54.726Z</time>
      </trkpt>
      <trkpt lat="49.45935" lon="2.05297">
        <ele>114.4</ele>
        <time>2013-04-20T07:44:55.908Z</time>
      </trkpt>
      <trkpt lat="49.45939" lon="2.05289">
        <ele>117.3</ele>
        <time>2013-04-20T07:44:56.738Z</time>
      </trkpt>
      <trkpt lat="49.45941" lon="2.0529">
        <ele>120.6</ele>
        <time>2013-04-20T07:44:59.739Z</time>
      </trkpt>
      <trkpt lat="49.45963" lon="2.05307">
        <ele>109.4</ele>
        <time>2013-04-20T07:45:00.739Z</time>
      </trkpt>
      <trkpt lat="49.4596" lon="2.05305">
        <ele>113.2</ele>
        <time>2013-04-20T07:45:03.739Z</time>
      </trkpt>
      <trkpt lat="49.45959" lon="2.05302">
        <ele>114.7</ele>
        <time>2013-04-20T07:45:04.736Z</time>
      </trkpt>
      <trkpt lat="49.4596" lon="2.05299">
        <ele>106.3</ele>
        <time>2013-04-20T07:45:09.725Z</time>
      </trkpt>
      <trkpt lat="49.45954" lon="2.05298">
        <ele>116.6</ele>
        <time>2013-04-20T07:45:10.739Z</time>
      </trkpt>
      <trkpt lat="49.45958" lon="2.05296">
        <ele>122.7</ele>
        <time>2013-04-20T07:45:12.733Z</time>
      </trkpt>
      <trkpt lat="49.4596" lon="2.05296">
        <ele>124.9</ele>
        <time>2013-04-20T07:45:13.726Z</time>
      </trkpt>
      <trkpt lat="49.45961" lon="2.05294">
        <ele>124.4</ele>
        <time>2013-04-20T07:45:14.921Z</time>
      </trkpt>
      <trkpt lat="49.45957" lon="2.05278">
        <ele>109.9</ele>
        <time>2013-04-20T07:45:15.746Z</time>
      </trkpt>
      <trkpt lat="49.45958" lon="2.05277">
        <ele>112</ele>
        <time>2013-04-20T07:45:16.726Z</time>
      </trkpt>
      <trkpt lat="49.45963" lon="2.05282">
        <ele>120.2</ele>
        <time>2013-04-20T07:45:17.707Z</time>
      </trkpt>
      <trkpt lat="49.45965" lon="2.05285">
        <ele>116.3</ele>
        <time>2013-04-20T07:45:18.742Z</time>
      </trkpt>
      <trkpt lat="49.45967" lon="2.05285">
        <ele>119.1</ele>
        <time>2013-04-20T07:45:19.732Z</time>
      </trkpt>
      <trkpt lat="49.45971" lon="2.05286">
        <ele>120.8</ele>
        <time>2013-04-20T07:45:21.744Z</time>
      </trkpt>
      <trkpt lat="49.45974" lon="2.05287">
        <ele>117.5</ele>
        <time>2013-04-20T07:45:22.716Z</time>
      </trkpt>
      <trkpt lat="49.45972" lon="2.05304">
        <ele>118.1</ele>
        <time>2013-04-20T07:45:23.728Z</time>
      </trkpt>
      <trkpt lat="49.45976" lon="2.05303">
        <ele>122</ele>
        <time>2013-04-20T07:45:25.746Z</time>
      </trkpt>
      <trkpt lat="49.4598" lon="2.05302">
        <ele>119</ele>
        <time>2013-04-20T07:45:26.932Z</time>
      </trkpt>
      <trkpt lat="49.45994" lon="2.05285">
        <ele>115.2</ele>
        <time>2013-04-20T07:45:27.932Z</time>
      </trkpt>
      <trkpt lat="49.45984" lon="2.053">
        <ele>95.3</ele>
        <time>2013-04-20T07:45:28.730Z</time>
      </trkpt>
      <trkpt lat="49.45989" lon="2.05293">
        <ele>98.7</ele>
        <time>2013-04-20T07:45:29.737Z</time>
      </trkpt>
      <trkpt lat="49.4599" lon="2.05296">
        <ele>115.7</ele>
        <time>2013-04-20T07:45:31.178Z</time>
      </trkpt>
      <trkpt lat="49.45975" lon="2.05268">
        <ele>138.1</ele>
        <time>2013-04-20T07:45:31.728Z</time>
      </trkpt>
      <trkpt lat="49.4598" lon="2.05273">
        <ele>129.1</ele>
        <time>2013-04-20T07:45:32.750Z</time>
      </trkpt>
      <trkpt lat="49.45988" lon="2.05276">
        <ele>127.8</ele>
        <time>2013-04-20T07:45:33.744Z</time>
      </trkpt>
      <trkpt lat="49.45994" lon="2.05279">
        <ele>125.8</ele>
        <time>2013-04-20T07:45:34.733Z</time>
      </trkpt>
      <trkpt lat="49.45998" lon="2.05281">
        <ele>124</ele>
        <time>2013-04-20T07:45:37.740Z</time>
      </trkpt>
      <trkpt lat="49.46" lon="2.05281">
        <ele>123.8</ele>
        <time>2013-04-20T07:45:38.729Z</time>
      </trkpt>
      <trkpt lat="49.46004" lon="2.05281">
        <ele>124.2</ele>
        <time>2013-04-20T07:45:40.705Z</time>
      </trkpt>
      <trkpt lat="49.45993" lon="2.05292">
        <ele>128.7</ele>
        <time>2013-04-20T07:45:41.735Z</time>
      </trkpt>
      <trkpt lat="49.45996" lon="2.0529">
        <ele>135.5</ele>
        <time>2013-04-20T07:45:44.743Z</time>
      </trkpt>
      <trkpt lat="49.45998" lon="2.0529">
        <ele>134.2</ele>
        <time>2013-04-20T07:45:45.746Z</time>
      </trkpt>
      <trkpt lat="49.46" lon="2.05289">
        <ele>132.8</ele>
        <time>2013-04-20T07:45:46.727Z</time>
      </trkpt>
      <trkpt lat="49.46005" lon="2.05287">
        <ele>132.1</ele>
        <time>2013-04-20T07:45:47.820Z</time>
      </trkpt>
      <trkpt lat="49.46022" lon="2.05286">
        <ele>111.1</ele>
        <time>2013-04-20T07:45:48.742Z</time>
      </trkpt>
      <trkpt lat="49.46026" lon="2.05286">
        <ele>107.5</ele>
        <time>2013-04-20T07:45:51.924Z</time>
      </trkpt>
      <trkpt lat="49.46028" lon="2.05283">
        <ele>81.8</ele>
        <time>2013-04-20T07:45:52.738Z</time>
      </trkpt>
      <trkpt lat="49.46029" lon="2.0528">
        <ele>90.9</ele>
        <time>2013-04-20T07:45:54.715Z</time>
      </trkpt>
      <trkpt lat="49.46027" lon="2.05277">
        <ele>97</ele>
        <time>2013-04-20T07:45:55.748Z</time>
      </trkpt>
      <trkpt lat="49.4603" lon="2.05271">
        <ele>108.1</ele>
        <time>2013-04-20T07:46:01.904Z</time>
      </trkpt>
      <trkpt lat="49.4602" lon="2.05262">
        <ele>121</ele>
        <time>2013-04-20T07:46:02.743Z</time>
      </trkpt>
      <trkpt lat="49.46021" lon="2.05262">
        <ele>120.1</ele>
        <time>2013-04-20T07:46:04.932Z</time>
      </trkpt>
      <trkpt lat="49.46047" lon="2.05278">
        <ele>104.1</ele>
        <time>2013-04-20T07:46:05.743Z</time>
      </trkpt>
      <trkpt lat="49.46045" lon="2.05273">
        <ele>107.1</ele>
        <time>2013-04-20T07:46:07.735Z</time>
      </trkpt>
      <trkpt lat="49.46044" lon="2.0527">
        <ele>110.1</ele>
        <time>2013-04-20T07:46:08.734Z</time>
      </trkpt>
      <trkpt lat="49.46044" lon="2.05268">
        <ele>112.6</ele>
        <time>2013-04-20T07:46:09.727Z</time>
      </trkpt>
      <trkpt lat="49.46043" lon="2.05263">
        <ele>115.8</ele>
        <time>2013-04-20T07:46:10.739Z</time>
      </trkpt>
      <trkpt lat="49.46034" lon="2.05263">
        <ele>140.7</ele>
        <time>2013-04-20T07:46:11.733Z</time>
      </trkpt>
      <trkpt lat="49.46034" lon="2.05262">
        <ele>136.5</ele>
        <time>2013-04-20T07:46:15.737Z</time>
      </trkpt>
      <trkpt lat="49.46038" lon="2.05258">
        <ele>137.9</ele>
        <time>2013-04-20T07:46:16.723Z</time>
      </trkpt>
      <trkpt lat="49.46042" lon="2.05259">
        <ele>135.6</ele>
        <time>2013-04-20T07:46:17.743Z</time>
      </trkpt>
      <trkpt lat="49.46045" lon="2.05257">
        <ele>130.3</ele>
        <time>2013-04-20T07:46:18.715Z</time>
      </trkpt>
      <trkpt lat="49.46049" lon="2.05256">
        <ele>127.8</ele>
        <time>2013-04-20T07:46:20.724Z</time>
      </trkpt>
      <trkpt lat="49.4605" lon="2.05255">
        <ele>128.6</ele>
        <time>2013-04-20T07:46:21.738Z</time>
      </trkpt>
      <trkpt lat="49.4605" lon="2.05247">
        <ele>135.7</ele>
        <time>2013-04-20T07:46:22.735Z</time>
      </trkpt>
      <trkpt lat="49.46052" lon="2.05248">
        <ele>131</ele>
        <time>2013-04-20T07:46:25.742Z</time>
      </trkpt>
      <trkpt lat="49.46056" lon="2.05245">
        <ele>125.4</ele>
        <time>2013-04-20T07:46:26.736Z</time>
      </trkpt>
      <trkpt lat="49.4606" lon="2.05245">
        <ele>120.5</ele>
        <time>2013-04-20T07:46:27.724Z</time>
      </trkpt>
      <trkpt lat="49.46063" lon="2.05243">
        <ele>116.9</ele>
        <time>2013-04-20T07:46:28.725Z</time>
      </trkpt>
      <trkpt lat="49.46066" lon="2.05242">
        <ele>113.9</ele>
        <time>2013-04-20T07:46:29.743Z</time>
      </trkpt>
      <trkpt lat="49.46068" lon="2.05239">
        <ele>112.7</ele>
        <time>2013-04-20T07:46:30.734Z</time>
      </trkpt>
      <trkpt lat="49.46072" lon="2.05238">
        <ele>111.1</ele>
        <time>2013-04-20T07:46:31.781Z</time>
      </trkpt>
      <trkpt lat="49.46075" lon="2.05237">
        <ele>110.4</ele>
        <time>2013-04-20T07:46:32.742Z</time>
      </trkpt>
      <trkpt lat="49.46078" lon="2.05235">
        <ele>111.3</ele>
        <time>2013-04-20T07:46:35.724Z</time>
      </trkpt>
      <trkpt lat="49.46079" lon="2.05233">
        <ele>111.8</ele>
        <time>2013-04-20T07:46:36.739Z</time>
      </trkpt>
      <trkpt lat="49.46082" lon="2.05229">
        <ele>110.3</ele>
        <time>2013-04-20T07:46:40.742Z</time>
      </trkpt>
      <trkpt lat="49.46083" lon="2.05227">
        <ele>111.3</ele>
        <time>2013-04-20T07:46:41.734Z</time>
      </trkpt>
      <trkpt lat="49.46085" lon="2.05222">
        <ele>110.9</ele>
        <time>2013-04-20T07:46:44.852Z</time>
      </trkpt>
      <trkpt lat="49.46086" lon="2.05221">
        <ele>111.9</ele>
        <time>2013-04-20T07:46:45.735Z</time>
      </trkpt>
      <trkpt lat="49.46087" lon="2.05215">
        <ele>111.8</ele>
        <time>2013-04-20T07:46:48.713Z</time>
      </trkpt>
      <trkpt lat="49.46088" lon="2.05213">
        <ele>111.8</ele>
        <time>2013-04-20T07:46:49.739Z</time>
      </trkpt>
      <trkpt lat="49.4609" lon="2.05208">
        <ele>111.9</ele>
        <time>2013-04-20T07:46:52.714Z</time>
      </trkpt>
      <trkpt lat="49.46091" lon="2.05207">
        <ele>111.3</ele>
        <time>2013-04-20T07:46:53.731Z</time>
      </trkpt>
      <trkpt lat="49.46093" lon="2.05203">
        <ele>110.4</ele>
        <time>2013-04-20T07:46:55.745Z</time>
      </trkpt>
      <trkpt lat="49.46111" lon="2.05211">
        <ele>122.5</ele>
        <time>2013-04-20T07:46:56.944Z</time>
      </trkpt>
      <trkpt lat="49.46112" lon="2.0521">
        <ele>122.2</ele>
        <time>2013-04-20T07:46:57.709Z</time>
      </trkpt>
      <trkpt lat="49.4609" lon="2.05197">
        <ele>103.6</ele>
        <time>2013-04-20T07:46:58.722Z</time>
      </trkpt>
      <trkpt lat="49.46093" lon="2.05196">
        <ele>98.1</ele>
        <time>2013-04-20T07:47:02.706Z</time>
      </trkpt>
      <trkpt lat="49.46099" lon="2.05192">
        <ele>105.4</ele>
        <time>2013-04-20T07:47:03.743Z</time>
      </trkpt>
      <trkpt lat="49.46102" lon="2.05188">
        <ele>107.9</ele>
        <time>2013-04-20T07:47:05.728Z</time>
      </trkpt>
      <trkpt lat="49.46103" lon="2.05187">
        <ele>107.2</ele>
        <time>2013-04-20T07:47:06.923Z</time>
      </trkpt>
      <trkpt lat="49.46107" lon="2.05195">
        <ele>128.5</ele>
        <time>2013-04-20T07:47:07.718Z</time>
      </trkpt>
      <trkpt lat="49.4611" lon="2.05192">
        <ele>118.8</ele>
        <time>2013-04-20T07:47:11.734Z</time>
      </trkpt>
      <trkpt lat="49.46112" lon="2.05192">
        <ele>119.7</ele>
        <time>2013-04-20T07:47:12.725Z</time>
      </trkpt>
      <trkpt lat="49.46112" lon="2.05187">
        <ele>118.3</ele>
        <time>2013-04-20T07:47:13.727Z</time>
      </trkpt>
      <trkpt lat="49.46113" lon="2.05184">
        <ele>116.7</ele>
        <time>2013-04-20T07:47:14.743Z</time>
      </trkpt>
      <trkpt lat="49.46114" lon="2.0518">
        <ele>116.3</ele>
        <time>2013-04-20T07:47:16.725Z</time>
      </trkpt>
      <trkpt lat="49.46114" lon="2.05177">
        <ele>114.7</ele>
        <time>2013-04-20T07:47:17.743Z</time>
      </trkpt>
      <trkpt lat="49.46115" lon="2.05172">
        <ele>113</ele>
        <time>2013-04-20T07:47:19.738Z</time>
      </trkpt>
      <trkpt lat="49.46116" lon="2.0517">
        <ele>113.2</ele>
        <time>2013-04-20T07:47:20.725Z</time>
      </trkpt>
      <trkpt lat="49.46118" lon="2.05165">
        <ele>114.5</ele>
        <time>2013-04-20T07:47:22.735Z</time>
      </trkpt>
      <trkpt lat="49.4612" lon="2.05165">
        <ele>113.5</ele>
        <time>2013-04-20T07:47:23.730Z</time>
      </trkpt>
      <trkpt lat="49.46109" lon="2.05145">
        <ele>114</ele>
        <time>2013-04-20T07:47:24.724Z</time>
      </trkpt>
      <trkpt lat="49.46116" lon="2.05146">
        <ele>108.7</ele>
        <time>2013-04-20T07:47:25.813Z</time>
      </trkpt>
      <trkpt lat="49.46117" lon="2.05141">
        <ele>105.6</ele>
        <time>2013-04-20T07:47:26.735Z</time>
      </trkpt>
      <trkpt lat="49.46118" lon="2.05139">
        <ele>106</ele>
        <time>2013-04-20T07:47:27.729Z</time>
      </trkpt>
      <trkpt lat="49.46121" lon="2.05135">
        <ele>105.6</ele>
        <time>2013-04-20T07:47:30.779Z</time>
      </trkpt>
      <trkpt lat="49.46121" lon="2.05132">
        <ele>103.4</ele>
        <time>2013-04-20T07:47:31.931Z</time>
      </trkpt>
      <trkpt lat="49.46136" lon="2.05159">
        <ele>80.2</ele>
        <time>2013-04-20T07:47:32.752Z</time>
      </trkpt>
      <trkpt lat="49.46134" lon="2.05154">
        <ele>93.7</ele>
        <time>2013-04-20T07:47:33.734Z</time>
      </trkpt>
      <trkpt lat="49.46134" lon="2.05152">
        <ele>93.5</ele>
        <time>2013-04-20T07:47:34.733Z</time>
      </trkpt>
      <trkpt lat="49.46132" lon="2.05144">
        <ele>95.4</ele>
        <time>2013-04-20T07:47:35.728Z</time>
      </trkpt>
      <trkpt lat="49.46137" lon="2.05144">
        <ele>99.6</ele>
        <time>2013-04-20T07:47:37.742Z</time>
      </trkpt>
      <trkpt lat="49.46137" lon="2.05141">
        <ele>100.5</ele>
        <time>2013-04-20T07:47:38.732Z</time>
      </trkpt>
      <trkpt lat="49.46136" lon="2.05133">
        <ele>105.6</ele>
        <time>2013-04-20T07:47:39.726Z</time>
      </trkpt>
      <trkpt lat="49.46132" lon="2.05113">
        <ele>128.5</ele>
        <time>2013-04-20T07:47:40.741Z</time>
      </trkpt>
      <trkpt lat="49.46132" lon="2.05123">
        <ele>115.9</ele>
        <time>2013-04-20T07:47:41.749Z</time>
      </trkpt>
      <trkpt lat="49.46136" lon="2.05122">
        <ele>111</ele>
        <time>2013-04-20T07:47:43.724Z</time>
      </trkpt>
      <trkpt lat="49.46136" lon="2.0512">
        <ele>110.5</ele>
        <time>2013-04-20T07:47:44.742Z</time>
      </trkpt>
      <trkpt lat="49.46139" lon="2.05118">
        <ele>108.8</ele>
        <time>2013-04-20T07:47:46.723Z</time>
      </trkpt>
      <trkpt lat="49.46137" lon="2.05108">
        <ele>106.3</ele>
        <time>2013-04-20T07:47:48.394Z</time>
      </trkpt>
      <trkpt lat="49.46137" lon="2.05107">
        <ele>105.9</ele>
        <time>2013-04-20T07:47:48.710Z</time>
      </trkpt>
      <trkpt lat="49.46147" lon="2.05106">
        <ele>88</ele>
        <time>2013-04-20T07:47:49.731Z</time>
      </trkpt>
      <trkpt lat="49.4614" lon="2.05106">
        <ele>101.3</ele>
        <time>2013-04-20T07:47:50.721Z</time>
      </trkpt>
      <trkpt lat="49.46142" lon="2.05105">
        <ele>102.5</ele>
        <time>2013-04-20T07:47:52.738Z</time>
      </trkpt>
      <trkpt lat="49.46145" lon="2.05105">
        <ele>105.5</ele>
        <time>2013-04-20T07:47:53.731Z</time>
      </trkpt>
      <trkpt lat="49.46146" lon="2.05102">
        <ele>106.1</ele>
        <time>2013-04-20T07:47:54.727Z</time>
      </trkpt>
      <trkpt lat="49.46145" lon="2.05096">
        <ele>105.5</ele>
        <time>2013-04-20T07:47:55.743Z</time>
      </trkpt>
      <trkpt lat="49.46149" lon="2.05094">
        <ele>105.8</ele>
        <time>2013-04-20T07:47:59.739Z</time>
      </trkpt>
      <trkpt lat="49.46149" lon="2.05092">
        <ele>105.3</ele>
        <time>2013-04-20T07:48:00.735Z</time>
      </trkpt>
      <trkpt lat="49.4615" lon="2.05091">
        <ele>105.5</ele>
        <time>2013-04-20T07:48:01.719Z</time>
      </trkpt>
      <trkpt lat="49.46144" lon="2.05078">
        <ele>105.2</ele>
        <time>2013-04-20T07:48:02.740Z</time>
      </trkpt>
      <trkpt lat="49.46146" lon="2.05079">
        <ele>104.3</ele>
        <time>2013-04-20T07:48:07.738Z</time>
      </trkpt>
      <trkpt lat="49.4615" lon="2.05079">
        <ele>105.6</ele>
        <time>2013-04-20T07:48:08.731Z</time>
      </trkpt>
      <trkpt lat="49.46153" lon="2.05077">
        <ele>106.2</ele>
        <time>2013-04-20T07:48:10.739Z</time>
      </trkpt>
      <trkpt lat="49.46154" lon="2.05062">
        <ele>113.6</ele>
        <time>2013-04-20T07:48:12.727Z</time>
      </trkpt>
      <trkpt lat="49.46159" lon="2.05067">
        <ele>109.3</ele>
        <time>2013-04-20T07:48:13.731Z</time>
      </trkpt>
      <trkpt lat="49.46162" lon="2.05065">
        <ele>106.2</ele>
        <time>2013-04-20T07:48:15.712Z</time>
      </trkpt>
      <trkpt lat="49.46165" lon="2.05066">
        <ele>103.6</ele>
        <time>2013-04-20T07:48:16.932Z</time>
      </trkpt>
      <trkpt lat="49.46186" lon="2.05059">
        <ele>109.6</ele>
        <time>2013-04-20T07:48:17.948Z</time>
      </trkpt>
      <trkpt lat="49.46186" lon="2.05058">
        <ele>109.4</ele>
        <time>2013-04-20T07:48:18.744Z</time>
      </trkpt>
      <trkpt lat="49.4617" lon="2.0506">
        <ele>109.6</ele>
        <time>2013-04-20T07:48:19.731Z</time>
      </trkpt>
      <trkpt lat="49.46171" lon="2.05059">
        <ele>109.6</ele>
        <time>2013-04-20T07:48:21.742Z</time>
      </trkpt>
      <trkpt lat="49.46175" lon="2.05055">
        <ele>109.3</ele>
        <time>2013-04-20T07:48:22.737Z</time>
      </trkpt>
      <trkpt lat="49.46177" lon="2.05051">
        <ele>108.9</ele>
        <time>2013-04-20T07:48:24.725Z</time>
      </trkpt>
      <trkpt lat="49.4618" lon="2.05051">
        <ele>109</ele>
        <time>2013-04-20T07:48:25.738Z</time>
      </trkpt>
      <trkpt lat="49.46183" lon="2.05049">
        <ele>109.9</ele>
        <time>2013-04-20T07:48:26.933Z</time>
      </trkpt>
      <trkpt lat="49.46185" lon="2.05037">
        <ele>135.2</ele>
        <time>2013-04-20T07:48:27.738Z</time>
      </trkpt>
      <trkpt lat="49.46189" lon="2.05038">
        <ele>136.7</ele>
        <time>2013-04-20T07:48:28.725Z</time>
      </trkpt>
      <trkpt lat="49.4619" lon="2.05038">
        <ele>132.5</ele>
        <time>2013-04-20T07:48:29.704Z</time>
      </trkpt>
      <trkpt lat="49.46192" lon="2.0504">
        <ele>131.5</ele>
        <time>2013-04-20T07:48:31.724Z</time>
      </trkpt>
      <trkpt lat="49.46195" lon="2.05042">
        <ele>133</ele>
        <time>2013-04-20T07:48:32.742Z</time>
      </trkpt>
      <trkpt lat="49.46199" lon="2.0504">
        <ele>127</ele>
        <time>2013-04-20T07:48:37.737Z</time>
      </trkpt>
      <trkpt lat="49.46201" lon="2.05041">
        <ele>127.5</ele>
        <time>2013-04-20T07:48:38.931Z</time>
      </trkpt>
      <trkpt lat="49.4619" lon="2.05047">
        <ele>97.8</ele>
        <time>2013-04-20T07:48:39.753Z</time>
      </trkpt>
      <trkpt lat="49.46193" lon="2.05048">
        <ele>97.7</ele>
        <time>2013-04-20T07:48:40.746Z</time>
      </trkpt>
      <trkpt lat="49.46195" lon="2.05048">
        <ele>97.1</ele>
        <time>2013-04-20T07:48:41.732Z</time>
      </trkpt>
      <trkpt lat="49.46196" lon="2.05046">
        <ele>100.3</ele>
        <time>2013-04-20T07:48:42.904Z</time>
      </trkpt>
      <trkpt lat="49.46224" lon="2.05042">
        <ele>118.7</ele>
        <time>2013-04-20T07:48:43.749Z</time>
      </trkpt>
      <trkpt lat="49.46225" lon="2.05041">
        <ele>118</ele>
        <time>2013-04-20T07:48:44.739Z</time>
      </trkpt>
      <trkpt lat="49.46216" lon="2.05041">
        <ele>111.8</ele>
        <time>2013-04-20T07:48:45.742Z</time>
      </trkpt>
      <trkpt lat="49.46208" lon="2.05034">
        <ele>105.6</ele>
        <time>2013-04-20T07:48:46.725Z</time>
      </trkpt>
      <trkpt lat="49.46212" lon="2.05036">
        <ele>107.1</ele>
        <time>2013-04-20T07:48:48.742Z</time>
      </trkpt>
      <trkpt lat="49.46214" lon="2.05036">
        <ele>108</ele>
        <time>2013-04-20T07:48:49.702Z</time>
      </trkpt>
      <trkpt lat="49.46217" lon="2.05038">
        <ele>110.5</ele>
        <time>2013-04-20T07:48:51.742Z</time>
      </trkpt>
      <trkpt lat="49.46219" lon="2.05038">
        <ele>110.5</ele>
        <time>2013-04-20T07:48:52.793Z</time>
      </trkpt>
      <trkpt lat="49.46221" lon="2.05037">
        <ele>112.4</ele>
        <time>2013-04-20T07:48:53.732Z</time>
      </trkpt>
      <trkpt lat="49.46223" lon="2.05037">
        <ele>115.4</ele>
        <time>2013-04-20T07:48:54.725Z</time>
      </trkpt>
      <trkpt lat="49.46225" lon="2.05037">
        <ele>116.7</ele>
        <time>2013-04-20T07:48:55.743Z</time>
      </trkpt>
      <trkpt lat="49.46214" lon="2.05037">
        <ele>109.5</ele>
        <time>2013-04-20T07:48:56.736Z</time>
      </trkpt>
      <trkpt lat="49.4622" lon="2.05031">
        <ele>116.8</ele>
        <time>2013-04-20T07:48:57.706Z</time>
      </trkpt>
      <trkpt lat="49.46223" lon="2.05029">
        <ele>112.1</ele>
        <time>2013-04-20T07:49:00.735Z</time>
      </trkpt>
      <trkpt lat="49.46225" lon="2.05028">
        <ele>112.5</ele>
        <time>2013-04-20T07:49:01.725Z</time>
      </trkpt>
      <trkpt lat="49.46229" lon="2.05028">
        <ele>111.9</ele>
        <time>2013-04-20T07:49:03.743Z</time>
      </trkpt>
      <trkpt lat="49.46232" lon="2.05029">
        <ele>111.3</ele>
        <time>2013-04-20T07:49:04.739Z</time>
      </trkpt>
      <trkpt lat="49.46235" lon="2.05029">
        <ele>111.2</ele>
        <time>2013-04-20T07:49:06.740Z</time>
      </trkpt>
      <trkpt lat="49.46237" lon="2.05029">
        <ele>111.3</ele>
        <time>2013-04-20T07:49:07.715Z</time>
      </trkpt>
      <trkpt lat="49.46241" lon="2.0503">
        <ele>111.3</ele>
        <time>2013-04-20T07:49:11.734Z</time>
      </trkpt>
      <trkpt lat="49.46242" lon="2.05029">
        <ele>111.2</ele>
        <time>2013-04-20T07:49:12.732Z</time>
      </trkpt>
      <trkpt lat="49.46246" lon="2.0503">
        <ele>109.1</ele>
        <time>2013-04-20T07:49:15.737Z</time>
      </trkpt>
      <trkpt lat="49.46247" lon="2.0503">
        <ele>110.3</ele>
        <time>2013-04-20T07:49:16.724Z</time>
      </trkpt>
      <trkpt lat="49.46252" lon="2.0503">
        <ele>109.6</ele>
        <time>2013-04-20T07:49:19.735Z</time>
      </trkpt>
      <trkpt lat="49.46253" lon="2.05029">
        <ele>109.4</ele>
        <time>2013-04-20T07:49:20.722Z</time>
      </trkpt>
      <trkpt lat="49.46256" lon="2.05029">
        <ele>110.8</ele>
        <time>2013-04-20T07:49:22.723Z</time>
      </trkpt>
      <trkpt lat="49.46257" lon="2.05028">
        <ele>109.5</ele>
        <time>2013-04-20T07:49:23.732Z</time>
      </trkpt>
      <trkpt lat="49.4626" lon="2.05025">
        <ele>109.5</ele>
        <time>2013-04-20T07:49:25.923Z</time>
      </trkpt>
      <trkpt lat="49.46259" lon="2.05004">
        <ele>84.8</ele>
        <time>2013-04-20T07:49:26.746Z</time>
      </trkpt>
      <trkpt lat="49.46263" lon="2.05005">
        <ele>99.6</ele>
        <time>2013-04-20T07:49:31.723Z</time>
      </trkpt>
      <trkpt lat="49.46265" lon="2.05004">
        <ele>100</ele>
        <time>2013-04-20T07:49:32.724Z</time>
      </trkpt>
      <trkpt lat="49.46269" lon="2.05019">
        <ele>124.6</ele>
        <time>2013-04-20T07:49:33.742Z</time>
      </trkpt>
      <trkpt lat="49.46272" lon="2.0502">
        <ele>117.6</ele>
        <time>2013-04-20T07:49:34.730Z</time>
      </trkpt>
      <trkpt lat="49.46274" lon="2.0502">
        <ele>115.8</ele>
        <time>2013-04-20T07:49:35.727Z</time>
      </trkpt>
      <trkpt lat="49.46278" lon="2.05016">
        <ele>111</ele>
        <time>2013-04-20T07:49:38.733Z</time>
      </trkpt>
      <trkpt lat="49.4628" lon="2.05016">
        <ele>111.3</ele>
        <time>2013-04-20T07:49:39.714Z</time>
      </trkpt>
      <trkpt lat="49.46283" lon="2.05019">
        <ele>111.2</ele>
        <time>2013-04-20T07:49:40.754Z</time>
      </trkpt>
      <trkpt lat="49.46275" lon="2.05015">
        <ele>118.5</ele>
        <time>2013-04-20T07:49:41.735Z</time>
      </trkpt>
      <trkpt lat="49.46282" lon="2.05021">
        <ele>104.5</ele>
        <time>2013-04-20T07:49:42.727Z</time>
      </trkpt>
      <trkpt lat="49.46286" lon="2.05016">
        <ele>102.7</ele>
        <time>2013-04-20T07:49:44.737Z</time>
      </trkpt>
      <trkpt lat="49.46288" lon="2.05016">
        <ele>101.6</ele>
        <time>2013-04-20T07:49:45.744Z</time>
      </trkpt>
      <trkpt lat="49.4629" lon="2.05012">
        <ele>102.6</ele>
        <time>2013-04-20T07:49:47.723Z</time>
      </trkpt>
      <trkpt lat="49.46291" lon="2.0501">
        <ele>102.3</ele>
        <time>2013-04-20T07:49:48.918Z</time>
      </trkpt>
      <trkpt lat="49.46309" lon="2.05003">
        <ele>112.7</ele>
        <time>2013-04-20T07:49:49.756Z</time>
      </trkpt>
      <trkpt lat="49.46311" lon="2.05001">
        <ele>112.8</ele>
        <time>2013-04-20T07:49:50.718Z</time>
      </trkpt>
      <trkpt lat="49.46288" lon="2.04994">
        <ele>93.7</ele>
        <time>2013-04-20T07:49:51.743Z</time>
      </trkpt>
      <trkpt lat="49.46292" lon="2.04995">
        <ele>92.8</ele>
        <time>2013-04-20T07:49:54.729Z</time>
      </trkpt>
      <trkpt lat="49.46293" lon="2.04994">
        <ele>92.7</ele>
        <time>2013-04-20T07:49:55.744Z</time>
      </trkpt>
      <trkpt lat="49.46297" lon="2.04993">
        <ele>98.3</ele>
        <time>2013-04-20T07:49:56.742Z</time>
      </trkpt>
      <trkpt lat="49.46297" lon="2.04988">
        <ele>98.6</ele>
        <time>2013-04-20T07:49:57.731Z</time>
      </trkpt>
      <trkpt lat="49.46299" lon="2.04986">
        <ele>98</ele>
        <time>2013-04-20T07:49:58.725Z</time>
      </trkpt>
      <trkpt lat="49.46302" lon="2.04984">
        <ele>102.1</ele>
        <time>2013-04-20T07:49:59.744Z</time>
      </trkpt>
      <trkpt lat="49.46305" lon="2.0498">
        <ele>100.2</ele>
        <time>2013-04-20T07:50:02.728Z</time>
      </trkpt>
      <trkpt lat="49.46306" lon="2.0498">
        <ele>102.1</ele>
        <time>2013-04-20T07:50:03.742Z</time>
      </trkpt>
      <trkpt lat="49.4631" lon="2.04977">
        <ele>104.3</ele>
        <time>2013-04-20T07:50:06.743Z</time>
      </trkpt>
      <trkpt lat="49.46304" lon="2.04961">
        <ele>121.5</ele>
        <time>2013-04-20T07:50:07.742Z</time>
      </trkpt>
      <trkpt lat="49.46313" lon="2.04967">
        <ele>113.2</ele>
        <time>2013-04-20T07:50:08.730Z</time>
      </trkpt>
      <trkpt lat="49.46317" lon="2.04969">
        <ele>116.3</ele>
        <time>2013-04-20T07:50:10.742Z</time>
      </trkpt>
      <trkpt lat="49.46331" lon="2.04968">
        <ele>120.7</ele>
        <time>2013-04-20T07:50:11.738Z</time>
      </trkpt>
      <trkpt lat="49.46335" lon="2.04965">
        <ele>114.3</ele>
        <time>2013-04-20T07:50:18.742Z</time>
      </trkpt>
      <trkpt lat="49.46336" lon="2.04964">
        <ele>113.5</ele>
        <time>2013-04-20T07:50:19.734Z</time>
      </trkpt>
      <trkpt lat="49.4634" lon="2.04961">
        <ele>109.3</ele>
        <time>2013-04-20T07:50:23.733Z</time>
      </trkpt>
      <trkpt lat="49.46341" lon="2.0496">
        <ele>110.1</ele>
        <time>2013-04-20T07:50:24.724Z</time>
      </trkpt>
      <trkpt lat="49.46347" lon="2.04953">
        <ele>115.6</ele>
        <time>2013-04-20T07:50:25.747Z</time>
      </trkpt>
      <trkpt lat="49.4635" lon="2.04957">
        <ele>114</ele>
        <time>2013-04-20T07:50:30.733Z</time>
      </trkpt>
      <trkpt lat="49.46335" lon="2.04951">
        <ele>155.3</ele>
        <time>2013-04-20T07:50:31.708Z</time>
      </trkpt>
      <trkpt lat="49.46336" lon="2.04951">
        <ele>155.5</ele>
        <time>2013-04-20T07:50:32.719Z</time>
      </trkpt>
      <trkpt lat="49.46341" lon="2.04943">
        <ele>98.5</ele>
        <time>2013-04-20T07:50:33.742Z</time>
      </trkpt>
      <trkpt lat="49.46344" lon="2.04946">
        <ele>100.8</ele>
        <time>2013-04-20T07:50:37.734Z</time>
      </trkpt>
      <trkpt lat="49.46345" lon="2.04947">
        <ele>101.3</ele>
        <time>2013-04-20T07:50:38.932Z</time>
      </trkpt>
      <trkpt lat="49.46354" lon="2.0495">
        <ele>126.2</ele>
        <time>2013-04-20T07:50:39.968Z</time>
      </trkpt>
      <trkpt lat="49.46349" lon="2.04924">
        <ele>105.4</ele>
        <time>2013-04-20T07:50:40.721Z</time>
      </trkpt>
      <trkpt lat="49.46351" lon="2.04923">
        <ele>105.4</ele>
        <time>2013-04-20T07:50:41.739Z</time>
      </trkpt>
      <trkpt lat="49.46356" lon="2.04934">
        <ele>108.4</ele>
        <time>2013-04-20T07:50:42.730Z</time>
      </trkpt>
      <trkpt lat="49.46357" lon="2.04938">
        <ele>108.8</ele>
        <time>2013-04-20T07:50:44.742Z</time>
      </trkpt>
      <trkpt lat="49.46346" lon="2.04953">
        <ele>122.4</ele>
        <time>2013-04-20T07:50:45.740Z</time>
      </trkpt>
      <trkpt lat="49.46347" lon="2.04948">
        <ele>111.3</ele>
        <time>2013-04-20T07:50:46.725Z</time>
      </trkpt>
      <trkpt lat="49.46346" lon="2.04945">
        <ele>113.1</ele>
        <time>2013-04-20T07:50:47.723Z</time>
      </trkpt>
      <trkpt lat="49.46345" lon="2.04941">
        <ele>109.7</ele>
        <time>2013-04-20T07:50:50.725Z</time>
      </trkpt>
      <trkpt lat="49.46343" lon="2.04939">
        <ele>113.1</ele>
        <time>2013-04-20T07:50:51.724Z</time>
      </trkpt>
      <trkpt lat="49.46342" lon="2.04937">
        <ele>116.1</ele>
        <time>2013-04-20T07:51:07.739Z</time>
      </trkpt>
      <trkpt lat="49.4636" lon="2.04954">
        <ele>104.8</ele>
        <time>2013-04-20T07:51:08.733Z</time>
      </trkpt>
      <trkpt lat="49.4636" lon="2.04953">
        <ele>105.1</ele>
        <time>2013-04-20T07:51:15.932Z</time>
      </trkpt>
      <trkpt lat="49.46353" lon="2.04927">
        <ele>109.8</ele>
        <time>2013-04-20T07:51:16.805Z</time>
      </trkpt>
      <trkpt lat="49.46353" lon="2.04917">
        <ele>110.3</ele>
        <time>2013-04-20T07:51:17.759Z</time>
      </trkpt>
      <trkpt lat="49.46355" lon="2.0493">
        <ele>109.7</ele>
        <time>2013-04-20T07:51:18.742Z</time>
      </trkpt>
      <trkpt lat="49.46358" lon="2.0493">
        <ele>108</ele>
        <time>2013-04-20T07:51:20.722Z</time>
      </trkpt>
      <trkpt lat="49.46361" lon="2.04931">
        <ele>109</ele>
        <time>2013-04-20T07:51:21.712Z</time>
      </trkpt>
      <trkpt lat="49.46364" lon="2.0493">
        <ele>110</ele>
        <time>2013-04-20T07:51:23.734Z</time>
      </trkpt>
      <trkpt lat="49.46369" lon="2.0493">
        <ele>113.6</ele>
        <time>2013-04-20T07:51:24.728Z</time>
      </trkpt>
      <trkpt lat="49.46371" lon="2.04931">
        <ele>114.3</ele>
        <time>2013-04-20T07:51:25.751Z</time>
      </trkpt>
      <trkpt lat="49.46372" lon="2.04916">
        <ele>115.5</ele>
        <time>2013-04-20T07:51:26.712Z</time>
      </trkpt>
      <trkpt lat="49.46375" lon="2.04918">
        <ele>115.7</ele>
        <time>2013-04-20T07:51:27.737Z</time>
      </trkpt>
      <trkpt lat="49.46373" lon="2.04908">
        <ele>115.9</ele>
        <time>2013-04-20T07:51:28.723Z</time>
      </trkpt>
      <trkpt lat="49.46376" lon="2.04913">
        <ele>115.8</ele>
        <time>2013-04-20T07:51:29.741Z</time>
      </trkpt>
      <trkpt lat="49.4638" lon="2.04913">
        <ele>114.2</ele>
        <time>2013-04-20T07:51:31.725Z</time>
      </trkpt>
      <trkpt lat="49.46384" lon="2.04912">
        <ele>115.1</ele>
        <time>2013-04-20T07:51:32.727Z</time>
      </trkpt>
      <trkpt lat="49.46387" lon="2.04909">
        <ele>115.1</ele>
        <time>2013-04-20T07:51:35.725Z</time>
      </trkpt>
      <trkpt lat="49.46388" lon="2.04908">
        <ele>115.4</ele>
        <time>2013-04-20T07:51:36.742Z</time>
      </trkpt>
      <trkpt lat="49.46391" lon="2.04906">
        <ele>115.5</ele>
        <time>2013-04-20T07:51:38.735Z</time>
      </trkpt>
      <trkpt lat="49.46392" lon="2.04905">
        <ele>115.2</ele>
        <time>2013-04-20T07:51:39.723Z</time>
      </trkpt>
      <trkpt lat="49.46396" lon="2.04905">
        <ele>114.6</ele>
        <time>2013-04-20T07:51:41.736Z</time>
      </trkpt>
      <trkpt lat="49.46397" lon="2.04904">
        <ele>114.2</ele>
        <time>2013-04-20T07:51:42.733Z</time>
      </trkpt>
      <trkpt lat="49.46402" lon="2.04904">
        <ele>114.2</ele>
        <time>2013-04-20T07:51:44.740Z</time>
      </trkpt>
      <trkpt lat="49.46404" lon="2.04904">
        <ele>114.8</ele>
        <time>2013-04-20T07:51:45.734Z</time>
      </trkpt>
      <trkpt lat="49.46407" lon="2.04902">
        <ele>114.5</ele>
        <time>2013-04-20T07:51:47.727Z</time>
      </trkpt>
      <trkpt lat="49.46409" lon="2.04901">
        <ele>114.4</ele>
        <time>2013-04-20T07:51:48.749Z</time>
      </trkpt>
      <trkpt lat="49.46413" lon="2.04898">
        <ele>112.7</ele>
        <time>2013-04-20T07:51:51.724Z</time>
      </trkpt>
      <trkpt lat="49.46414" lon="2.04897">
        <ele>113.2</ele>
        <time>2013-04-20T07:51:52.740Z</time>
      </trkpt>
      <trkpt lat="49.46417" lon="2.04893">
        <ele>114.2</ele>
        <time>2013-04-20T07:51:54.726Z</time>
      </trkpt>
      <trkpt lat="49.46418" lon="2.04891">
        <ele>113.9</ele>
        <time>2013-04-20T07:51:55.737Z</time>
      </trkpt>
      <trkpt lat="49.46422" lon="2.04888">
        <ele>114</ele>
        <time>2013-04-20T07:51:57.735Z</time>
      </trkpt>
      <trkpt lat="49.46422" lon="2.04886">
        <ele>112</ele>
        <time>2013-04-20T07:51:58.724Z</time>
      </trkpt>
      <trkpt lat="49.46425" lon="2.04881">
        <ele>111.5</ele>
        <time>2013-04-20T07:52:01.725Z</time>
      </trkpt>
      <trkpt lat="49.46426" lon="2.0488">
        <ele>111.6</ele>
        <time>2013-04-20T07:52:02.724Z</time>
      </trkpt>
      <trkpt lat="49.46428" lon="2.04876">
        <ele>112.5</ele>
        <time>2013-04-20T07:52:04.736Z</time>
      </trkpt>
      <trkpt lat="49.46429" lon="2.04875">
        <ele>112.3</ele>
        <time>2013-04-20T07:52:05.710Z</time>
      </trkpt>
      <trkpt lat="49.46432" lon="2.04871">
        <ele>112.5</ele>
        <time>2013-04-20T07:52:07.742Z</time>
      </trkpt>
      <trkpt lat="49.46433" lon="2.04869">
        <ele>112.1</ele>
        <time>2013-04-20T07:52:08.735Z</time>
      </trkpt>
      <trkpt lat="49.46436" lon="2.04866">
        <ele>112.4</ele>
        <time>2013-04-20T07:52:10.742Z</time>
      </trkpt>
      <trkpt lat="49.46437" lon="2.04864">
        <ele>112.3</ele>
        <time>2013-04-20T07:52:11.796Z</time>
      </trkpt>
      <trkpt lat="49.4644" lon="2.0486">
        <ele>109.5</ele>
        <time>2013-04-20T07:52:14.743Z</time>
      </trkpt>
      <trkpt lat="49.46441" lon="2.04858">
        <ele>109.2</ele>
        <time>2013-04-20T07:52:15.734Z</time>
      </trkpt>
      <trkpt lat="49.46443" lon="2.04857">
        <ele>109.1</ele>
        <time>2013-04-20T07:52:17.726Z</time>
      </trkpt>
      <trkpt lat="49.46447" lon="2.04864">
        <ele>111</ele>
        <time>2013-04-20T07:52:18.739Z</time>
      </trkpt>
      <trkpt lat="49.46446" lon="2.0486">
        <ele>110.5</ele>
        <time>2013-04-20T07:52:20.726Z</time>
      </trkpt>
      <trkpt lat="49.46451" lon="2.0487">
        <ele>99.3</ele>
        <time>2013-04-20T07:52:21.797Z</time>
      </trkpt>
      <trkpt lat="49.46448" lon="2.04866">
        <ele>106.4</ele>
        <time>2013-04-20T07:52:22.734Z</time>
      </trkpt>
      <trkpt lat="49.46449" lon="2.04864">
        <ele>105</ele>
        <time>2013-04-20T07:52:23.737Z</time>
      </trkpt>
      <trkpt lat="49.46452" lon="2.04859">
        <ele>110.6</ele>
        <time>2013-04-20T07:52:24.723Z</time>
      </trkpt>
      <trkpt lat="49.46455" lon="2.04855">
        <ele>111</ele>
        <time>2013-04-20T07:52:27.731Z</time>
      </trkpt>
      <trkpt lat="49.46457" lon="2.04855">
        <ele>109.8</ele>
        <time>2013-04-20T07:52:28.727Z</time>
      </trkpt>
      <trkpt lat="49.46458" lon="2.04856">
        <ele>109</ele>
        <time>2013-04-20T07:52:29.745Z</time>
      </trkpt>
      <trkpt lat="49.46461" lon="2.04859">
        <ele>110.6</ele>
        <time>2013-04-20T07:52:30.736Z</time>
      </trkpt>
      <trkpt lat="49.46465" lon="2.04857">
        <ele>113</ele>
        <time>2013-04-20T07:52:33.737Z</time>
      </trkpt>
      <trkpt lat="49.46466" lon="2.04856">
        <ele>113</ele>
        <time>2013-04-20T07:52:34.733Z</time>
      </trkpt>
      <trkpt lat="49.46468" lon="2.04852">
        <ele>111.4</ele>
        <time>2013-04-20T07:52:36.739Z</time>
      </trkpt>
      <trkpt lat="49.4647" lon="2.0485">
        <ele>113.2</ele>
        <time>2013-04-20T07:52:37.736Z</time>
      </trkpt>
      <trkpt lat="49.46471" lon="2.04844">
        <ele>110.8</ele>
        <time>2013-04-20T07:52:39.725Z</time>
      </trkpt>
      <trkpt lat="49.46472" lon="2.04841">
        <ele>112</ele>
        <time>2013-04-20T07:52:40.737Z</time>
      </trkpt>
      <trkpt lat="49.46474" lon="2.04823">
        <ele>118.3</ele>
        <time>2013-04-20T07:52:41.732Z</time>
      </trkpt>
      <trkpt lat="49.46477" lon="2.04823">
        <ele>115.7</ele>
        <time>2013-04-20T07:52:45.737Z</time>
      </trkpt>
      <trkpt lat="49.46481" lon="2.04822">
        <ele>119.9</ele>
        <time>2013-04-20T07:52:46.725Z</time>
      </trkpt>
      <trkpt lat="49.46482" lon="2.04819">
        <ele>119.6</ele>
        <time>2013-04-20T07:52:47.721Z</time>
      </trkpt>
      <trkpt lat="49.46484" lon="2.04817">
        <ele>121.1</ele>
        <time>2013-04-20T07:52:48.762Z</time>
      </trkpt>
      <trkpt lat="49.46486" lon="2.04812">
        <ele>120.5</ele>
        <time>2013-04-20T07:52:51.703Z</time>
      </trkpt>
      <trkpt lat="49.46487" lon="2.0481">
        <ele>118.6</ele>
        <time>2013-04-20T07:52:52.748Z</time>
      </trkpt>
      <trkpt lat="49.4649" lon="2.04806">
        <ele>122.9</ele>
        <time>2013-04-20T07:52:54.722Z</time>
      </trkpt>
      <trkpt lat="49.46492" lon="2.04805">
        <ele>123.1</ele>
        <time>2013-04-20T07:52:55.723Z</time>
      </trkpt>
      <trkpt lat="49.46495" lon="2.04799">
        <ele>125.7</ele>
        <time>2013-04-20T07:52:57.736Z</time>
      </trkpt>
      <trkpt lat="49.46496" lon="2.04796">
        <ele>125.9</ele>
        <time>2013-04-20T07:52:58.819Z</time>
      </trkpt>
      <trkpt lat="49.465" lon="2.04795">
        <ele>118.2</ele>
        <time>2013-04-20T07:53:02.725Z</time>
      </trkpt>
      <trkpt lat="49.46509" lon="2.04791">
        <ele>145.4</ele>
        <time>2013-04-20T07:53:03.732Z</time>
      </trkpt>
      <trkpt lat="49.46501" lon="2.04791">
        <ele>131.9</ele>
        <time>2013-04-20T07:53:04.806Z</time>
      </trkpt>
      <trkpt lat="49.46503" lon="2.04785">
        <ele>117.3</ele>
        <time>2013-04-20T07:53:10.704Z</time>
      </trkpt>
      <trkpt lat="49.46503" lon="2.04782">
        <ele>118.8</ele>
        <time>2013-04-20T07:53:11.737Z</time>
      </trkpt>
      <trkpt lat="49.46507" lon="2.04779">
        <ele>118.1</ele>
        <time>2013-04-20T07:53:14.738Z</time>
      </trkpt>
      <trkpt lat="49.46508" lon="2.04777">
        <ele>118</ele>
        <time>2013-04-20T07:53:15.733Z</time>
      </trkpt>
      <trkpt lat="49.46511" lon="2.04773">
        <ele>120.8</ele>
        <time>2013-04-20T07:53:17.727Z</time>
      </trkpt>
      <trkpt lat="49.46513" lon="2.04771">
        <ele>120.8</ele>
        <time>2013-04-20T07:53:18.751Z</time>
      </trkpt>
      <trkpt lat="49.46516" lon="2.04768">
        <ele>119.3</ele>
        <time>2013-04-20T07:53:20.725Z</time>
      </trkpt>
      <trkpt lat="49.46517" lon="2.04766">
        <ele>116.9</ele>
        <time>2013-04-20T07:53:21.740Z</time>
      </trkpt>
      <trkpt lat="49.46519" lon="2.04762">
        <ele>115.5</ele>
        <time>2013-04-20T07:53:24.721Z</time>
      </trkpt>
      <trkpt lat="49.4652" lon="2.04761">
        <ele>117.7</ele>
        <time>2013-04-20T07:53:25.743Z</time>
      </trkpt>
      <trkpt lat="49.46523" lon="2.04757">
        <ele>115.9</ele>
        <time>2013-04-20T07:53:29.741Z</time>
      </trkpt>
      <trkpt lat="49.46523" lon="2.04756">
        <ele>115.8</ele>
        <time>2013-04-20T07:53:30.736Z</time>
      </trkpt>
      <trkpt lat="49.46524" lon="2.0475">
        <ele>117.2</ele>
        <time>2013-04-20T07:53:33.746Z</time>
      </trkpt>
      <trkpt lat="49.46528" lon="2.04754">
        <ele>119</ele>
        <time>2013-04-20T07:53:35.709Z</time>
      </trkpt>
      <trkpt lat="49.46523" lon="2.04761">
        <ele>102.8</ele>
        <time>2013-04-20T07:53:36.742Z</time>
      </trkpt>
      <trkpt lat="49.46531" lon="2.0475">
        <ele>125.4</ele>
        <time>2013-04-20T07:53:37.747Z</time>
      </trkpt>
      <trkpt lat="49.4653" lon="2.04744">
        <ele>125.4</ele>
        <time>2013-04-20T07:53:38.741Z</time>
      </trkpt>
      <trkpt lat="49.4653" lon="2.0474">
        <ele>126.3</ele>
        <time>2013-04-20T07:53:39.724Z</time>
      </trkpt>
      <trkpt lat="49.46531" lon="2.04736">
        <ele>124.9</ele>
        <time>2013-04-20T07:53:40.743Z</time>
      </trkpt>
      <trkpt lat="49.46533" lon="2.04733">
        <ele>126.9</ele>
        <time>2013-04-20T07:53:41.737Z</time>
      </trkpt>
      <trkpt lat="49.46535" lon="2.04729">
        <ele>128.9</ele>
        <time>2013-04-20T07:53:43.717Z</time>
      </trkpt>
      <trkpt lat="49.46536" lon="2.04726">
        <ele>129</ele>
        <time>2013-04-20T07:53:44.745Z</time>
      </trkpt>
      <trkpt lat="49.46539" lon="2.04724">
        <ele>129.5</ele>
        <time>2013-04-20T07:53:46.726Z</time>
      </trkpt>
      <trkpt lat="49.4654" lon="2.04722">
        <ele>130.2</ele>
        <time>2013-04-20T07:53:47.723Z</time>
      </trkpt>
      <trkpt lat="49.46543" lon="2.04717">
        <ele>128.9</ele>
        <time>2013-04-20T07:53:50.723Z</time>
      </trkpt>
      <trkpt lat="49.46544" lon="2.04715">
        <ele>128.7</ele>
        <time>2013-04-20T07:53:51.737Z</time>
      </trkpt>
      <trkpt lat="49.46547" lon="2.0471">
        <ele>114.2</ele>
        <time>2013-04-20T07:53:55.722Z</time>
      </trkpt>
      <trkpt lat="49.46546" lon="2.04708">
        <ele>113</ele>
        <time>2013-04-20T07:53:56.749Z</time>
      </trkpt>
      <trkpt lat="49.46548" lon="2.04702">
        <ele>116.6</ele>
        <time>2013-04-20T07:54:00.736Z</time>
      </trkpt>
      <trkpt lat="49.46549" lon="2.04701">
        <ele>116.6</ele>
        <time>2013-04-20T07:54:01.731Z</time>
      </trkpt>
      <trkpt lat="49.4655" lon="2.04696">
        <ele>116</ele>
        <time>2013-04-20T07:54:03.742Z</time>
      </trkpt>
      <trkpt lat="49.4655" lon="2.04694">
        <ele>115.7</ele>
        <time>2013-04-20T07:54:04.737Z</time>
      </trkpt>
      <trkpt lat="49.46553" lon="2.04692">
        <ele>118</ele>
        <time>2013-04-20T07:54:07.735Z</time>
      </trkpt>
      <trkpt lat="49.46554" lon="2.0469">
        <ele>118.3</ele>
        <time>2013-04-20T07:54:08.734Z</time>
      </trkpt>
      <trkpt lat="49.46556" lon="2.04687">
        <ele>117.2</ele>
        <time>2013-04-20T07:54:10.740Z</time>
      </trkpt>
      <trkpt lat="49.4655" lon="2.04659">
        <ele>120.6</ele>
        <time>2013-04-20T07:54:11.738Z</time>
      </trkpt>
      <trkpt lat="49.46551" lon="2.04674">
        <ele>118</ele>
        <time>2013-04-20T07:54:12.735Z</time>
      </trkpt>
      <trkpt lat="49.46554" lon="2.04674">
        <ele>120.3</ele>
        <time>2013-04-20T07:54:13.795Z</time>
      </trkpt>
      <trkpt lat="49.46555" lon="2.04671">
        <ele>118.2</ele>
        <time>2013-04-20T07:54:14.920Z</time>
      </trkpt>
      <trkpt lat="49.46557" lon="2.04673">
        <ele>123.2</ele>
        <time>2013-04-20T07:54:15.743Z</time>
      </trkpt>
      <trkpt lat="49.4656" lon="2.04675">
        <ele>120.1</ele>
        <time>2013-04-20T07:54:16.733Z</time>
      </trkpt>
      <trkpt lat="49.4656" lon="2.04671">
        <ele>118.4</ele>
        <time>2013-04-20T07:54:18.739Z</time>
      </trkpt>
      <trkpt lat="49.46573" lon="2.04682">
        <ele>123.4</ele>
        <time>2013-04-20T07:54:19.747Z</time>
      </trkpt>
      <trkpt lat="49.46574" lon="2.04681">
        <ele>123.4</ele>
        <time>2013-04-20T07:54:20.729Z</time>
      </trkpt>
      <trkpt lat="49.46564" lon="2.04663">
        <ele>117</ele>
        <time>2013-04-20T07:54:21.739Z</time>
      </trkpt>
      <trkpt lat="49.46566" lon="2.04659">
        <ele>116.4</ele>
        <time>2013-04-20T07:54:23.704Z</time>
      </trkpt>
      <trkpt lat="49.46568" lon="2.04658">
        <ele>118.9</ele>
        <time>2013-04-20T07:54:24.724Z</time>
      </trkpt>
      <trkpt lat="49.4657" lon="2.04654">
        <ele>118.4</ele>
        <time>2013-04-20T07:54:26.737Z</time>
      </trkpt>
      <trkpt lat="49.4657" lon="2.04651">
        <ele>116.4</ele>
        <time>2013-04-20T07:54:27.732Z</time>
      </trkpt>
      <trkpt lat="49.46572" lon="2.04654">
        <ele>117.9</ele>
        <time>2013-04-20T07:54:28.727Z</time>
      </trkpt>
      <trkpt lat="49.46574" lon="2.04654">
        <ele>117.2</ele>
        <time>2013-04-20T07:54:29.738Z</time>
      </trkpt>
      <trkpt lat="49.46576" lon="2.04654">
        <ele>117.5</ele>
        <time>2013-04-20T07:54:30.929Z</time>
      </trkpt>
      <trkpt lat="49.46573" lon="2.04646">
        <ele>122.3</ele>
        <time>2013-04-20T07:54:31.903Z</time>
      </trkpt>
      <trkpt lat="49.46576" lon="2.04627">
        <ele>122.7</ele>
        <time>2013-04-20T07:54:32.728Z</time>
      </trkpt>
      <trkpt lat="49.4658" lon="2.04624">
        <ele>117.8</ele>
        <time>2013-04-20T07:54:39.726Z</time>
      </trkpt>
      <trkpt lat="49.46581" lon="2.04623">
        <ele>117.9</ele>
        <time>2013-04-20T07:54:40.740Z</time>
      </trkpt>
      <trkpt lat="49.46583" lon="2.04624">
        <ele>116.4</ele>
        <time>2013-04-20T07:54:44.737Z</time>
      </trkpt>
      <trkpt lat="49.46586" lon="2.04624">
        <ele>119.5</ele>
        <time>2013-04-20T07:54:45.738Z</time>
      </trkpt>
      <trkpt lat="49.4659" lon="2.04622">
        <ele>118.9</ele>
        <time>2013-04-20T07:54:48.739Z</time>
      </trkpt>
      <trkpt lat="49.46592" lon="2.04621">
        <ele>119.5</ele>
        <time>2013-04-20T07:54:49.802Z</time>
      </trkpt>
      <trkpt lat="49.46594" lon="2.04616">
        <ele>119.2</ele>
        <time>2013-04-20T07:54:51.725Z</time>
      </trkpt>
      <trkpt lat="49.46593" lon="2.04614">
        <ele>116</ele>
        <time>2013-04-20T07:54:52.738Z</time>
      </trkpt>
      <trkpt lat="49.46594" lon="2.0461">
        <ele>112.9</ele>
        <time>2013-04-20T07:54:54.723Z</time>
      </trkpt>
      <trkpt lat="49.46595" lon="2.04607">
        <ele>113.8</ele>
        <time>2013-04-20T07:54:55.743Z</time>
      </trkpt>
      <trkpt lat="49.46595" lon="2.04602">
        <ele>113.6</ele>
        <time>2013-04-20T07:54:57.738Z</time>
      </trkpt>
      <trkpt lat="49.46596" lon="2.046">
        <ele>112.3</ele>
        <time>2013-04-20T07:54:58.743Z</time>
      </trkpt>
      <trkpt lat="49.46597" lon="2.04598">
        <ele>129.2</ele>
        <time>2013-04-20T07:55:01.727Z</time>
      </trkpt>
      <trkpt lat="49.46599" lon="2.04594">
        <ele>124.9</ele>
        <time>2013-04-20T07:55:02.844Z</time>
      </trkpt>
      <trkpt lat="49.46602" lon="2.0459">
        <ele>123.6</ele>
        <time>2013-04-20T07:55:04.738Z</time>
      </trkpt>
      <trkpt lat="49.46603" lon="2.04588">
        <ele>125.1</ele>
        <time>2013-04-20T07:55:05.727Z</time>
      </trkpt>
      <trkpt lat="49.46604" lon="2.04586">
        <ele>124.1</ele>
        <time>2013-04-20T07:55:06.728Z</time>
      </trkpt>
      <trkpt lat="49.46622" lon="2.04575">
        <ele>121.7</ele>
        <time>2013-04-20T07:55:07.738Z</time>
      </trkpt>
      <trkpt lat="49.46618" lon="2.04576">
        <ele>124.5</ele>
        <time>2013-04-20T07:55:09.736Z</time>
      </trkpt>
      <trkpt lat="49.46612" lon="2.04574">
        <ele>114.6</ele>
        <time>2013-04-20T07:55:10.743Z</time>
      </trkpt>
      <trkpt lat="49.4661" lon="2.04569">
        <ele>112.1</ele>
        <time>2013-04-20T07:55:12.734Z</time>
      </trkpt>
      <trkpt lat="49.46611" lon="2.04567">
        <ele>114.5</ele>
        <time>2013-04-20T07:55:13.726Z</time>
      </trkpt>
      <trkpt lat="49.46613" lon="2.04569">
        <ele>117.1</ele>
        <time>2013-04-20T07:55:14.859Z</time>
      </trkpt>
      <trkpt lat="49.46604" lon="2.04559">
        <ele>114.5</ele>
        <time>2013-04-20T07:55:15.748Z</time>
      </trkpt>
      <trkpt lat="49.46608" lon="2.04556">
        <ele>116.6</ele>
        <time>2013-04-20T07:55:19.731Z</time>
      </trkpt>
      <trkpt lat="49.4661" lon="2.04567">
        <ele>115.5</ele>
        <time>2013-04-20T07:55:20.725Z</time>
      </trkpt>
      <trkpt lat="49.46613" lon="2.04564">
        <ele>116.9</ele>
        <time>2013-04-20T07:55:21.723Z</time>
      </trkpt>
      <trkpt lat="49.46615" lon="2.0456">
        <ele>115.2</ele>
        <time>2013-04-20T07:55:22.743Z</time>
      </trkpt>
      <trkpt lat="49.46617" lon="2.04556">
        <ele>116.1</ele>
        <time>2013-04-20T07:55:23.739Z</time>
      </trkpt>
      <trkpt lat="49.46618" lon="2.04551">
        <ele>114.7</ele>
        <time>2013-04-20T07:55:24.725Z</time>
      </trkpt>
      <trkpt lat="49.4662" lon="2.04546">
        <ele>115.3</ele>
        <time>2013-04-20T07:55:26.743Z</time>
      </trkpt>
      <trkpt lat="49.4662" lon="2.04544">
        <ele>115.4</ele>
        <time>2013-04-20T07:55:27.736Z</time>
      </trkpt>
      <trkpt lat="49.46608" lon="2.0453">
        <ele>109.6</ele>
        <time>2013-04-20T07:55:29.739Z</time>
      </trkpt>
      <trkpt lat="49.46611" lon="2.04529">
        <ele>114.4</ele>
        <time>2013-04-20T07:55:31.734Z</time>
      </trkpt>
      <trkpt lat="49.46615" lon="2.04532">
        <ele>115.6</ele>
        <time>2013-04-20T07:55:32.747Z</time>
      </trkpt>
      <trkpt lat="49.46618" lon="2.04529">
        <ele>117.7</ele>
        <time>2013-04-20T07:55:33.739Z</time>
      </trkpt>
      <trkpt lat="49.46621" lon="2.04527">
        <ele>118.9</ele>
        <time>2013-04-20T07:55:34.735Z</time>
      </trkpt>
      <trkpt lat="49.46623" lon="2.04527">
        <ele>118.8</ele>
        <time>2013-04-20T07:55:35.725Z</time>
      </trkpt>
      <trkpt lat="49.46623" lon="2.0452">
        <ele>118.4</ele>
        <time>2013-04-20T07:55:36.727Z</time>
      </trkpt>
      <trkpt lat="49.46641" lon="2.04516">
        <ele>110.7</ele>
        <time>2013-04-20T07:55:37.737Z</time>
      </trkpt>
      <trkpt lat="49.46633" lon="2.04518">
        <ele>107</ele>
        <time>2013-04-20T07:55:38.734Z</time>
      </trkpt>
      <trkpt lat="49.46633" lon="2.04517">
        <ele>107.7</ele>
        <time>2013-04-20T07:55:40.742Z</time>
      </trkpt>
      <trkpt lat="49.46632" lon="2.04511">
        <ele>108</ele>
        <time>2013-04-20T07:55:41.744Z</time>
      </trkpt>
      <trkpt lat="49.46632" lon="2.04505">
        <ele>111</ele>
        <time>2013-04-20T07:55:43.793Z</time>
      </trkpt>
      <trkpt lat="49.46642" lon="2.04508">
        <ele>126.7</ele>
        <time>2013-04-20T07:55:44.926Z</time>
      </trkpt>
      <trkpt lat="49.46632" lon="2.04499">
        <ele>134</ele>
        <time>2013-04-20T07:55:45.748Z</time>
      </trkpt>
      <trkpt lat="49.46635" lon="2.04498">
        <ele>117.2</ele>
        <time>2013-04-20T07:55:49.734Z</time>
      </trkpt>
      <trkpt lat="49.46634" lon="2.04492">
        <ele>115</ele>
        <time>2013-04-20T07:55:50.728Z</time>
      </trkpt>
      <trkpt lat="49.46636" lon="2.04489">
        <ele>113.4</ele>
        <time>2013-04-20T07:55:52.740Z</time>
      </trkpt>
      <trkpt lat="49.46638" lon="2.04489">
        <ele>114.7</ele>
        <time>2013-04-20T07:55:53.808Z</time>
      </trkpt>
      <trkpt lat="49.46641" lon="2.04488">
        <ele>101.7</ele>
        <time>2013-04-20T07:55:56.739Z</time>
      </trkpt>
      <trkpt lat="49.46644" lon="2.04486">
        <ele>105.9</ele>
        <time>2013-04-20T07:55:57.736Z</time>
      </trkpt>
      <trkpt lat="49.46645" lon="2.04479">
        <ele>105.4</ele>
        <time>2013-04-20T07:55:59.740Z</time>
      </trkpt>
      <trkpt lat="49.46645" lon="2.04478">
        <ele>104.4</ele>
        <time>2013-04-20T07:56:00.752Z</time>
      </trkpt>
      <trkpt lat="49.46651" lon="2.04486">
        <ele>136.8</ele>
        <time>2013-04-20T07:56:01.733Z</time>
      </trkpt>
      <trkpt lat="49.46656" lon="2.04494">
        <ele>111.3</ele>
        <time>2013-04-20T07:56:02.726Z</time>
      </trkpt>
      <trkpt lat="49.46654" lon="2.04486">
        <ele>108.8</ele>
        <time>2013-04-20T07:56:03.766Z</time>
      </trkpt>
      <trkpt lat="49.46655" lon="2.04483">
        <ele>109</ele>
        <time>2013-04-20T07:56:04.754Z</time>
      </trkpt>
      <trkpt lat="49.46653" lon="2.04474">
        <ele>108.2</ele>
        <time>2013-04-20T07:56:05.738Z</time>
      </trkpt>
      <trkpt lat="49.46652" lon="2.04468">
        <ele>109.9</ele>
        <time>2013-04-20T07:56:07.742Z</time>
      </trkpt>
      <trkpt lat="49.46651" lon="2.04463">
        <ele>112.1</ele>
        <time>2013-04-20T07:56:08.734Z</time>
      </trkpt>
      <trkpt lat="49.46654" lon="2.04459">
        <ele>110.8</ele>
        <time>2013-04-20T07:56:10.737Z</time>
      </trkpt>
      <trkpt lat="49.46654" lon="2.04457">
        <ele>110.9</ele>
        <time>2013-04-20T07:56:11.742Z</time>
      </trkpt>
      <trkpt lat="49.46655" lon="2.04452">
        <ele>111.1</ele>
        <time>2013-04-20T07:56:13.738Z</time>
      </trkpt>
      <trkpt lat="49.46655" lon="2.0445">
        <ele>110.6</ele>
        <time>2013-04-20T07:56:14.745Z</time>
      </trkpt>
      <trkpt lat="49.46655" lon="2.04446">
        <ele>110</ele>
        <time>2013-04-20T07:56:18.845Z</time>
      </trkpt>
      <trkpt lat="49.46659" lon="2.04428">
        <ele>120.6</ele>
        <time>2013-04-20T07:56:19.934Z</time>
      </trkpt>
      <trkpt lat="49.46668" lon="2.04442">
        <ele>124.7</ele>
        <time>2013-04-20T07:56:20.733Z</time>
      </trkpt>
      <trkpt lat="49.46669" lon="2.0444">
        <ele>124.5</ele>
        <time>2013-04-20T07:56:21.703Z</time>
      </trkpt>
      <trkpt lat="49.46664" lon="2.04431">
        <ele>123.4</ele>
        <time>2013-04-20T07:56:22.742Z</time>
      </trkpt>
      <trkpt lat="49.46668" lon="2.04428">
        <ele>113.4</ele>
        <time>2013-04-20T07:56:26.737Z</time>
      </trkpt>
      <trkpt lat="49.46668" lon="2.04427">
        <ele>113.9</ele>
        <time>2013-04-20T07:56:27.732Z</time>
      </trkpt>
      <trkpt lat="49.46671" lon="2.04424">
        <ele>115.1</ele>
        <time>2013-04-20T07:56:29.741Z</time>
      </trkpt>
      <trkpt lat="49.46669" lon="2.04417">
        <ele>114.4</ele>
        <time>2013-04-20T07:56:30.789Z</time>
      </trkpt>
      <trkpt lat="49.46669" lon="2.04416">
        <ele>113.9</ele>
        <time>2013-04-20T07:56:31.728Z</time>
      </trkpt>
      <trkpt lat="49.46667" lon="2.04408">
        <ele>112.4</ele>
        <time>2013-04-20T07:56:32.721Z</time>
      </trkpt>
      <trkpt lat="49.46672" lon="2.04408">
        <ele>112.9</ele>
        <time>2013-04-20T07:56:35.800Z</time>
      </trkpt>
      <trkpt lat="49.46672" lon="2.04405">
        <ele>112.4</ele>
        <time>2013-04-20T07:56:36.724Z</time>
      </trkpt>
      <trkpt lat="49.46674" lon="2.04399">
        <ele>113.9</ele>
        <time>2013-04-20T07:56:39.720Z</time>
      </trkpt>
      <trkpt lat="49.46675" lon="2.04397">
        <ele>115.1</ele>
        <time>2013-04-20T07:56:40.723Z</time>
      </trkpt>
      <trkpt lat="49.46674" lon="2.04394">
        <ele>113.4</ele>
        <time>2013-04-20T07:56:41.738Z</time>
      </trkpt>
      <trkpt lat="49.46667" lon="2.04374">
        <ele>107.1</ele>
        <time>2013-04-20T07:56:42.739Z</time>
      </trkpt>
      <trkpt lat="49.46673" lon="2.04383">
        <ele>109.3</ele>
        <time>2013-04-20T07:56:43.734Z</time>
      </trkpt>
      <trkpt lat="49.46676" lon="2.0438">
        <ele>113.6</ele>
        <time>2013-04-20T07:56:46.732Z</time>
      </trkpt>
      <trkpt lat="49.46677" lon="2.04378">
        <ele>113.4</ele>
        <time>2013-04-20T07:56:47.856Z</time>
      </trkpt>
      <trkpt lat="49.46678" lon="2.04375">
        <ele>115.8</ele>
        <time>2013-04-20T07:56:48.704Z</time>
      </trkpt>
      <trkpt lat="49.46679" lon="2.0437">
        <ele>117.4</ele>
        <time>2013-04-20T07:56:49.735Z</time>
      </trkpt>
      <trkpt lat="49.46681" lon="2.04365">
        <ele>116.9</ele>
        <time>2013-04-20T07:56:52.740Z</time>
      </trkpt>
      <trkpt lat="49.46682" lon="2.04363">
        <ele>116.3</ele>
        <time>2013-04-20T07:56:53.735Z</time>
      </trkpt>
      <trkpt lat="49.46685" lon="2.04358">
        <ele>118.2</ele>
        <time>2013-04-20T07:56:56.735Z</time>
      </trkpt>
      <trkpt lat="49.46686" lon="2.04357">
        <ele>119.9</ele>
        <time>2013-04-20T07:56:57.736Z</time>
      </trkpt>
      <trkpt lat="49.46689" lon="2.04354">
        <ele>122.8</ele>
        <time>2013-04-20T07:56:59.738Z</time>
      </trkpt>
      <trkpt lat="49.4669" lon="2.04353">
        <ele>121.2</ele>
        <time>2013-04-20T07:57:00.849Z</time>
      </trkpt>
      <trkpt lat="49.46692" lon="2.04352">
        <ele>118.1</ele>
        <time>2013-04-20T07:57:02.725Z</time>
      </trkpt>
      <trkpt lat="49.46693" lon="2.04361">
        <ele>130.9</ele>
        <time>2013-04-20T07:57:03.737Z</time>
      </trkpt>
      <trkpt lat="49.46692" lon="2.04353">
        <ele>126.8</ele>
        <time>2013-04-20T07:57:04.745Z</time>
      </trkpt>
      <trkpt lat="49.46693" lon="2.04347">
        <ele>119.4</ele>
        <time>2013-04-20T07:57:08.747Z</time>
      </trkpt>
      <trkpt lat="49.46701" lon="2.04358">
        <ele>123.7</ele>
        <time>2013-04-20T07:57:09.733Z</time>
      </trkpt>
      <trkpt lat="49.46704" lon="2.04355">
        <ele>123.1</ele>
        <time>2013-04-20T07:57:11.742Z</time>
      </trkpt>
      <trkpt lat="49.46706" lon="2.04354">
        <ele>124.4</ele>
        <time>2013-04-20T07:57:12.736Z</time>
      </trkpt>
      <trkpt lat="49.46707" lon="2.04353">
        <ele>123.8</ele>
        <time>2013-04-20T07:57:13.725Z</time>
      </trkpt>
      <trkpt lat="49.46705" lon="2.04346">
        <ele>122.3</ele>
        <time>2013-04-20T07:57:14.744Z</time>
      </trkpt>
      <trkpt lat="49.46705" lon="2.04343">
        <ele>122.1</ele>
        <time>2013-04-20T07:57:15.743Z</time>
      </trkpt>
      <trkpt lat="49.46704" lon="2.04339">
        <ele>121.6</ele>
        <time>2013-04-20T07:57:16.945Z</time>
      </trkpt>
      <trkpt lat="49.46699" lon="2.04331">
        <ele>97.3</ele>
        <time>2013-04-20T07:57:17.760Z</time>
      </trkpt>
      <trkpt lat="49.46702" lon="2.04327">
        <ele>101.5</ele>
        <time>2013-04-20T07:57:18.806Z</time>
      </trkpt>
      <trkpt lat="49.46704" lon="2.04326">
        <ele>104.5</ele>
        <time>2013-04-20T07:57:19.737Z</time>
      </trkpt>
      <trkpt lat="49.46704" lon="2.04324">
        <ele>108.2</ele>
        <time>2013-04-20T07:57:20.737Z</time>
      </trkpt>
      <trkpt lat="49.46704" lon="2.04319">
        <ele>110.8</ele>
        <time>2013-04-20T07:57:21.701Z</time>
      </trkpt>
      <trkpt lat="49.46703" lon="2.04311">
        <ele>110.4</ele>
        <time>2013-04-20T07:57:22.739Z</time>
      </trkpt>
      <trkpt lat="49.46705" lon="2.04308">
        <ele>115.4</ele>
        <time>2013-04-20T07:57:24.729Z</time>
      </trkpt>
      <trkpt lat="49.46704" lon="2.04303">
        <ele>112.8</ele>
        <time>2013-04-20T07:57:25.745Z</time>
      </trkpt>
      <trkpt lat="49.46704" lon="2.04296">
        <ele>114.6</ele>
        <time>2013-04-20T07:57:27.739Z</time>
      </trkpt>
      <trkpt lat="49.46705" lon="2.04294">
        <ele>114.9</ele>
        <time>2013-04-20T07:57:28.795Z</time>
      </trkpt>
      <trkpt lat="49.46706" lon="2.04293">
        <ele>114.8</ele>
        <time>2013-04-20T07:57:29.744Z</time>
      </trkpt>
      <trkpt lat="49.46686" lon="2.04242">
        <ele>124.1</ele>
        <time>2013-04-20T07:57:30.745Z</time>
      </trkpt>
      <trkpt lat="49.46706" lon="2.04292">
        <ele>129.4</ele>
        <time>2013-04-20T07:57:31.727Z</time>
      </trkpt>
      <trkpt lat="49.46709" lon="2.04287">
        <ele>121.8</ele>
        <time>2013-04-20T07:57:33.707Z</time>
      </trkpt>
      <trkpt lat="49.4671" lon="2.04284">
        <ele>118.7</ele>
        <time>2013-04-20T07:57:34.742Z</time>
      </trkpt>
      <trkpt lat="49.46712" lon="2.04283">
        <ele>117.2</ele>
        <time>2013-04-20T07:57:36.732Z</time>
      </trkpt>
      <trkpt lat="49.46715" lon="2.04283">
        <ele>119.7</ele>
        <time>2013-04-20T07:57:37.741Z</time>
      </trkpt>
      <trkpt lat="49.46716" lon="2.04279">
        <ele>119.3</ele>
        <time>2013-04-20T07:57:39.725Z</time>
      </trkpt>
      <trkpt lat="49.46715" lon="2.04274">
        <ele>119.2</ele>
        <time>2013-04-20T07:57:40.744Z</time>
      </trkpt>
      <trkpt lat="49.46715" lon="2.04272">
        <ele>119.1</ele>
        <time>2013-04-20T07:57:41.742Z</time>
      </trkpt>
      <trkpt lat="49.46716" lon="2.04267">
        <ele>108.7</ele>
        <time>2013-04-20T07:57:42.750Z</time>
      </trkpt>
      <trkpt lat="49.46716" lon="2.04265">
        <ele>108.8</ele>
        <time>2013-04-20T07:57:43.722Z</time>
      </trkpt>
      <trkpt lat="49.46705" lon="2.04262">
        <ele>128.4</ele>
        <time>2013-04-20T07:57:44.740Z</time>
      </trkpt>
      <trkpt lat="49.46713" lon="2.04261">
        <ele>117.1</ele>
        <time>2013-04-20T07:57:45.742Z</time>
      </trkpt>
      <trkpt lat="49.46716" lon="2.04261">
        <ele>116.6</ele>
        <time>2013-04-20T07:57:46.807Z</time>
      </trkpt>
      <trkpt lat="49.46718" lon="2.0426">
        <ele>113.9</ele>
        <time>2013-04-20T07:57:47.726Z</time>
      </trkpt>
      <trkpt lat="49.46719" lon="2.04254">
        <ele>111.4</ele>
        <time>2013-04-20T07:57:49.745Z</time>
      </trkpt>
      <trkpt lat="49.4672" lon="2.04251">
        <ele>109.6</ele>
        <time>2013-04-20T07:57:50.734Z</time>
      </trkpt>
      <trkpt lat="49.4672" lon="2.04245">
        <ele>107.8</ele>
        <time>2013-04-20T07:57:51.744Z</time>
      </trkpt>
      <trkpt lat="49.46721" lon="2.04244">
        <ele>107.5</ele>
        <time>2013-04-20T07:57:52.742Z</time>
      </trkpt>
      <trkpt lat="49.46723" lon="2.0424">
        <ele>107.7</ele>
        <time>2013-04-20T07:57:54.721Z</time>
      </trkpt>
      <trkpt lat="49.46722" lon="2.04234">
        <ele>105.5</ele>
        <time>2013-04-20T07:57:55.737Z</time>
      </trkpt>
      <trkpt lat="49.46724" lon="2.0423">
        <ele>107.6</ele>
        <time>2013-04-20T07:57:57.740Z</time>
      </trkpt>
      <trkpt lat="49.46724" lon="2.04226">
        <ele>106.8</ele>
        <time>2013-04-20T07:57:58.726Z</time>
      </trkpt>
      <trkpt lat="49.46725" lon="2.04224">
        <ele>106.7</ele>
        <time>2013-04-20T07:57:59.743Z</time>
      </trkpt>
      <trkpt lat="49.46733" lon="2.04253">
        <ele>117</ele>
        <time>2013-04-20T07:58:00.736Z</time>
      </trkpt>
      <trkpt lat="49.46729" lon="2.04236">
        <ele>126</ele>
        <time>2013-04-20T07:58:01.730Z</time>
      </trkpt>
      <trkpt lat="49.46733" lon="2.04234">
        <ele>121.7</ele>
        <time>2013-04-20T07:58:03.743Z</time>
      </trkpt>
      <trkpt lat="49.46734" lon="2.04232">
        <ele>122.6</ele>
        <time>2013-04-20T07:58:04.737Z</time>
      </trkpt>
      <trkpt lat="49.46735" lon="2.04226">
        <ele>119.6</ele>
        <time>2013-04-20T07:58:06.727Z</time>
      </trkpt>
      <trkpt lat="49.46735" lon="2.04221">
        <ele>118.7</ele>
        <time>2013-04-20T07:58:07.746Z</time>
      </trkpt>
      <trkpt lat="49.46739" lon="2.0422">
        <ele>118</ele>
        <time>2013-04-20T07:58:10.734Z</time>
      </trkpt>
      <trkpt lat="49.4674" lon="2.04219">
        <ele>119.1</ele>
        <time>2013-04-20T07:58:11.742Z</time>
      </trkpt>
      <trkpt lat="49.46742" lon="2.04214">
        <ele>116.6</ele>
        <time>2013-04-20T07:58:13.729Z</time>
      </trkpt>
      <trkpt lat="49.4674" lon="2.04203">
        <ele>114.8</ele>
        <time>2013-04-20T07:58:14.742Z</time>
      </trkpt>
      <trkpt lat="49.46742" lon="2.04199">
        <ele>114.4</ele>
        <time>2013-04-20T07:58:17.727Z</time>
      </trkpt>
      <trkpt lat="49.46742" lon="2.04194">
        <ele>114</ele>
        <time>2013-04-20T07:58:18.742Z</time>
      </trkpt>
      <trkpt lat="49.46746" lon="2.04193">
        <ele>117.4</ele>
        <time>2013-04-20T07:58:21.729Z</time>
      </trkpt>
      <trkpt lat="49.46743" lon="2.04179">
        <ele>118.5</ele>
        <time>2013-04-20T07:58:22.746Z</time>
      </trkpt>
      <trkpt lat="49.46744" lon="2.04173">
        <ele>111.6</ele>
        <time>2013-04-20T07:58:26.739Z</time>
      </trkpt>
      <trkpt lat="49.46745" lon="2.04171">
        <ele>111.2</ele>
        <time>2013-04-20T07:58:27.738Z</time>
      </trkpt>
      <trkpt lat="49.46747" lon="2.04167">
        <ele>111</ele>
        <time>2013-04-20T07:58:29.740Z</time>
      </trkpt>
      <trkpt lat="49.46749" lon="2.04166">
        <ele>111.9</ele>
        <time>2013-04-20T07:58:30.789Z</time>
      </trkpt>
      <trkpt lat="49.46752" lon="2.0416">
        <ele>112.5</ele>
        <time>2013-04-20T07:58:33.740Z</time>
      </trkpt>
      <trkpt lat="49.46753" lon="2.04159">
        <ele>112.8</ele>
        <time>2013-04-20T07:58:34.737Z</time>
      </trkpt>
      <trkpt lat="49.46755" lon="2.04155">
        <ele>115.9</ele>
        <time>2013-04-20T07:58:37.739Z</time>
      </trkpt>
      <trkpt lat="49.46756" lon="2.04152">
        <ele>115.3</ele>
        <time>2013-04-20T07:58:38.736Z</time>
      </trkpt>
      <trkpt lat="49.46759" lon="2.04147">
        <ele>117.7</ele>
        <time>2013-04-20T07:58:41.742Z</time>
      </trkpt>
      <trkpt lat="49.46759" lon="2.04146">
        <ele>114.5</ele>
        <time>2013-04-20T07:58:42.737Z</time>
      </trkpt>
      <trkpt lat="49.46761" lon="2.04142">
        <ele>116.5</ele>
        <time>2013-04-20T07:58:44.743Z</time>
      </trkpt>
      <trkpt lat="49.46765" lon="2.04141">
        <ele>109.7</ele>
        <time>2013-04-20T07:58:45.770Z</time>
      </trkpt>
      <trkpt lat="49.46767" lon="2.04137">
        <ele>111.8</ele>
        <time>2013-04-20T07:58:47.728Z</time>
      </trkpt>
      <trkpt lat="49.46765" lon="2.0413">
        <ele>112.4</ele>
        <time>2013-04-20T07:58:48.740Z</time>
      </trkpt>
      <trkpt lat="49.46766" lon="2.04126">
        <ele>113.1</ele>
        <time>2013-04-20T07:58:51.727Z</time>
      </trkpt>
      <trkpt lat="49.46767" lon="2.04123">
        <ele>112.8</ele>
        <time>2013-04-20T07:58:52.739Z</time>
      </trkpt>
      <trkpt lat="49.46771" lon="2.04121">
        <ele>115.6</ele>
        <time>2013-04-20T07:58:55.738Z</time>
      </trkpt>
      <trkpt lat="49.46772" lon="2.04119">
        <ele>114.1</ele>
        <time>2013-04-20T07:58:56.738Z</time>
      </trkpt>
      <trkpt lat="49.46776" lon="2.04117">
        <ele>116.4</ele>
        <time>2013-04-20T07:58:59.742Z</time>
      </trkpt>
      <trkpt lat="49.46777" lon="2.04115">
        <ele>117.8</ele>
        <time>2013-04-20T07:59:00.736Z</time>
      </trkpt>
      <trkpt lat="49.46779" lon="2.04111">
        <ele>116</ele>
        <time>2013-04-20T07:59:03.740Z</time>
      </trkpt>
      <trkpt lat="49.4678" lon="2.0411">
        <ele>115.5</ele>
        <time>2013-04-20T07:59:04.739Z</time>
      </trkpt>
      <trkpt lat="49.46783" lon="2.04107">
        <ele>112.6</ele>
        <time>2013-04-20T07:59:10.738Z</time>
      </trkpt>
      <trkpt lat="49.46782" lon="2.04102">
        <ele>110.5</ele>
        <time>2013-04-20T07:59:11.845Z</time>
      </trkpt>
      <trkpt lat="49.46785" lon="2.04098">
        <ele>112.1</ele>
        <time>2013-04-20T07:59:13.723Z</time>
      </trkpt>
      <trkpt lat="49.46786" lon="2.04095">
        <ele>113.5</ele>
        <time>2013-04-20T07:59:14.739Z</time>
      </trkpt>
      <trkpt lat="49.46788" lon="2.04093">
        <ele>115.8</ele>
        <time>2013-04-20T07:59:15.738Z</time>
      </trkpt>
      <trkpt lat="49.4679" lon="2.0409">
        <ele>116.1</ele>
        <time>2013-04-20T07:59:16.740Z</time>
      </trkpt>
      <trkpt lat="49.46791" lon="2.04086">
        <ele>117</ele>
        <time>2013-04-20T07:59:18.738Z</time>
      </trkpt>
      <trkpt lat="49.46793" lon="2.04085">
        <ele>116.5</ele>
        <time>2013-04-20T07:59:19.739Z</time>
      </trkpt>
      <trkpt lat="49.46795" lon="2.0408">
        <ele>119.4</ele>
        <time>2013-04-20T07:59:21.724Z</time>
      </trkpt>
      <trkpt lat="49.46796" lon="2.04078">
        <ele>119.1</ele>
        <time>2013-04-20T07:59:22.738Z</time>
      </trkpt>
      <trkpt lat="49.46798" lon="2.04072">
        <ele>117.3</ele>
        <time>2013-04-20T07:59:25.743Z</time>
      </trkpt>
      <trkpt lat="49.46799" lon="2.04071">
        <ele>117.8</ele>
        <time>2013-04-20T07:59:26.735Z</time>
      </trkpt>
      <trkpt lat="49.46801" lon="2.04066">
        <ele>117</ele>
        <time>2013-04-20T07:59:29.742Z</time>
      </trkpt>
      <trkpt lat="49.46801" lon="2.04064">
        <ele>117</ele>
        <time>2013-04-20T07:59:30.738Z</time>
      </trkpt>
      <trkpt lat="49.46803" lon="2.0406">
        <ele>116.6</ele>
        <time>2013-04-20T07:59:33.738Z</time>
      </trkpt>
      <trkpt lat="49.46804" lon="2.04058">
        <ele>116.5</ele>
        <time>2013-04-20T07:59:34.738Z</time>
      </trkpt>
      <trkpt lat="49.46807" lon="2.04054">
        <ele>117.7</ele>
        <time>2013-04-20T07:59:36.724Z</time>
      </trkpt>
      <trkpt lat="49.46808" lon="2.04052">
        <ele>118.6</ele>
        <time>2013-04-20T07:59:37.765Z</time>
      </trkpt>
      <trkpt lat="49.46811" lon="2.04047">
        <ele>116.6</ele>
        <time>2013-04-20T07:59:40.737Z</time>
      </trkpt>
      <trkpt lat="49.46812" lon="2.04045">
        <ele>117.9</ele>
        <time>2013-04-20T07:59:41.742Z</time>
      </trkpt>
      <trkpt lat="49.46814" lon="2.0404">
        <ele>117.1</ele>
        <time>2013-04-20T07:59:44.743Z</time>
      </trkpt>
      <trkpt lat="49.46815" lon="2.04039">
        <ele>115.3</ele>
        <time>2013-04-20T07:59:45.739Z</time>
      </trkpt>
      <trkpt lat="49.46817" lon="2.04035">
        <ele>114</ele>
        <time>2013-04-20T07:59:49.737Z</time>
      </trkpt>
      <trkpt lat="49.46818" lon="2.04034">
        <ele>113.4</ele>
        <time>2013-04-20T07:59:50.782Z</time>
      </trkpt>
      <trkpt lat="49.46822" lon="2.04032">
        <ele>113.5</ele>
        <time>2013-04-20T07:59:53.736Z</time>
      </trkpt>
      <trkpt lat="49.46822" lon="2.0403">
        <ele>112</ele>
        <time>2013-04-20T07:59:54.727Z</time>
      </trkpt>
      <trkpt lat="49.46825" lon="2.04025">
        <ele>112</ele>
        <time>2013-04-20T07:59:57.737Z</time>
      </trkpt>
      <trkpt lat="49.46825" lon="2.04023">
        <ele>112.7</ele>
        <time>2013-04-20T07:59:58.722Z</time>
      </trkpt>
      <trkpt lat="49.46827" lon="2.0402">
        <ele>112.7</ele>
        <time>2013-04-20T08:00:00.738Z</time>
      </trkpt>
      <trkpt lat="49.46826" lon="2.0399">
        <ele>93.1</ele>
        <time>2013-04-20T08:00:02.231Z</time>
      </trkpt>
      <trkpt lat="49.46822" lon="2.03975">
        <ele>119.8</ele>
        <time>2013-04-20T08:00:02.787Z</time>
      </trkpt>
      <trkpt lat="49.46818" lon="2.03981">
        <ele>110.4</ele>
        <time>2013-04-20T08:00:03.752Z</time>
      </trkpt>
      <trkpt lat="49.46822" lon="2.03981">
        <ele>115</ele>
        <time>2013-04-20T08:00:04.739Z</time>
      </trkpt>
      <trkpt lat="49.46827" lon="2.03986">
        <ele>116.5</ele>
        <time>2013-04-20T08:00:05.730Z</time>
      </trkpt>
      <trkpt lat="49.4683" lon="2.03985">
        <ele>107.9</ele>
        <time>2013-04-20T08:00:09.727Z</time>
      </trkpt>
      <trkpt lat="49.46832" lon="2.03985">
        <ele>107.1</ele>
        <time>2013-04-20T08:00:10.738Z</time>
      </trkpt>
      <trkpt lat="49.46834" lon="2.03981">
        <ele>108.5</ele>
        <time>2013-04-20T08:00:12.745Z</time>
      </trkpt>
      <trkpt lat="49.46835" lon="2.03979">
        <ele>108.9</ele>
        <time>2013-04-20T08:00:13.720Z</time>
      </trkpt>
      <trkpt lat="49.46838" lon="2.03976">
        <ele>113</ele>
        <time>2013-04-20T08:00:16.734Z</time>
      </trkpt>
      <trkpt lat="49.4684" lon="2.03974">
        <ele>114.2</ele>
        <time>2013-04-20T08:00:17.788Z</time>
      </trkpt>
      <trkpt lat="49.46842" lon="2.03972">
        <ele>115.8</ele>
        <time>2013-04-20T08:00:19.739Z</time>
      </trkpt>
      <trkpt lat="49.46844" lon="2.0397">
        <ele>117.5</ele>
        <time>2013-04-20T08:00:20.736Z</time>
      </trkpt>
      <trkpt lat="49.46848" lon="2.03965">
        <ele>103.9</ele>
        <time>2013-04-20T08:00:21.722Z</time>
      </trkpt>
      <trkpt lat="49.46852" lon="2.03966">
        <ele>110.7</ele>
        <time>2013-04-20T08:00:24.725Z</time>
      </trkpt>
      <trkpt lat="49.46854" lon="2.03965">
        <ele>111.7</ele>
        <time>2013-04-20T08:00:25.739Z</time>
      </trkpt>
      <trkpt lat="49.46855" lon="2.03963">
        <ele>113.5</ele>
        <time>2013-04-20T08:00:28.719Z</time>
      </trkpt>
      <trkpt lat="49.46859" lon="2.03961">
        <ele>118.9</ele>
        <time>2013-04-20T08:00:29.749Z</time>
      </trkpt>
      <trkpt lat="49.46862" lon="2.03958">
        <ele>117.6</ele>
        <time>2013-04-20T08:00:32.788Z</time>
      </trkpt>
      <trkpt lat="49.46863" lon="2.03957">
        <ele>119.3</ele>
        <time>2013-04-20T08:00:33.738Z</time>
      </trkpt>
      <trkpt lat="49.46865" lon="2.03953">
        <ele>115.6</ele>
        <time>2013-04-20T08:00:36.729Z</time>
      </trkpt>
      <trkpt lat="49.46866" lon="2.0395">
        <ele>114.4</ele>
        <time>2013-04-20T08:00:37.731Z</time>
      </trkpt>
      <trkpt lat="49.46868" lon="2.03945">
        <ele>112.7</ele>
        <time>2013-04-20T08:00:40.737Z</time>
      </trkpt>
      <trkpt lat="49.46869" lon="2.03944">
        <ele>112.7</ele>
        <time>2013-04-20T08:00:41.738Z</time>
      </trkpt>
      <trkpt lat="49.4687" lon="2.03938">
        <ele>113.3</ele>
        <time>2013-04-20T08:00:44.742Z</time>
      </trkpt>
      <trkpt lat="49.4687" lon="2.03937">
        <ele>114</ele>
        <time>2013-04-20T08:00:45.739Z</time>
      </trkpt>
      <trkpt lat="49.46872" lon="2.03932">
        <ele>115.4</ele>
        <time>2013-04-20T08:00:47.932Z</time>
      </trkpt>
      <trkpt lat="49.46879" lon="2.03929">
        <ele>121</ele>
        <time>2013-04-20T08:00:48.744Z</time>
      </trkpt>
      <trkpt lat="49.46882" lon="2.03924">
        <ele>130.2</ele>
        <time>2013-04-20T08:00:49.739Z</time>
      </trkpt>
      <trkpt lat="49.46884" lon="2.03922">
        <ele>129.1</ele>
        <time>2013-04-20T08:00:50.733Z</time>
      </trkpt>
      <trkpt lat="49.46884" lon="2.03916">
        <ele>127.3</ele>
        <time>2013-04-20T08:00:54.729Z</time>
      </trkpt>
      <trkpt lat="49.46885" lon="2.03913">
        <ele>124.9</ele>
        <time>2013-04-20T08:00:55.740Z</time>
      </trkpt>
      <trkpt lat="49.46888" lon="2.03908">
        <ele>121.5</ele>
        <time>2013-04-20T08:00:59.742Z</time>
      </trkpt>
      <trkpt lat="49.46889" lon="2.03906">
        <ele>121.9</ele>
        <time>2013-04-20T08:01:00.742Z</time>
      </trkpt>
      <trkpt lat="49.46892" lon="2.03902">
        <ele>120.1</ele>
        <time>2013-04-20T08:01:03.755Z</time>
      </trkpt>
      <trkpt lat="49.46893" lon="2.03901">
        <ele>119.4</ele>
        <time>2013-04-20T08:01:04.879Z</time>
      </trkpt>
      <trkpt lat="49.46895" lon="2.03897">
        <ele>121.3</ele>
        <time>2013-04-20T08:01:06.755Z</time>
      </trkpt>
      <trkpt lat="49.46896" lon="2.03896">
        <ele>121.8</ele>
        <time>2013-04-20T08:01:07.706Z</time>
      </trkpt>
      <trkpt lat="49.46899" lon="2.0389">
        <ele>119.4</ele>
        <time>2013-04-20T08:01:10.761Z</time>
      </trkpt>
      <trkpt lat="49.469" lon="2.03889">
        <ele>119.4</ele>
        <time>2013-04-20T08:01:11.804Z</time>
      </trkpt>
      <trkpt lat="49.46903" lon="2.03883">
        <ele>120</ele>
        <time>2013-04-20T08:01:14.736Z</time>
      </trkpt>
      <trkpt lat="49.46904" lon="2.03882">
        <ele>121</ele>
        <time>2013-04-20T08:01:15.737Z</time>
      </trkpt>
      <trkpt lat="49.46907" lon="2.03878">
        <ele>119.4</ele>
        <time>2013-04-20T08:01:19.475Z</time>
      </trkpt>
      <trkpt lat="49.46908" lon="2.03877">
        <ele>119.9</ele>
        <time>2013-04-20T08:01:19.736Z</time>
      </trkpt>
      <trkpt lat="49.4691" lon="2.03872">
        <ele>121.1</ele>
        <time>2013-04-20T08:01:22.876Z</time>
      </trkpt>
      <trkpt lat="49.46911" lon="2.03871">
        <ele>121.3</ele>
        <time>2013-04-20T08:01:23.934Z</time>
      </trkpt>
      <trkpt lat="49.46915" lon="2.03866">
        <ele>121.9</ele>
        <time>2013-04-20T08:01:26.736Z</time>
      </trkpt>
      <trkpt lat="49.46916" lon="2.03866">
        <ele>121</ele>
        <time>2013-04-20T08:01:28.235Z</time>
      </trkpt>
      <trkpt lat="49.46918" lon="2.03865">
        <ele>120.8</ele>
        <time>2013-04-20T08:01:28.726Z</time>
      </trkpt>
      <trkpt lat="49.4692" lon="2.03862">
        <ele>124.4</ele>
        <time>2013-04-20T08:01:30.938Z</time>
      </trkpt>
      <trkpt lat="49.46923" lon="2.03861">
        <ele>123.5</ele>
        <time>2013-04-20T08:01:32.732Z</time>
      </trkpt>
      <trkpt lat="49.46925" lon="2.0386">
        <ele>122</ele>
        <time>2013-04-20T08:01:33.750Z</time>
      </trkpt>
      <trkpt lat="49.46928" lon="2.03856">
        <ele>120.2</ele>
        <time>2013-04-20T08:01:37.427Z</time>
      </trkpt>
      <trkpt lat="49.46929" lon="2.03855">
        <ele>120.2</ele>
        <time>2013-04-20T08:01:37.792Z</time>
      </trkpt>
      <trkpt lat="49.46931" lon="2.03854">
        <ele>119.8</ele>
        <time>2013-04-20T08:01:38.727Z</time>
      </trkpt>
      <trkpt lat="49.46933" lon="2.0385">
        <ele>119.5</ele>
        <time>2013-04-20T08:01:40.747Z</time>
      </trkpt>
      <trkpt lat="49.46935" lon="2.03848">
        <ele>122.5</ele>
        <time>2013-04-20T08:01:42.739Z</time>
      </trkpt>
      <trkpt lat="49.46937" lon="2.03847">
        <ele>123.1</ele>
        <time>2013-04-20T08:01:43.974Z</time>
      </trkpt>
      <trkpt lat="49.46938" lon="2.03846">
        <ele>123.1</ele>
        <time>2013-04-20T08:01:44.739Z</time>
      </trkpt>
      <trkpt lat="49.4694" lon="2.03842">
        <ele>122.8</ele>
        <time>2013-04-20T08:01:46.930Z</time>
      </trkpt>
      <trkpt lat="49.46943" lon="2.03839">
        <ele>123</ele>
        <time>2013-04-20T08:01:49.113Z</time>
      </trkpt>
      <trkpt lat="49.46944" lon="2.03837">
        <ele>123</ele>
        <time>2013-04-20T08:01:50.223Z</time>
      </trkpt>
      <trkpt lat="49.46948" lon="2.03834">
        <ele>122.4</ele>
        <time>2013-04-20T08:01:52.725Z</time>
      </trkpt>
      <trkpt lat="49.46949" lon="2.03833">
        <ele>122.6</ele>
        <time>2013-04-20T08:01:53.729Z</time>
      </trkpt>
      <trkpt lat="49.46951" lon="2.03831">
        <ele>122.5</ele>
        <time>2013-04-20T08:01:55.738Z</time>
      </trkpt>
      <trkpt lat="49.46953" lon="2.03828">
        <ele>122.8</ele>
        <time>2013-04-20T08:01:57.933Z</time>
      </trkpt>
      <trkpt lat="49.46956" lon="2.03825">
        <ele>123.4</ele>
        <time>2013-04-20T08:02:01.228Z</time>
      </trkpt>
      <trkpt lat="49.46958" lon="2.03825">
        <ele>123.1</ele>
        <time>2013-04-20T08:02:01.917Z</time>
      </trkpt>
      <trkpt lat="49.46962" lon="2.03825">
        <ele>124.1</ele>
        <time>2013-04-20T08:02:03.735Z</time>
      </trkpt>
      <trkpt lat="49.46963" lon="2.03825">
        <ele>123.8</ele>
        <time>2013-04-20T08:02:04.738Z</time>
      </trkpt>
      <trkpt lat="49.46966" lon="2.03825">
        <ele>123.1</ele>
        <time>2013-04-20T08:02:06.757Z</time>
      </trkpt>
      <trkpt lat="49.46968" lon="2.03825">
        <ele>122.4</ele>
        <time>2013-04-20T08:02:07.738Z</time>
      </trkpt>
      <trkpt lat="49.4697" lon="2.03819">
        <ele>121.2</ele>
        <time>2013-04-20T08:02:12.146Z</time>
      </trkpt>
      <trkpt lat="49.46972" lon="2.03818">
        <ele>122</ele>
        <time>2013-04-20T08:02:12.745Z</time>
      </trkpt>
      <trkpt lat="49.46973" lon="2.03812">
        <ele>118.5</ele>
        <time>2013-04-20T08:02:15.853Z</time>
      </trkpt>
      <trkpt lat="49.46975" lon="2.03808">
        <ele>118.5</ele>
        <time>2013-04-20T08:02:17.794Z</time>
      </trkpt>
      <trkpt lat="49.46976" lon="2.03806">
        <ele>118.2</ele>
        <time>2013-04-20T08:02:18.734Z</time>
      </trkpt>
      <trkpt lat="49.46978" lon="2.03803">
        <ele>120.8</ele>
        <time>2013-04-20T08:02:20.740Z</time>
      </trkpt>
      <trkpt lat="49.46981" lon="2.03799">
        <ele>118.2</ele>
        <time>2013-04-20T08:02:23.736Z</time>
      </trkpt>
      <trkpt lat="49.46982" lon="2.03798">
        <ele>118.1</ele>
        <time>2013-04-20T08:02:24.939Z</time>
      </trkpt>
      <trkpt lat="49.46985" lon="2.03797">
        <ele>119.2</ele>
        <time>2013-04-20T08:02:26.938Z</time>
      </trkpt>
      <trkpt lat="49.46987" lon="2.03796">
        <ele>118.6</ele>
        <time>2013-04-20T08:02:27.895Z</time>
      </trkpt>
      <trkpt lat="49.4699" lon="2.03795">
        <ele>118.1</ele>
        <time>2013-04-20T08:02:30.073Z</time>
      </trkpt>
      <trkpt lat="49.46992" lon="2.03793">
        <ele>118.1</ele>
        <time>2013-04-20T08:02:31.204Z</time>
      </trkpt>
      <trkpt lat="49.46994" lon="2.03791">
        <ele>118.4</ele>
        <time>2013-04-20T08:02:32.900Z</time>
      </trkpt>
      <trkpt lat="49.46997" lon="2.03788">
        <ele>117.2</ele>
        <time>2013-04-20T08:02:34.749Z</time>
      </trkpt>
      <trkpt lat="49.46998" lon="2.03786">
        <ele>117</ele>
        <time>2013-04-20T08:02:36.726Z</time>
      </trkpt>
      <trkpt lat="49.47" lon="2.03782">
        <ele>118.4</ele>
        <time>2013-04-20T08:02:38.742Z</time>
      </trkpt>
      <trkpt lat="49.47002" lon="2.03779">
        <ele>118.6</ele>
        <time>2013-04-20T08:02:40.742Z</time>
      </trkpt>
      <trkpt lat="49.47003" lon="2.03777">
        <ele>118.8</ele>
        <time>2013-04-20T08:02:41.742Z</time>
      </trkpt>
      <trkpt lat="49.47005" lon="2.03772">
        <ele>118.7</ele>
        <time>2013-04-20T08:02:44.733Z</time>
      </trkpt>
      <trkpt lat="49.47006" lon="2.0377">
        <ele>118.4</ele>
        <time>2013-04-20T08:02:45.744Z</time>
      </trkpt>
      <trkpt lat="49.47009" lon="2.03765">
        <ele>118.4</ele>
        <time>2013-04-20T08:02:48.746Z</time>
      </trkpt>
      <trkpt lat="49.4701" lon="2.03764">
        <ele>118.4</ele>
        <time>2013-04-20T08:02:49.736Z</time>
      </trkpt>
      <trkpt lat="49.47012" lon="2.03761">
        <ele>118</ele>
        <time>2013-04-20T08:02:51.725Z</time>
      </trkpt>
      <trkpt lat="49.47013" lon="2.03759">
        <ele>117.8</ele>
        <time>2013-04-20T08:02:52.945Z</time>
      </trkpt>
      <trkpt lat="49.47016" lon="2.03756">
        <ele>117.5</ele>
        <time>2013-04-20T08:02:54.726Z</time>
      </trkpt>
      <trkpt lat="49.47017" lon="2.03754">
        <ele>117.6</ele>
        <time>2013-04-20T08:02:56.237Z</time>
      </trkpt>
      <trkpt lat="49.47019" lon="2.03751">
        <ele>117.5</ele>
        <time>2013-04-20T08:02:57.709Z</time>
      </trkpt>
      <trkpt lat="49.4702" lon="2.03749">
        <ele>117.1</ele>
        <time>2013-04-20T08:02:58.721Z</time>
      </trkpt>
      <trkpt lat="49.47023" lon="2.03745">
        <ele>124.9</ele>
        <time>2013-04-20T08:03:00.212Z</time>
      </trkpt>
      <trkpt lat="49.47025" lon="2.03742">
        <ele>127.6</ele>
        <time>2013-04-20T08:03:00.746Z</time>
      </trkpt>
      <trkpt lat="49.47029" lon="2.03737">
        <ele>128.1</ele>
        <time>2013-04-20T08:03:02.728Z</time>
      </trkpt>
      <trkpt lat="49.47032" lon="2.03734">
        <ele>132.5</ele>
        <time>2013-04-20T08:03:04.234Z</time>
      </trkpt>
      <trkpt lat="49.47034" lon="2.03731">
        <ele>134.6</ele>
        <time>2013-04-20T08:03:04.741Z</time>
      </trkpt>
      <trkpt lat="49.47037" lon="2.03727">
        <ele>131.7</ele>
        <time>2013-04-20T08:03:06.929Z</time>
      </trkpt>
      <trkpt lat="49.47038" lon="2.03726">
        <ele>131.3</ele>
        <time>2013-04-20T08:03:07.921Z</time>
      </trkpt>
      <trkpt lat="49.47041" lon="2.03723">
        <ele>130.1</ele>
        <time>2013-04-20T08:03:10.740Z</time>
      </trkpt>
      <trkpt lat="49.47043" lon="2.03722">
        <ele>129.4</ele>
        <time>2013-04-20T08:03:13.237Z</time>
      </trkpt>
      <trkpt lat="49.47045" lon="2.0372">
        <ele>135</ele>
        <time>2013-04-20T08:03:14.224Z</time>
      </trkpt>
      <trkpt lat="49.47047" lon="2.03718">
        <ele>137.7</ele>
        <time>2013-04-20T08:03:14.742Z</time>
      </trkpt>
      <trkpt lat="49.47051" lon="2.03716">
        <ele>132</ele>
        <time>2013-04-20T08:03:18.740Z</time>
      </trkpt>
      <trkpt lat="49.47053" lon="2.03716">
        <ele>131.5</ele>
        <time>2013-04-20T08:03:20.743Z</time>
      </trkpt>
      <trkpt lat="49.47056" lon="2.03711">
        <ele>132.5</ele>
        <time>2013-04-20T08:03:23.825Z</time>
      </trkpt>
      <trkpt lat="49.47058" lon="2.03708">
        <ele>133.3</ele>
        <time>2013-04-20T08:03:24.737Z</time>
      </trkpt>
      <trkpt lat="49.4706" lon="2.03705">
        <ele>130.8</ele>
        <time>2013-04-20T08:03:26.750Z</time>
      </trkpt>
      <trkpt lat="49.47062" lon="2.03705">
        <ele>130.4</ele>
        <time>2013-04-20T08:03:27.730Z</time>
      </trkpt>
      <trkpt lat="49.47065" lon="2.03702">
        <ele>131.6</ele>
        <time>2013-04-20T08:03:30.737Z</time>
      </trkpt>
      <trkpt lat="49.47067" lon="2.03702">
        <ele>130.8</ele>
        <time>2013-04-20T08:03:31.929Z</time>
      </trkpt>
      <trkpt lat="49.4707" lon="2.03699">
        <ele>125.2</ele>
        <time>2013-04-20T08:03:35.929Z</time>
      </trkpt>
      <trkpt lat="49.47071" lon="2.03699">
        <ele>124.6</ele>
        <time>2013-04-20T08:03:37.237Z</time>
      </trkpt>
      <trkpt lat="49.47075" lon="2.03697">
        <ele>121.7</ele>
        <time>2013-04-20T08:03:40.928Z</time>
      </trkpt>
      <trkpt lat="49.47076" lon="2.03696">
        <ele>120.6</ele>
        <time>2013-04-20T08:03:41.758Z</time>
      </trkpt>
      <trkpt lat="49.47079" lon="2.03692">
        <ele>119.3</ele>
        <time>2013-04-20T08:03:45.749Z</time>
      </trkpt>
      <trkpt lat="49.47079" lon="2.03691">
        <ele>119</ele>
        <time>2013-04-20T08:03:46.733Z</time>
      </trkpt>
      <trkpt lat="49.47082" lon="2.03687">
        <ele>116</ele>
        <time>2013-04-20T08:03:53.933Z</time>
      </trkpt>
      <trkpt lat="49.47083" lon="2.03686">
        <ele>115.1</ele>
        <time>2013-04-20T08:03:54.725Z</time>
      </trkpt>
      <trkpt lat="49.47084" lon="2.0368">
        <ele>115.2</ele>
        <time>2013-04-20T08:03:59.742Z</time>
      </trkpt>
      <trkpt lat="49.47084" lon="2.03677">
        <ele>115.2</ele>
        <time>2013-04-20T08:04:00.941Z</time>
      </trkpt>
      <trkpt lat="49.47085" lon="2.03671">
        <ele>116.4</ele>
        <time>2013-04-20T08:04:04.235Z</time>
      </trkpt>
      <trkpt lat="49.47085" lon="2.03669">
        <ele>116.4</ele>
        <time>2013-04-20T08:04:04.750Z</time>
      </trkpt>
      <trkpt lat="49.47086" lon="2.03664">
        <ele>117</ele>
        <time>2013-04-20T08:04:06.720Z</time>
      </trkpt>
      <trkpt lat="49.47088" lon="2.03661">
        <ele>116.9</ele>
        <time>2013-04-20T08:04:07.743Z</time>
      </trkpt>
      <trkpt lat="49.47091" lon="2.03657">
        <ele>117.3</ele>
        <time>2013-04-20T08:04:09.902Z</time>
      </trkpt>
      <trkpt lat="49.47092" lon="2.03655">
        <ele>117.1</ele>
        <time>2013-04-20T08:04:10.927Z</time>
      </trkpt>
      <trkpt lat="49.47095" lon="2.03652">
        <ele>116.7</ele>
        <time>2013-04-20T08:04:12.967Z</time>
      </trkpt>
      <trkpt lat="49.47097" lon="2.03651">
        <ele>116.1</ele>
        <time>2013-04-20T08:04:13.742Z</time>
      </trkpt>
      <trkpt lat="49.471" lon="2.03648">
        <ele>116.1</ele>
        <time>2013-04-20T08:04:15.933Z</time>
      </trkpt>
      <trkpt lat="49.47102" lon="2.03646">
        <ele>116.3</ele>
        <time>2013-04-20T08:04:16.929Z</time>
      </trkpt>
      <trkpt lat="49.47103" lon="2.03645">
        <ele>116.3</ele>
        <time>2013-04-20T08:04:17.727Z</time>
      </trkpt>
      <trkpt lat="49.47106" lon="2.03643">
        <ele>115.7</ele>
        <time>2013-04-20T08:04:18.738Z</time>
      </trkpt>
      <trkpt lat="49.47108" lon="2.03642">
        <ele>115</ele>
        <time>2013-04-20T08:04:19.741Z</time>
      </trkpt>
      <trkpt lat="49.4711" lon="2.03641">
        <ele>115.8</ele>
        <time>2013-04-20T08:04:20.730Z</time>
      </trkpt>
      <trkpt lat="49.47114" lon="2.03639">
        <ele>115</ele>
        <time>2013-04-20T08:04:22.754Z</time>
      </trkpt>
      <trkpt lat="49.47116" lon="2.03638">
        <ele>115.2</ele>
        <time>2013-04-20T08:04:23.729Z</time>
      </trkpt>
      <trkpt lat="49.47119" lon="2.03635">
        <ele>115</ele>
        <time>2013-04-20T08:04:25.928Z</time>
      </trkpt>
      <trkpt lat="49.4712" lon="2.03634">
        <ele>115</ele>
        <time>2013-04-20T08:04:26.743Z</time>
      </trkpt>
      <trkpt lat="49.47123" lon="2.0363">
        <ele>115</ele>
        <time>2013-04-20T08:04:28.721Z</time>
      </trkpt>
      <trkpt lat="49.47125" lon="2.0363">
        <ele>117.4</ele>
        <time>2013-04-20T08:04:29.717Z</time>
      </trkpt>
      <trkpt lat="49.47128" lon="2.03627">
        <ele>117.7</ele>
        <time>2013-04-20T08:04:31.733Z</time>
      </trkpt>
      <trkpt lat="49.47129" lon="2.03626">
        <ele>117.8</ele>
        <time>2013-04-20T08:04:32.726Z</time>
      </trkpt>
      <trkpt lat="49.47133" lon="2.03625">
        <ele>117.4</ele>
        <time>2013-04-20T08:04:35.229Z</time>
      </trkpt>
      <trkpt lat="49.47134" lon="2.03624">
        <ele>115.3</ele>
        <time>2013-04-20T08:04:36.435Z</time>
      </trkpt>
      <trkpt lat="49.47137" lon="2.0362">
        <ele>112.4</ele>
        <time>2013-04-20T08:04:38.735Z</time>
      </trkpt>
      <trkpt lat="49.47139" lon="2.03619">
        <ele>113.2</ele>
        <time>2013-04-20T08:04:39.939Z</time>
      </trkpt>
      <trkpt lat="49.47143" lon="2.03616">
        <ele>114.8</ele>
        <time>2013-04-20T08:04:42.745Z</time>
      </trkpt>
      <trkpt lat="49.47146" lon="2.03615">
        <ele>118</ele>
        <time>2013-04-20T08:04:44.928Z</time>
      </trkpt>
      <trkpt lat="49.47149" lon="2.03614">
        <ele>116.3</ele>
        <time>2013-04-20T08:04:47.023Z</time>
      </trkpt>
      <trkpt lat="49.4715" lon="2.03613">
        <ele>115</ele>
        <time>2013-04-20T08:04:47.724Z</time>
      </trkpt>
      <trkpt lat="49.47153" lon="2.03612">
        <ele>113.2</ele>
        <time>2013-04-20T08:04:49.937Z</time>
      </trkpt>
      <trkpt lat="49.47155" lon="2.03611">
        <ele>112.8</ele>
        <time>2013-04-20T08:04:50.830Z</time>
      </trkpt>
      <trkpt lat="49.47159" lon="2.03609">
        <ele>112.2</ele>
        <time>2013-04-20T08:04:53.737Z</time>
      </trkpt>
      <trkpt lat="49.4716" lon="2.03608">
        <ele>113</ele>
        <time>2013-04-20T08:04:54.930Z</time>
      </trkpt>
      <trkpt lat="49.47161" lon="2.03605">
        <ele>114.8</ele>
        <time>2013-04-20T08:04:56.932Z</time>
      </trkpt>
      <trkpt lat="49.47163" lon="2.03602">
        <ele>117.8</ele>
        <time>2013-04-20T08:04:59.225Z</time>
      </trkpt>
      <trkpt lat="49.47166" lon="2.03599">
        <ele>121.7</ele>
        <time>2013-04-20T08:05:00.783Z</time>
      </trkpt>
      <trkpt lat="49.47169" lon="2.03596">
        <ele>121.4</ele>
        <time>2013-04-20T08:05:02.727Z</time>
      </trkpt>
      <trkpt lat="49.47171" lon="2.0359">
        <ele>119.2</ele>
        <time>2013-04-20T08:05:06.207Z</time>
      </trkpt>
      <trkpt lat="49.47172" lon="2.03588">
        <ele>119.3</ele>
        <time>2013-04-20T08:05:07.273Z</time>
      </trkpt>
      <trkpt lat="49.47172" lon="2.03586">
        <ele>119.4</ele>
        <time>2013-04-20T08:05:07.742Z</time>
      </trkpt>
      <trkpt lat="49.47171" lon="2.03581">
        <ele>119.5</ele>
        <time>2013-04-20T08:05:10.060Z</time>
      </trkpt>
      <trkpt lat="49.47169" lon="2.03576">
        <ele>118.2</ele>
        <time>2013-04-20T08:05:12.737Z</time>
      </trkpt>
      <trkpt lat="49.47167" lon="2.03574">
        <ele>116.8</ele>
        <time>2013-04-20T08:05:13.898Z</time>
      </trkpt>
      <trkpt lat="49.47165" lon="2.03569">
        <ele>115.7</ele>
        <time>2013-04-20T08:05:17.234Z</time>
      </trkpt>
      <trkpt lat="49.47164" lon="2.03567">
        <ele>112.6</ele>
        <time>2013-04-20T08:05:17.752Z</time>
      </trkpt>
      <trkpt lat="49.47162" lon="2.03564">
        <ele>113.4</ele>
        <time>2013-04-20T08:05:20.732Z</time>
      </trkpt>
      <trkpt lat="49.47161" lon="2.03562">
        <ele>113.5</ele>
        <time>2013-04-20T08:05:21.929Z</time>
      </trkpt>
      <trkpt lat="49.47157" lon="2.03558">
        <ele>114.7</ele>
        <time>2013-04-20T08:05:25.224Z</time>
      </trkpt>
      <trkpt lat="49.47157" lon="2.03556">
        <ele>115</ele>
        <time>2013-04-20T08:05:25.743Z</time>
      </trkpt>
      <trkpt lat="49.47156" lon="2.0355">
        <ele>113.9</ele>
        <time>2013-04-20T08:05:32.786Z</time>
      </trkpt>
      <trkpt lat="49.47157" lon="2.03549">
        <ele>114</ele>
        <time>2013-04-20T08:05:33.765Z</time>
      </trkpt>
      <trkpt lat="49.47154" lon="2.03546">
        <ele>114.1</ele>
        <time>2013-04-20T08:06:15.935Z</time>
      </trkpt>
      <trkpt lat="49.47153" lon="2.03546">
        <ele>114.6</ele>
        <time>2013-04-20T08:06:16.929Z</time>
      </trkpt>
      <trkpt lat="49.4715" lon="2.03546">
        <ele>113.1</ele>
        <time>2013-04-20T08:06:18.739Z</time>
      </trkpt>
      <trkpt lat="49.47148" lon="2.03547">
        <ele>115.3</ele>
        <time>2013-04-20T08:06:20.929Z</time>
      </trkpt>
      <trkpt lat="49.47143" lon="2.03546">
        <ele>110.3</ele>
        <time>2013-04-20T08:06:24.725Z</time>
      </trkpt>
      <trkpt lat="49.47142" lon="2.03547">
        <ele>115.5</ele>
        <time>2013-04-20T08:06:25.741Z</time>
      </trkpt>
      <trkpt lat="49.47137" lon="2.03548">
        <ele>118.9</ele>
        <time>2013-04-20T08:06:30.739Z</time>
      </trkpt>
      <trkpt lat="49.47136" lon="2.03546">
        <ele>118.5</ele>
        <time>2013-04-20T08:06:32.724Z</time>
      </trkpt>
      <trkpt lat="49.47132" lon="2.03544">
        <ele>120.2</ele>
        <time>2013-04-20T08:06:36.754Z</time>
      </trkpt>
      <trkpt lat="49.47131" lon="2.03543">
        <ele>119.8</ele>
        <time>2013-04-20T08:06:37.733Z</time>
      </trkpt>
      <trkpt lat="49.47129" lon="2.03548">
        <ele>121.6</ele>
        <time>2013-04-20T08:06:41.933Z</time>
      </trkpt>
      <trkpt lat="49.47128" lon="2.03549">
        <ele>121.6</ele>
        <time>2013-04-20T08:06:42.965Z</time>
      </trkpt>
      <trkpt lat="49.47127" lon="2.03555">
        <ele>130.3</ele>
        <time>2013-04-20T08:06:47.928Z</time>
      </trkpt>
      <trkpt lat="49.47127" lon="2.03557">
        <ele>128.9</ele>
        <time>2013-04-20T08:06:48.919Z</time>
      </trkpt>
      <trkpt lat="49.47126" lon="2.03563">
        <ele>129.3</ele>
        <time>2013-04-20T08:06:52.905Z</time>
      </trkpt>
      <trkpt lat="49.47125" lon="2.03563">
        <ele>129.5</ele>
        <time>2013-04-20T08:06:53.747Z</time>
      </trkpt>
      <trkpt lat="49.47122" lon="2.03563">
        <ele>129.9</ele>
        <time>2013-04-20T08:06:57.742Z</time>
      </trkpt>
      <trkpt lat="49.47121" lon="2.03563">
        <ele>130.2</ele>
        <time>2013-04-20T08:06:58.726Z</time>
      </trkpt>
      <trkpt lat="49.47117" lon="2.03562">
        <ele>130.3</ele>
        <time>2013-04-20T08:07:02.233Z</time>
      </trkpt>
      <trkpt lat="49.47116" lon="2.03562">
        <ele>131.2</ele>
        <time>2013-04-20T08:07:03.198Z</time>
      </trkpt>
      <trkpt lat="49.47111" lon="2.03562">
        <ele>131.7</ele>
        <time>2013-04-20T08:07:05.726Z</time>
      </trkpt>
      <trkpt lat="49.4711" lon="2.03562">
        <ele>131.3</ele>
        <time>2013-04-20T08:07:06.933Z</time>
      </trkpt>
      <trkpt lat="49.47106" lon="2.03563">
        <ele>132.5</ele>
        <time>2013-04-20T08:07:10.928Z</time>
      </trkpt>
      <trkpt lat="49.47105" lon="2.03563">
        <ele>131.7</ele>
        <time>2013-04-20T08:07:11.932Z</time>
      </trkpt>
      <trkpt lat="49.47101" lon="2.03562">
        <ele>131.9</ele>
        <time>2013-04-20T08:07:19.735Z</time>
      </trkpt>
      <trkpt lat="49.47101" lon="2.03562">
        <ele>131.8</ele>
        <time>2013-04-20T08:07:20.996Z</time>
      </trkpt>
      <trkpt lat="49.47096" lon="2.03562">
        <ele>138.1</ele>
        <time>2013-04-20T08:07:28.719Z</time>
      </trkpt>
      <trkpt lat="49.47096" lon="2.03562">
        <ele>138.6</ele>
        <time>2013-04-20T08:07:29.733Z</time>
      </trkpt>
      <trkpt lat="49.47092" lon="2.03561">
        <ele>136</ele>
        <time>2013-04-20T08:07:37.753Z</time>
      </trkpt>
      <trkpt lat="49.4709" lon="2.03561">
        <ele>135.4</ele>
        <time>2013-04-20T08:07:38.936Z</time>
      </trkpt>
      <trkpt lat="49.47087" lon="2.03564">
        <ele>137.6</ele>
        <time>2013-04-20T08:07:55.929Z</time>
      </trkpt>
      <trkpt lat="49.47086" lon="2.03565">
        <ele>137.9</ele>
        <time>2013-04-20T08:07:56.938Z</time>
      </trkpt>
      <trkpt lat="49.47082" lon="2.03565">
        <ele>137.3</ele>
        <time>2013-04-20T08:08:01.228Z</time>
      </trkpt>
      <trkpt lat="49.47081" lon="2.03565">
        <ele>137.3</ele>
        <time>2013-04-20T08:08:01.731Z</time>
      </trkpt>
      <trkpt lat="49.47077" lon="2.03565">
        <ele>137.5</ele>
        <time>2013-04-20T08:08:04.734Z</time>
      </trkpt>
      <trkpt lat="49.47075" lon="2.03564">
        <ele>138.1</ele>
        <time>2013-04-20T08:08:05.928Z</time>
      </trkpt>
      <trkpt lat="49.47072" lon="2.03565">
        <ele>135.4</ele>
        <time>2013-04-20T08:08:08.745Z</time>
      </trkpt>
      <trkpt lat="49.4707" lon="2.03565">
        <ele>134.2</ele>
        <time>2013-04-20T08:08:09.927Z</time>
      </trkpt>
      <trkpt lat="49.47066" lon="2.03565">
        <ele>133.9</ele>
        <time>2013-04-20T08:08:14.924Z</time>
      </trkpt>
      <trkpt lat="49.47065" lon="2.03566">
        <ele>134.8</ele>
        <time>2013-04-20T08:08:15.932Z</time>
      </trkpt>
      <trkpt lat="49.47061" lon="2.03566">
        <ele>135.8</ele>
        <time>2013-04-20T08:08:27.736Z</time>
      </trkpt>
      <trkpt lat="49.4706" lon="2.03566">
        <ele>135.9</ele>
        <time>2013-04-20T08:08:28.724Z</time>
      </trkpt>
      <trkpt lat="49.47058" lon="2.03566">
        <ele>136.4</ele>
        <time>2013-04-20T08:08:43.724Z</time>
      </trkpt>
      <trkpt lat="49.47056" lon="2.03566">
        <ele>135.9</ele>
        <time>2013-04-20T08:08:45.737Z</time>
      </trkpt>
      <trkpt lat="49.47052" lon="2.03566">
        <ele>134.1</ele>
        <time>2013-04-20T08:08:47.932Z</time>
      </trkpt>
      <trkpt lat="49.4705" lon="2.03566">
        <ele>134</ele>
        <time>2013-04-20T08:08:48.945Z</time>
      </trkpt>
      <trkpt lat="49.47047" lon="2.03567">
        <ele>134.2</ele>
        <time>2013-04-20T08:08:52.216Z</time>
      </trkpt>
      <trkpt lat="49.47045" lon="2.03567">
        <ele>134.8</ele>
        <time>2013-04-20T08:08:52.804Z</time>
      </trkpt>
      <trkpt lat="49.47041" lon="2.03567">
        <ele>134.9</ele>
        <time>2013-04-20T08:08:56.232Z</time>
      </trkpt>
      <trkpt lat="49.47041" lon="2.03567">
        <ele>135</ele>
        <time>2013-04-20T08:08:56.738Z</time>
      </trkpt>
      <trkpt lat="49.47037" lon="2.03567">
        <ele>135.8</ele>
        <time>2013-04-20T08:08:58.927Z</time>
      </trkpt>
      <trkpt lat="49.47035" lon="2.03568">
        <ele>136.3</ele>
        <time>2013-04-20T08:08:59.925Z</time>
      </trkpt>
      <trkpt lat="49.47032" lon="2.03568">
        <ele>137.6</ele>
        <time>2013-04-20T08:09:02.726Z</time>
      </trkpt>
      <trkpt lat="49.4703" lon="2.03568">
        <ele>137.4</ele>
        <time>2013-04-20T08:09:03.922Z</time>
      </trkpt>
      <trkpt lat="49.47026" lon="2.03568">
        <ele>139.6</ele>
        <time>2013-04-20T08:09:06.744Z</time>
      </trkpt>
      <trkpt lat="49.47025" lon="2.03568">
        <ele>139.7</ele>
        <time>2013-04-20T08:09:07.740Z</time>
      </trkpt>
      <trkpt lat="49.47021" lon="2.03566">
        <ele>140.6</ele>
        <time>2013-04-20T08:09:10.735Z</time>
      </trkpt>
      <trkpt lat="49.4702" lon="2.03566">
        <ele>141.9</ele>
        <time>2013-04-20T08:09:11.738Z</time>
      </trkpt>
      <trkpt lat="49.47017" lon="2.0357">
        <ele>145.3</ele>
        <time>2013-04-20T08:09:32.929Z</time>
      </trkpt>
      <trkpt lat="49.47016" lon="2.0357">
        <ele>145.3</ele>
        <time>2013-04-20T08:09:33.777Z</time>
      </trkpt>
      <trkpt lat="49.47012" lon="2.03569">
        <ele>145.6</ele>
        <time>2013-04-20T08:09:36.228Z</time>
      </trkpt>
      <trkpt lat="49.4701" lon="2.03569">
        <ele>146.9</ele>
        <time>2013-04-20T08:09:37.218Z</time>
      </trkpt>
      <trkpt lat="49.47007" lon="2.03568">
        <ele>148.2</ele>
        <time>2013-04-20T08:09:38.746Z</time>
      </trkpt>
      <trkpt lat="49.47003" lon="2.03569">
        <ele>150.8</ele>
        <time>2013-04-20T08:09:39.723Z</time>
      </trkpt>
      <trkpt lat="49.46999" lon="2.0357">
        <ele>153.6</ele>
        <time>2013-04-20T08:09:42.739Z</time>
      </trkpt>
      <trkpt lat="49.46998" lon="2.03569">
        <ele>153.5</ele>
        <time>2013-04-20T08:09:43.728Z</time>
      </trkpt>
      <trkpt lat="49.46995" lon="2.03571">
        <ele>154.3</ele>
        <time>2013-04-20T08:09:45.932Z</time>
      </trkpt>
      <trkpt lat="49.46993" lon="2.03571">
        <ele>154.8</ele>
        <time>2013-04-20T08:09:46.929Z</time>
      </trkpt>
      <trkpt lat="49.4699" lon="2.03573">
        <ele>155.5</ele>
        <time>2013-04-20T08:09:48.928Z</time>
      </trkpt>
      <trkpt lat="49.46989" lon="2.03573">
        <ele>156.1</ele>
        <time>2013-04-20T08:09:49.927Z</time>
      </trkpt>
      <trkpt lat="49.46985" lon="2.03574">
        <ele>157.3</ele>
        <time>2013-04-20T08:09:53.726Z</time>
      </trkpt>
      <trkpt lat="49.46984" lon="2.03575">
        <ele>157</ele>
        <time>2013-04-20T08:09:54.938Z</time>
      </trkpt>
      <trkpt lat="49.46981" lon="2.03579">
        <ele>157.2</ele>
        <time>2013-04-20T08:10:01.731Z</time>
      </trkpt>
      <trkpt lat="49.4698" lon="2.03581">
        <ele>157.4</ele>
        <time>2013-04-20T08:10:02.748Z</time>
      </trkpt>
      <trkpt lat="49.46977" lon="2.03585">
        <ele>157</ele>
        <time>2013-04-20T08:10:05.761Z</time>
      </trkpt>
      <trkpt lat="49.46976" lon="2.03586">
        <ele>156.7</ele>
        <time>2013-04-20T08:10:06.928Z</time>
      </trkpt>
      <trkpt lat="49.46973" lon="2.03587">
        <ele>156.1</ele>
        <time>2013-04-20T08:10:09.724Z</time>
      </trkpt>
      <trkpt lat="49.4697" lon="2.03588">
        <ele>156.6</ele>
        <time>2013-04-20T08:10:11.932Z</time>
      </trkpt>
      <trkpt lat="49.46965" lon="2.03589">
        <ele>155.8</ele>
        <time>2013-04-20T08:10:15.736Z</time>
      </trkpt>
      <trkpt lat="49.46963" lon="2.03591">
        <ele>157.8</ele>
        <time>2013-04-20T08:10:17.926Z</time>
      </trkpt>
      <trkpt lat="49.46959" lon="2.03595">
        <ele>156.5</ele>
        <time>2013-04-20T08:10:21.736Z</time>
      </trkpt>
      <trkpt lat="49.46958" lon="2.03596">
        <ele>156</ele>
        <time>2013-04-20T08:10:22.939Z</time>
      </trkpt>
      <trkpt lat="49.46955" lon="2.03598">
        <ele>154</ele>
        <time>2013-04-20T08:10:26.930Z</time>
      </trkpt>
      <trkpt lat="49.46954" lon="2.03598">
        <ele>153.5</ele>
        <time>2013-04-20T08:10:28.233Z</time>
      </trkpt>
      <trkpt lat="49.4695" lon="2.03599">
        <ele>153.8</ele>
        <time>2013-04-20T08:10:32.928Z</time>
      </trkpt>
      <trkpt lat="49.46949" lon="2.03599">
        <ele>156.1</ele>
        <time>2013-04-20T08:10:33.895Z</time>
      </trkpt>
      <trkpt lat="49.46945" lon="2.036">
        <ele>155.8</ele>
        <time>2013-04-20T08:10:38.726Z</time>
      </trkpt>
      <trkpt lat="49.46944" lon="2.036">
        <ele>154.8</ele>
        <time>2013-04-20T08:10:40.925Z</time>
      </trkpt>
      <trkpt lat="49.4694" lon="2.03603">
        <ele>154.7</ele>
        <time>2013-04-20T08:10:45.732Z</time>
      </trkpt>
      <trkpt lat="49.46938" lon="2.03605">
        <ele>155.1</ele>
        <time>2013-04-20T08:10:46.728Z</time>
      </trkpt>
      <trkpt lat="49.46934" lon="2.03607">
        <ele>155.9</ele>
        <time>2013-04-20T08:10:49.803Z</time>
      </trkpt>
      <trkpt lat="49.46933" lon="2.03608">
        <ele>154.8</ele>
        <time>2013-04-20T08:10:50.929Z</time>
      </trkpt>
      <trkpt lat="49.46929" lon="2.03608">
        <ele>160.9</ele>
        <time>2013-04-20T08:10:54.232Z</time>
      </trkpt>
      <trkpt lat="49.46928" lon="2.03607">
        <ele>162.7</ele>
        <time>2013-04-20T08:10:55.231Z</time>
      </trkpt>
      <trkpt lat="49.46923" lon="2.03606">
        <ele>163.1</ele>
        <time>2013-04-20T08:10:59.431Z</time>
      </trkpt>
      <trkpt lat="49.46922" lon="2.03606">
        <ele>162.9</ele>
        <time>2013-04-20T08:11:00.422Z</time>
      </trkpt>
      <trkpt lat="49.46918" lon="2.03606">
        <ele>163.9</ele>
        <time>2013-04-20T08:11:09.735Z</time>
      </trkpt>
      <trkpt lat="49.46917" lon="2.03607">
        <ele>164</ele>
        <time>2013-04-20T08:11:11.056Z</time>
      </trkpt>
      <trkpt lat="49.46915" lon="2.03609">
        <ele>163.3</ele>
        <time>2013-04-20T08:11:13.715Z</time>
      </trkpt>
      <trkpt lat="49.46913" lon="2.03611">
        <ele>164.7</ele>
        <time>2013-04-20T08:11:16.116Z</time>
      </trkpt>
      <trkpt lat="49.46909" lon="2.03614">
        <ele>164.9</ele>
        <time>2013-04-20T08:11:19.744Z</time>
      </trkpt>
      <trkpt lat="49.46908" lon="2.03615">
        <ele>164.9</ele>
        <time>2013-04-20T08:11:20.710Z</time>
      </trkpt>
      <trkpt lat="49.46906" lon="2.03618">
        <ele>164.3</ele>
        <time>2013-04-20T08:11:22.728Z</time>
      </trkpt>
      <trkpt lat="49.46905" lon="2.03621">
        <ele>163</ele>
        <time>2013-04-20T08:11:24.735Z</time>
      </trkpt>
      <trkpt lat="49.46905" lon="2.03623">
        <ele>163.9</ele>
        <time>2013-04-20T08:11:27.734Z</time>
      </trkpt>
      <trkpt lat="49.46903" lon="2.03627">
        <ele>162.1</ele>
        <time>2013-04-20T08:11:30.235Z</time>
      </trkpt>
      <trkpt lat="49.46899" lon="2.03629">
        <ele>158.3</ele>
        <time>2013-04-20T08:11:36.228Z</time>
      </trkpt>
      <trkpt lat="49.46898" lon="2.0363">
        <ele>158.4</ele>
        <time>2013-04-20T08:11:36.739Z</time>
      </trkpt>
      <trkpt lat="49.46894" lon="2.03632">
        <ele>159.1</ele>
        <time>2013-04-20T08:11:40.224Z</time>
      </trkpt>
      <trkpt lat="49.46893" lon="2.03634">
        <ele>159.4</ele>
        <time>2013-04-20T08:11:41.235Z</time>
      </trkpt>
      <trkpt lat="49.46889" lon="2.03636">
        <ele>159.6</ele>
        <time>2013-04-20T08:11:44.232Z</time>
      </trkpt>
      <trkpt lat="49.46888" lon="2.03637">
        <ele>160</ele>
        <time>2013-04-20T08:11:44.739Z</time>
      </trkpt>
      <trkpt lat="49.46885" lon="2.03639">
        <ele>159.7</ele>
        <time>2013-04-20T08:11:46.846Z</time>
      </trkpt>
      <trkpt lat="49.46883" lon="2.03639">
        <ele>159.2</ele>
        <time>2013-04-20T08:11:48.733Z</time>
      </trkpt>
      <trkpt lat="49.46881" lon="2.03644">
        <ele>154.5</ele>
        <time>2013-04-20T08:11:53.734Z</time>
      </trkpt>
      <trkpt lat="49.4688" lon="2.03646">
        <ele>154.7</ele>
        <time>2013-04-20T08:11:54.927Z</time>
      </trkpt>
      <trkpt lat="49.46878" lon="2.03649">
        <ele>149.9</ele>
        <time>2013-04-20T08:11:57.728Z</time>
      </trkpt>
      <trkpt lat="49.46877" lon="2.03651">
        <ele>149.2</ele>
        <time>2013-04-20T08:11:58.927Z</time>
      </trkpt>
      <trkpt lat="49.46875" lon="2.03656">
        <ele>149.7</ele>
        <time>2013-04-20T08:12:01.723Z</time>
      </trkpt>
      <trkpt lat="49.46874" lon="2.03658">
        <ele>150.3</ele>
        <time>2013-04-20T08:12:02.927Z</time>
      </trkpt>
      <trkpt lat="49.46872" lon="2.03664">
        <ele>153.9</ele>
        <time>2013-04-20T08:12:04.784Z</time>
      </trkpt>
      <trkpt lat="49.46871" lon="2.03667">
        <ele>153.9</ele>
        <time>2013-04-20T08:12:06.059Z</time>
      </trkpt>
      <trkpt lat="49.4687" lon="2.03671">
        <ele>149.8</ele>
        <time>2013-04-20T08:12:08.959Z</time>
      </trkpt>
      <trkpt lat="49.46869" lon="2.03673">
        <ele>146.9</ele>
        <time>2013-04-20T08:12:10.713Z</time>
      </trkpt>
      <trkpt lat="49.46866" lon="2.03678">
        <ele>143.7</ele>
        <time>2013-04-20T08:12:16.725Z</time>
      </trkpt>
      <trkpt lat="49.46865" lon="2.0368">
        <ele>144</ele>
        <time>2013-04-20T08:12:17.927Z</time>
      </trkpt>
      <trkpt lat="49.46861" lon="2.03683">
        <ele>147.3</ele>
        <time>2013-04-20T08:12:19.744Z</time>
      </trkpt>
      <trkpt lat="49.4686" lon="2.03685">
        <ele>148.5</ele>
        <time>2013-04-20T08:12:20.724Z</time>
      </trkpt>
      <trkpt lat="49.46857" lon="2.03689">
        <ele>145.1</ele>
        <time>2013-04-20T08:12:23.734Z</time>
      </trkpt>
      <trkpt lat="49.46855" lon="2.03691">
        <ele>146.9</ele>
        <time>2013-04-20T08:12:24.738Z</time>
      </trkpt>
      <trkpt lat="49.46853" lon="2.03695">
        <ele>147.4</ele>
        <time>2013-04-20T08:12:26.932Z</time>
      </trkpt>
      <trkpt lat="49.46852" lon="2.03697">
        <ele>148</ele>
        <time>2013-04-20T08:12:27.837Z</time>
      </trkpt>
      <trkpt lat="49.46851" lon="2.037">
        <ele>148.3</ele>
        <time>2013-04-20T08:12:29.921Z</time>
      </trkpt>
      <trkpt lat="49.46849" lon="2.03703">
        <ele>152.2</ele>
        <time>2013-04-20T08:12:30.975Z</time>
      </trkpt>
      <trkpt lat="49.46847" lon="2.03708">
        <ele>153.3</ele>
        <time>2013-04-20T08:12:32.747Z</time>
      </trkpt>
      <trkpt lat="49.46846" lon="2.03711">
        <ele>154.2</ele>
        <time>2013-04-20T08:12:33.729Z</time>
      </trkpt>
      <trkpt lat="49.46844" lon="2.03716">
        <ele>153.8</ele>
        <time>2013-04-20T08:12:36.248Z</time>
      </trkpt>
      <trkpt lat="49.46843" lon="2.03718">
        <ele>154.4</ele>
        <time>2013-04-20T08:12:36.775Z</time>
      </trkpt>
      <trkpt lat="49.46839" lon="2.03722">
        <ele>155.3</ele>
        <time>2013-04-20T08:12:41.232Z</time>
      </trkpt>
      <trkpt lat="49.46839" lon="2.03723">
        <ele>155.3</ele>
        <time>2013-04-20T08:12:41.892Z</time>
      </trkpt>
      <trkpt lat="49.46836" lon="2.03727">
        <ele>154.4</ele>
        <time>2013-04-20T08:12:45.234Z</time>
      </trkpt>
      <trkpt lat="49.46835" lon="2.03728">
        <ele>154.1</ele>
        <time>2013-04-20T08:12:45.739Z</time>
      </trkpt>
      <trkpt lat="49.46834" lon="2.03733">
        <ele>155.3</ele>
        <time>2013-04-20T08:12:47.713Z</time>
      </trkpt>
      <trkpt lat="49.46832" lon="2.03735">
        <ele>155.7</ele>
        <time>2013-04-20T08:12:48.920Z</time>
      </trkpt>
      <trkpt lat="49.46831" lon="2.03738">
        <ele>155.9</ele>
        <time>2013-04-20T08:12:50.721Z</time>
      </trkpt>
      <trkpt lat="49.46829" lon="2.03742">
        <ele>157.1</ele>
        <time>2013-04-20T08:12:52.931Z</time>
      </trkpt>
      <trkpt lat="49.46826" lon="2.03747">
        <ele>158.8</ele>
        <time>2013-04-20T08:12:55.738Z</time>
      </trkpt>
      <trkpt lat="49.46824" lon="2.03749">
        <ele>160</ele>
        <time>2013-04-20T08:12:56.735Z</time>
      </trkpt>
      <trkpt lat="49.46823" lon="2.03753">
        <ele>161.1</ele>
        <time>2013-04-20T08:12:58.715Z</time>
      </trkpt>
      <trkpt lat="49.46822" lon="2.03755">
        <ele>159.6</ele>
        <time>2013-04-20T08:12:59.735Z</time>
      </trkpt>
      <trkpt lat="49.46819" lon="2.03759">
        <ele>159.5</ele>
        <time>2013-04-20T08:13:01.928Z</time>
      </trkpt>
      <trkpt lat="49.46818" lon="2.03761">
        <ele>160.3</ele>
        <time>2013-04-20T08:13:03.415Z</time>
      </trkpt>
      <trkpt lat="49.46817" lon="2.03762">
        <ele>160.2</ele>
        <time>2013-04-20T08:13:03.737Z</time>
      </trkpt>
      <trkpt lat="49.46814" lon="2.03766">
        <ele>160.8</ele>
        <time>2013-04-20T08:13:06.237Z</time>
      </trkpt>
      <trkpt lat="49.46812" lon="2.03769">
        <ele>160.1</ele>
        <time>2013-04-20T08:13:07.787Z</time>
      </trkpt>
      <trkpt lat="49.46808" lon="2.03775">
        <ele>164.7</ele>
        <time>2013-04-20T08:13:09.734Z</time>
      </trkpt>
      <trkpt lat="49.46805" lon="2.03779">
        <ele>164.9</ele>
        <time>2013-04-20T08:13:11.744Z</time>
      </trkpt>
      <trkpt lat="49.46804" lon="2.03781">
        <ele>165.2</ele>
        <time>2013-04-20T08:13:13.435Z</time>
      </trkpt>
      <trkpt lat="49.46801" lon="2.03783">
        <ele>164.9</ele>
        <time>2013-04-20T08:13:14.837Z</time>
      </trkpt>
      <trkpt lat="49.46799" lon="2.03783">
        <ele>165.1</ele>
        <time>2013-04-20T08:13:15.748Z</time>
      </trkpt>
      <trkpt lat="49.46796" lon="2.03786">
        <ele>166.8</ele>
        <time>2013-04-20T08:13:17.759Z</time>
      </trkpt>
      <trkpt lat="49.46795" lon="2.03787">
        <ele>167.3</ele>
        <time>2013-04-20T08:13:19.016Z</time>
      </trkpt>
      <trkpt lat="49.46793" lon="2.03791">
        <ele>168.5</ele>
        <time>2013-04-20T08:13:21.433Z</time>
      </trkpt>
      <trkpt lat="49.46792" lon="2.03793">
        <ele>168.6</ele>
        <time>2013-04-20T08:13:21.738Z</time>
      </trkpt>
      <trkpt lat="49.46789" lon="2.03797">
        <ele>166.9</ele>
        <time>2013-04-20T08:13:24.719Z</time>
      </trkpt>
      <trkpt lat="49.46789" lon="2.038">
        <ele>164.9</ele>
        <time>2013-04-20T08:13:25.718Z</time>
      </trkpt>
      <trkpt lat="49.46785" lon="2.03803">
        <ele>164.9</ele>
        <time>2013-04-20T08:13:29.734Z</time>
      </trkpt>
      <trkpt lat="49.46784" lon="2.03803">
        <ele>164.2</ele>
        <time>2013-04-20T08:13:30.733Z</time>
      </trkpt>
      <trkpt lat="49.4678" lon="2.03806">
        <ele>162.7</ele>
        <time>2013-04-20T08:13:33.736Z</time>
      </trkpt>
      <trkpt lat="49.4678" lon="2.03807">
        <ele>163</ele>
        <time>2013-04-20T08:13:34.729Z</time>
      </trkpt>
      <trkpt lat="49.46778" lon="2.03814">
        <ele>162.2</ele>
        <time>2013-04-20T08:13:38.726Z</time>
      </trkpt>
      <trkpt lat="49.46778" lon="2.03815">
        <ele>162.5</ele>
        <time>2013-04-20T08:13:39.927Z</time>
      </trkpt>
      <trkpt lat="49.46776" lon="2.03821">
        <ele>161.8</ele>
        <time>2013-04-20T08:13:44.732Z</time>
      </trkpt>
      <trkpt lat="49.46776" lon="2.03823">
        <ele>161.4</ele>
        <time>2013-04-20T08:13:45.894Z</time>
      </trkpt>
      <trkpt lat="49.46773" lon="2.03827">
        <ele>160.9</ele>
        <time>2013-04-20T08:13:48.736Z</time>
      </trkpt>
      <trkpt lat="49.46772" lon="2.03829">
        <ele>162.3</ele>
        <time>2013-04-20T08:13:49.757Z</time>
      </trkpt>
      <trkpt lat="49.4677" lon="2.03833">
        <ele>161.1</ele>
        <time>2013-04-20T08:13:51.926Z</time>
      </trkpt>
      <trkpt lat="49.46769" lon="2.03835">
        <ele>160.7</ele>
        <time>2013-04-20T08:13:52.739Z</time>
      </trkpt>
      <trkpt lat="49.46767" lon="2.03838">
        <ele>160.7</ele>
        <time>2013-04-20T08:13:54.847Z</time>
      </trkpt>
      <trkpt lat="49.46766" lon="2.03841">
        <ele>161.3</ele>
        <time>2013-04-20T08:13:56.149Z</time>
      </trkpt>
      <trkpt lat="49.46763" lon="2.03846">
        <ele>161.3</ele>
        <time>2013-04-20T08:13:58.927Z</time>
      </trkpt>
      <trkpt lat="49.46763" lon="2.03848">
        <ele>158.5</ele>
        <time>2013-04-20T08:13:59.940Z</time>
      </trkpt>
      <trkpt lat="49.4676" lon="2.03853">
        <ele>158.9</ele>
        <time>2013-04-20T08:14:02.720Z</time>
      </trkpt>
      <trkpt lat="49.46759" lon="2.03857">
        <ele>158.9</ele>
        <time>2013-04-20T08:14:04.782Z</time>
      </trkpt>
      <trkpt lat="49.46757" lon="2.03862">
        <ele>162.1</ele>
        <time>2013-04-20T08:14:07.418Z</time>
      </trkpt>
      <trkpt lat="49.46756" lon="2.03863">
        <ele>162</ele>
        <time>2013-04-20T08:14:07.706Z</time>
      </trkpt>
      <trkpt lat="49.46753" lon="2.03868">
        <ele>163.2</ele>
        <time>2013-04-20T08:14:10.224Z</time>
      </trkpt>
      <trkpt lat="49.46752" lon="2.0387">
        <ele>163.4</ele>
        <time>2013-04-20T08:14:10.720Z</time>
      </trkpt>
      <trkpt lat="49.46751" lon="2.03871">
        <ele>162.9</ele>
        <time>2013-04-20T08:14:11.931Z</time>
      </trkpt>
      <trkpt lat="49.4675" lon="2.03875">
        <ele>167</ele>
        <time>2013-04-20T08:14:13.746Z</time>
      </trkpt>
      <trkpt lat="49.46749" lon="2.03879">
        <ele>167.6</ele>
        <time>2013-04-20T08:14:15.928Z</time>
      </trkpt>
      <trkpt lat="49.46747" lon="2.03881">
        <ele>168.9</ele>
        <time>2013-04-20T08:14:17.228Z</time>
      </trkpt>
      <trkpt lat="49.46746" lon="2.03883">
        <ele>170</ele>
        <time>2013-04-20T08:14:17.701Z</time>
      </trkpt>
      <trkpt lat="49.46745" lon="2.03887">
        <ele>168.6</ele>
        <time>2013-04-20T08:14:20.234Z</time>
      </trkpt>
      <trkpt lat="49.46742" lon="2.03891">
        <ele>167.7</ele>
        <time>2013-04-20T08:14:22.697Z</time>
      </trkpt>
      <trkpt lat="49.46741" lon="2.03892">
        <ele>167.4</ele>
        <time>2013-04-20T08:14:23.808Z</time>
      </trkpt>
      <trkpt lat="49.46738" lon="2.03895">
        <ele>165</ele>
        <time>2013-04-20T08:14:26.732Z</time>
      </trkpt>
      <trkpt lat="49.46736" lon="2.03897">
        <ele>164.3</ele>
        <time>2013-04-20T08:14:29.219Z</time>
      </trkpt>
      <trkpt lat="49.46733" lon="2.03901">
        <ele>164.6</ele>
        <time>2013-04-20T08:14:31.930Z</time>
      </trkpt>
      <trkpt lat="49.46732" lon="2.03903">
        <ele>165.3</ele>
        <time>2013-04-20T08:14:32.921Z</time>
      </trkpt>
      <trkpt lat="49.4673" lon="2.03907">
        <ele>166</ele>
        <time>2013-04-20T08:14:34.725Z</time>
      </trkpt>
      <trkpt lat="49.46729" lon="2.0391">
        <ele>164.9</ele>
        <time>2013-04-20T08:14:35.704Z</time>
      </trkpt>
      <trkpt lat="49.46727" lon="2.03916">
        <ele>165.1</ele>
        <time>2013-04-20T08:14:38.724Z</time>
      </trkpt>
      <trkpt lat="49.46727" lon="2.03918">
        <ele>164.7</ele>
        <time>2013-04-20T08:14:39.926Z</time>
      </trkpt>
      <trkpt lat="49.46726" lon="2.03922">
        <ele>165</ele>
        <time>2013-04-20T08:14:41.721Z</time>
      </trkpt>
      <trkpt lat="49.46726" lon="2.03926">
        <ele>164.5</ele>
        <time>2013-04-20T08:14:42.727Z</time>
      </trkpt>
      <trkpt lat="49.46725" lon="2.0393">
        <ele>164.5</ele>
        <time>2013-04-20T08:14:43.719Z</time>
      </trkpt>
      <trkpt lat="49.46724" lon="2.03933">
        <ele>164.5</ele>
        <time>2013-04-20T08:14:44.743Z</time>
      </trkpt>
      <trkpt lat="49.46721" lon="2.03936">
        <ele>163.4</ele>
        <time>2013-04-20T08:14:46.721Z</time>
      </trkpt>
      <trkpt lat="49.4672" lon="2.03939">
        <ele>162.6</ele>
        <time>2013-04-20T08:14:47.720Z</time>
      </trkpt>
      <trkpt lat="49.46717" lon="2.03943">
        <ele>161.8</ele>
        <time>2013-04-20T08:14:50.704Z</time>
      </trkpt>
      <trkpt lat="49.46716" lon="2.03944">
        <ele>161.9</ele>
        <time>2013-04-20T08:14:51.742Z</time>
      </trkpt>
      <trkpt lat="49.46713" lon="2.03947">
        <ele>161.9</ele>
        <time>2013-04-20T08:14:54.725Z</time>
      </trkpt>
      <trkpt lat="49.46713" lon="2.03948">
        <ele>161.6</ele>
        <time>2013-04-20T08:14:55.709Z</time>
      </trkpt>
      <trkpt lat="49.46711" lon="2.03954">
        <ele>156.2</ele>
        <time>2013-04-20T08:15:01.726Z</time>
      </trkpt>
      <trkpt lat="49.4671" lon="2.03955">
        <ele>155.9</ele>
        <time>2013-04-20T08:15:02.717Z</time>
      </trkpt>
      <trkpt lat="49.46708" lon="2.03961">
        <ele>154.8</ele>
        <time>2013-04-20T08:15:05.723Z</time>
      </trkpt>
      <trkpt lat="49.46707" lon="2.03964">
        <ele>154.3</ele>
        <time>2013-04-20T08:15:06.720Z</time>
      </trkpt>
      <trkpt lat="49.46705" lon="2.03967">
        <ele>153.5</ele>
        <time>2013-04-20T08:15:08.729Z</time>
      </trkpt>
      <trkpt lat="49.46704" lon="2.03969">
        <ele>153.5</ele>
        <time>2013-04-20T08:15:09.717Z</time>
      </trkpt>
      <trkpt lat="49.467" lon="2.03972">
        <ele>152.8</ele>
        <time>2013-04-20T08:15:12.728Z</time>
      </trkpt>
      <trkpt lat="49.46699" lon="2.03973">
        <ele>154.8</ele>
        <time>2013-04-20T08:15:13.717Z</time>
      </trkpt>
      <trkpt lat="49.46695" lon="2.03976">
        <ele>155.6</ele>
        <time>2013-04-20T08:15:16.744Z</time>
      </trkpt>
      <trkpt lat="49.46694" lon="2.03976">
        <ele>155.8</ele>
        <time>2013-04-20T08:15:17.717Z</time>
      </trkpt>
      <trkpt lat="49.4669" lon="2.0398">
        <ele>156.3</ele>
        <time>2013-04-20T08:15:20.790Z</time>
      </trkpt>
      <trkpt lat="49.46689" lon="2.03982">
        <ele>158</ele>
        <time>2013-04-20T08:15:21.722Z</time>
      </trkpt>
      <trkpt lat="49.46687" lon="2.03986">
        <ele>159.8</ele>
        <time>2013-04-20T08:15:23.725Z</time>
      </trkpt>
      <trkpt lat="49.46686" lon="2.03988">
        <ele>160.5</ele>
        <time>2013-04-20T08:15:24.717Z</time>
      </trkpt>
      <trkpt lat="49.46684" lon="2.03993">
        <ele>161</ele>
        <time>2013-04-20T08:15:26.737Z</time>
      </trkpt>
      <trkpt lat="49.46683" lon="2.03995">
        <ele>162.6</ele>
        <time>2013-04-20T08:15:27.726Z</time>
      </trkpt>
      <trkpt lat="49.4668" lon="2.03999">
        <ele>162.8</ele>
        <time>2013-04-20T08:15:29.732Z</time>
      </trkpt>
      <trkpt lat="49.46679" lon="2.04">
        <ele>162.7</ele>
        <time>2013-04-20T08:15:30.730Z</time>
      </trkpt>
      <trkpt lat="49.46676" lon="2.04003">
        <ele>161.8</ele>
        <time>2013-04-20T08:15:32.717Z</time>
      </trkpt>
      <trkpt lat="49.46675" lon="2.04005">
        <ele>161.7</ele>
        <time>2013-04-20T08:15:33.732Z</time>
      </trkpt>
      <trkpt lat="49.46671" lon="2.04009">
        <ele>161.9</ele>
        <time>2013-04-20T08:15:36.718Z</time>
      </trkpt>
      <trkpt lat="49.4667" lon="2.04011">
        <ele>161.7</ele>
        <time>2013-04-20T08:15:37.732Z</time>
      </trkpt>
      <trkpt lat="49.46667" lon="2.04014">
        <ele>162.7</ele>
        <time>2013-04-20T08:15:39.717Z</time>
      </trkpt>
      <trkpt lat="49.46666" lon="2.04016">
        <ele>165.3</ele>
        <time>2013-04-20T08:15:40.718Z</time>
      </trkpt>
      <trkpt lat="49.46663" lon="2.04021">
        <ele>165</ele>
        <time>2013-04-20T08:15:42.727Z</time>
      </trkpt>
      <trkpt lat="49.46662" lon="2.04023">
        <ele>165</ele>
        <time>2013-04-20T08:15:43.713Z</time>
      </trkpt>
      <trkpt lat="49.46659" lon="2.04026">
        <ele>165.2</ele>
        <time>2013-04-20T08:15:45.730Z</time>
      </trkpt>
      <trkpt lat="49.46658" lon="2.04027">
        <ele>166.1</ele>
        <time>2013-04-20T08:15:46.725Z</time>
      </trkpt>
      <trkpt lat="49.46656" lon="2.04033">
        <ele>167.6</ele>
        <time>2013-04-20T08:15:52.724Z</time>
      </trkpt>
      <trkpt lat="49.46655" lon="2.04033">
        <ele>167.9</ele>
        <time>2013-04-20T08:15:53.724Z</time>
      </trkpt>
      <trkpt lat="49.46653" lon="2.04037">
        <ele>168.6</ele>
        <time>2013-04-20T08:16:07.736Z</time>
      </trkpt>
      <trkpt lat="49.46652" lon="2.04039">
        <ele>167.1</ele>
        <time>2013-04-20T08:16:08.746Z</time>
      </trkpt>
      <trkpt lat="49.4665" lon="2.0404">
        <ele>165.5</ele>
        <time>2013-04-20T08:16:09.722Z</time>
      </trkpt>
      <trkpt lat="49.46647" lon="2.04041">
        <ele>165.2</ele>
        <time>2013-04-20T08:16:10.720Z</time>
      </trkpt>
      <trkpt lat="49.46644" lon="2.04045">
        <ele>165.9</ele>
        <time>2013-04-20T08:16:11.739Z</time>
      </trkpt>
      <trkpt lat="49.4664" lon="2.04049">
        <ele>165</ele>
        <time>2013-04-20T08:16:13.083Z</time>
      </trkpt>
      <trkpt lat="49.46638" lon="2.04052">
        <ele>164.2</ele>
        <time>2013-04-20T08:16:14.236Z</time>
      </trkpt>
      <trkpt lat="49.46637" lon="2.04054">
        <ele>164.7</ele>
        <time>2013-04-20T08:16:14.737Z</time>
      </trkpt>
      <trkpt lat="49.46635" lon="2.04057">
        <ele>165.2</ele>
        <time>2013-04-20T08:16:15.926Z</time>
      </trkpt>
      <trkpt lat="49.46633" lon="2.04061">
        <ele>164.8</ele>
        <time>2013-04-20T08:16:17.009Z</time>
      </trkpt>
      <trkpt lat="49.46632" lon="2.04064">
        <ele>164.5</ele>
        <time>2013-04-20T08:16:17.925Z</time>
      </trkpt>
      <trkpt lat="49.46631" lon="2.04067">
        <ele>164</ele>
        <time>2013-04-20T08:16:18.911Z</time>
      </trkpt>
      <trkpt lat="49.46634" lon="2.04068">
        <ele>151.2</ele>
        <time>2013-04-20T08:16:20.727Z</time>
      </trkpt>
      <trkpt lat="49.46634" lon="2.04072">
        <ele>152.5</ele>
        <time>2013-04-20T08:16:22.741Z</time>
      </trkpt>
      <trkpt lat="49.46633" lon="2.04075">
        <ele>155.7</ele>
        <time>2013-04-20T08:16:25.220Z</time>
      </trkpt>
      <trkpt lat="49.46632" lon="2.04078">
        <ele>157.9</ele>
        <time>2013-04-20T08:16:25.892Z</time>
      </trkpt>
      <trkpt lat="49.4663" lon="2.04082">
        <ele>161.6</ele>
        <time>2013-04-20T08:16:27.210Z</time>
      </trkpt>
      <trkpt lat="49.46628" lon="2.04085">
        <ele>167.6</ele>
        <time>2013-04-20T08:16:28.432Z</time>
      </trkpt>
      <trkpt lat="49.46626" lon="2.04086">
        <ele>169.7</ele>
        <time>2013-04-20T08:16:28.699Z</time>
      </trkpt>
      <trkpt lat="49.46625" lon="2.04092">
        <ele>165.9</ele>
        <time>2013-04-20T08:16:29.749Z</time>
      </trkpt>
      <trkpt lat="49.46623" lon="2.04097">
        <ele>164.6</ele>
        <time>2013-04-20T08:16:31.726Z</time>
      </trkpt>
      <trkpt lat="49.46622" lon="2.04098">
        <ele>164.9</ele>
        <time>2013-04-20T08:16:33.219Z</time>
      </trkpt>
      <trkpt lat="49.4662" lon="2.041">
        <ele>165.8</ele>
        <time>2013-04-20T08:16:33.788Z</time>
      </trkpt>
      <trkpt lat="49.46617" lon="2.04101">
        <ele>164.7</ele>
        <time>2013-04-20T08:16:36.137Z</time>
      </trkpt>
      <trkpt lat="49.46613" lon="2.04101">
        <ele>163.8</ele>
        <time>2013-04-20T08:16:37.913Z</time>
      </trkpt>
      <trkpt lat="49.46612" lon="2.04099">
        <ele>163.1</ele>
        <time>2013-04-20T08:16:39.231Z</time>
      </trkpt>
      <trkpt lat="49.46608" lon="2.04098">
        <ele>163.8</ele>
        <time>2013-04-20T08:16:40.716Z</time>
      </trkpt>
      <trkpt lat="49.46606" lon="2.04093">
        <ele>161.9</ele>
        <time>2013-04-20T08:16:43.423Z</time>
      </trkpt>
      <trkpt lat="49.46603" lon="2.04089">
        <ele>160.9</ele>
        <time>2013-04-20T08:16:45.104Z</time>
      </trkpt>
      <trkpt lat="49.46602" lon="2.04087">
        <ele>159.8</ele>
        <time>2013-04-20T08:16:45.721Z</time>
      </trkpt>
      <trkpt lat="49.46599" lon="2.04083">
        <ele>159.9</ele>
        <time>2013-04-20T08:16:48.733Z</time>
      </trkpt>
      <trkpt lat="49.46596" lon="2.0408">
        <ele>161.1</ele>
        <time>2013-04-20T08:16:51.221Z</time>
      </trkpt>
      <trkpt lat="49.46595" lon="2.04079">
        <ele>161.2</ele>
        <time>2013-04-20T08:16:51.721Z</time>
      </trkpt>
      <trkpt lat="49.46593" lon="2.04074">
        <ele>161.2</ele>
        <time>2013-04-20T08:16:53.922Z</time>
      </trkpt>
      <trkpt lat="49.46591" lon="2.04069">
        <ele>160</ele>
        <time>2013-04-20T08:16:57.395Z</time>
      </trkpt>
      <trkpt lat="49.4659" lon="2.04067">
        <ele>159.6</ele>
        <time>2013-04-20T08:16:57.701Z</time>
      </trkpt>
      <trkpt lat="49.46587" lon="2.04062">
        <ele>158.2</ele>
        <time>2013-04-20T08:17:01.744Z</time>
      </trkpt>
      <trkpt lat="49.46587" lon="2.04061">
        <ele>157.9</ele>
        <time>2013-04-20T08:17:02.920Z</time>
      </trkpt>
      <trkpt lat="49.46585" lon="2.04058">
        <ele>156.6</ele>
        <time>2013-04-20T08:17:05.707Z</time>
      </trkpt>
      <trkpt lat="49.46583" lon="2.04055">
        <ele>155.4</ele>
        <time>2013-04-20T08:17:08.119Z</time>
      </trkpt>
      <trkpt lat="49.4658" lon="2.04051">
        <ele>154.1</ele>
        <time>2013-04-20T08:17:10.785Z</time>
      </trkpt>
      <trkpt lat="49.46579" lon="2.04049">
        <ele>154.3</ele>
        <time>2013-04-20T08:17:11.695Z</time>
      </trkpt>
      <trkpt lat="49.46576" lon="2.04046">
        <ele>153.1</ele>
        <time>2013-04-20T08:17:14.709Z</time>
      </trkpt>
      <trkpt lat="49.46575" lon="2.04044">
        <ele>153.2</ele>
        <time>2013-04-20T08:17:15.716Z</time>
      </trkpt>
      <trkpt lat="49.46573" lon="2.0404">
        <ele>149.8</ele>
        <time>2013-04-20T08:17:18.738Z</time>
      </trkpt>
      <trkpt lat="49.46572" lon="2.04038">
        <ele>149.3</ele>
        <time>2013-04-20T08:17:19.728Z</time>
      </trkpt>
      <trkpt lat="49.4657" lon="2.04034">
        <ele>148.9</ele>
        <time>2013-04-20T08:17:22.730Z</time>
      </trkpt>
      <trkpt lat="49.46569" lon="2.04032">
        <ele>149</ele>
        <time>2013-04-20T08:17:23.725Z</time>
      </trkpt>
      <trkpt lat="49.46567" lon="2.04028">
        <ele>148.4</ele>
        <time>2013-04-20T08:17:25.702Z</time>
      </trkpt>
      <trkpt lat="49.46566" lon="2.04025">
        <ele>148.4</ele>
        <time>2013-04-20T08:17:26.726Z</time>
      </trkpt>
      <trkpt lat="49.46563" lon="2.04021">
        <ele>148.8</ele>
        <time>2013-04-20T08:17:28.690Z</time>
      </trkpt>
      <trkpt lat="49.46562" lon="2.04019">
        <ele>149</ele>
        <time>2013-04-20T08:17:29.883Z</time>
      </trkpt>
      <trkpt lat="49.4656" lon="2.04014">
        <ele>148.6</ele>
        <time>2013-04-20T08:17:32.923Z</time>
      </trkpt>
      <trkpt lat="49.46559" lon="2.04013">
        <ele>148.4</ele>
        <time>2013-04-20T08:17:33.742Z</time>
      </trkpt>
      <trkpt lat="49.46557" lon="2.04008">
        <ele>149.9</ele>
        <time>2013-04-20T08:17:37.415Z</time>
      </trkpt>
      <trkpt lat="49.46556" lon="2.04006">
        <ele>150.3</ele>
        <time>2013-04-20T08:17:37.842Z</time>
      </trkpt>
      <trkpt lat="49.46553" lon="2.04">
        <ele>147.2</ele>
        <time>2013-04-20T08:17:42.923Z</time>
      </trkpt>
      <trkpt lat="49.46552" lon="2.03999">
        <ele>148</ele>
        <time>2013-04-20T08:17:43.927Z</time>
      </trkpt>
      <trkpt lat="49.46551" lon="2.03993">
        <ele>147.8</ele>
        <time>2013-04-20T08:17:46.723Z</time>
      </trkpt>
      <trkpt lat="49.46551" lon="2.03991">
        <ele>147.7</ele>
        <time>2013-04-20T08:17:47.709Z</time>
      </trkpt>
      <trkpt lat="49.4655" lon="2.03987">
        <ele>146.9</ele>
        <time>2013-04-20T08:17:49.726Z</time>
      </trkpt>
      <trkpt lat="49.46549" lon="2.03984">
        <ele>147.3</ele>
        <time>2013-04-20T08:17:50.723Z</time>
      </trkpt>
      <trkpt lat="49.46549" lon="2.03981">
        <ele>145.6</ele>
        <time>2013-04-20T08:17:52.727Z</time>
      </trkpt>
      <trkpt lat="49.46548" lon="2.03977">
        <ele>146.6</ele>
        <time>2013-04-20T08:17:55.223Z</time>
      </trkpt>
      <trkpt lat="49.46547" lon="2.03973">
        <ele>144.8</ele>
        <time>2013-04-20T08:17:57.725Z</time>
      </trkpt>
      <trkpt lat="49.46547" lon="2.0397">
        <ele>144.6</ele>
        <time>2013-04-20T08:17:58.714Z</time>
      </trkpt>
      <trkpt lat="49.46546" lon="2.03964">
        <ele>144</ele>
        <time>2013-04-20T08:18:01.723Z</time>
      </trkpt>
      <trkpt lat="49.46546" lon="2.03962">
        <ele>144.2</ele>
        <time>2013-04-20T08:18:02.697Z</time>
      </trkpt>
      <trkpt lat="49.46545" lon="2.0396">
        <ele>145.3</ele>
        <time>2013-04-20T08:18:04.315Z</time>
      </trkpt>
      <trkpt lat="49.46543" lon="2.03956">
        <ele>146.3</ele>
        <time>2013-04-20T08:18:04.732Z</time>
      </trkpt>
      <trkpt lat="49.46542" lon="2.03951">
        <ele>144.4</ele>
        <time>2013-04-20T08:18:07.737Z</time>
      </trkpt>
      <trkpt lat="49.46542" lon="2.0395">
        <ele>144.1</ele>
        <time>2013-04-20T08:18:08.737Z</time>
      </trkpt>
      <trkpt lat="49.46541" lon="2.03944">
        <ele>144.9</ele>
        <time>2013-04-20T08:18:13.210Z</time>
      </trkpt>
      <trkpt lat="49.46541" lon="2.03942">
        <ele>145.3</ele>
        <time>2013-04-20T08:18:13.713Z</time>
      </trkpt>
      <trkpt lat="49.4654" lon="2.03936">
        <ele>145.5</ele>
        <time>2013-04-20T08:18:17.716Z</time>
      </trkpt>
      <trkpt lat="49.46541" lon="2.03934">
        <ele>145.6</ele>
        <time>2013-04-20T08:18:18.726Z</time>
      </trkpt>
      <trkpt lat="49.46539" lon="2.0393">
        <ele>147.9</ele>
        <time>2013-04-20T08:18:21.719Z</time>
      </trkpt>
      <trkpt lat="49.46539" lon="2.03927">
        <ele>147.4</ele>
        <time>2013-04-20T08:18:22.920Z</time>
      </trkpt>
      <trkpt lat="49.46538" lon="2.03925">
        <ele>147.4</ele>
        <time>2013-04-20T08:18:23.924Z</time>
      </trkpt>
      <trkpt lat="49.46537" lon="2.0392">
        <ele>146.1</ele>
        <time>2013-04-20T08:18:25.715Z</time>
      </trkpt>
      <trkpt lat="49.46536" lon="2.03916">
        <ele>145.4</ele>
        <time>2013-04-20T08:18:27.924Z</time>
      </trkpt>
      <trkpt lat="49.46535" lon="2.03911">
        <ele>145</ele>
        <time>2013-04-20T08:18:29.742Z</time>
      </trkpt>
      <trkpt lat="49.46534" lon="2.03906">
        <ele>145.6</ele>
        <time>2013-04-20T08:18:31.923Z</time>
      </trkpt>
      <trkpt lat="49.46534" lon="2.03904">
        <ele>145.5</ele>
        <time>2013-04-20T08:18:32.923Z</time>
      </trkpt>
      <trkpt lat="49.46532" lon="2.03898">
        <ele>145</ele>
        <time>2013-04-20T08:18:35.724Z</time>
      </trkpt>
      <trkpt lat="49.46532" lon="2.03896">
        <ele>145.2</ele>
        <time>2013-04-20T08:18:36.923Z</time>
      </trkpt>
      <trkpt lat="49.46532" lon="2.03891">
        <ele>143.1</ele>
        <time>2013-04-20T08:18:39.014Z</time>
      </trkpt>
      <trkpt lat="49.46532" lon="2.03888">
        <ele>142.8</ele>
        <time>2013-04-20T08:18:40.221Z</time>
      </trkpt>
      <trkpt lat="49.46532" lon="2.03882">
        <ele>142.3</ele>
        <time>2013-04-20T08:18:42.828Z</time>
      </trkpt>
      <trkpt lat="49.46531" lon="2.03879">
        <ele>142.5</ele>
        <time>2013-04-20T08:18:45.228Z</time>
      </trkpt>
      <trkpt lat="49.4653" lon="2.03874">
        <ele>142.2</ele>
        <time>2013-04-20T08:18:47.728Z</time>
      </trkpt>
      <trkpt lat="49.46529" lon="2.03872">
        <ele>142.2</ele>
        <time>2013-04-20T08:18:48.726Z</time>
      </trkpt>
      <trkpt lat="49.46528" lon="2.03867">
        <ele>142.6</ele>
        <time>2013-04-20T08:18:50.725Z</time>
      </trkpt>
      <trkpt lat="49.46528" lon="2.03865">
        <ele>142.8</ele>
        <time>2013-04-20T08:18:51.726Z</time>
      </trkpt>
      <trkpt lat="49.46526" lon="2.0386">
        <ele>141.7</ele>
        <time>2013-04-20T08:18:55.222Z</time>
      </trkpt>
      <trkpt lat="49.46526" lon="2.03858">
        <ele>140.8</ele>
        <time>2013-04-20T08:18:56.229Z</time>
      </trkpt>
      <trkpt lat="49.46524" lon="2.03852">
        <ele>140.5</ele>
        <time>2013-04-20T08:19:00.209Z</time>
      </trkpt>
      <trkpt lat="49.46524" lon="2.0385">
        <ele>140.2</ele>
        <time>2013-04-20T08:19:00.765Z</time>
      </trkpt>
      <trkpt lat="49.46521" lon="2.03845">
        <ele>142.7</ele>
        <time>2013-04-20T08:19:03.348Z</time>
      </trkpt>
      <trkpt lat="49.4652" lon="2.03842">
        <ele>144.4</ele>
        <time>2013-04-20T08:19:03.726Z</time>
      </trkpt>
      <trkpt lat="49.46519" lon="2.03841">
        <ele>143.5</ele>
        <time>2013-04-20T08:19:04.977Z</time>
      </trkpt>
      <trkpt lat="49.46516" lon="2.03835">
        <ele>144.8</ele>
        <time>2013-04-20T08:19:06.718Z</time>
      </trkpt>
      <trkpt lat="49.46515" lon="2.03829">
        <ele>144.3</ele>
        <time>2013-04-20T08:19:08.729Z</time>
      </trkpt>
      <trkpt lat="49.46514" lon="2.03827">
        <ele>144.1</ele>
        <time>2013-04-20T08:19:09.728Z</time>
      </trkpt>
      <trkpt lat="49.46512" lon="2.03822">
        <ele>145</ele>
        <time>2013-04-20T08:19:12.303Z</time>
      </trkpt>
      <trkpt lat="49.46512" lon="2.0382">
        <ele>144.8</ele>
        <time>2013-04-20T08:19:12.725Z</time>
      </trkpt>
      <trkpt lat="49.4651" lon="2.03815">
        <ele>145.7</ele>
        <time>2013-04-20T08:19:15.732Z</time>
      </trkpt>
      <trkpt lat="49.46509" lon="2.03812">
        <ele>145.6</ele>
        <time>2013-04-20T08:19:18.219Z</time>
      </trkpt>
      <trkpt lat="49.46507" lon="2.03807">
        <ele>144.3</ele>
        <time>2013-04-20T08:19:21.236Z</time>
      </trkpt>
      <trkpt lat="49.46506" lon="2.03805">
        <ele>144.2</ele>
        <time>2013-04-20T08:19:21.782Z</time>
      </trkpt>
      <trkpt lat="49.46504" lon="2.038">
        <ele>143.2</ele>
        <time>2013-04-20T08:19:25.717Z</time>
      </trkpt>
      <trkpt lat="49.46503" lon="2.03799">
        <ele>142.9</ele>
        <time>2013-04-20T08:19:26.909Z</time>
      </trkpt>
      <trkpt lat="49.46499" lon="2.03795">
        <ele>143</ele>
        <time>2013-04-20T08:19:29.718Z</time>
      </trkpt>
      <trkpt lat="49.46498" lon="2.03794">
        <ele>143.2</ele>
        <time>2013-04-20T08:19:30.726Z</time>
      </trkpt>
      <trkpt lat="49.46494" lon="2.03792">
        <ele>143.2</ele>
        <time>2013-04-20T08:19:33.702Z</time>
      </trkpt>
      <trkpt lat="49.46493" lon="2.03792">
        <ele>143.4</ele>
        <time>2013-04-20T08:19:34.727Z</time>
      </trkpt>
      <trkpt lat="49.4649" lon="2.03794">
        <ele>143.9</ele>
        <time>2013-04-20T08:19:36.720Z</time>
      </trkpt>
      <trkpt lat="49.46488" lon="2.03794">
        <ele>144.1</ele>
        <time>2013-04-20T08:19:37.738Z</time>
      </trkpt>
      <trkpt lat="49.46484" lon="2.03795">
        <ele>144.1</ele>
        <time>2013-04-20T08:19:40.742Z</time>
      </trkpt>
      <trkpt lat="49.46483" lon="2.03794">
        <ele>143.6</ele>
        <time>2013-04-20T08:19:41.741Z</time>
      </trkpt>
      <trkpt lat="49.4648" lon="2.03793">
        <ele>142.7</ele>
        <time>2013-04-20T08:19:45.224Z</time>
      </trkpt>
      <trkpt lat="49.46478" lon="2.03793">
        <ele>142.7</ele>
        <time>2013-04-20T08:19:46.224Z</time>
      </trkpt>
      <trkpt lat="49.46474" lon="2.03793">
        <ele>143.3</ele>
        <time>2013-04-20T08:19:49.212Z</time>
      </trkpt>
      <trkpt lat="49.46473" lon="2.03793">
        <ele>143.4</ele>
        <time>2013-04-20T08:19:50.468Z</time>
      </trkpt>
      <trkpt lat="49.46468" lon="2.03794">
        <ele>143.9</ele>
        <time>2013-04-20T08:19:52.711Z</time>
      </trkpt>
      <trkpt lat="49.46467" lon="2.03794">
        <ele>144.8</ele>
        <time>2013-04-20T08:19:54.343Z</time>
      </trkpt>
      <trkpt lat="49.46463" lon="2.03795">
        <ele>144.9</ele>
        <time>2013-04-20T08:19:56.727Z</time>
      </trkpt>
      <trkpt lat="49.46462" lon="2.03795">
        <ele>144.1</ele>
        <time>2013-04-20T08:19:57.724Z</time>
      </trkpt>
      <trkpt lat="49.46459" lon="2.03794">
        <ele>144.6</ele>
        <time>2013-04-20T08:20:00.710Z</time>
      </trkpt>
      <trkpt lat="49.46457" lon="2.03794">
        <ele>145.1</ele>
        <time>2013-04-20T08:20:01.722Z</time>
      </trkpt>
      <trkpt lat="49.46455" lon="2.03794">
        <ele>143.2</ele>
        <time>2013-04-20T08:20:03.699Z</time>
      </trkpt>
      <trkpt lat="49.46452" lon="2.03796">
        <ele>144.4</ele>
        <time>2013-04-20T08:20:06.052Z</time>
      </trkpt>
      <trkpt lat="49.46449" lon="2.03794">
        <ele>143.5</ele>
        <time>2013-04-20T08:20:08.783Z</time>
      </trkpt>
      <trkpt lat="49.46446" lon="2.03796">
        <ele>143.7</ele>
        <time>2013-04-20T08:20:11.185Z</time>
      </trkpt>
      <trkpt lat="49.46442" lon="2.03798">
        <ele>144.4</ele>
        <time>2013-04-20T08:20:13.737Z</time>
      </trkpt>
      <trkpt lat="49.4644" lon="2.03798">
        <ele>145.4</ele>
        <time>2013-04-20T08:20:14.744Z</time>
      </trkpt>
      <trkpt lat="49.46437" lon="2.038">
        <ele>144.6</ele>
        <time>2013-04-20T08:20:17.428Z</time>
      </trkpt>
      <trkpt lat="49.46435" lon="2.03801">
        <ele>144.8</ele>
        <time>2013-04-20T08:20:18.423Z</time>
      </trkpt>
      <trkpt lat="49.46431" lon="2.03803">
        <ele>144.9</ele>
        <time>2013-04-20T08:20:21.221Z</time>
      </trkpt>
      <trkpt lat="49.4643" lon="2.03803">
        <ele>144.8</ele>
        <time>2013-04-20T08:20:22.267Z</time>
      </trkpt>
      <trkpt lat="49.46426" lon="2.03802">
        <ele>145.1</ele>
        <time>2013-04-20T08:20:25.711Z</time>
      </trkpt>
      <trkpt lat="49.46425" lon="2.03801">
        <ele>143.6</ele>
        <time>2013-04-20T08:20:26.915Z</time>
      </trkpt>
      <trkpt lat="49.46421" lon="2.03802">
        <ele>143.9</ele>
        <time>2013-04-20T08:20:30.711Z</time>
      </trkpt>
      <trkpt lat="49.4642" lon="2.03802">
        <ele>143.2</ele>
        <time>2013-04-20T08:20:31.722Z</time>
      </trkpt>
      <trkpt lat="49.46416" lon="2.03803">
        <ele>142.6</ele>
        <time>2013-04-20T08:20:34.724Z</time>
      </trkpt>
      <trkpt lat="49.46414" lon="2.03804">
        <ele>143.2</ele>
        <time>2013-04-20T08:20:35.716Z</time>
      </trkpt>
      <trkpt lat="49.46411" lon="2.03806">
        <ele>143.2</ele>
        <time>2013-04-20T08:20:37.711Z</time>
      </trkpt>
      <trkpt lat="49.4641" lon="2.03807">
        <ele>142.8</ele>
        <time>2013-04-20T08:20:38.722Z</time>
      </trkpt>
      <trkpt lat="49.46406" lon="2.03809">
        <ele>141.3</ele>
        <time>2013-04-20T08:20:43.181Z</time>
      </trkpt>
      <trkpt lat="49.46405" lon="2.0381">
        <ele>141.4</ele>
        <time>2013-04-20T08:20:43.699Z</time>
      </trkpt>
      <trkpt lat="49.46401" lon="2.03811">
        <ele>137.1</ele>
        <time>2013-04-20T08:20:50.218Z</time>
      </trkpt>
      <trkpt lat="49.464" lon="2.03812">
        <ele>137.1</ele>
        <time>2013-04-20T08:20:50.859Z</time>
      </trkpt>
      <trkpt lat="49.46396" lon="2.03815">
        <ele>137.2</ele>
        <time>2013-04-20T08:20:55.429Z</time>
      </trkpt>
      <trkpt lat="49.46395" lon="2.03816">
        <ele>137.3</ele>
        <time>2013-04-20T08:20:55.979Z</time>
      </trkpt>
      <trkpt lat="49.46392" lon="2.03819">
        <ele>136.4</ele>
        <time>2013-04-20T08:20:59.429Z</time>
      </trkpt>
      <trkpt lat="49.4639" lon="2.0382">
        <ele>136.5</ele>
        <time>2013-04-20T08:20:59.719Z</time>
      </trkpt>
      <trkpt lat="49.46387" lon="2.03822">
        <ele>135.7</ele>
        <time>2013-04-20T08:21:02.723Z</time>
      </trkpt>
      <trkpt lat="49.46386" lon="2.03823">
        <ele>135.5</ele>
        <time>2013-04-20T08:21:03.894Z</time>
      </trkpt>
      <trkpt lat="49.46382" lon="2.03825">
        <ele>135.6</ele>
        <time>2013-04-20T08:21:07.422Z</time>
      </trkpt>
      <trkpt lat="49.46381" lon="2.03826">
        <ele>135.9</ele>
        <time>2013-04-20T08:21:07.733Z</time>
      </trkpt>
      <trkpt lat="49.46377" lon="2.03826">
        <ele>136.7</ele>
        <time>2013-04-20T08:21:11.331Z</time>
      </trkpt>
      <trkpt lat="49.46375" lon="2.03826">
        <ele>137</ele>
        <time>2013-04-20T08:21:12.397Z</time>
      </trkpt>
      <trkpt lat="49.46371" lon="2.03823">
        <ele>139</ele>
        <time>2013-04-20T08:21:15.176Z</time>
      </trkpt>
      <trkpt lat="49.46371" lon="2.03822">
        <ele>139.2</ele>
        <time>2013-04-20T08:21:15.732Z</time>
      </trkpt>
      <trkpt lat="49.46368" lon="2.03818">
        <ele>139.5</ele>
        <time>2013-04-20T08:21:18.998Z</time>
      </trkpt>
      <trkpt lat="49.46367" lon="2.03816">
        <ele>139.5</ele>
        <time>2013-04-20T08:21:19.732Z</time>
      </trkpt>
      <trkpt lat="49.46365" lon="2.03812">
        <ele>141.7</ele>
        <time>2013-04-20T08:21:20.718Z</time>
      </trkpt>
      <trkpt lat="49.46364" lon="2.03811">
        <ele>142.4</ele>
        <time>2013-04-20T08:21:21.924Z</time>
      </trkpt>
      <trkpt lat="49.46363" lon="2.03807">
        <ele>141.7</ele>
        <time>2013-04-20T08:21:24.139Z</time>
      </trkpt>
      <trkpt lat="49.46362" lon="2.03805">
        <ele>141.2</ele>
        <time>2013-04-20T08:21:25.419Z</time>
      </trkpt>
      <trkpt lat="49.4636" lon="2.03798">
        <ele>141.6</ele>
        <time>2013-04-20T08:21:29.248Z</time>
      </trkpt>
      <trkpt lat="49.46359" lon="2.03796">
        <ele>141.9</ele>
        <time>2013-04-20T08:21:30.419Z</time>
      </trkpt>
      <trkpt lat="49.46356" lon="2.03792">
        <ele>142.4</ele>
        <time>2013-04-20T08:21:32.731Z</time>
      </trkpt>
      <trkpt lat="49.46356" lon="2.03791">
        <ele>143</ele>
        <time>2013-04-20T08:21:33.737Z</time>
      </trkpt>
      <trkpt lat="49.46353" lon="2.03788">
        <ele>143.2</ele>
        <time>2013-04-20T08:21:35.699Z</time>
      </trkpt>
      <trkpt lat="49.46352" lon="2.03786">
        <ele>143.5</ele>
        <time>2013-04-20T08:21:38.194Z</time>
      </trkpt>
      <trkpt lat="49.46349" lon="2.03781">
        <ele>143.4</ele>
        <time>2013-04-20T08:21:50.743Z</time>
      </trkpt>
      <trkpt lat="49.46349" lon="2.0378">
        <ele>143.4</ele>
        <time>2013-04-20T08:21:51.747Z</time>
      </trkpt>
      <trkpt lat="49.46346" lon="2.03776">
        <ele>144.5</ele>
        <time>2013-04-20T08:21:54.897Z</time>
      </trkpt>
      <trkpt lat="49.46345" lon="2.03774">
        <ele>144.2</ele>
        <time>2013-04-20T08:21:56.140Z</time>
      </trkpt>
      <trkpt lat="49.46343" lon="2.0377">
        <ele>143.3</ele>
        <time>2013-04-20T08:21:58.428Z</time>
      </trkpt>
      <trkpt lat="49.46342" lon="2.03769">
        <ele>143.3</ele>
        <time>2013-04-20T08:21:59.421Z</time>
      </trkpt>
      <trkpt lat="49.46338" lon="2.03765">
        <ele>143.8</ele>
        <time>2013-04-20T08:22:01.728Z</time>
      </trkpt>
      <trkpt lat="49.46337" lon="2.03763">
        <ele>144</ele>
        <time>2013-04-20T08:22:02.928Z</time>
      </trkpt>
      <trkpt lat="49.46334" lon="2.03759">
        <ele>142</ele>
        <time>2013-04-20T08:22:06.747Z</time>
      </trkpt>
      <trkpt lat="49.46333" lon="2.03758">
        <ele>141.6</ele>
        <time>2013-04-20T08:22:08.418Z</time>
      </trkpt>
      <trkpt lat="49.4633" lon="2.03753">
        <ele>141.6</ele>
        <time>2013-04-20T08:22:11.447Z</time>
      </trkpt>
      <trkpt lat="49.46329" lon="2.03751">
        <ele>141.9</ele>
        <time>2013-04-20T08:22:12.426Z</time>
      </trkpt>
      <trkpt lat="49.46326" lon="2.03746">
        <ele>141.4</ele>
        <time>2013-04-20T08:22:15.330Z</time>
      </trkpt>
      <trkpt lat="49.46326" lon="2.03744">
        <ele>141.2</ele>
        <time>2013-04-20T08:22:15.732Z</time>
      </trkpt>
      <trkpt lat="49.46325" lon="2.03743">
        <ele>140.9</ele>
        <time>2013-04-20T08:22:16.728Z</time>
      </trkpt>
      <trkpt lat="49.46322" lon="2.03737">
        <ele>142.4</ele>
        <time>2013-04-20T08:22:19.186Z</time>
      </trkpt>
      <trkpt lat="49.4632" lon="2.03734">
        <ele>142.5</ele>
        <time>2013-04-20T08:22:21.228Z</time>
      </trkpt>
      <trkpt lat="49.46319" lon="2.03732">
        <ele>142.6</ele>
        <time>2013-04-20T08:22:21.753Z</time>
      </trkpt>
      <trkpt lat="49.46317" lon="2.03726">
        <ele>142.1</ele>
        <time>2013-04-20T08:22:23.734Z</time>
      </trkpt>
      <trkpt lat="49.46316" lon="2.03725">
        <ele>142.5</ele>
        <time>2013-04-20T08:22:25.229Z</time>
      </trkpt>
      <trkpt lat="49.46314" lon="2.0372">
        <ele>141.1</ele>
        <time>2013-04-20T08:22:28.125Z</time>
      </trkpt>
      <trkpt lat="49.46313" lon="2.03719">
        <ele>141.2</ele>
        <time>2013-04-20T08:22:29.405Z</time>
      </trkpt>
      <trkpt lat="49.46311" lon="2.03713">
        <ele>140.5</ele>
        <time>2013-04-20T08:22:31.728Z</time>
      </trkpt>
      <trkpt lat="49.46311" lon="2.03712">
        <ele>139.2</ele>
        <time>2013-04-20T08:22:33.219Z</time>
      </trkpt>
      <trkpt lat="49.4631" lon="2.03708">
        <ele>139.2</ele>
        <time>2013-04-20T08:22:34.742Z</time>
      </trkpt>
      <trkpt lat="49.46309" lon="2.03704">
        <ele>138.3</ele>
        <time>2013-04-20T08:22:37.116Z</time>
      </trkpt>
      <trkpt lat="49.46306" lon="2.03699">
        <ele>140.1</ele>
        <time>2013-04-20T08:22:39.746Z</time>
      </trkpt>
      <trkpt lat="49.46306" lon="2.03697">
        <ele>140.6</ele>
        <time>2013-04-20T08:22:40.926Z</time>
      </trkpt>
      <trkpt lat="49.46304" lon="2.03691">
        <ele>140.2</ele>
        <time>2013-04-20T08:22:43.727Z</time>
      </trkpt>
      <trkpt lat="49.46303" lon="2.03689">
        <ele>139.9</ele>
        <time>2013-04-20T08:22:44.767Z</time>
      </trkpt>
      <trkpt lat="49.46302" lon="2.03683">
        <ele>138</ele>
        <time>2013-04-20T08:22:48.420Z</time>
      </trkpt>
      <trkpt lat="49.46302" lon="2.03681">
        <ele>137.8</ele>
        <time>2013-04-20T08:22:48.719Z</time>
      </trkpt>
      <trkpt lat="49.46301" lon="2.03675">
        <ele>135.9</ele>
        <time>2013-04-20T08:22:52.287Z</time>
      </trkpt>
      <trkpt lat="49.46301" lon="2.03673">
        <ele>135.5</ele>
        <time>2013-04-20T08:22:53.209Z</time>
      </trkpt>
      <trkpt lat="49.46299" lon="2.03668">
        <ele>135.6</ele>
        <time>2013-04-20T08:22:54.724Z</time>
      </trkpt>
      <trkpt lat="49.46298" lon="2.03662">
        <ele>134.6</ele>
        <time>2013-04-20T08:22:57.270Z</time>
      </trkpt>
      <trkpt lat="49.46297" lon="2.03656">
        <ele>135.3</ele>
        <time>2013-04-20T08:23:00.106Z</time>
      </trkpt>
      <trkpt lat="49.46296" lon="2.03654">
        <ele>133.9</ele>
        <time>2013-04-20T08:23:01.431Z</time>
      </trkpt>
      <trkpt lat="49.46296" lon="2.03648">
        <ele>132.6</ele>
        <time>2013-04-20T08:23:04.011Z</time>
      </trkpt>
      <trkpt lat="49.46296" lon="2.03646">
        <ele>131</ele>
        <time>2013-04-20T08:23:05.259Z</time>
      </trkpt>
      <trkpt lat="49.46297" lon="2.0364">
        <ele>129</ele>
        <time>2013-04-20T08:23:07.815Z</time>
      </trkpt>
      <trkpt lat="49.46297" lon="2.03638">
        <ele>129.1</ele>
        <time>2013-04-20T08:23:08.737Z</time>
      </trkpt>
      <trkpt lat="49.46297" lon="2.03632">
        <ele>129.3</ele>
        <time>2013-04-20T08:23:11.732Z</time>
      </trkpt>
      <trkpt lat="49.46298" lon="2.03629">
        <ele>128.6</ele>
        <time>2013-04-20T08:23:12.936Z</time>
      </trkpt>
      <trkpt lat="49.46299" lon="2.03623">
        <ele>127.7</ele>
        <time>2013-04-20T08:23:15.726Z</time>
      </trkpt>
      <trkpt lat="49.46299" lon="2.03621">
        <ele>127.4</ele>
        <time>2013-04-20T08:23:16.763Z</time>
      </trkpt>
      <trkpt lat="49.46299" lon="2.03614">
        <ele>126.4</ele>
        <time>2013-04-20T08:23:19.824Z</time>
      </trkpt>
      <trkpt lat="49.46299" lon="2.03612">
        <ele>126.4</ele>
        <time>2013-04-20T08:23:21.422Z</time>
      </trkpt>
      <trkpt lat="49.46298" lon="2.03606">
        <ele>126.3</ele>
        <time>2013-04-20T08:23:24.424Z</time>
      </trkpt>
      <trkpt lat="49.46299" lon="2.03603">
        <ele>126.2</ele>
        <time>2013-04-20T08:23:24.728Z</time>
      </trkpt>
      <trkpt lat="49.46298" lon="2.03599">
        <ele>126.9</ele>
        <time>2013-04-20T08:23:26.743Z</time>
      </trkpt>
      <trkpt lat="49.46298" lon="2.03596">
        <ele>127.9</ele>
        <time>2013-04-20T08:23:27.727Z</time>
      </trkpt>
      <trkpt lat="49.46297" lon="2.03589">
        <ele>127.5</ele>
        <time>2013-04-20T08:23:30.867Z</time>
      </trkpt>
      <trkpt lat="49.46297" lon="2.03587">
        <ele>127.8</ele>
        <time>2013-04-20T08:23:32.137Z</time>
      </trkpt>
      <trkpt lat="49.46297" lon="2.03581">
        <ele>127.4</ele>
        <time>2013-04-20T08:23:35.421Z</time>
      </trkpt>
      <trkpt lat="49.46297" lon="2.03578">
        <ele>128.1</ele>
        <time>2013-04-20T08:23:35.804Z</time>
      </trkpt>
      <trkpt lat="49.46298" lon="2.03573">
        <ele>126.4</ele>
        <time>2013-04-20T08:23:38.910Z</time>
      </trkpt>
      <trkpt lat="49.46298" lon="2.03569">
        <ele>126.2</ele>
        <time>2013-04-20T08:23:40.711Z</time>
      </trkpt>
      <trkpt lat="49.46298" lon="2.03565">
        <ele>123.8</ele>
        <time>2013-04-20T08:23:42.729Z</time>
      </trkpt>
      <trkpt lat="49.46298" lon="2.03561">
        <ele>124.2</ele>
        <time>2013-04-20T08:23:44.209Z</time>
      </trkpt>
      <trkpt lat="49.46297" lon="2.03559">
        <ele>124.5</ele>
        <time>2013-04-20T08:23:44.717Z</time>
      </trkpt>
      <trkpt lat="49.46298" lon="2.03554">
        <ele>122.9</ele>
        <time>2013-04-20T08:23:47.424Z</time>
      </trkpt>
      <trkpt lat="49.46298" lon="2.03551">
        <ele>121.9</ele>
        <time>2013-04-20T08:23:47.694Z</time>
      </trkpt>
      <trkpt lat="49.46298" lon="2.03546">
        <ele>122.6</ele>
        <time>2013-04-20T08:23:50.075Z</time>
      </trkpt>
      <trkpt lat="49.46298" lon="2.0354">
        <ele>122.9</ele>
        <time>2013-04-20T08:23:52.920Z</time>
      </trkpt>
      <trkpt lat="49.46298" lon="2.03536">
        <ele>123.6</ele>
        <time>2013-04-20T08:23:54.736Z</time>
      </trkpt>
      <trkpt lat="49.46299" lon="2.03533">
        <ele>123.6</ele>
        <time>2013-04-20T08:23:56.730Z</time>
      </trkpt>
      <trkpt lat="49.46298" lon="2.03528">
        <ele>124.4</ele>
        <time>2013-04-20T08:23:59.019Z</time>
      </trkpt>
      <trkpt lat="49.463" lon="2.03522">
        <ele>123</ele>
        <time>2013-04-20T08:24:02.719Z</time>
      </trkpt>
      <trkpt lat="49.463" lon="2.03517">
        <ele>118.8</ele>
        <time>2013-04-20T08:24:04.723Z</time>
      </trkpt>
      <trkpt lat="49.46301" lon="2.03511">
        <ele>120.9</ele>
        <time>2013-04-20T08:24:07.970Z</time>
      </trkpt>
      <trkpt lat="49.46302" lon="2.0351">
        <ele>121.5</ele>
        <time>2013-04-20T08:24:08.728Z</time>
      </trkpt>
      <trkpt lat="49.46303" lon="2.03504">
        <ele>120.9</ele>
        <time>2013-04-20T08:24:11.801Z</time>
      </trkpt>
      <trkpt lat="49.46303" lon="2.03502">
        <ele>119.4</ele>
        <time>2013-04-20T08:24:13.103Z</time>
      </trkpt>
      <trkpt lat="49.46303" lon="2.03495">
        <ele>119.5</ele>
        <time>2013-04-20T08:24:15.732Z</time>
      </trkpt>
      <trkpt lat="49.46303" lon="2.03493">
        <ele>119.9</ele>
        <time>2013-04-20T08:24:16.725Z</time>
      </trkpt>
      <trkpt lat="49.46304" lon="2.03488">
        <ele>121.4</ele>
        <time>2013-04-20T08:24:19.697Z</time>
      </trkpt>
      <trkpt lat="49.46304" lon="2.03486">
        <ele>120.6</ele>
        <time>2013-04-20T08:24:20.727Z</time>
      </trkpt>
      <trkpt lat="49.46306" lon="2.0348">
        <ele>120.4</ele>
        <time>2013-04-20T08:24:24.220Z</time>
      </trkpt>
      <trkpt lat="49.46306" lon="2.03479">
        <ele>120.9</ele>
        <time>2013-04-20T08:24:24.714Z</time>
      </trkpt>
      <trkpt lat="49.46306" lon="2.03473">
        <ele>121.3</ele>
        <time>2013-04-20T08:24:26.936Z</time>
      </trkpt>
      <trkpt lat="49.46307" lon="2.03471">
        <ele>120.7</ele>
        <time>2013-04-20T08:24:27.912Z</time>
      </trkpt>
      <trkpt lat="49.46308" lon="2.03466">
        <ele>119.2</ele>
        <time>2013-04-20T08:24:30.712Z</time>
      </trkpt>
      <trkpt lat="49.46308" lon="2.03463">
        <ele>120.6</ele>
        <time>2013-04-20T08:24:32.295Z</time>
      </trkpt>
      <trkpt lat="49.46308" lon="2.03459">
        <ele>120.8</ele>
        <time>2013-04-20T08:24:33.928Z</time>
      </trkpt>
      <trkpt lat="49.46308" lon="2.03455">
        <ele>121.5</ele>
        <time>2013-04-20T08:24:36.134Z</time>
      </trkpt>
      <trkpt lat="49.46307" lon="2.03449">
        <ele>121.5</ele>
        <time>2013-04-20T08:25:18.366Z</time>
      </trkpt>
      <trkpt lat="49.46306" lon="2.03449">
        <ele>121.1</ele>
        <time>2013-04-20T08:25:19.420Z</time>
      </trkpt>
      <trkpt lat="49.46302" lon="2.03447">
        <ele>122.2</ele>
        <time>2013-04-20T08:25:22.213Z</time>
      </trkpt>
      <trkpt lat="49.46301" lon="2.03447">
        <ele>123.5</ele>
        <time>2013-04-20T08:25:23.421Z</time>
      </trkpt>
      <trkpt lat="49.46297" lon="2.03448">
        <ele>125.2</ele>
        <time>2013-04-20T08:25:25.746Z</time>
      </trkpt>
      <trkpt lat="49.46296" lon="2.03448">
        <ele>126</ele>
        <time>2013-04-20T08:25:26.714Z</time>
      </trkpt>
      <trkpt lat="49.46292" lon="2.03448">
        <ele>126.6</ele>
        <time>2013-04-20T08:25:31.176Z</time>
      </trkpt>
      <trkpt lat="49.4629" lon="2.03448">
        <ele>126.8</ele>
        <time>2013-04-20T08:25:32.430Z</time>
      </trkpt>
      <trkpt lat="49.46286" lon="2.03446">
        <ele>128.3</ele>
        <time>2013-04-20T08:25:34.742Z</time>
      </trkpt>
      <trkpt lat="49.46285" lon="2.03445">
        <ele>128.3</ele>
        <time>2013-04-20T08:25:35.742Z</time>
      </trkpt>
      <trkpt lat="49.46282" lon="2.03442">
        <ele>126.2</ele>
        <time>2013-04-20T08:25:39.740Z</time>
      </trkpt>
      <trkpt lat="49.46281" lon="2.03441">
        <ele>126.2</ele>
        <time>2013-04-20T08:25:40.734Z</time>
      </trkpt>
      <trkpt lat="49.46278" lon="2.03439">
        <ele>126.2</ele>
        <time>2013-04-20T08:25:43.986Z</time>
      </trkpt>
      <trkpt lat="49.46277" lon="2.03437">
        <ele>125.8</ele>
        <time>2013-04-20T08:25:44.849Z</time>
      </trkpt>
      <trkpt lat="49.46274" lon="2.03437">
        <ele>127.9</ele>
        <time>2013-04-20T08:25:46.918Z</time>
      </trkpt>
      <trkpt lat="49.46271" lon="2.03437">
        <ele>128.8</ele>
        <time>2013-04-20T08:25:48.702Z</time>
      </trkpt>
      <trkpt lat="49.46267" lon="2.03434">
        <ele>127.5</ele>
        <time>2013-04-20T08:25:52.430Z</time>
      </trkpt>
      <trkpt lat="49.46266" lon="2.03433">
        <ele>128.5</ele>
        <time>2013-04-20T08:25:52.951Z</time>
      </trkpt>
      <trkpt lat="49.46262" lon="2.03433">
        <ele>129.7</ele>
        <time>2013-04-20T08:25:55.402Z</time>
      </trkpt>
      <trkpt lat="49.46261" lon="2.03433">
        <ele>129.5</ele>
        <time>2013-04-20T08:25:55.718Z</time>
      </trkpt>
      <trkpt lat="49.46257" lon="2.03432">
        <ele>129.1</ele>
        <time>2013-04-20T08:25:58.735Z</time>
      </trkpt>
      <trkpt lat="49.46255" lon="2.03431">
        <ele>129.9</ele>
        <time>2013-04-20T08:25:59.716Z</time>
      </trkpt>
      <trkpt lat="49.46252" lon="2.0343">
        <ele>130.8</ele>
        <time>2013-04-20T08:26:02.727Z</time>
      </trkpt>
      <trkpt lat="49.4625" lon="2.03429">
        <ele>130.8</ele>
        <time>2013-04-20T08:26:03.716Z</time>
      </trkpt>
      <trkpt lat="49.46247" lon="2.03427">
        <ele>129.8</ele>
        <time>2013-04-20T08:26:06.726Z</time>
      </trkpt>
      <trkpt lat="49.46245" lon="2.03427">
        <ele>129.8</ele>
        <time>2013-04-20T08:26:07.715Z</time>
      </trkpt>
      <trkpt lat="49.46242" lon="2.03424">
        <ele>128.8</ele>
        <time>2013-04-20T08:26:10.859Z</time>
      </trkpt>
      <trkpt lat="49.4624" lon="2.03423">
        <ele>128.4</ele>
        <time>2013-04-20T08:26:12.139Z</time>
      </trkpt>
      <trkpt lat="49.46236" lon="2.03421">
        <ele>128.2</ele>
        <time>2013-04-20T08:26:14.716Z</time>
      </trkpt>
      <trkpt lat="49.46235" lon="2.0342">
        <ele>127.9</ele>
        <time>2013-04-20T08:26:15.971Z</time>
      </trkpt>
      <trkpt lat="49.46231" lon="2.03417">
        <ele>128.3</ele>
        <time>2013-04-20T08:26:19.423Z</time>
      </trkpt>
      <trkpt lat="49.4623" lon="2.03417">
        <ele>128</ele>
        <time>2013-04-20T08:26:19.818Z</time>
      </trkpt>
      <trkpt lat="49.46227" lon="2.03414">
        <ele>129</ele>
        <time>2013-04-20T08:26:23.230Z</time>
      </trkpt>
      <trkpt lat="49.46227" lon="2.03412">
        <ele>129.4</ele>
        <time>2013-04-20T08:26:24.252Z</time>
      </trkpt>
      <trkpt lat="49.46225" lon="2.03408">
        <ele>129.7</ele>
        <time>2013-04-20T08:26:27.927Z</time>
      </trkpt>
      <trkpt lat="49.46224" lon="2.03406">
        <ele>129.9</ele>
        <time>2013-04-20T08:26:29.715Z</time>
      </trkpt>
      <trkpt lat="49.46224" lon="2.03399">
        <ele>131.6</ele>
        <time>2013-04-20T08:26:35.739Z</time>
      </trkpt>
      <trkpt lat="49.46225" lon="2.03399">
        <ele>131.2</ele>
        <time>2013-04-20T08:26:37.289Z</time>
      </trkpt>
      <trkpt lat="49.46226" lon="2.03394">
        <ele>131.6</ele>
        <time>2013-04-20T08:27:15.708Z</time>
      </trkpt>
      <trkpt lat="49.46227" lon="2.03392">
        <ele>131.7</ele>
        <time>2013-04-20T08:27:18.433Z</time>
      </trkpt>
      <trkpt lat="49.46229" lon="2.03387">
        <ele>131.9</ele>
        <time>2013-04-20T08:27:20.731Z</time>
      </trkpt>
      <trkpt lat="49.46235" lon="2.03382">
        <ele>129.6</ele>
        <time>2013-04-20T08:27:23.271Z</time>
      </trkpt>
      <trkpt lat="49.46236" lon="2.03378">
        <ele>127.2</ele>
        <time>2013-04-20T08:27:24.728Z</time>
      </trkpt>
      <trkpt lat="49.46237" lon="2.03376">
        <ele>126.6</ele>
        <time>2013-04-20T08:27:25.725Z</time>
      </trkpt>
      <trkpt lat="49.46239" lon="2.0337">
        <ele>125.2</ele>
        <time>2013-04-20T08:27:31.436Z</time>
      </trkpt>
      <trkpt lat="49.46239" lon="2.03369">
        <ele>126.1</ele>
        <time>2013-04-20T08:27:32.425Z</time>
      </trkpt>
      <trkpt lat="49.46237" lon="2.03363">
        <ele>123.3</ele>
        <time>2013-04-20T08:27:35.732Z</time>
      </trkpt>
      <trkpt lat="49.46237" lon="2.03362">
        <ele>121.3</ele>
        <time>2013-04-20T08:27:37.294Z</time>
      </trkpt>
      <trkpt lat="49.46237" lon="2.03356">
        <ele>118.1</ele>
        <time>2013-04-20T08:27:41.223Z</time>
      </trkpt>
      <trkpt lat="49.46237" lon="2.03355">
        <ele>117.5</ele>
        <time>2013-04-20T08:27:41.750Z</time>
      </trkpt>
      <trkpt lat="49.46238" lon="2.03349">
        <ele>118.4</ele>
        <time>2013-04-20T08:27:45.224Z</time>
      </trkpt>
      <trkpt lat="49.46238" lon="2.03347">
        <ele>118</ele>
        <time>2013-04-20T08:27:46.213Z</time>
      </trkpt>
      <trkpt lat="49.46236" lon="2.03341">
        <ele>120.2</ele>
        <time>2013-04-20T08:27:49.218Z</time>
      </trkpt>
      <trkpt lat="49.46235" lon="2.0334">
        <ele>120.8</ele>
        <time>2013-04-20T08:27:50.191Z</time>
      </trkpt>
      <trkpt lat="49.46233" lon="2.03335">
        <ele>123.1</ele>
        <time>2013-04-20T08:27:54.726Z</time>
      </trkpt>
      <trkpt lat="49.46232" lon="2.03332">
        <ele>123.5</ele>
        <time>2013-04-20T08:27:55.750Z</time>
      </trkpt>
      <trkpt lat="49.46233" lon="2.03327">
        <ele>124.7</ele>
        <time>2013-04-20T08:28:30.740Z</time>
      </trkpt>
      <trkpt lat="49.46233" lon="2.03326">
        <ele>124.4</ele>
        <time>2013-04-20T08:28:32.431Z</time>
      </trkpt>
      <trkpt lat="49.46234" lon="2.03321">
        <ele>123.5</ele>
        <time>2013-04-20T08:28:36.741Z</time>
      </trkpt>
      <trkpt lat="49.46234" lon="2.03319">
        <ele>121.9</ele>
        <time>2013-04-20T08:28:39.228Z</time>
      </trkpt>
      <trkpt lat="49.46235" lon="2.03314">
        <ele>121.8</ele>
        <time>2013-04-20T08:28:41.719Z</time>
      </trkpt>
      <trkpt lat="49.46233" lon="2.03309">
        <ele>121.7</ele>
        <time>2013-04-20T08:28:43.706Z</time>
      </trkpt>
      <trkpt lat="49.46232" lon="2.03305">
        <ele>122</ele>
        <time>2013-04-20T08:28:45.230Z</time>
      </trkpt>
      <trkpt lat="49.46232" lon="2.03302">
        <ele>121</ele>
        <time>2013-04-20T08:28:45.752Z</time>
      </trkpt>
      <trkpt lat="49.46231" lon="2.03297">
        <ele>121.4</ele>
        <time>2013-04-20T08:28:47.717Z</time>
      </trkpt>
      <trkpt lat="49.4623" lon="2.03293">
        <ele>121.1</ele>
        <time>2013-04-20T08:28:48.924Z</time>
      </trkpt>
      <trkpt lat="49.46228" lon="2.03288">
        <ele>120.7</ele>
        <time>2013-04-20T08:28:50.733Z</time>
      </trkpt>
      <trkpt lat="49.46227" lon="2.03282">
        <ele>122.6</ele>
        <time>2013-04-20T08:28:53.217Z</time>
      </trkpt>
      <trkpt lat="49.46225" lon="2.03277">
        <ele>125.3</ele>
        <time>2013-04-20T08:28:55.232Z</time>
      </trkpt>
      <trkpt lat="49.46225" lon="2.03275">
        <ele>124.5</ele>
        <time>2013-04-20T08:28:56.020Z</time>
      </trkpt>
      <trkpt lat="49.46224" lon="2.03269">
        <ele>124.1</ele>
        <time>2013-04-20T08:28:59.718Z</time>
      </trkpt>
      <trkpt lat="49.46223" lon="2.03266">
        <ele>124.3</ele>
        <time>2013-04-20T08:29:02.452Z</time>
      </trkpt>
      <trkpt lat="49.46223" lon="2.03262">
        <ele>123.3</ele>
        <time>2013-04-20T08:29:03.714Z</time>
      </trkpt>
      <trkpt lat="49.46224" lon="2.03258">
        <ele>121.9</ele>
        <time>2013-04-20T08:29:05.739Z</time>
      </trkpt>
      <trkpt lat="49.46224" lon="2.03252">
        <ele>119.9</ele>
        <time>2013-04-20T08:29:08.742Z</time>
      </trkpt>
      <trkpt lat="49.46225" lon="2.0325">
        <ele>119.9</ele>
        <time>2013-04-20T08:29:09.727Z</time>
      </trkpt>
      <trkpt lat="49.46222" lon="2.03244">
        <ele>118.5</ele>
        <time>2013-04-20T08:29:14.927Z</time>
      </trkpt>
      <trkpt lat="49.46222" lon="2.03244">
        <ele>118.8</ele>
        <time>2013-04-20T08:29:16.264Z</time>
      </trkpt>
      <trkpt lat="49.46222" lon="2.03238">
        <ele>121.5</ele>
        <time>2013-04-20T08:29:22.717Z</time>
      </trkpt>
      <trkpt lat="49.46222" lon="2.03234">
        <ele>118.6</ele>
        <time>2013-04-20T08:29:24.926Z</time>
      </trkpt>
      <trkpt lat="49.4622" lon="2.03228">
        <ele>120.6</ele>
        <time>2013-04-20T08:29:27.227Z</time>
      </trkpt>
      <trkpt lat="49.46219" lon="2.03226">
        <ele>121.5</ele>
        <time>2013-04-20T08:29:27.966Z</time>
      </trkpt>
      <trkpt lat="49.46219" lon="2.03225">
        <ele>121.8</ele>
        <time>2013-04-20T08:29:28.802Z</time>
      </trkpt>
      <trkpt lat="49.46218" lon="2.03219">
        <ele>116.3</ele>
        <time>2013-04-20T08:29:30.920Z</time>
      </trkpt>
      <trkpt lat="49.46219" lon="2.03213">
        <ele>114.7</ele>
        <time>2013-04-20T08:29:33.929Z</time>
      </trkpt>
      <trkpt lat="49.4622" lon="2.03211">
        <ele>113.6</ele>
        <time>2013-04-20T08:29:35.209Z</time>
      </trkpt>
      <trkpt lat="49.4622" lon="2.03204">
        <ele>114.5</ele>
        <time>2013-04-20T08:29:36.936Z</time>
      </trkpt>
      <trkpt lat="49.46219" lon="2.03202">
        <ele>114.9</ele>
        <time>2013-04-20T08:29:37.716Z</time>
      </trkpt>
      <trkpt lat="49.46219" lon="2.03196">
        <ele>115</ele>
        <time>2013-04-20T08:29:39.732Z</time>
      </trkpt>
      <trkpt lat="49.46218" lon="2.0319">
        <ele>115.7</ele>
        <time>2013-04-20T08:29:41.995Z</time>
      </trkpt>
      <trkpt lat="49.46217" lon="2.03184">
        <ele>114</ele>
        <time>2013-04-20T08:29:44.945Z</time>
      </trkpt>
      <trkpt lat="49.46216" lon="2.03182">
        <ele>115.2</ele>
        <time>2013-04-20T08:29:45.892Z</time>
      </trkpt>
      <trkpt lat="49.46215" lon="2.03176">
        <ele>116.2</ele>
        <time>2013-04-20T08:29:49.739Z</time>
      </trkpt>
      <trkpt lat="49.46214" lon="2.03171">
        <ele>117.9</ele>
        <time>2013-04-20T08:29:52.225Z</time>
      </trkpt>
      <trkpt lat="49.46213" lon="2.03168">
        <ele>119.3</ele>
        <time>2013-04-20T08:29:53.919Z</time>
      </trkpt>
      <trkpt lat="49.46211" lon="2.03163">
        <ele>120.9</ele>
        <time>2013-04-20T08:29:56.132Z</time>
      </trkpt>
      <trkpt lat="49.4621" lon="2.03157">
        <ele>121.8</ele>
        <time>2013-04-20T08:29:58.926Z</time>
      </trkpt>
      <trkpt lat="49.4621" lon="2.03155">
        <ele>122.2</ele>
        <time>2013-04-20T08:29:59.923Z</time>
      </trkpt>
      <trkpt lat="49.4621" lon="2.03149">
        <ele>122.8</ele>
        <time>2013-04-20T08:30:02.730Z</time>
      </trkpt>
      <trkpt lat="49.46208" lon="2.03144">
        <ele>121.1</ele>
        <time>2013-04-20T08:30:05.110Z</time>
      </trkpt>
      <trkpt lat="49.46207" lon="2.0314">
        <ele>124.9</ele>
        <time>2013-04-20T08:30:06.972Z</time>
      </trkpt>
      <trkpt lat="49.46206" lon="2.03137">
        <ele>127</ele>
        <time>2013-04-20T08:30:08.220Z</time>
      </trkpt>
      <trkpt lat="49.46206" lon="2.03137">
        <ele>128</ele>
        <time>2013-04-20T08:30:08.696Z</time>
      </trkpt>
      <trkpt lat="49.46203" lon="2.03131">
        <ele>126.9</ele>
        <time>2013-04-20T08:30:11.206Z</time>
      </trkpt>
      <trkpt lat="49.46203" lon="2.0313">
        <ele>126</ele>
        <time>2013-04-20T08:30:11.719Z</time>
      </trkpt>
      <trkpt lat="49.46201" lon="2.03125">
        <ele>127</ele>
        <time>2013-04-20T08:30:14.070Z</time>
      </trkpt>
      <trkpt lat="49.46198" lon="2.03119">
        <ele>129.6</ele>
        <time>2013-04-20T08:30:15.719Z</time>
      </trkpt>
      <trkpt lat="49.46198" lon="2.03117">
        <ele>129.4</ele>
        <time>2013-04-20T08:30:16.912Z</time>
      </trkpt>
      <trkpt lat="49.46196" lon="2.03112">
        <ele>133</ele>
        <time>2013-04-20T08:30:19.172Z</time>
      </trkpt>
      <trkpt lat="49.46196" lon="2.0311">
        <ele>134.1</ele>
        <time>2013-04-20T08:30:19.715Z</time>
      </trkpt>
      <trkpt lat="49.46194" lon="2.03104">
        <ele>137.7</ele>
        <time>2013-04-20T08:30:22.727Z</time>
      </trkpt>
      <trkpt lat="49.46194" lon="2.03102">
        <ele>139.5</ele>
        <time>2013-04-20T08:30:24.234Z</time>
      </trkpt>
      <trkpt lat="49.46194" lon="2.03095">
        <ele>140.5</ele>
        <time>2013-04-20T08:30:29.228Z</time>
      </trkpt>
      <trkpt lat="49.46194" lon="2.03094">
        <ele>140.6</ele>
        <time>2013-04-20T08:30:30.218Z</time>
      </trkpt>
      <trkpt lat="49.46192" lon="2.03089">
        <ele>140.7</ele>
        <time>2013-04-20T08:30:33.242Z</time>
      </trkpt>
      <trkpt lat="49.46192" lon="2.03087">
        <ele>141.6</ele>
        <time>2013-04-20T08:30:33.717Z</time>
      </trkpt>
      <trkpt lat="49.46191" lon="2.03083">
        <ele>142.6</ele>
        <time>2013-04-20T08:30:35.809Z</time>
      </trkpt>
      <trkpt lat="49.46191" lon="2.0308">
        <ele>143.5</ele>
        <time>2013-04-20T08:30:36.926Z</time>
      </trkpt>
      <trkpt lat="49.46191" lon="2.03075">
        <ele>144.2</ele>
        <time>2013-04-20T08:30:38.937Z</time>
      </trkpt>
      <trkpt lat="49.46191" lon="2.03073">
        <ele>144.7</ele>
        <time>2013-04-20T08:30:39.742Z</time>
      </trkpt>
      <trkpt lat="49.46191" lon="2.03066">
        <ele>141.4</ele>
        <time>2013-04-20T08:30:43.778Z</time>
      </trkpt>
      <trkpt lat="49.46191" lon="2.03064">
        <ele>141</ele>
        <time>2013-04-20T08:30:44.724Z</time>
      </trkpt>
      <trkpt lat="49.46191" lon="2.03058">
        <ele>138</ele>
        <time>2013-04-20T08:30:48.715Z</time>
      </trkpt>
      <trkpt lat="49.46191" lon="2.03056">
        <ele>139.9</ele>
        <time>2013-04-20T08:30:49.709Z</time>
      </trkpt>
      <trkpt lat="49.46189" lon="2.0305">
        <ele>143.2</ele>
        <time>2013-04-20T08:30:53.725Z</time>
      </trkpt>
      <trkpt lat="49.46189" lon="2.03049">
        <ele>143</ele>
        <time>2013-04-20T08:30:54.726Z</time>
      </trkpt>
      <trkpt lat="49.46188" lon="2.03046">
        <ele>143.3</ele>
        <time>2013-04-20T08:30:55.747Z</time>
      </trkpt>
      <trkpt lat="49.46187" lon="2.03042">
        <ele>142.5</ele>
        <time>2013-04-20T08:30:56.711Z</time>
      </trkpt>
      <trkpt lat="49.46186" lon="2.03036">
        <ele>141.9</ele>
        <time>2013-04-20T08:30:58.787Z</time>
      </trkpt>
      <trkpt lat="49.46186" lon="2.03034">
        <ele>141.7</ele>
        <time>2013-04-20T08:30:59.721Z</time>
      </trkpt>
      <trkpt lat="49.46186" lon="2.03027">
        <ele>140.8</ele>
        <time>2013-04-20T08:31:01.728Z</time>
      </trkpt>
      <trkpt lat="49.46186" lon="2.03025">
        <ele>140.7</ele>
        <time>2013-04-20T08:31:02.726Z</time>
      </trkpt>
      <trkpt lat="49.46186" lon="2.03022">
        <ele>140.9</ele>
        <time>2013-04-20T08:31:03.792Z</time>
      </trkpt>
      <trkpt lat="49.46185" lon="2.03017">
        <ele>141.2</ele>
        <time>2013-04-20T08:31:04.715Z</time>
      </trkpt>
      <trkpt lat="49.46185" lon="2.03011">
        <ele>141.5</ele>
        <time>2013-04-20T08:31:07.713Z</time>
      </trkpt>
      <trkpt lat="49.46184" lon="2.03007">
        <ele>143.6</ele>
        <time>2013-04-20T08:31:10.228Z</time>
      </trkpt>
      <trkpt lat="49.46185" lon="2.03002">
        <ele>144.4</ele>
        <time>2013-04-20T08:31:15.758Z</time>
      </trkpt>
      <trkpt lat="49.46184" lon="2.02999">
        <ele>143.4</ele>
        <time>2013-04-20T08:31:16.781Z</time>
      </trkpt>
      <trkpt lat="49.46183" lon="2.02994">
        <ele>143.9</ele>
        <time>2013-04-20T08:31:19.714Z</time>
      </trkpt>
      <trkpt lat="49.46182" lon="2.02991">
        <ele>143.9</ele>
        <time>2013-04-20T08:31:20.727Z</time>
      </trkpt>
      <trkpt lat="49.4618" lon="2.02986">
        <ele>150</ele>
        <time>2013-04-20T08:31:23.727Z</time>
      </trkpt>
      <trkpt lat="49.46179" lon="2.02984">
        <ele>150.6</ele>
        <time>2013-04-20T08:31:24.729Z</time>
      </trkpt>
      <trkpt lat="49.46177" lon="2.02978">
        <ele>151.8</ele>
        <time>2013-04-20T08:31:28.730Z</time>
      </trkpt>
      <trkpt lat="49.46176" lon="2.02976">
        <ele>151.2</ele>
        <time>2013-04-20T08:31:29.919Z</time>
      </trkpt>
      <trkpt lat="49.46175" lon="2.02971">
        <ele>151.3</ele>
        <time>2013-04-20T08:31:36.698Z</time>
      </trkpt>
      <trkpt lat="49.46174" lon="2.02969">
        <ele>153.7</ele>
        <time>2013-04-20T08:31:37.716Z</time>
      </trkpt>
      <trkpt lat="49.46172" lon="2.02964">
        <ele>153</ele>
        <time>2013-04-20T08:31:39.725Z</time>
      </trkpt>
      <trkpt lat="49.46171" lon="2.02962">
        <ele>153.7</ele>
        <time>2013-04-20T08:31:40.716Z</time>
      </trkpt>
      <trkpt lat="49.46169" lon="2.02959">
        <ele>154.4</ele>
        <time>2013-04-20T08:31:42.727Z</time>
      </trkpt>
      <trkpt lat="49.46168" lon="2.02955">
        <ele>151.8</ele>
        <time>2013-04-20T08:31:43.740Z</time>
      </trkpt>
      <trkpt lat="49.46167" lon="2.02953">
        <ele>151.9</ele>
        <time>2013-04-20T08:31:45.710Z</time>
      </trkpt>
      <trkpt lat="49.46166" lon="2.02949">
        <ele>150.7</ele>
        <time>2013-04-20T08:31:47.929Z</time>
      </trkpt>
      <trkpt lat="49.46164" lon="2.02944">
        <ele>149.8</ele>
        <time>2013-04-20T08:31:49.714Z</time>
      </trkpt>
      <trkpt lat="49.46163" lon="2.02942">
        <ele>153.4</ele>
        <time>2013-04-20T08:31:50.733Z</time>
      </trkpt>
      <trkpt lat="49.4616" lon="2.02938">
        <ele>155.4</ele>
        <time>2013-04-20T08:31:53.696Z</time>
      </trkpt>
      <trkpt lat="49.46159" lon="2.02936">
        <ele>156.2</ele>
        <time>2013-04-20T08:31:54.732Z</time>
      </trkpt>
      <trkpt lat="49.46156" lon="2.02932">
        <ele>158.4</ele>
        <time>2013-04-20T08:31:57.735Z</time>
      </trkpt>
      <trkpt lat="49.46156" lon="2.0293">
        <ele>159</ele>
        <time>2013-04-20T08:31:58.925Z</time>
      </trkpt>
      <trkpt lat="49.46153" lon="2.02926">
        <ele>159.6</ele>
        <time>2013-04-20T08:32:01.977Z</time>
      </trkpt>
      <trkpt lat="49.46152" lon="2.02924">
        <ele>159.1</ele>
        <time>2013-04-20T08:32:02.830Z</time>
      </trkpt>
      <trkpt lat="49.4615" lon="2.02919">
        <ele>158.4</ele>
        <time>2013-04-20T08:32:05.733Z</time>
      </trkpt>
      <trkpt lat="49.46149" lon="2.02919">
        <ele>158.3</ele>
        <time>2013-04-20T08:32:06.724Z</time>
      </trkpt>
      <trkpt lat="49.46146" lon="2.02915">
        <ele>165.5</ele>
        <time>2013-04-20T08:32:09.726Z</time>
      </trkpt>
      <trkpt lat="49.46145" lon="2.02913">
        <ele>166.8</ele>
        <time>2013-04-20T08:32:10.723Z</time>
      </trkpt>
      <trkpt lat="49.46142" lon="2.02909">
        <ele>170.4</ele>
        <time>2013-04-20T08:32:13.718Z</time>
      </trkpt>
      <trkpt lat="49.46142" lon="2.02907">
        <ele>167.8</ele>
        <time>2013-04-20T08:32:14.720Z</time>
      </trkpt>
      <trkpt lat="49.46139" lon="2.02903">
        <ele>165.9</ele>
        <time>2013-04-20T08:32:18.216Z</time>
      </trkpt>
      <trkpt lat="49.46138" lon="2.02901">
        <ele>165.4</ele>
        <time>2013-04-20T08:32:19.219Z</time>
      </trkpt>
      <trkpt lat="49.46137" lon="2.02898">
        <ele>163.8</ele>
        <time>2013-04-20T08:32:20.736Z</time>
      </trkpt>
      <trkpt lat="49.46136" lon="2.02893">
        <ele>163.9</ele>
        <time>2013-04-20T08:32:23.234Z</time>
      </trkpt>
      <trkpt lat="49.46134" lon="2.02888">
        <ele>172.1</ele>
        <time>2013-04-20T08:32:26.710Z</time>
      </trkpt>
      <trkpt lat="49.46132" lon="2.02889">
        <ele>178.9</ele>
        <time>2013-04-20T08:32:27.915Z</time>
      </trkpt>
      <trkpt lat="49.4613" lon="2.02884">
        <ele>174.8</ele>
        <time>2013-04-20T08:32:31.009Z</time>
      </trkpt>
      <trkpt lat="49.46129" lon="2.02882">
        <ele>177.2</ele>
        <time>2013-04-20T08:32:32.291Z</time>
      </trkpt>
      <trkpt lat="49.46128" lon="2.02877">
        <ele>174.9</ele>
        <time>2013-04-20T08:32:34.717Z</time>
      </trkpt>
      <trkpt lat="49.46127" lon="2.02875">
        <ele>174.5</ele>
        <time>2013-04-20T08:32:35.732Z</time>
      </trkpt>
      <trkpt lat="49.46125" lon="2.02871">
        <ele>175.3</ele>
        <time>2013-04-20T08:32:38.771Z</time>
      </trkpt>
      <trkpt lat="49.46124" lon="2.02869">
        <ele>176.5</ele>
        <time>2013-04-20T08:32:39.726Z</time>
      </trkpt>
      <trkpt lat="49.46122" lon="2.02865">
        <ele>175.8</ele>
        <time>2013-04-20T08:32:42.742Z</time>
      </trkpt>
      <trkpt lat="49.46121" lon="2.02863">
        <ele>173.4</ele>
        <time>2013-04-20T08:32:43.783Z</time>
      </trkpt>
      <trkpt lat="49.46119" lon="2.02857">
        <ele>169.1</ele>
        <time>2013-04-20T08:32:47.724Z</time>
      </trkpt>
      <trkpt lat="49.46119" lon="2.02855">
        <ele>171.4</ele>
        <time>2013-04-20T08:32:48.721Z</time>
      </trkpt>
      <trkpt lat="49.46117" lon="2.02851">
        <ele>175.8</ele>
        <time>2013-04-20T08:32:52.720Z</time>
      </trkpt>
      <trkpt lat="49.46114" lon="2.02848">
        <ele>180.1</ele>
        <time>2013-04-20T08:32:55.226Z</time>
      </trkpt>
      <trkpt lat="49.46111" lon="2.02843">
        <ele>181.9</ele>
        <time>2013-04-20T08:32:57.882Z</time>
      </trkpt>
      <trkpt lat="49.46109" lon="2.0284">
        <ele>181.3</ele>
        <time>2013-04-20T08:32:59.720Z</time>
      </trkpt>
      <trkpt lat="49.46108" lon="2.02833">
        <ele>179.1</ele>
        <time>2013-04-20T08:33:01.746Z</time>
      </trkpt>
      <trkpt lat="49.46108" lon="2.02831">
        <ele>183.7</ele>
        <time>2013-04-20T08:33:02.999Z</time>
      </trkpt>
      <trkpt lat="49.46106" lon="2.02826">
        <ele>190.2</ele>
        <time>2013-04-20T08:33:05.690Z</time>
      </trkpt>
      <trkpt lat="49.46105" lon="2.02823">
        <ele>190.9</ele>
        <time>2013-04-20T08:33:06.727Z</time>
      </trkpt>
      <trkpt lat="49.46103" lon="2.02819">
        <ele>189.6</ele>
        <time>2013-04-20T08:33:08.715Z</time>
      </trkpt>
      <trkpt lat="49.46102" lon="2.02818">
        <ele>192.4</ele>
        <time>2013-04-20T08:33:09.732Z</time>
      </trkpt>
      <trkpt lat="49.461" lon="2.02813">
        <ele>186.1</ele>
        <time>2013-04-20T08:33:11.718Z</time>
      </trkpt>
      <trkpt lat="49.46099" lon="2.02811">
        <ele>187.7</ele>
        <time>2013-04-20T08:33:12.710Z</time>
      </trkpt>
      <trkpt lat="49.46096" lon="2.02805">
        <ele>187.7</ele>
        <time>2013-04-20T08:33:15.714Z</time>
      </trkpt>
      <trkpt lat="49.46094" lon="2.02802">
        <ele>186</ele>
        <time>2013-04-20T08:33:17.928Z</time>
      </trkpt>
      <trkpt lat="49.46092" lon="2.02797">
        <ele>185.1</ele>
        <time>2013-04-20T08:33:19.731Z</time>
      </trkpt>
      <trkpt lat="49.46091" lon="2.02791">
        <ele>186.4</ele>
        <time>2013-04-20T08:33:22.188Z</time>
      </trkpt>
      <trkpt lat="49.4609" lon="2.02788">
        <ele>187.9</ele>
        <time>2013-04-20T08:33:23.917Z</time>
      </trkpt>
      <trkpt lat="49.46089" lon="2.02785">
        <ele>187.5</ele>
        <time>2013-04-20T08:33:25.719Z</time>
      </trkpt>
      <trkpt lat="49.46085" lon="2.02781">
        <ele>189.8</ele>
        <time>2013-04-20T08:33:28.928Z</time>
      </trkpt>
      <trkpt lat="49.46084" lon="2.02779">
        <ele>188.3</ele>
        <time>2013-04-20T08:33:29.886Z</time>
      </trkpt>
      <trkpt lat="49.46081" lon="2.02776">
        <ele>187.2</ele>
        <time>2013-04-20T08:33:32.723Z</time>
      </trkpt>
      <trkpt lat="49.46081" lon="2.02773">
        <ele>187.1</ele>
        <time>2013-04-20T08:33:33.757Z</time>
      </trkpt>
      <trkpt lat="49.46078" lon="2.0277">
        <ele>189.8</ele>
        <time>2013-04-20T08:33:37.219Z</time>
      </trkpt>
      <trkpt lat="49.46077" lon="2.02768">
        <ele>188.4</ele>
        <time>2013-04-20T08:33:37.726Z</time>
      </trkpt>
      <trkpt lat="49.46075" lon="2.02763">
        <ele>187.6</ele>
        <time>2013-04-20T08:33:40.920Z</time>
      </trkpt>
      <trkpt lat="49.46074" lon="2.02762">
        <ele>186</ele>
        <time>2013-04-20T08:33:41.924Z</time>
      </trkpt>
      <trkpt lat="49.46072" lon="2.02758">
        <ele>185.6</ele>
        <time>2013-04-20T08:33:46.216Z</time>
      </trkpt>
      <trkpt lat="49.46071" lon="2.02757">
        <ele>184.2</ele>
        <time>2013-04-20T08:33:47.225Z</time>
      </trkpt>
      <trkpt lat="49.4607" lon="2.02754">
        <ele>177</ele>
        <time>2013-04-20T08:33:48.726Z</time>
      </trkpt>
      <trkpt lat="49.46068" lon="2.02751">
        <ele>175.6</ele>
        <time>2013-04-20T08:33:50.381Z</time>
      </trkpt>
      <trkpt lat="49.46066" lon="2.02746">
        <ele>173.1</ele>
        <time>2013-04-20T08:33:51.752Z</time>
      </trkpt>
      <trkpt lat="49.46065" lon="2.02744">
        <ele>172.2</ele>
        <time>2013-04-20T08:33:52.711Z</time>
      </trkpt>
      <trkpt lat="49.46063" lon="2.02739">
        <ele>173.8</ele>
        <time>2013-04-20T08:33:55.728Z</time>
      </trkpt>
      <trkpt lat="49.46061" lon="2.02735">
        <ele>172.1</ele>
        <time>2013-04-20T08:33:58.056Z</time>
      </trkpt>
      <trkpt lat="49.46058" lon="2.0273">
        <ele>175.8</ele>
        <time>2013-04-20T08:34:01.732Z</time>
      </trkpt>
      <trkpt lat="49.46057" lon="2.02729">
        <ele>176.8</ele>
        <time>2013-04-20T08:34:02.730Z</time>
      </trkpt>
      <trkpt lat="49.46053" lon="2.02727">
        <ele>175.5</ele>
        <time>2013-04-20T08:34:06.951Z</time>
      </trkpt>
      <trkpt lat="49.46053" lon="2.02727">
        <ele>175.7</ele>
        <time>2013-04-20T08:34:07.725Z</time>
      </trkpt>
      <trkpt lat="49.4605" lon="2.02722">
        <ele>174.6</ele>
        <time>2013-04-20T08:34:14.717Z</time>
      </trkpt>
      <trkpt lat="49.46049" lon="2.02721">
        <ele>174.6</ele>
        <time>2013-04-20T08:34:15.929Z</time>
      </trkpt>
      <trkpt lat="49.46047" lon="2.02717">
        <ele>175.1</ele>
        <time>2013-04-20T08:34:18.227Z</time>
      </trkpt>
      <trkpt lat="49.46047" lon="2.02715">
        <ele>177.2</ele>
        <time>2013-04-20T08:34:19.423Z</time>
      </trkpt>
      <trkpt lat="49.46045" lon="2.0271">
        <ele>179.1</ele>
        <time>2013-04-20T08:34:21.730Z</time>
      </trkpt>
      <trkpt lat="49.46044" lon="2.02709">
        <ele>179.2</ele>
        <time>2013-04-20T08:34:22.919Z</time>
      </trkpt>
      <trkpt lat="49.46042" lon="2.02704">
        <ele>180.1</ele>
        <time>2013-04-20T08:34:26.790Z</time>
      </trkpt>
      <trkpt lat="49.46041" lon="2.02703">
        <ele>180.4</ele>
        <time>2013-04-20T08:34:27.918Z</time>
      </trkpt>
      <trkpt lat="49.46038" lon="2.02697">
        <ele>180.4</ele>
        <time>2013-04-20T08:34:30.722Z</time>
      </trkpt>
      <trkpt lat="49.46037" lon="2.02696">
        <ele>180.6</ele>
        <time>2013-04-20T08:34:31.704Z</time>
      </trkpt>
      <trkpt lat="49.46034" lon="2.02691">
        <ele>178.3</ele>
        <time>2013-04-20T08:34:33.723Z</time>
      </trkpt>
      <trkpt lat="49.46033" lon="2.0269">
        <ele>177.8</ele>
        <time>2013-04-20T08:34:34.716Z</time>
      </trkpt>
      <trkpt lat="49.4603" lon="2.02685">
        <ele>179.2</ele>
        <time>2013-04-20T08:34:37.726Z</time>
      </trkpt>
      <trkpt lat="49.46028" lon="2.0268">
        <ele>177.7</ele>
        <time>2013-04-20T08:34:39.911Z</time>
      </trkpt>
      <trkpt lat="49.46026" lon="2.02675">
        <ele>178.2</ele>
        <time>2013-04-20T08:34:41.715Z</time>
      </trkpt>
      <trkpt lat="49.46023" lon="2.02669">
        <ele>177.9</ele>
        <time>2013-04-20T08:34:43.912Z</time>
      </trkpt>
      <trkpt lat="49.4602" lon="2.02665">
        <ele>176.9</ele>
        <time>2013-04-20T08:34:46.239Z</time>
      </trkpt>
      <trkpt lat="49.46019" lon="2.02664">
        <ele>178.8</ele>
        <time>2013-04-20T08:34:46.732Z</time>
      </trkpt>
      <trkpt lat="49.46015" lon="2.02661">
        <ele>178.7</ele>
        <time>2013-04-20T08:34:48.734Z</time>
      </trkpt>
      <trkpt lat="49.46014" lon="2.0266">
        <ele>178.8</ele>
        <time>2013-04-20T08:34:49.706Z</time>
      </trkpt>
      <trkpt lat="49.4601" lon="2.02655">
        <ele>178.9</ele>
        <time>2013-04-20T08:34:52.857Z</time>
      </trkpt>
      <trkpt lat="49.4601" lon="2.02655">
        <ele>178.6</ele>
        <time>2013-04-20T08:34:53.775Z</time>
      </trkpt>
      <trkpt lat="49.46008" lon="2.02649">
        <ele>177.2</ele>
        <time>2013-04-20T08:34:56.723Z</time>
      </trkpt>
      <trkpt lat="49.46007" lon="2.02648">
        <ele>176.5</ele>
        <time>2013-04-20T08:34:57.969Z</time>
      </trkpt>
      <trkpt lat="49.46006" lon="2.02642">
        <ele>178.4</ele>
        <time>2013-04-20T08:35:02.727Z</time>
      </trkpt>
      <trkpt lat="49.46006" lon="2.02641">
        <ele>178.7</ele>
        <time>2013-04-20T08:35:03.795Z</time>
      </trkpt>
      <trkpt lat="49.46003" lon="2.02637">
        <ele>178.6</ele>
        <time>2013-04-20T08:35:08.223Z</time>
      </trkpt>
      <trkpt lat="49.46002" lon="2.02636">
        <ele>179.1</ele>
        <time>2013-04-20T08:35:08.716Z</time>
      </trkpt>
      <trkpt lat="49.46" lon="2.02633">
        <ele>178.4</ele>
        <time>2013-04-20T08:35:11.716Z</time>
      </trkpt>
      <trkpt lat="49.45998" lon="2.0263">
        <ele>176.8</ele>
        <time>2013-04-20T08:35:13.731Z</time>
      </trkpt>
      <trkpt lat="49.45996" lon="2.02627">
        <ele>174.3</ele>
        <time>2013-04-20T08:35:15.718Z</time>
      </trkpt>
      <trkpt lat="49.45995" lon="2.02625">
        <ele>177.1</ele>
        <time>2013-04-20T08:35:16.731Z</time>
      </trkpt>
      <trkpt lat="49.45993" lon="2.0262">
        <ele>176.5</ele>
        <time>2013-04-20T08:35:19.710Z</time>
      </trkpt>
      <trkpt lat="49.45992" lon="2.02619">
        <ele>175.4</ele>
        <time>2013-04-20T08:35:20.733Z</time>
      </trkpt>
      <trkpt lat="49.45989" lon="2.02614">
        <ele>177.6</ele>
        <time>2013-04-20T08:35:23.715Z</time>
      </trkpt>
      <trkpt lat="49.45988" lon="2.02613">
        <ele>178.2</ele>
        <time>2013-04-20T08:35:24.688Z</time>
      </trkpt>
      <trkpt lat="49.45987" lon="2.02608">
        <ele>172.8</ele>
        <time>2013-04-20T08:35:27.683Z</time>
      </trkpt>
      <trkpt lat="49.45987" lon="2.02606">
        <ele>173.2</ele>
        <time>2013-04-20T08:35:28.724Z</time>
      </trkpt>
      <trkpt lat="49.45986" lon="2.026">
        <ele>166.9</ele>
        <time>2013-04-20T08:35:34.728Z</time>
      </trkpt>
      <trkpt lat="49.45986" lon="2.02598">
        <ele>166</ele>
        <time>2013-04-20T08:35:35.954Z</time>
      </trkpt>
      <trkpt lat="49.45984" lon="2.02592">
        <ele>169.4</ele>
        <time>2013-04-20T08:35:39.731Z</time>
      </trkpt>
      <trkpt lat="49.45983" lon="2.02589">
        <ele>169.2</ele>
        <time>2013-04-20T08:35:41.768Z</time>
      </trkpt>
      <trkpt lat="49.4598" lon="2.02585">
        <ele>169.9</ele>
        <time>2013-04-20T08:35:44.969Z</time>
      </trkpt>
      <trkpt lat="49.45979" lon="2.02583">
        <ele>169.4</ele>
        <time>2013-04-20T08:35:46.255Z</time>
      </trkpt>
      <trkpt lat="49.45976" lon="2.0258">
        <ele>161.6</ele>
        <time>2013-04-20T08:35:49.766Z</time>
      </trkpt>
      <trkpt lat="49.45975" lon="2.02576">
        <ele>162.9</ele>
        <time>2013-04-20T08:35:51.745Z</time>
      </trkpt>
      <trkpt lat="49.45973" lon="2.02571">
        <ele>164.5</ele>
        <time>2013-04-20T08:35:55.067Z</time>
      </trkpt>
      <trkpt lat="49.45972" lon="2.02569">
        <ele>164.4</ele>
        <time>2013-04-20T08:35:55.766Z</time>
      </trkpt>
      <trkpt lat="49.4597" lon="2.02565">
        <ele>163.3</ele>
        <time>2013-04-20T08:35:57.762Z</time>
      </trkpt>
      <trkpt lat="49.45969" lon="2.02564">
        <ele>163.2</ele>
        <time>2013-04-20T08:35:58.728Z</time>
      </trkpt>
      <trkpt lat="49.45967" lon="2.0256">
        <ele>163.2</ele>
        <time>2013-04-20T08:35:59.767Z</time>
      </trkpt>
      <trkpt lat="49.45965" lon="2.02558">
        <ele>162.7</ele>
        <time>2013-04-20T08:36:00.762Z</time>
      </trkpt>
      <trkpt lat="49.45963" lon="2.02553">
        <ele>158.7</ele>
        <time>2013-04-20T08:36:02.747Z</time>
      </trkpt>
      <trkpt lat="49.45963" lon="2.0255">
        <ele>157.8</ele>
        <time>2013-04-20T08:36:03.748Z</time>
      </trkpt>
      <trkpt lat="49.45961" lon="2.02545">
        <ele>157.4</ele>
        <time>2013-04-20T08:36:06.740Z</time>
      </trkpt>
      <trkpt lat="49.45959" lon="2.02544">
        <ele>155.4</ele>
        <time>2013-04-20T08:36:07.765Z</time>
      </trkpt>
      <trkpt lat="49.45956" lon="2.0254">
        <ele>155.6</ele>
        <time>2013-04-20T08:36:10.747Z</time>
      </trkpt>
      <trkpt lat="49.45955" lon="2.02539">
        <ele>161</ele>
        <time>2013-04-20T08:36:11.963Z</time>
      </trkpt>
      <trkpt lat="49.45951" lon="2.02535">
        <ele>160.5</ele>
        <time>2013-04-20T08:36:14.794Z</time>
      </trkpt>
      <trkpt lat="49.45949" lon="2.02532">
        <ele>160</ele>
        <time>2013-04-20T08:36:16.955Z</time>
      </trkpt>
      <trkpt lat="49.45947" lon="2.02528">
        <ele>158.6</ele>
        <time>2013-04-20T08:36:19.774Z</time>
      </trkpt>
      <trkpt lat="49.45945" lon="2.02525">
        <ele>158.3</ele>
        <time>2013-04-20T08:36:20.751Z</time>
      </trkpt>
      <trkpt lat="49.45942" lon="2.0252">
        <ele>156.6</ele>
        <time>2013-04-20T08:36:22.762Z</time>
      </trkpt>
      <trkpt lat="49.45941" lon="2.02518">
        <ele>157</ele>
        <time>2013-04-20T08:36:23.765Z</time>
      </trkpt>
      <trkpt lat="49.45939" lon="2.02513">
        <ele>156.9</ele>
        <time>2013-04-20T08:36:26.373Z</time>
      </trkpt>
      <trkpt lat="49.45939" lon="2.02511">
        <ele>157.7</ele>
        <time>2013-04-20T08:36:26.766Z</time>
      </trkpt>
      <trkpt lat="49.45936" lon="2.02506">
        <ele>157.3</ele>
        <time>2013-04-20T08:36:29.760Z</time>
      </trkpt>
      <trkpt lat="49.45935" lon="2.02506">
        <ele>156.3</ele>
        <time>2013-04-20T08:36:30.760Z</time>
      </trkpt>
      <trkpt lat="49.45932" lon="2.02501">
        <ele>156.8</ele>
        <time>2013-04-20T08:36:33.761Z</time>
      </trkpt>
      <trkpt lat="49.45931" lon="2.025">
        <ele>149.1</ele>
        <time>2013-04-20T08:36:35.260Z</time>
      </trkpt>
      <trkpt lat="49.45931" lon="2.02494">
        <ele>145.9</ele>
        <time>2013-04-20T08:36:40.028Z</time>
      </trkpt>
      <trkpt lat="49.4593" lon="2.02493">
        <ele>146.9</ele>
        <time>2013-04-20T08:36:40.952Z</time>
      </trkpt>
      <trkpt lat="49.45928" lon="2.02488">
        <ele>149.1</ele>
        <time>2013-04-20T08:36:44.264Z</time>
      </trkpt>
      <trkpt lat="49.45928" lon="2.02486">
        <ele>149.9</ele>
        <time>2013-04-20T08:36:44.767Z</time>
      </trkpt>
      <trkpt lat="49.45926" lon="2.02481">
        <ele>145</ele>
        <time>2013-04-20T08:36:49.767Z</time>
      </trkpt>
      <trkpt lat="49.45925" lon="2.02478">
        <ele>144.9</ele>
        <time>2013-04-20T08:36:52.023Z</time>
      </trkpt>
      <trkpt lat="49.45922" lon="2.02473">
        <ele>144.3</ele>
        <time>2013-04-20T08:36:55.251Z</time>
      </trkpt>
      <trkpt lat="49.45921" lon="2.02471">
        <ele>143.5</ele>
        <time>2013-04-20T08:36:56.052Z</time>
      </trkpt>
      <trkpt lat="49.4592" lon="2.02468">
        <ele>143.5</ele>
        <time>2013-04-20T08:36:57.747Z</time>
      </trkpt>
      <trkpt lat="49.45918" lon="2.02465">
        <ele>144.9</ele>
        <time>2013-04-20T08:36:58.947Z</time>
      </trkpt>
      <trkpt lat="49.45917" lon="2.02461">
        <ele>144.6</ele>
        <time>2013-04-20T08:37:01.013Z</time>
      </trkpt>
      <trkpt lat="49.45916" lon="2.02459">
        <ele>146.2</ele>
        <time>2013-04-20T08:37:02.460Z</time>
      </trkpt>
      <trkpt lat="49.45913" lon="2.02454">
        <ele>147.8</ele>
        <time>2013-04-20T08:37:04.764Z</time>
      </trkpt>
      <trkpt lat="49.45912" lon="2.02453">
        <ele>148.1</ele>
        <time>2013-04-20T08:37:05.750Z</time>
      </trkpt>
      <trkpt lat="49.45909" lon="2.02449">
        <ele>152.5</ele>
        <time>2013-04-20T08:37:09.752Z</time>
      </trkpt>
      <trkpt lat="49.45908" lon="2.02448">
        <ele>152.9</ele>
        <time>2013-04-20T08:37:10.949Z</time>
      </trkpt>
      <trkpt lat="49.45906" lon="2.02446">
        <ele>154.2</ele>
        <time>2013-04-20T08:37:13.745Z</time>
      </trkpt>
      <trkpt lat="49.45905" lon="2.02443">
        <ele>161.9</ele>
        <time>2013-04-20T08:37:16.262Z</time>
      </trkpt>
      <trkpt lat="49.45904" lon="2.02438">
        <ele>160</ele>
        <time>2013-04-20T08:37:19.223Z</time>
      </trkpt>
      <trkpt lat="49.45905" lon="2.02436">
        <ele>159.8</ele>
        <time>2013-04-20T08:37:20.197Z</time>
      </trkpt>
      <trkpt lat="49.45904" lon="2.02429">
        <ele>160</ele>
        <time>2013-04-20T08:37:23.255Z</time>
      </trkpt>
      <trkpt lat="49.45903" lon="2.02428">
        <ele>161.5</ele>
        <time>2013-04-20T08:37:24.258Z</time>
      </trkpt>
      <trkpt lat="49.45901" lon="2.02424">
        <ele>167</ele>
        <time>2013-04-20T08:37:26.772Z</time>
      </trkpt>
      <trkpt lat="49.45899" lon="2.02421">
        <ele>167.9</ele>
        <time>2013-04-20T08:37:28.754Z</time>
      </trkpt>
      <trkpt lat="49.45897" lon="2.02418">
        <ele>168.5</ele>
        <time>2013-04-20T08:37:30.794Z</time>
      </trkpt>
      <trkpt lat="49.45895" lon="2.02416">
        <ele>169.1</ele>
        <time>2013-04-20T08:37:31.763Z</time>
      </trkpt>
      <trkpt lat="49.45893" lon="2.02412">
        <ele>169.6</ele>
        <time>2013-04-20T08:37:33.964Z</time>
      </trkpt>
      <trkpt lat="49.45893" lon="2.0241">
        <ele>168.7</ele>
        <time>2013-04-20T08:37:35.033Z</time>
      </trkpt>
      <trkpt lat="49.45892" lon="2.02406">
        <ele>168.6</ele>
        <time>2013-04-20T08:37:36.750Z</time>
      </trkpt>
      <trkpt lat="49.45891" lon="2.02402">
        <ele>167.4</ele>
        <time>2013-04-20T08:37:37.765Z</time>
      </trkpt>
      <trkpt lat="49.4589" lon="2.02397">
        <ele>168</ele>
        <time>2013-04-20T08:37:39.744Z</time>
      </trkpt>
      <trkpt lat="49.45889" lon="2.02395">
        <ele>167.7</ele>
        <time>2013-04-20T08:37:40.735Z</time>
      </trkpt>
      <trkpt lat="49.45887" lon="2.0239">
        <ele>167.8</ele>
        <time>2013-04-20T08:37:42.759Z</time>
      </trkpt>
      <trkpt lat="49.45886" lon="2.02388">
        <ele>167.4</ele>
        <time>2013-04-20T08:37:43.744Z</time>
      </trkpt>
      <trkpt lat="49.45884" lon="2.02383">
        <ele>167.4</ele>
        <time>2013-04-20T08:37:45.740Z</time>
      </trkpt>
      <trkpt lat="49.45884" lon="2.02381">
        <ele>167.8</ele>
        <time>2013-04-20T08:37:46.753Z</time>
      </trkpt>
      <trkpt lat="49.45881" lon="2.02375">
        <ele>172.1</ele>
        <time>2013-04-20T08:37:49.764Z</time>
      </trkpt>
      <trkpt lat="49.4588" lon="2.02373">
        <ele>172.6</ele>
        <time>2013-04-20T08:37:50.754Z</time>
      </trkpt>
      <trkpt lat="49.45878" lon="2.02368">
        <ele>173.5</ele>
        <time>2013-04-20T08:37:53.758Z</time>
      </trkpt>
      <trkpt lat="49.45877" lon="2.02367">
        <ele>173.3</ele>
        <time>2013-04-20T08:37:54.757Z</time>
      </trkpt>
      <trkpt lat="49.45876" lon="2.0236">
        <ele>171.1</ele>
        <time>2013-04-20T08:37:57.928Z</time>
      </trkpt>
      <trkpt lat="49.45876" lon="2.02358">
        <ele>170</ele>
        <time>2013-04-20T08:37:58.953Z</time>
      </trkpt>
      <trkpt lat="49.45874" lon="2.02352">
        <ele>174.8</ele>
        <time>2013-04-20T08:38:01.953Z</time>
      </trkpt>
      <trkpt lat="49.45873" lon="2.0235">
        <ele>173.9</ele>
        <time>2013-04-20T08:38:03.024Z</time>
      </trkpt>
      <trkpt lat="49.45871" lon="2.02346">
        <ele>170.5</ele>
        <time>2013-04-20T08:38:04.976Z</time>
      </trkpt>
      <trkpt lat="49.4587" lon="2.02343">
        <ele>169.5</ele>
        <time>2013-04-20T08:38:06.742Z</time>
      </trkpt>
      <trkpt lat="49.45869" lon="2.02336">
        <ele>167.5</ele>
        <time>2013-04-20T08:38:09.752Z</time>
      </trkpt>
      <trkpt lat="49.45868" lon="2.02333">
        <ele>171.9</ele>
        <time>2013-04-20T08:38:11.960Z</time>
      </trkpt>
      <trkpt lat="49.45866" lon="2.02327">
        <ele>174.3</ele>
        <time>2013-04-20T08:38:16.756Z</time>
      </trkpt>
      <trkpt lat="49.45865" lon="2.02326">
        <ele>169.1</ele>
        <time>2013-04-20T08:38:17.836Z</time>
      </trkpt>
      <trkpt lat="49.45863" lon="2.02319">
        <ele>170</ele>
        <time>2013-04-20T08:38:21.169Z</time>
      </trkpt>
      <trkpt lat="49.45863" lon="2.02318">
        <ele>169.8</ele>
        <time>2013-04-20T08:38:21.748Z</time>
      </trkpt>
      <trkpt lat="49.45861" lon="2.02313">
        <ele>175.8</ele>
        <time>2013-04-20T08:38:25.770Z</time>
      </trkpt>
      <trkpt lat="49.4586" lon="2.02312">
        <ele>175.9</ele>
        <time>2013-04-20T08:38:26.824Z</time>
      </trkpt>
      <trkpt lat="49.45857" lon="2.02309">
        <ele>176.2</ele>
        <time>2013-04-20T08:38:30.766Z</time>
      </trkpt>
      <trkpt lat="49.45856" lon="2.02307">
        <ele>176.3</ele>
        <time>2013-04-20T08:38:31.759Z</time>
      </trkpt>
      <trkpt lat="49.45854" lon="2.02303">
        <ele>171.2</ele>
        <time>2013-04-20T08:38:34.756Z</time>
      </trkpt>
      <trkpt lat="49.45854" lon="2.023">
        <ele>170.7</ele>
        <time>2013-04-20T08:38:35.754Z</time>
      </trkpt>
      <trkpt lat="49.45851" lon="2.02294">
        <ele>171.3</ele>
        <time>2013-04-20T08:38:38.764Z</time>
      </trkpt>
      <trkpt lat="49.45851" lon="2.02291">
        <ele>170.3</ele>
        <time>2013-04-20T08:38:40.117Z</time>
      </trkpt>
      <trkpt lat="49.4585" lon="2.02286">
        <ele>171.1</ele>
        <time>2013-04-20T08:38:43.752Z</time>
      </trkpt>
      <trkpt lat="49.45849" lon="2.02283">
        <ele>170.5</ele>
        <time>2013-04-20T08:38:45.866Z</time>
      </trkpt>
      <trkpt lat="49.45847" lon="2.02279">
        <ele>168.1</ele>
        <time>2013-04-20T08:38:48.924Z</time>
      </trkpt>
      <trkpt lat="49.45846" lon="2.02277">
        <ele>167.8</ele>
        <time>2013-04-20T08:38:49.956Z</time>
      </trkpt>
      <trkpt lat="49.45844" lon="2.02271">
        <ele>167.9</ele>
        <time>2013-04-20T08:38:54.753Z</time>
      </trkpt>
      <trkpt lat="49.45842" lon="2.02268">
        <ele>173.8</ele>
        <time>2013-04-20T08:38:57.259Z</time>
      </trkpt>
      <trkpt lat="49.4584" lon="2.02264">
        <ele>174.3</ele>
        <time>2013-04-20T08:38:59.766Z</time>
      </trkpt>
      <trkpt lat="49.45839" lon="2.02262">
        <ele>174.4</ele>
        <time>2013-04-20T08:39:00.960Z</time>
      </trkpt>
      <trkpt lat="49.45838" lon="2.02261">
        <ele>174.5</ele>
        <time>2013-04-20T08:39:01.957Z</time>
      </trkpt>
      <trkpt lat="49.45837" lon="2.02256">
        <ele>174</ele>
        <time>2013-04-20T08:39:04.014Z</time>
      </trkpt>
      <trkpt lat="49.45836" lon="2.02251">
        <ele>175.2</ele>
        <time>2013-04-20T08:39:06.752Z</time>
      </trkpt>
      <trkpt lat="49.45836" lon="2.02247">
        <ele>172.7</ele>
        <time>2013-04-20T08:39:07.769Z</time>
      </trkpt>
      <trkpt lat="49.45834" lon="2.02242">
        <ele>169.2</ele>
        <time>2013-04-20T08:39:12.246Z</time>
      </trkpt>
      <trkpt lat="49.45834" lon="2.0224">
        <ele>169.5</ele>
        <time>2013-04-20T08:39:13.256Z</time>
      </trkpt>
      <trkpt lat="49.45832" lon="2.02235">
        <ele>168.8</ele>
        <time>2013-04-20T08:39:15.771Z</time>
      </trkpt>
      <trkpt lat="49.45831" lon="2.02233">
        <ele>168.8</ele>
        <time>2013-04-20T08:39:17.175Z</time>
      </trkpt>
      <trkpt lat="49.45829" lon="2.02229">
        <ele>160.8</ele>
        <time>2013-04-20T08:39:18.767Z</time>
      </trkpt>
      <trkpt lat="49.45827" lon="2.02224">
        <ele>159.3</ele>
        <time>2013-04-20T08:39:20.759Z</time>
      </trkpt>
      <trkpt lat="49.45825" lon="2.02219">
        <ele>161.5</ele>
        <time>2013-04-20T08:39:23.260Z</time>
      </trkpt>
      <trkpt lat="49.45825" lon="2.02217">
        <ele>161.4</ele>
        <time>2013-04-20T08:39:23.764Z</time>
      </trkpt>
      <trkpt lat="49.45823" lon="2.02211">
        <ele>162.5</ele>
        <time>2013-04-20T08:39:25.761Z</time>
      </trkpt>
      <trkpt lat="49.45821" lon="2.02208">
        <ele>162.5</ele>
        <time>2013-04-20T08:39:26.772Z</time>
      </trkpt>
      <trkpt lat="49.45821" lon="2.02202">
        <ele>161.7</ele>
        <time>2013-04-20T08:39:30.424Z</time>
      </trkpt>
      <trkpt lat="49.45821" lon="2.02199">
        <ele>149.9</ele>
        <time>2013-04-20T08:39:31.463Z</time>
      </trkpt>
      <trkpt lat="49.45822" lon="2.02192">
        <ele>152.6</ele>
        <time>2013-04-20T08:39:35.752Z</time>
      </trkpt>
      <trkpt lat="49.45823" lon="2.02189">
        <ele>154.8</ele>
        <time>2013-04-20T08:39:38.467Z</time>
      </trkpt>
      <trkpt lat="49.45827" lon="2.02184">
        <ele>156.9</ele>
        <time>2013-04-20T08:39:40.743Z</time>
      </trkpt>
      <trkpt lat="49.45829" lon="2.02181">
        <ele>149.7</ele>
        <time>2013-04-20T08:39:43.259Z</time>
      </trkpt>
      <trkpt lat="49.4583" lon="2.02177">
        <ele>151.1</ele>
        <time>2013-04-20T08:39:45.213Z</time>
      </trkpt>
      <trkpt lat="49.45831" lon="2.02175">
        <ele>150.1</ele>
        <time>2013-04-20T08:39:46.259Z</time>
      </trkpt>
      <trkpt lat="49.45833" lon="2.0217">
        <ele>150.4</ele>
        <time>2013-04-20T08:39:47.774Z</time>
      </trkpt>
      <trkpt lat="49.45834" lon="2.02168">
        <ele>150.2</ele>
        <time>2013-04-20T08:39:48.773Z</time>
      </trkpt>
      <trkpt lat="49.45835" lon="2.02164">
        <ele>150.3</ele>
        <time>2013-04-20T08:39:50.729Z</time>
      </trkpt>
      <trkpt lat="49.45836" lon="2.02159">
        <ele>149.6</ele>
        <time>2013-04-20T08:39:53.258Z</time>
      </trkpt>
      <trkpt lat="49.45838" lon="2.02154">
        <ele>151.3</ele>
        <time>2013-04-20T08:39:55.806Z</time>
      </trkpt>
      <trkpt lat="49.45839" lon="2.02151">
        <ele>151.2</ele>
        <time>2013-04-20T08:39:56.774Z</time>
      </trkpt>
      <trkpt lat="49.4584" lon="2.02148">
        <ele>150.3</ele>
        <time>2013-04-20T08:39:58.750Z</time>
      </trkpt>
      <trkpt lat="49.45841" lon="2.02144">
        <ele>150.3</ele>
        <time>2013-04-20T08:40:01.255Z</time>
      </trkpt>
      <trkpt lat="49.45843" lon="2.02139">
        <ele>146.8</ele>
        <time>2013-04-20T08:40:03.789Z</time>
      </trkpt>
      <trkpt lat="49.45844" lon="2.02136">
        <ele>147.6</ele>
        <time>2013-04-20T08:40:04.775Z</time>
      </trkpt>
      <trkpt lat="49.45847" lon="2.02133">
        <ele>145.9</ele>
        <time>2013-04-20T08:40:08.769Z</time>
      </trkpt>
      <trkpt lat="49.45848" lon="2.02131">
        <ele>143.6</ele>
        <time>2013-04-20T08:40:11.254Z</time>
      </trkpt>
      <trkpt lat="49.45849" lon="2.02127">
        <ele>144.5</ele>
        <time>2013-04-20T08:40:13.197Z</time>
      </trkpt>
      <trkpt lat="49.45849" lon="2.02124">
        <ele>144.9</ele>
        <time>2013-04-20T08:40:14.247Z</time>
      </trkpt>
      <trkpt lat="49.4585" lon="2.0212">
        <ele>144.1</ele>
        <time>2013-04-20T08:40:15.765Z</time>
      </trkpt>
      <trkpt lat="49.45851" lon="2.02116">
        <ele>144.4</ele>
        <time>2013-04-20T08:40:17.457Z</time>
      </trkpt>
      <trkpt lat="49.45853" lon="2.02111">
        <ele>145.8</ele>
        <time>2013-04-20T08:40:19.765Z</time>
      </trkpt>
      <trkpt lat="49.45853" lon="2.02109">
        <ele>145.7</ele>
        <time>2013-04-20T08:40:21.450Z</time>
      </trkpt>
      <trkpt lat="49.45854" lon="2.02103">
        <ele>147.1</ele>
        <time>2013-04-20T08:40:23.779Z</time>
      </trkpt>
      <trkpt lat="49.45855" lon="2.02101">
        <ele>147</ele>
        <time>2013-04-20T08:40:24.786Z</time>
      </trkpt>
      <trkpt lat="49.45857" lon="2.02096">
        <ele>146.5</ele>
        <time>2013-04-20T08:40:27.845Z</time>
      </trkpt>
      <trkpt lat="49.45858" lon="2.02093">
        <ele>146.6</ele>
        <time>2013-04-20T08:40:29.953Z</time>
      </trkpt>
      <trkpt lat="49.45861" lon="2.0209">
        <ele>144.7</ele>
        <time>2013-04-20T08:40:32.985Z</time>
      </trkpt>
      <trkpt lat="49.45862" lon="2.02089">
        <ele>145.5</ele>
        <time>2013-04-20T08:40:34.261Z</time>
      </trkpt>
      <trkpt lat="49.45865" lon="2.02085">
        <ele>143</ele>
        <time>2013-04-20T08:40:38.763Z</time>
      </trkpt>
      <trkpt lat="49.45865" lon="2.02082">
        <ele>146.3</ele>
        <time>2013-04-20T08:40:39.769Z</time>
      </trkpt>
      <trkpt lat="49.45866" lon="2.02078">
        <ele>147.2</ele>
        <time>2013-04-20T08:40:41.769Z</time>
      </trkpt>
      <trkpt lat="49.45867" lon="2.02074">
        <ele>149.6</ele>
        <time>2013-04-20T08:40:44.466Z</time>
      </trkpt>
      <trkpt lat="49.45869" lon="2.02068">
        <ele>148.5</ele>
        <time>2013-04-20T08:40:47.263Z</time>
      </trkpt>
      <trkpt lat="49.45869" lon="2.02067">
        <ele>147.7</ele>
        <time>2013-04-20T08:40:47.865Z</time>
      </trkpt>
      <trkpt lat="49.45871" lon="2.02061">
        <ele>145.5</ele>
        <time>2013-04-20T08:40:50.755Z</time>
      </trkpt>
      <trkpt lat="49.45872" lon="2.0206">
        <ele>144.9</ele>
        <time>2013-04-20T08:40:51.774Z</time>
      </trkpt>
      <trkpt lat="49.45873" lon="2.02054">
        <ele>141.7</ele>
        <time>2013-04-20T08:40:55.770Z</time>
      </trkpt>
      <trkpt lat="49.45873" lon="2.0205">
        <ele>143.2</ele>
        <time>2013-04-20T08:40:56.774Z</time>
      </trkpt>
      <trkpt lat="49.45874" lon="2.02046">
        <ele>143</ele>
        <time>2013-04-20T08:40:59.346Z</time>
      </trkpt>
      <trkpt lat="49.45875" lon="2.02043">
        <ele>143.6</ele>
        <time>2013-04-20T08:41:00.444Z</time>
      </trkpt>
      <trkpt lat="49.45877" lon="2.02039">
        <ele>141.8</ele>
        <time>2013-04-20T08:41:02.988Z</time>
      </trkpt>
      <trkpt lat="49.45879" lon="2.02033">
        <ele>143.3</ele>
        <time>2013-04-20T08:41:04.786Z</time>
      </trkpt>
      <trkpt lat="49.45881" lon="2.02029">
        <ele>147.2</ele>
        <time>2013-04-20T08:41:06.744Z</time>
      </trkpt>
      <trkpt lat="49.45881" lon="2.02027">
        <ele>143.6</ele>
        <time>2013-04-20T08:41:07.949Z</time>
      </trkpt>
      <trkpt lat="49.45883" lon="2.02021">
        <ele>142.5</ele>
        <time>2013-04-20T08:41:09.744Z</time>
      </trkpt>
      <trkpt lat="49.45883" lon="2.02019">
        <ele>138.1</ele>
        <time>2013-04-20T08:41:10.757Z</time>
      </trkpt>
      <trkpt lat="49.45884" lon="2.02014">
        <ele>143.4</ele>
        <time>2013-04-20T08:41:12.772Z</time>
      </trkpt>
      <trkpt lat="49.45885" lon="2.02011">
        <ele>144.7</ele>
        <time>2013-04-20T08:41:13.767Z</time>
      </trkpt>
      <trkpt lat="49.45886" lon="2.02006">
        <ele>144.2</ele>
        <time>2013-04-20T08:41:15.823Z</time>
      </trkpt>
      <trkpt lat="49.45887" lon="2.02005">
        <ele>143.4</ele>
        <time>2013-04-20T08:41:17.464Z</time>
      </trkpt>
      <trkpt lat="49.45887" lon="2.01998">
        <ele>145.3</ele>
        <time>2013-04-20T08:41:20.456Z</time>
      </trkpt>
      <trkpt lat="49.45887" lon="2.01995">
        <ele>145.1</ele>
        <time>2013-04-20T08:41:20.774Z</time>
      </trkpt>
      <trkpt lat="49.45887" lon="2.0199">
        <ele>143.6</ele>
        <time>2013-04-20T08:41:22.779Z</time>
      </trkpt>
      <trkpt lat="49.45888" lon="2.01987">
        <ele>144.6</ele>
        <time>2013-04-20T08:41:23.773Z</time>
      </trkpt>
      <trkpt lat="49.45888" lon="2.01982">
        <ele>144.4</ele>
        <time>2013-04-20T08:41:25.751Z</time>
      </trkpt>
      <trkpt lat="49.45887" lon="2.01978">
        <ele>142.8</ele>
        <time>2013-04-20T08:41:28.127Z</time>
      </trkpt>
      <trkpt lat="49.45888" lon="2.01972">
        <ele>142.5</ele>
        <time>2013-04-20T08:41:31.456Z</time>
      </trkpt>
      <trkpt lat="49.45889" lon="2.01971">
        <ele>142.9</ele>
        <time>2013-04-20T08:41:31.762Z</time>
      </trkpt>
      <trkpt lat="49.45892" lon="2.01966">
        <ele>142.6</ele>
        <time>2013-04-20T08:41:34.770Z</time>
      </trkpt>
      <trkpt lat="49.45893" lon="2.01965">
        <ele>141.6</ele>
        <time>2013-04-20T08:41:36.460Z</time>
      </trkpt>
      <trkpt lat="49.45896" lon="2.01962">
        <ele>139.1</ele>
        <time>2013-04-20T08:41:40.330Z</time>
      </trkpt>
      <trkpt lat="49.45897" lon="2.01961">
        <ele>139.1</ele>
        <time>2013-04-20T08:41:40.893Z</time>
      </trkpt>
      <trkpt lat="49.45899" lon="2.01956">
        <ele>139.5</ele>
        <time>2013-04-20T08:41:43.752Z</time>
      </trkpt>
      <trkpt lat="49.45901" lon="2.01955">
        <ele>139.5</ele>
        <time>2013-04-20T08:41:44.782Z</time>
      </trkpt>
      <trkpt lat="49.45904" lon="2.01952">
        <ele>138.4</ele>
        <time>2013-04-20T08:41:48.749Z</time>
      </trkpt>
      <trkpt lat="49.45905" lon="2.01951">
        <ele>139</ele>
        <time>2013-04-20T08:41:50.312Z</time>
      </trkpt>
      <trkpt lat="49.45908" lon="2.01947">
        <ele>140.1</ele>
        <time>2013-04-20T08:41:54.256Z</time>
      </trkpt>
      <trkpt lat="49.45909" lon="2.01945">
        <ele>140.4</ele>
        <time>2013-04-20T08:41:55.256Z</time>
      </trkpt>
      <trkpt lat="49.45912" lon="2.01941">
        <ele>139.4</ele>
        <time>2013-04-20T08:41:59.459Z</time>
      </trkpt>
      <trkpt lat="49.45913" lon="2.0194">
        <ele>139.1</ele>
        <time>2013-04-20T08:41:59.767Z</time>
      </trkpt>
      <trkpt lat="49.45915" lon="2.01934">
        <ele>140.3</ele>
        <time>2013-04-20T08:42:02.756Z</time>
      </trkpt>
      <trkpt lat="49.45916" lon="2.01933">
        <ele>139.5</ele>
        <time>2013-04-20T08:42:03.756Z</time>
      </trkpt>
      <trkpt lat="49.45918" lon="2.01927">
        <ele>138</ele>
        <time>2013-04-20T08:42:07.763Z</time>
      </trkpt>
      <trkpt lat="49.45918" lon="2.01925">
        <ele>139.3</ele>
        <time>2013-04-20T08:42:08.762Z</time>
      </trkpt>
      <trkpt lat="49.45919" lon="2.0192">
        <ele>139.3</ele>
        <time>2013-04-20T08:42:10.753Z</time>
      </trkpt>
      <trkpt lat="49.4592" lon="2.01918">
        <ele>138.2</ele>
        <time>2013-04-20T08:42:11.762Z</time>
      </trkpt>
      <trkpt lat="49.45921" lon="2.01913">
        <ele>138.3</ele>
        <time>2013-04-20T08:42:13.757Z</time>
      </trkpt>
      <trkpt lat="49.45922" lon="2.01911">
        <ele>138.1</ele>
        <time>2013-04-20T08:42:14.766Z</time>
      </trkpt>
      <trkpt lat="49.45924" lon="2.01906">
        <ele>139.7</ele>
        <time>2013-04-20T08:42:17.745Z</time>
      </trkpt>
      <trkpt lat="49.45925" lon="2.01903">
        <ele>140.6</ele>
        <time>2013-04-20T08:42:18.774Z</time>
      </trkpt>
      <trkpt lat="49.45927" lon="2.01898">
        <ele>139.5</ele>
        <time>2013-04-20T08:42:21.755Z</time>
      </trkpt>
      <trkpt lat="49.45928" lon="2.01896">
        <ele>139.3</ele>
        <time>2013-04-20T08:42:23.384Z</time>
      </trkpt>
      <trkpt lat="49.4593" lon="2.01891">
        <ele>136.4</ele>
        <time>2013-04-20T08:42:25.751Z</time>
      </trkpt>
      <trkpt lat="49.45931" lon="2.0189">
        <ele>136.6</ele>
        <time>2013-04-20T08:42:27.459Z</time>
      </trkpt>
      <trkpt lat="49.45934" lon="2.01885">
        <ele>137.6</ele>
        <time>2013-04-20T08:42:29.766Z</time>
      </trkpt>
      <trkpt lat="49.45935" lon="2.01881">
        <ele>138.4</ele>
        <time>2013-04-20T08:42:31.765Z</time>
      </trkpt>
      <trkpt lat="49.45936" lon="2.01877">
        <ele>139.7</ele>
        <time>2013-04-20T08:42:33.803Z</time>
      </trkpt>
      <trkpt lat="49.45937" lon="2.01872">
        <ele>140.3</ele>
        <time>2013-04-20T08:42:36.260Z</time>
      </trkpt>
      <trkpt lat="49.4594" lon="2.01868">
        <ele>136.2</ele>
        <time>2013-04-20T08:42:38.763Z</time>
      </trkpt>
      <trkpt lat="49.45941" lon="2.01866">
        <ele>136.5</ele>
        <time>2013-04-20T08:42:39.771Z</time>
      </trkpt>
      <trkpt lat="49.45944" lon="2.01861">
        <ele>132.3</ele>
        <time>2013-04-20T08:42:44.457Z</time>
      </trkpt>
      <trkpt lat="49.45944" lon="2.0186">
        <ele>131</ele>
        <time>2013-04-20T08:42:44.770Z</time>
      </trkpt>
      <trkpt lat="49.45947" lon="2.01857">
        <ele>129.3</ele>
        <time>2013-04-20T08:42:50.310Z</time>
      </trkpt>
      <trkpt lat="49.45948" lon="2.01854">
        <ele>130.5</ele>
        <time>2013-04-20T08:42:51.241Z</time>
      </trkpt>
      <trkpt lat="49.4595" lon="2.0185">
        <ele>126.1</ele>
        <time>2013-04-20T08:42:53.761Z</time>
      </trkpt>
      <trkpt lat="49.4595" lon="2.01848">
        <ele>126.7</ele>
        <time>2013-04-20T08:42:54.974Z</time>
      </trkpt>
      <trkpt lat="49.45951" lon="2.01845">
        <ele>126.2</ele>
        <time>2013-04-20T08:42:56.754Z</time>
      </trkpt>
      <trkpt lat="49.45952" lon="2.0184">
        <ele>128</ele>
        <time>2013-04-20T08:42:59.457Z</time>
      </trkpt>
      <trkpt lat="49.45954" lon="2.01835">
        <ele>128.6</ele>
        <time>2013-04-20T08:43:01.269Z</time>
      </trkpt>
      <trkpt lat="49.45954" lon="2.01833">
        <ele>127.8</ele>
        <time>2013-04-20T08:43:02.454Z</time>
      </trkpt>
      <trkpt lat="49.45956" lon="2.01828">
        <ele>125.5</ele>
        <time>2013-04-20T08:43:05.505Z</time>
      </trkpt>
      <trkpt lat="49.45957" lon="2.01827">
        <ele>124.4</ele>
        <time>2013-04-20T08:43:05.762Z</time>
      </trkpt>
      <trkpt lat="49.45958" lon="2.01823">
        <ele>125.9</ele>
        <time>2013-04-20T08:43:07.864Z</time>
      </trkpt>
      <trkpt lat="49.45959" lon="2.01821">
        <ele>126.8</ele>
        <time>2013-04-20T08:43:09.254Z</time>
      </trkpt>
      <trkpt lat="49.45961" lon="2.01817">
        <ele>126.1</ele>
        <time>2013-04-20T08:43:11.164Z</time>
      </trkpt>
      <trkpt lat="49.45962" lon="2.01815">
        <ele>124.8</ele>
        <time>2013-04-20T08:43:11.766Z</time>
      </trkpt>
      <trkpt lat="49.45963" lon="2.01813">
        <ele>125.5</ele>
        <time>2013-04-20T08:43:12.764Z</time>
      </trkpt>
      <trkpt lat="49.45965" lon="2.01808">
        <ele>126.2</ele>
        <time>2013-04-20T08:43:15.217Z</time>
      </trkpt>
      <trkpt lat="49.45965" lon="2.01806">
        <ele>125.9</ele>
        <time>2013-04-20T08:43:15.766Z</time>
      </trkpt>
      <trkpt lat="49.45967" lon="2.01801">
        <ele>125</ele>
        <time>2013-04-20T08:43:17.764Z</time>
      </trkpt>
      <trkpt lat="49.45969" lon="2.01797">
        <ele>123.8</ele>
        <time>2013-04-20T08:43:19.773Z</time>
      </trkpt>
      <trkpt lat="49.4597" lon="2.01795">
        <ele>125</ele>
        <time>2013-04-20T08:43:20.770Z</time>
      </trkpt>
      <trkpt lat="49.45972" lon="2.01791">
        <ele>123.4</ele>
        <time>2013-04-20T08:43:22.971Z</time>
      </trkpt>
      <trkpt lat="49.45973" lon="2.01788">
        <ele>121.7</ele>
        <time>2013-04-20T08:43:24.751Z</time>
      </trkpt>
      <trkpt lat="49.45975" lon="2.01783">
        <ele>118.2</ele>
        <time>2013-04-20T08:43:26.765Z</time>
      </trkpt>
      <trkpt lat="49.45974" lon="2.01779">
        <ele>120.1</ele>
        <time>2013-04-20T08:43:28.453Z</time>
      </trkpt>
      <trkpt lat="49.45976" lon="2.01775">
        <ele>120.1</ele>
        <time>2013-04-20T08:43:29.778Z</time>
      </trkpt>
      <trkpt lat="49.45976" lon="2.01773">
        <ele>118.5</ele>
        <time>2013-04-20T08:43:30.774Z</time>
      </trkpt>
      <trkpt lat="49.45977" lon="2.01766">
        <ele>118</ele>
        <time>2013-04-20T08:43:34.765Z</time>
      </trkpt>
      <trkpt lat="49.45977" lon="2.01764">
        <ele>119.7</ele>
        <time>2013-04-20T08:43:35.771Z</time>
      </trkpt>
      <trkpt lat="49.45979" lon="2.01759">
        <ele>119.7</ele>
        <time>2013-04-20T08:43:38.757Z</time>
      </trkpt>
      <trkpt lat="49.4598" lon="2.01757">
        <ele>118.9</ele>
        <time>2013-04-20T08:43:39.955Z</time>
      </trkpt>
      <trkpt lat="49.45982" lon="2.01752">
        <ele>120.1</ele>
        <time>2013-04-20T08:43:42.772Z</time>
      </trkpt>
      <trkpt lat="49.45983" lon="2.01751">
        <ele>120.6</ele>
        <time>2013-04-20T08:43:44.074Z</time>
      </trkpt>
      <trkpt lat="49.45984" lon="2.01745">
        <ele>120.7</ele>
        <time>2013-04-20T08:43:46.753Z</time>
      </trkpt>
      <trkpt lat="49.45985" lon="2.01742">
        <ele>121</ele>
        <time>2013-04-20T08:43:47.729Z</time>
      </trkpt>
      <trkpt lat="49.45986" lon="2.01737">
        <ele>119.4</ele>
        <time>2013-04-20T08:43:50.775Z</time>
      </trkpt>
      <trkpt lat="49.45986" lon="2.01735">
        <ele>119</ele>
        <time>2013-04-20T08:43:51.758Z</time>
      </trkpt>
      <trkpt lat="49.45989" lon="2.01732">
        <ele>119.4</ele>
        <time>2013-04-20T08:43:54.756Z</time>
      </trkpt>
      <trkpt lat="49.4599" lon="2.0173">
        <ele>121</ele>
        <time>2013-04-20T08:43:56.246Z</time>
      </trkpt>
      <trkpt lat="49.45993" lon="2.01726">
        <ele>122.4</ele>
        <time>2013-04-20T08:43:58.792Z</time>
      </trkpt>
      <trkpt lat="49.45994" lon="2.01724">
        <ele>123.6</ele>
        <time>2013-04-20T08:43:59.771Z</time>
      </trkpt>
      <trkpt lat="49.45996" lon="2.0172">
        <ele>123.9</ele>
        <time>2013-04-20T08:44:02.747Z</time>
      </trkpt>
      <trkpt lat="49.45997" lon="2.01719">
        <ele>124.2</ele>
        <time>2013-04-20T08:44:03.782Z</time>
      </trkpt>
      <trkpt lat="49.46" lon="2.01715">
        <ele>124.6</ele>
        <time>2013-04-20T08:44:07.179Z</time>
      </trkpt>
      <trkpt lat="49.46001" lon="2.01714">
        <ele>124.1</ele>
        <time>2013-04-20T08:44:07.766Z</time>
      </trkpt>
      <trkpt lat="49.46004" lon="2.0171">
        <ele>121</ele>
        <time>2013-04-20T08:44:13.760Z</time>
      </trkpt>
      <trkpt lat="49.46005" lon="2.01708">
        <ele>122.1</ele>
        <time>2013-04-20T08:44:15.414Z</time>
      </trkpt>
      <trkpt lat="49.46007" lon="2.01702">
        <ele>122.2</ele>
        <time>2013-04-20T08:44:17.723Z</time>
      </trkpt>
      <trkpt lat="49.46008" lon="2.017">
        <ele>122.6</ele>
        <time>2013-04-20T08:44:18.952Z</time>
      </trkpt>
      <trkpt lat="49.4601" lon="2.01694">
        <ele>124.7</ele>
        <time>2013-04-20T08:44:21.750Z</time>
      </trkpt>
      <trkpt lat="49.4601" lon="2.01688">
        <ele>123.2</ele>
        <time>2013-04-20T08:44:24.488Z</time>
      </trkpt>
      <trkpt lat="49.46011" lon="2.01683">
        <ele>122.1</ele>
        <time>2013-04-20T08:44:26.966Z</time>
      </trkpt>
      <trkpt lat="49.46012" lon="2.0168">
        <ele>122.2</ele>
        <time>2013-04-20T08:44:28.260Z</time>
      </trkpt>
      <trkpt lat="49.46015" lon="2.01675">
        <ele>123.2</ele>
        <time>2013-04-20T08:44:31.296Z</time>
      </trkpt>
      <trkpt lat="49.46015" lon="2.01673">
        <ele>122.5</ele>
        <time>2013-04-20T08:44:31.893Z</time>
      </trkpt>
      <trkpt lat="49.46018" lon="2.01669">
        <ele>122.5</ele>
        <time>2013-04-20T08:44:34.760Z</time>
      </trkpt>
      <trkpt lat="49.4602" lon="2.01665">
        <ele>123.8</ele>
        <time>2013-04-20T08:44:36.846Z</time>
      </trkpt>
      <trkpt lat="49.46023" lon="2.0166">
        <ele>125.3</ele>
        <time>2013-04-20T08:44:39.777Z</time>
      </trkpt>
      <trkpt lat="49.46023" lon="2.01659">
        <ele>125.3</ele>
        <time>2013-04-20T08:44:40.874Z</time>
      </trkpt>
      <trkpt lat="49.46025" lon="2.01654">
        <ele>124.3</ele>
        <time>2013-04-20T08:44:43.753Z</time>
      </trkpt>
      <trkpt lat="49.46026" lon="2.01652">
        <ele>126</ele>
        <time>2013-04-20T08:44:44.759Z</time>
      </trkpt>
      <trkpt lat="49.46028" lon="2.01649">
        <ele>127</ele>
        <time>2013-04-20T08:44:46.763Z</time>
      </trkpt>
      <trkpt lat="49.46028" lon="2.01646">
        <ele>125.5</ele>
        <time>2013-04-20T08:44:48.374Z</time>
      </trkpt>
      <trkpt lat="49.4603" lon="2.0164">
        <ele>123.7</ele>
        <time>2013-04-20T08:44:51.774Z</time>
      </trkpt>
      <trkpt lat="49.46031" lon="2.01638">
        <ele>123.4</ele>
        <time>2013-04-20T08:44:53.305Z</time>
      </trkpt>
      <trkpt lat="49.46033" lon="2.01634">
        <ele>122.9</ele>
        <time>2013-04-20T08:44:55.750Z</time>
      </trkpt>
      <trkpt lat="49.46034" lon="2.01631">
        <ele>123.9</ele>
        <time>2013-04-20T08:44:56.774Z</time>
      </trkpt>
      <trkpt lat="49.46035" lon="2.01627">
        <ele>121.9</ele>
        <time>2013-04-20T08:44:58.754Z</time>
      </trkpt>
      <trkpt lat="49.46036" lon="2.01619">
        <ele>126.5</ele>
        <time>2013-04-20T08:45:01.461Z</time>
      </trkpt>
      <trkpt lat="49.46037" lon="2.01614">
        <ele>128</ele>
        <time>2013-04-20T08:45:01.731Z</time>
      </trkpt>
      <trkpt lat="49.46038" lon="2.01612">
        <ele>127.2</ele>
        <time>2013-04-20T08:45:03.187Z</time>
      </trkpt>
      <trkpt lat="49.46039" lon="2.01606">
        <ele>127.9</ele>
        <time>2013-04-20T08:45:04.765Z</time>
      </trkpt>
      <trkpt lat="49.4604" lon="2.01601">
        <ele>129</ele>
        <time>2013-04-20T08:45:06.456Z</time>
      </trkpt>
      <trkpt lat="49.46041" lon="2.01597">
        <ele>128.7</ele>
        <time>2013-04-20T08:45:07.744Z</time>
      </trkpt>
      <trkpt lat="49.46042" lon="2.01591">
        <ele>131.1</ele>
        <time>2013-04-20T08:45:09.779Z</time>
      </trkpt>
      <trkpt lat="49.46043" lon="2.01586">
        <ele>128.8</ele>
        <time>2013-04-20T08:45:13.084Z</time>
      </trkpt>
      <trkpt lat="49.46044" lon="2.01585">
        <ele>128</ele>
        <time>2013-04-20T08:45:14.248Z</time>
      </trkpt>
      <trkpt lat="49.46046" lon="2.01581">
        <ele>128.8</ele>
        <time>2013-04-20T08:45:17.255Z</time>
      </trkpt>
      <trkpt lat="49.46047" lon="2.01579">
        <ele>128.9</ele>
        <time>2013-04-20T08:45:18.036Z</time>
      </trkpt>
      <trkpt lat="49.46049" lon="2.01576">
        <ele>128.7</ele>
        <time>2013-04-20T08:45:19.877Z</time>
      </trkpt>
      <trkpt lat="49.46051" lon="2.01571">
        <ele>130.2</ele>
        <time>2013-04-20T08:45:22.456Z</time>
      </trkpt>
      <trkpt lat="49.46053" lon="2.0157">
        <ele>130.1</ele>
        <time>2013-04-20T08:45:22.730Z</time>
      </trkpt>
      <trkpt lat="49.46056" lon="2.01567">
        <ele>134.1</ele>
        <time>2013-04-20T08:45:24.763Z</time>
      </trkpt>
      <trkpt lat="49.46059" lon="2.01562">
        <ele>132.9</ele>
        <time>2013-04-20T08:45:27.257Z</time>
      </trkpt>
      <trkpt lat="49.46059" lon="2.01561">
        <ele>131.9</ele>
        <time>2013-04-20T08:45:27.762Z</time>
      </trkpt>
      <trkpt lat="49.46061" lon="2.01556">
        <ele>128.7</ele>
        <time>2013-04-20T08:45:30.764Z</time>
      </trkpt>
      <trkpt lat="49.46059" lon="2.01551">
        <ele>135.5</ele>
        <time>2013-04-20T08:45:32.862Z</time>
      </trkpt>
      <trkpt lat="49.46057" lon="2.01545">
        <ele>141.1</ele>
        <time>2013-04-20T08:45:35.766Z</time>
      </trkpt>
      <trkpt lat="49.46055" lon="2.01542">
        <ele>139.8</ele>
        <time>2013-04-20T08:45:37.320Z</time>
      </trkpt>
      <trkpt lat="49.46053" lon="2.01537">
        <ele>139.2</ele>
        <time>2013-04-20T08:45:39.955Z</time>
      </trkpt>
      <trkpt lat="49.46051" lon="2.01535">
        <ele>141.2</ele>
        <time>2013-04-20T08:45:41.100Z</time>
      </trkpt>
      <trkpt lat="49.46049" lon="2.01532">
        <ele>141.7</ele>
        <time>2013-04-20T08:45:42.776Z</time>
      </trkpt>
      <trkpt lat="49.46047" lon="2.01531">
        <ele>140.2</ele>
        <time>2013-04-20T08:45:44.393Z</time>
      </trkpt>
      <trkpt lat="49.46046" lon="2.01529">
        <ele>138.8</ele>
        <time>2013-04-20T08:45:44.749Z</time>
      </trkpt>
      <trkpt lat="49.46043" lon="2.01526">
        <ele>140.8</ele>
        <time>2013-04-20T08:45:46.770Z</time>
      </trkpt>
      <trkpt lat="49.4604" lon="2.01523">
        <ele>141.3</ele>
        <time>2013-04-20T08:45:48.762Z</time>
      </trkpt>
      <trkpt lat="49.46039" lon="2.01522">
        <ele>141.6</ele>
        <time>2013-04-20T08:45:50.460Z</time>
      </trkpt>
      <trkpt lat="49.46037" lon="2.0152">
        <ele>142.2</ele>
        <time>2013-04-20T08:45:52.952Z</time>
      </trkpt>
      <trkpt lat="49.46034" lon="2.01519">
        <ele>141.9</ele>
        <time>2013-04-20T08:45:54.744Z</time>
      </trkpt>
      <trkpt lat="49.46031" lon="2.01517">
        <ele>143.2</ele>
        <time>2013-04-20T08:45:57.260Z</time>
      </trkpt>
      <trkpt lat="49.46029" lon="2.01514">
        <ele>144.4</ele>
        <time>2013-04-20T08:45:58.427Z</time>
      </trkpt>
      <trkpt lat="49.46029" lon="2.01512">
        <ele>145.3</ele>
        <time>2013-04-20T08:45:58.729Z</time>
      </trkpt>
      <trkpt lat="49.46025" lon="2.01509">
        <ele>150.3</ele>
        <time>2013-04-20T08:46:00.865Z</time>
      </trkpt>
      <trkpt lat="49.46022" lon="2.01504">
        <ele>152.2</ele>
        <time>2013-04-20T08:46:03.249Z</time>
      </trkpt>
      <trkpt lat="49.46021" lon="2.01503">
        <ele>153</ele>
        <time>2013-04-20T08:46:04.184Z</time>
      </trkpt>
      <trkpt lat="49.4602" lon="2.01501">
        <ele>153.4</ele>
        <time>2013-04-20T08:46:05.757Z</time>
      </trkpt>
      <trkpt lat="49.46018" lon="2.01499">
        <ele>154</ele>
        <time>2013-04-20T08:46:08.261Z</time>
      </trkpt>
      <trkpt lat="49.46014" lon="2.01496">
        <ele>156.6</ele>
        <time>2013-04-20T08:46:10.787Z</time>
      </trkpt>
      <trkpt lat="49.46012" lon="2.01494">
        <ele>157.5</ele>
        <time>2013-04-20T08:46:12.062Z</time>
      </trkpt>
      <trkpt lat="49.46011" lon="2.01493">
        <ele>158.6</ele>
        <time>2013-04-20T08:46:12.836Z</time>
      </trkpt>
      <trkpt lat="49.46008" lon="2.0149">
        <ele>159.1</ele>
        <time>2013-04-20T08:46:14.753Z</time>
      </trkpt>
      <trkpt lat="49.46004" lon="2.01487">
        <ele>159.5</ele>
        <time>2013-04-20T08:46:17.260Z</time>
      </trkpt>
      <trkpt lat="49.46003" lon="2.01486">
        <ele>159.6</ele>
        <time>2013-04-20T08:46:17.749Z</time>
      </trkpt>
      <trkpt lat="49.45999" lon="2.01483">
        <ele>161.1</ele>
        <time>2013-04-20T08:46:20.253Z</time>
      </trkpt>
      <trkpt lat="49.45998" lon="2.01482">
        <ele>161.3</ele>
        <time>2013-04-20T08:46:20.761Z</time>
      </trkpt>
      <trkpt lat="49.45995" lon="2.01479">
        <ele>160.9</ele>
        <time>2013-04-20T08:46:23.256Z</time>
      </trkpt>
      <trkpt lat="49.45994" lon="2.01477">
        <ele>157</ele>
        <time>2013-04-20T08:46:23.925Z</time>
      </trkpt>
      <trkpt lat="49.45991" lon="2.01474">
        <ele>154.8</ele>
        <time>2013-04-20T08:46:26.235Z</time>
      </trkpt>
      <trkpt lat="49.4599" lon="2.01472">
        <ele>152.1</ele>
        <time>2013-04-20T08:46:27.195Z</time>
      </trkpt>
      <trkpt lat="49.45988" lon="2.0147">
        <ele>148.3</ele>
        <time>2013-04-20T08:46:28.764Z</time>
      </trkpt>
      <trkpt lat="49.45985" lon="2.01467">
        <ele>152.9</ele>
        <time>2013-04-20T08:46:30.771Z</time>
      </trkpt>
      <trkpt lat="49.45983" lon="2.01464">
        <ele>151.3</ele>
        <time>2013-04-20T08:46:33.257Z</time>
      </trkpt>
      <trkpt lat="49.45982" lon="2.01463">
        <ele>146.4</ele>
        <time>2013-04-20T08:46:33.894Z</time>
      </trkpt>
      <trkpt lat="49.4598" lon="2.0146">
        <ele>139.2</ele>
        <time>2013-04-20T08:46:35.762Z</time>
      </trkpt>
      <trkpt lat="49.45977" lon="2.01457">
        <ele>141.5</ele>
        <time>2013-04-20T08:46:38.260Z</time>
      </trkpt>
      <trkpt lat="49.45975" lon="2.01455">
        <ele>146</ele>
        <time>2013-04-20T08:46:40.956Z</time>
      </trkpt>
      <trkpt lat="49.45973" lon="2.01454">
        <ele>146.3</ele>
        <time>2013-04-20T08:46:42.065Z</time>
      </trkpt>
      <trkpt lat="49.4597" lon="2.0145">
        <ele>147.8</ele>
        <time>2013-04-20T08:46:45.360Z</time>
      </trkpt>
      <trkpt lat="49.45969" lon="2.01449">
        <ele>147.5</ele>
        <time>2013-04-20T08:46:45.727Z</time>
      </trkpt>
      <trkpt lat="49.45967" lon="2.01447">
        <ele>147.6</ele>
        <time>2013-04-20T08:46:46.757Z</time>
      </trkpt>
      <trkpt lat="49.45964" lon="2.01445">
        <ele>149.3</ele>
        <time>2013-04-20T08:46:49.463Z</time>
      </trkpt>
      <trkpt lat="49.45963" lon="2.01444">
        <ele>149.3</ele>
        <time>2013-04-20T08:46:49.728Z</time>
      </trkpt>
      <trkpt lat="49.4596" lon="2.01442">
        <ele>148</ele>
        <time>2013-04-20T08:46:51.949Z</time>
      </trkpt>
      <trkpt lat="49.45958" lon="2.01439">
        <ele>146.8</ele>
        <time>2013-04-20T08:46:53.764Z</time>
      </trkpt>
      <trkpt lat="49.45956" lon="2.01437">
        <ele>149.6</ele>
        <time>2013-04-20T08:46:54.775Z</time>
      </trkpt>
      <trkpt lat="49.45955" lon="2.01435">
        <ele>149.1</ele>
        <time>2013-04-20T08:46:56.765Z</time>
      </trkpt>
      <trkpt lat="49.45951" lon="2.01432">
        <ele>150.7</ele>
        <time>2013-04-20T08:46:59.303Z</time>
      </trkpt>
      <trkpt lat="49.45947" lon="2.01429">
        <ele>147</ele>
        <time>2013-04-20T08:47:01.836Z</time>
      </trkpt>
      <trkpt lat="49.45946" lon="2.01428">
        <ele>143.8</ele>
        <time>2013-04-20T08:47:03.465Z</time>
      </trkpt>
      <trkpt lat="49.45943" lon="2.01426">
        <ele>144.5</ele>
        <time>2013-04-20T08:47:04.766Z</time>
      </trkpt>
      <trkpt lat="49.45942" lon="2.01425">
        <ele>144.6</ele>
        <time>2013-04-20T08:47:06.460Z</time>
      </trkpt>
      <trkpt lat="49.45938" lon="2.01421">
        <ele>146.1</ele>
        <time>2013-04-20T08:47:09.760Z</time>
      </trkpt>
      <trkpt lat="49.45937" lon="2.0142">
        <ele>144.5</ele>
        <time>2013-04-20T08:47:11.248Z</time>
      </trkpt>
      <trkpt lat="49.45934" lon="2.01417">
        <ele>145.3</ele>
        <time>2013-04-20T08:47:14.254Z</time>
      </trkpt>
      <trkpt lat="49.45933" lon="2.01416">
        <ele>144.8</ele>
        <time>2013-04-20T08:47:15.014Z</time>
      </trkpt>
      <trkpt lat="49.45931" lon="2.01413">
        <ele>147.2</ele>
        <time>2013-04-20T08:47:17.750Z</time>
      </trkpt>
      <trkpt lat="49.45928" lon="2.01411">
        <ele>148.1</ele>
        <time>2013-04-20T08:47:19.768Z</time>
      </trkpt>
      <trkpt lat="49.45926" lon="2.01408">
        <ele>149.2</ele>
        <time>2013-04-20T08:47:22.750Z</time>
      </trkpt>
      <trkpt lat="49.45924" lon="2.01407">
        <ele>149.7</ele>
        <time>2013-04-20T08:47:23.760Z</time>
      </trkpt>
      <trkpt lat="49.45921" lon="2.01405">
        <ele>144.3</ele>
        <time>2013-04-20T08:47:26.767Z</time>
      </trkpt>
      <trkpt lat="49.4592" lon="2.01401">
        <ele>154</ele>
        <time>2013-04-20T08:47:28.765Z</time>
      </trkpt>
      <trkpt lat="49.45919" lon="2.01397">
        <ele>158.2</ele>
        <time>2013-04-20T08:47:31.756Z</time>
      </trkpt>
      <trkpt lat="49.45916" lon="2.01394">
        <ele>156.3</ele>
        <time>2013-04-20T08:47:34.257Z</time>
      </trkpt>
      <trkpt lat="49.45913" lon="2.0139">
        <ele>151.1</ele>
        <time>2013-04-20T08:47:37.774Z</time>
      </trkpt>
      <trkpt lat="49.45911" lon="2.01388">
        <ele>151.5</ele>
        <time>2013-04-20T08:47:38.771Z</time>
      </trkpt>
      <trkpt lat="49.45908" lon="2.01385">
        <ele>152.3</ele>
        <time>2013-04-20T08:47:40.752Z</time>
      </trkpt>
      <trkpt lat="49.45906" lon="2.01383">
        <ele>151.3</ele>
        <time>2013-04-20T08:47:41.726Z</time>
      </trkpt>
      <trkpt lat="49.45903" lon="2.01379">
        <ele>149.2</ele>
        <time>2013-04-20T08:47:44.752Z</time>
      </trkpt>
      <trkpt lat="49.45901" lon="2.01377">
        <ele>153.7</ele>
        <time>2013-04-20T08:47:46.257Z</time>
      </trkpt>
      <trkpt lat="49.45899" lon="2.01375">
        <ele>156.9</ele>
        <time>2013-04-20T08:47:47.750Z</time>
      </trkpt>
      <trkpt lat="49.45896" lon="2.01373">
        <ele>158</ele>
        <time>2013-04-20T08:47:49.752Z</time>
      </trkpt>
      <trkpt lat="49.45894" lon="2.01369">
        <ele>147.7</ele>
        <time>2013-04-20T08:47:52.920Z</time>
      </trkpt>
      <trkpt lat="49.45893" lon="2.01368">
        <ele>145.3</ele>
        <time>2013-04-20T08:47:53.763Z</time>
      </trkpt>
      <trkpt lat="49.45891" lon="2.01364">
        <ele>143.7</ele>
        <time>2013-04-20T08:47:56.738Z</time>
      </trkpt>
      <trkpt lat="49.45889" lon="2.01361">
        <ele>141.2</ele>
        <time>2013-04-20T08:47:59.256Z</time>
      </trkpt>
      <trkpt lat="49.45886" lon="2.01359">
        <ele>140.8</ele>
        <time>2013-04-20T08:48:01.775Z</time>
      </trkpt>
      <trkpt lat="49.45884" lon="2.01358">
        <ele>142.5</ele>
        <time>2013-04-20T08:48:03.766Z</time>
      </trkpt>
      <trkpt lat="49.45881" lon="2.01356">
        <ele>143</ele>
        <time>2013-04-20T08:48:07.245Z</time>
      </trkpt>
      <trkpt lat="49.4588" lon="2.01355">
        <ele>142.9</ele>
        <time>2013-04-20T08:48:07.780Z</time>
      </trkpt>
      <trkpt lat="49.45876" lon="2.01351">
        <ele>143.2</ele>
        <time>2013-04-20T08:48:12.957Z</time>
      </trkpt>
      <trkpt lat="49.45876" lon="2.01349">
        <ele>144.4</ele>
        <time>2013-04-20T08:48:13.954Z</time>
      </trkpt>
      <trkpt lat="49.45874" lon="2.01348">
        <ele>144.2</ele>
        <time>2013-04-20T08:48:14.950Z</time>
      </trkpt>
      <trkpt lat="49.45871" lon="2.01345">
        <ele>144.3</ele>
        <time>2013-04-20T08:48:17.253Z</time>
      </trkpt>
      <trkpt lat="49.45867" lon="2.01341">
        <ele>144.2</ele>
        <time>2013-04-20T08:48:20.257Z</time>
      </trkpt>
      <trkpt lat="49.45866" lon="2.0134">
        <ele>143.6</ele>
        <time>2013-04-20T08:48:20.760Z</time>
      </trkpt>
      <trkpt lat="49.45863" lon="2.01337">
        <ele>144.1</ele>
        <time>2013-04-20T08:48:23.250Z</time>
      </trkpt>
      <trkpt lat="49.45862" lon="2.01336">
        <ele>143.6</ele>
        <time>2013-04-20T08:48:23.764Z</time>
      </trkpt>
      <trkpt lat="49.45859" lon="2.01334">
        <ele>145.2</ele>
        <time>2013-04-20T08:48:25.873Z</time>
      </trkpt>
      <trkpt lat="49.45857" lon="2.01333">
        <ele>146.5</ele>
        <time>2013-04-20T08:48:27.461Z</time>
      </trkpt>
      <trkpt lat="49.45853" lon="2.01331">
        <ele>146.5</ele>
        <time>2013-04-20T08:48:29.164Z</time>
      </trkpt>
      <trkpt lat="49.45852" lon="2.0133">
        <ele>147.7</ele>
        <time>2013-04-20T08:48:30.245Z</time>
      </trkpt>
      <trkpt lat="49.45849" lon="2.01329">
        <ele>149.1</ele>
        <time>2013-04-20T08:48:31.731Z</time>
      </trkpt>
      <trkpt lat="49.45847" lon="2.01328">
        <ele>149.3</ele>
        <time>2013-04-20T08:48:32.956Z</time>
      </trkpt>
      <trkpt lat="49.45843" lon="2.01326">
        <ele>150.7</ele>
        <time>2013-04-20T08:48:35.259Z</time>
      </trkpt>
      <trkpt lat="49.45841" lon="2.01326">
        <ele>151.8</ele>
        <time>2013-04-20T08:48:35.773Z</time>
      </trkpt>
      <trkpt lat="49.45838" lon="2.01323">
        <ele>152.2</ele>
        <time>2013-04-20T08:48:37.770Z</time>
      </trkpt>
      <trkpt lat="49.45837" lon="2.01322">
        <ele>151.2</ele>
        <time>2013-04-20T08:48:39.055Z</time>
      </trkpt>
      <trkpt lat="49.45834" lon="2.01319">
        <ele>149.7</ele>
        <time>2013-04-20T08:48:41.733Z</time>
      </trkpt>
      <trkpt lat="49.45833" lon="2.01318">
        <ele>148.3</ele>
        <time>2013-04-20T08:48:42.770Z</time>
      </trkpt>
      <trkpt lat="49.45829" lon="2.01315">
        <ele>150.4</ele>
        <time>2013-04-20T08:48:46.944Z</time>
      </trkpt>
      <trkpt lat="49.45827" lon="2.01313">
        <ele>150.4</ele>
        <time>2013-04-20T08:48:48.741Z</time>
      </trkpt>
      <trkpt lat="49.45823" lon="2.01309">
        <ele>151.4</ele>
        <time>2013-04-20T08:48:52.226Z</time>
      </trkpt>
      <trkpt lat="49.45823" lon="2.01308">
        <ele>151.3</ele>
        <time>2013-04-20T08:48:52.750Z</time>
      </trkpt>
      <trkpt lat="49.45819" lon="2.01305">
        <ele>152.9</ele>
        <time>2013-04-20T08:48:55.748Z</time>
      </trkpt>
      <trkpt lat="49.45817" lon="2.01303">
        <ele>151.7</ele>
        <time>2013-04-20T08:48:57.768Z</time>
      </trkpt>
      <trkpt lat="49.45813" lon="2.01301">
        <ele>154</ele>
        <time>2013-04-20T08:49:01.757Z</time>
      </trkpt>
      <trkpt lat="49.45812" lon="2.01299">
        <ele>154.1</ele>
        <time>2013-04-20T08:49:03.760Z</time>
      </trkpt>
      <trkpt lat="49.4581" lon="2.01293">
        <ele>150.2</ele>
        <time>2013-04-20T08:49:09.009Z</time>
      </trkpt>
      <trkpt lat="49.45809" lon="2.01292">
        <ele>150.6</ele>
        <time>2013-04-20T08:49:09.951Z</time>
      </trkpt>
      <trkpt lat="49.45806" lon="2.01291">
        <ele>148.6</ele>
        <time>2013-04-20T08:49:11.995Z</time>
      </trkpt>
      <trkpt lat="49.45804" lon="2.01289">
        <ele>148.8</ele>
        <time>2013-04-20T08:49:12.838Z</time>
      </trkpt>
      <trkpt lat="49.45801" lon="2.01286">
        <ele>154.3</ele>
        <time>2013-04-20T08:49:15.298Z</time>
      </trkpt>
      <trkpt lat="49.458" lon="2.01284">
        <ele>154.4</ele>
        <time>2013-04-20T08:49:16.459Z</time>
      </trkpt>
      <trkpt lat="49.45797" lon="2.01282">
        <ele>155.7</ele>
        <time>2013-04-20T08:49:18.254Z</time>
      </trkpt>
      <trkpt lat="49.45795" lon="2.01281">
        <ele>157.3</ele>
        <time>2013-04-20T08:49:19.253Z</time>
      </trkpt>
      <trkpt lat="49.45792" lon="2.01279">
        <ele>160.5</ele>
        <time>2013-04-20T08:49:21.257Z</time>
      </trkpt>
      <trkpt lat="49.4579" lon="2.01278">
        <ele>158.9</ele>
        <time>2013-04-20T08:49:21.891Z</time>
      </trkpt>
      <trkpt lat="49.45788" lon="2.01277">
        <ele>158.2</ele>
        <time>2013-04-20T08:49:23.794Z</time>
      </trkpt>
      <trkpt lat="49.45786" lon="2.01275">
        <ele>155.8</ele>
        <time>2013-04-20T08:49:26.264Z</time>
      </trkpt>
      <trkpt lat="49.45783" lon="2.01272">
        <ele>154.5</ele>
        <time>2013-04-20T08:49:28.761Z</time>
      </trkpt>
      <trkpt lat="49.45782" lon="2.0127">
        <ele>154.7</ele>
        <time>2013-04-20T08:49:29.759Z</time>
      </trkpt>
      <trkpt lat="49.45778" lon="2.01267">
        <ele>151.1</ele>
        <time>2013-04-20T08:49:33.750Z</time>
      </trkpt>
      <trkpt lat="49.45776" lon="2.01266">
        <ele>154.2</ele>
        <time>2013-04-20T08:49:36.455Z</time>
      </trkpt>
      <trkpt lat="49.45771" lon="2.01265">
        <ele>153.7</ele>
        <time>2013-04-20T08:49:38.770Z</time>
      </trkpt>
      <trkpt lat="49.4577" lon="2.01265">
        <ele>154.4</ele>
        <time>2013-04-20T08:49:40.011Z</time>
      </trkpt>
      <trkpt lat="49.45766" lon="2.01266">
        <ele>153.2</ele>
        <time>2013-04-20T08:49:42.757Z</time>
      </trkpt>
      <trkpt lat="49.45765" lon="2.01267">
        <ele>153</ele>
        <time>2013-04-20T08:49:44.952Z</time>
      </trkpt>
      <trkpt lat="49.45762" lon="2.0127">
        <ele>152.9</ele>
        <time>2013-04-20T08:49:48.770Z</time>
      </trkpt>
      <trkpt lat="49.45761" lon="2.01272">
        <ele>154.4</ele>
        <time>2013-04-20T08:49:51.249Z</time>
      </trkpt>
      <trkpt lat="49.45759" lon="2.01278">
        <ele>155.8</ele>
        <time>2013-04-20T08:49:55.949Z</time>
      </trkpt>
      <trkpt lat="49.45758" lon="2.0128">
        <ele>156.3</ele>
        <time>2013-04-20T08:49:56.964Z</time>
      </trkpt>
      <trkpt lat="49.45755" lon="2.01285">
        <ele>156.6</ele>
        <time>2013-04-20T08:50:00.944Z</time>
      </trkpt>
      <trkpt lat="49.45755" lon="2.01286">
        <ele>156.8</ele>
        <time>2013-04-20T08:50:02.286Z</time>
      </trkpt>
      <trkpt lat="49.45753" lon="2.01291">
        <ele>156.1</ele>
        <time>2013-04-20T08:50:08.763Z</time>
      </trkpt>
      <trkpt lat="49.45753" lon="2.01294">
        <ele>158.2</ele>
        <time>2013-04-20T08:50:09.955Z</time>
      </trkpt>
      <trkpt lat="49.4575" lon="2.01298">
        <ele>159.4</ele>
        <time>2013-04-20T08:50:12.952Z</time>
      </trkpt>
      <trkpt lat="49.45749" lon="2.013">
        <ele>160.5</ele>
        <time>2013-04-20T08:50:13.759Z</time>
      </trkpt>
      <trkpt lat="49.45746" lon="2.01304">
        <ele>158</ele>
        <time>2013-04-20T08:50:16.757Z</time>
      </trkpt>
      <trkpt lat="49.45744" lon="2.01308">
        <ele>159.9</ele>
        <time>2013-04-20T08:50:18.765Z</time>
      </trkpt>
      <trkpt lat="49.45741" lon="2.01311">
        <ele>161.7</ele>
        <time>2013-04-20T08:50:20.961Z</time>
      </trkpt>
      <trkpt lat="49.4574" lon="2.01313">
        <ele>162.4</ele>
        <time>2013-04-20T08:50:21.951Z</time>
      </trkpt>
      <trkpt lat="49.45739" lon="2.01319">
        <ele>165</ele>
        <time>2013-04-20T08:50:23.955Z</time>
      </trkpt>
      <trkpt lat="49.45738" lon="2.01321">
        <ele>164.6</ele>
        <time>2013-04-20T08:50:24.956Z</time>
      </trkpt>
      <trkpt lat="49.45736" lon="2.01326">
        <ele>162.3</ele>
        <time>2013-04-20T08:50:29.949Z</time>
      </trkpt>
      <trkpt lat="49.45734" lon="2.01327">
        <ele>163.4</ele>
        <time>2013-04-20T08:50:30.770Z</time>
      </trkpt>
      <trkpt lat="49.45731" lon="2.01331">
        <ele>165.6</ele>
        <time>2013-04-20T08:50:33.959Z</time>
      </trkpt>
      <trkpt lat="49.4573" lon="2.01332">
        <ele>166.1</ele>
        <time>2013-04-20T08:50:34.941Z</time>
      </trkpt>
      <trkpt lat="49.45727" lon="2.01337">
        <ele>160.2</ele>
        <time>2013-04-20T08:50:39.758Z</time>
      </trkpt>
      <trkpt lat="49.45726" lon="2.01339">
        <ele>162</ele>
        <time>2013-04-20T08:50:41.765Z</time>
      </trkpt>
      <trkpt lat="49.45724" lon="2.01343">
        <ele>165</ele>
        <time>2013-04-20T08:50:44.750Z</time>
      </trkpt>
      <trkpt lat="49.45723" lon="2.01346">
        <ele>165.6</ele>
        <time>2013-04-20T08:50:46.760Z</time>
      </trkpt>
      <trkpt lat="49.45721" lon="2.01349">
        <ele>164.4</ele>
        <time>2013-04-20T08:50:50.761Z</time>
      </trkpt>
      <trkpt lat="49.45719" lon="2.01351">
        <ele>164.3</ele>
        <time>2013-04-20T08:50:52.767Z</time>
      </trkpt>
      <trkpt lat="49.45717" lon="2.01354">
        <ele>163.6</ele>
        <time>2013-04-20T08:50:54.955Z</time>
      </trkpt>
      <trkpt lat="49.45716" lon="2.01357">
        <ele>164</ele>
        <time>2013-04-20T08:50:55.778Z</time>
      </trkpt>
      <trkpt lat="49.45713" lon="2.01362">
        <ele>164.5</ele>
        <time>2013-04-20T08:50:58.255Z</time>
      </trkpt>
      <trkpt lat="49.45711" lon="2.01364">
        <ele>160.3</ele>
        <time>2013-04-20T08:50:59.092Z</time>
      </trkpt>
      <trkpt lat="49.45708" lon="2.01369">
        <ele>160.7</ele>
        <time>2013-04-20T08:51:00.761Z</time>
      </trkpt>
      <trkpt lat="49.45706" lon="2.01371">
        <ele>164.3</ele>
        <time>2013-04-20T08:51:01.757Z</time>
      </trkpt>
      <trkpt lat="49.45705" lon="2.01377">
        <ele>164.4</ele>
        <time>2013-04-20T08:51:04.762Z</time>
      </trkpt>
      <trkpt lat="49.45704" lon="2.01379">
        <ele>165.2</ele>
        <time>2013-04-20T08:51:05.755Z</time>
      </trkpt>
      <trkpt lat="49.45702" lon="2.01383">
        <ele>165.1</ele>
        <time>2013-04-20T08:51:07.730Z</time>
      </trkpt>
      <trkpt lat="49.45701" lon="2.01386">
        <ele>165.2</ele>
        <time>2013-04-20T08:51:08.770Z</time>
      </trkpt>
      <trkpt lat="49.45697" lon="2.0139">
        <ele>166.4</ele>
        <time>2013-04-20T08:51:09.755Z</time>
      </trkpt>
      <trkpt lat="49.45695" lon="2.01393">
        <ele>166.9</ele>
        <time>2013-04-20T08:51:10.742Z</time>
      </trkpt>
      <trkpt lat="49.45693" lon="2.01398">
        <ele>167.6</ele>
        <time>2013-04-20T08:51:16.422Z</time>
      </trkpt>
      <trkpt lat="49.45692" lon="2.01399">
        <ele>167.6</ele>
        <time>2013-04-20T08:51:16.755Z</time>
      </trkpt>
      <trkpt lat="49.4569" lon="2.01403">
        <ele>172.9</ele>
        <time>2013-04-20T08:51:18.875Z</time>
      </trkpt>
      <trkpt lat="49.45689" lon="2.01405">
        <ele>174.2</ele>
        <time>2013-04-20T08:51:19.763Z</time>
      </trkpt>
      <trkpt lat="49.45686" lon="2.0141">
        <ele>174.6</ele>
        <time>2013-04-20T08:51:21.955Z</time>
      </trkpt>
      <trkpt lat="49.45684" lon="2.01412">
        <ele>174.3</ele>
        <time>2013-04-20T08:51:22.951Z</time>
      </trkpt>
      <trkpt lat="49.45682" lon="2.01415">
        <ele>175.1</ele>
        <time>2013-04-20T08:51:24.752Z</time>
      </trkpt>
      <trkpt lat="49.45681" lon="2.01417">
        <ele>175.2</ele>
        <time>2013-04-20T08:51:25.955Z</time>
      </trkpt>
      <trkpt lat="49.45679" lon="2.01421">
        <ele>174.1</ele>
        <time>2013-04-20T08:51:27.764Z</time>
      </trkpt>
      <trkpt lat="49.45679" lon="2.01425">
        <ele>175.7</ele>
        <time>2013-04-20T08:51:30.386Z</time>
      </trkpt>
      <trkpt lat="49.45678" lon="2.01431">
        <ele>178.3</ele>
        <time>2013-04-20T08:51:32.768Z</time>
      </trkpt>
      <trkpt lat="49.45677" lon="2.01433">
        <ele>178.4</ele>
        <time>2013-04-20T08:51:33.754Z</time>
      </trkpt>
      <trkpt lat="49.45677" lon="2.01434">
        <ele>178.5</ele>
        <time>2013-04-20T08:51:34.762Z</time>
      </trkpt>
      <trkpt lat="49.45675" lon="2.01439">
        <ele>178.6</ele>
        <time>2013-04-20T08:51:35.960Z</time>
      </trkpt>
      <trkpt lat="49.45672" lon="2.01443">
        <ele>178.9</ele>
        <time>2013-04-20T08:51:38.760Z</time>
      </trkpt>
      <trkpt lat="49.4567" lon="2.01445">
        <ele>179.5</ele>
        <time>2013-04-20T08:51:40.775Z</time>
      </trkpt>
      <trkpt lat="49.45667" lon="2.0145">
        <ele>179.5</ele>
        <time>2013-04-20T08:51:47.754Z</time>
      </trkpt>
      <trkpt lat="49.45667" lon="2.01451">
        <ele>179.5</ele>
        <time>2013-04-20T08:51:48.741Z</time>
      </trkpt>
      <trkpt lat="49.45665" lon="2.01454">
        <ele>179.7</ele>
        <time>2013-04-20T08:51:51.750Z</time>
      </trkpt>
      <trkpt lat="49.45664" lon="2.01456">
        <ele>180.2</ele>
        <time>2013-04-20T08:51:52.744Z</time>
      </trkpt>
      <trkpt lat="49.45663" lon="2.01458">
        <ele>180.4</ele>
        <time>2013-04-20T08:51:53.757Z</time>
      </trkpt>
      <trkpt lat="49.45661" lon="2.01462">
        <ele>181</ele>
        <time>2013-04-20T08:51:55.115Z</time>
      </trkpt>
      <trkpt lat="49.45661" lon="2.01463">
        <ele>181</ele>
        <time>2013-04-20T08:51:55.725Z</time>
      </trkpt>
      <trkpt lat="49.45658" lon="2.01468">
        <ele>182</ele>
        <time>2013-04-20T08:51:58.252Z</time>
      </trkpt>
      <trkpt lat="49.45657" lon="2.01469">
        <ele>181.9</ele>
        <time>2013-04-20T08:51:58.758Z</time>
      </trkpt>
      <trkpt lat="49.45652" lon="2.01474">
        <ele>186.1</ele>
        <time>2013-04-20T08:52:00.946Z</time>
      </trkpt>
      <trkpt lat="49.45651" lon="2.01476">
        <ele>185.9</ele>
        <time>2013-04-20T08:52:01.771Z</time>
      </trkpt>
      <trkpt lat="49.45649" lon="2.01478">
        <ele>186.1</ele>
        <time>2013-04-20T08:52:03.261Z</time>
      </trkpt>
      <trkpt lat="49.45648" lon="2.01479">
        <ele>186.4</ele>
        <time>2013-04-20T08:52:03.748Z</time>
      </trkpt>
      <trkpt lat="49.45644" lon="2.01483">
        <ele>186.2</ele>
        <time>2013-04-20T08:52:06.005Z</time>
      </trkpt>
      <trkpt lat="49.45642" lon="2.01486">
        <ele>188.3</ele>
        <time>2013-04-20T08:52:07.766Z</time>
      </trkpt>
      <trkpt lat="49.4564" lon="2.01487">
        <ele>187.9</ele>
        <time>2013-04-20T08:52:08.955Z</time>
      </trkpt>
      <trkpt lat="49.45639" lon="2.0149">
        <ele>187.8</ele>
        <time>2013-04-20T08:52:09.956Z</time>
      </trkpt>
      <trkpt lat="49.45637" lon="2.01492">
        <ele>188</ele>
        <time>2013-04-20T08:52:10.975Z</time>
      </trkpt>
      <trkpt lat="49.45634" lon="2.01496">
        <ele>186.6</ele>
        <time>2013-04-20T08:52:13.254Z</time>
      </trkpt>
      <trkpt lat="49.45633" lon="2.01499">
        <ele>187.2</ele>
        <time>2013-04-20T08:52:14.316Z</time>
      </trkpt>
      <trkpt lat="49.4563" lon="2.01503">
        <ele>183</ele>
        <time>2013-04-20T08:52:16.764Z</time>
      </trkpt>
      <trkpt lat="49.45629" lon="2.01504">
        <ele>182.6</ele>
        <time>2013-04-20T08:52:17.744Z</time>
      </trkpt>
      <trkpt lat="49.45626" lon="2.0151">
        <ele>181.9</ele>
        <time>2013-04-20T08:52:21.962Z</time>
      </trkpt>
      <trkpt lat="49.45625" lon="2.01512">
        <ele>182.6</ele>
        <time>2013-04-20T08:52:22.950Z</time>
      </trkpt>
      <trkpt lat="49.45624" lon="2.01515">
        <ele>182.7</ele>
        <time>2013-04-20T08:52:24.767Z</time>
      </trkpt>
      <trkpt lat="49.45622" lon="2.01518">
        <ele>182.8</ele>
        <time>2013-04-20T08:52:25.959Z</time>
      </trkpt>
      <trkpt lat="49.45621" lon="2.01519">
        <ele>182.4</ele>
        <time>2013-04-20T08:52:27.756Z</time>
      </trkpt>
      <trkpt lat="49.45618" lon="2.01525">
        <ele>189.4</ele>
        <time>2013-04-20T08:52:29.756Z</time>
      </trkpt>
      <trkpt lat="49.45617" lon="2.01531">
        <ele>194.3</ele>
        <time>2013-04-20T08:52:31.771Z</time>
      </trkpt>
      <trkpt lat="49.45616" lon="2.01535">
        <ele>195.1</ele>
        <time>2013-04-20T08:52:32.954Z</time>
      </trkpt>
      <trkpt lat="49.45615" lon="2.01539">
        <ele>195.5</ele>
        <time>2013-04-20T08:52:33.955Z</time>
      </trkpt>
      <trkpt lat="49.45615" lon="2.01542">
        <ele>195.2</ele>
        <time>2013-04-20T08:52:34.924Z</time>
      </trkpt>
      <trkpt lat="49.45613" lon="2.01548">
        <ele>186.6</ele>
        <time>2013-04-20T08:52:46.953Z</time>
      </trkpt>
      <trkpt lat="49.45612" lon="2.01549">
        <ele>183.5</ele>
        <time>2013-04-20T08:52:47.863Z</time>
      </trkpt>
      <trkpt lat="49.4561" lon="2.0155">
        <ele>183.1</ele>
        <time>2013-04-20T08:52:50.760Z</time>
      </trkpt>
      <trkpt lat="49.45607" lon="2.01554">
        <ele>184.6</ele>
        <time>2013-04-20T08:52:52.745Z</time>
      </trkpt>
      <trkpt lat="49.45604" lon="2.01557">
        <ele>184.8</ele>
        <time>2013-04-20T08:52:54.954Z</time>
      </trkpt>
      <trkpt lat="49.45602" lon="2.01559">
        <ele>185.3</ele>
        <time>2013-04-20T08:52:55.755Z</time>
      </trkpt>
      <trkpt lat="49.456" lon="2.01563">
        <ele>185.7</ele>
        <time>2013-04-20T08:52:57.762Z</time>
      </trkpt>
      <trkpt lat="49.45599" lon="2.01566">
        <ele>184.7</ele>
        <time>2013-04-20T08:52:59.256Z</time>
      </trkpt>
      <trkpt lat="49.45596" lon="2.0157">
        <ele>184</ele>
        <time>2013-04-20T08:53:02.771Z</time>
      </trkpt>
      <trkpt lat="49.45595" lon="2.01574">
        <ele>184.4</ele>
        <time>2013-04-20T08:53:04.242Z</time>
      </trkpt>
      <trkpt lat="49.45592" lon="2.01579">
        <ele>184.7</ele>
        <time>2013-04-20T08:53:06.823Z</time>
      </trkpt>
      <trkpt lat="49.45591" lon="2.0158">
        <ele>184.8</ele>
        <time>2013-04-20T08:53:07.950Z</time>
      </trkpt>
      <trkpt lat="49.45589" lon="2.01584">
        <ele>186</ele>
        <time>2013-04-20T08:53:09.753Z</time>
      </trkpt>
      <trkpt lat="49.45587" lon="2.01584">
        <ele>185.8</ele>
        <time>2013-04-20T08:53:10.764Z</time>
      </trkpt>
      <trkpt lat="49.45585" lon="2.01585">
        <ele>185.2</ele>
        <time>2013-04-20T08:53:12.956Z</time>
      </trkpt>
      <trkpt lat="49.45583" lon="2.01587">
        <ele>185.8</ele>
        <time>2013-04-20T08:53:14.759Z</time>
      </trkpt>
      <trkpt lat="49.45581" lon="2.01588">
        <ele>181.2</ele>
        <time>2013-04-20T08:53:18.734Z</time>
      </trkpt>
      <trkpt lat="49.45578" lon="2.01592">
        <ele>183.7</ele>
        <time>2013-04-20T08:53:20.790Z</time>
      </trkpt>
      <trkpt lat="49.45575" lon="2.01595">
        <ele>187.5</ele>
        <time>2013-04-20T08:53:22.949Z</time>
      </trkpt>
      <trkpt lat="49.45574" lon="2.01596">
        <ele>185.1</ele>
        <time>2013-04-20T08:53:23.940Z</time>
      </trkpt>
      <trkpt lat="49.45572" lon="2.016">
        <ele>185.6</ele>
        <time>2013-04-20T08:53:25.767Z</time>
      </trkpt>
      <trkpt lat="49.45571" lon="2.01602">
        <ele>182.8</ele>
        <time>2013-04-20T08:53:27.232Z</time>
      </trkpt>
      <trkpt lat="49.45568" lon="2.01606">
        <ele>180.6</ele>
        <time>2013-04-20T08:53:31.256Z</time>
      </trkpt>
      <trkpt lat="49.45567" lon="2.01607">
        <ele>180.5</ele>
        <time>2013-04-20T08:53:32.299Z</time>
      </trkpt>
      <trkpt lat="49.45564" lon="2.01611">
        <ele>171.9</ele>
        <time>2013-04-20T08:53:35.756Z</time>
      </trkpt>
      <trkpt lat="49.45563" lon="2.01612">
        <ele>171.1</ele>
        <time>2013-04-20T08:53:36.751Z</time>
      </trkpt>
      <trkpt lat="49.45561" lon="2.01617">
        <ele>172.4</ele>
        <time>2013-04-20T08:53:38.951Z</time>
      </trkpt>
      <trkpt lat="49.4556" lon="2.01618">
        <ele>172.9</ele>
        <time>2013-04-20T08:53:39.952Z</time>
      </trkpt>
      <trkpt lat="49.45557" lon="2.01623">
        <ele>174.5</ele>
        <time>2013-04-20T08:53:42.232Z</time>
      </trkpt>
      <trkpt lat="49.45557" lon="2.01624">
        <ele>174.6</ele>
        <time>2013-04-20T08:53:42.783Z</time>
      </trkpt>
      <trkpt lat="49.45555" lon="2.01628">
        <ele>174.4</ele>
        <time>2013-04-20T08:53:44.957Z</time>
      </trkpt>
      <trkpt lat="49.45554" lon="2.0163">
        <ele>173.9</ele>
        <time>2013-04-20T08:53:45.947Z</time>
      </trkpt>
      <trkpt lat="49.45552" lon="2.01635">
        <ele>173.5</ele>
        <time>2013-04-20T08:53:47.951Z</time>
      </trkpt>
      <trkpt lat="49.45552" lon="2.01638">
        <ele>174.5</ele>
        <time>2013-04-20T08:53:48.803Z</time>
      </trkpt>
      <trkpt lat="49.4555" lon="2.01642">
        <ele>174.4</ele>
        <time>2013-04-20T08:53:50.953Z</time>
      </trkpt>
      <trkpt lat="49.45549" lon="2.01645">
        <ele>175.8</ele>
        <time>2013-04-20T08:53:51.762Z</time>
      </trkpt>
      <trkpt lat="49.45549" lon="2.01646">
        <ele>175.8</ele>
        <time>2013-04-20T08:53:52.739Z</time>
      </trkpt>
      <trkpt lat="49.45546" lon="2.01651">
        <ele>173</ele>
        <time>2013-04-20T08:53:53.761Z</time>
      </trkpt>
      <trkpt lat="49.45544" lon="2.01654">
        <ele>173.5</ele>
        <time>2013-04-20T08:53:54.760Z</time>
      </trkpt>
      <trkpt lat="49.45543" lon="2.01657">
        <ele>174.3</ele>
        <time>2013-04-20T08:53:55.950Z</time>
      </trkpt>
      <trkpt lat="49.45539" lon="2.0166">
        <ele>171.5</ele>
        <time>2013-04-20T08:53:57.784Z</time>
      </trkpt>
      <trkpt lat="49.45538" lon="2.01663">
        <ele>172.9</ele>
        <time>2013-04-20T08:53:58.954Z</time>
      </trkpt>
      <trkpt lat="49.45537" lon="2.01666">
        <ele>174.3</ele>
        <time>2013-04-20T08:53:59.960Z</time>
      </trkpt>
      <trkpt lat="49.45535" lon="2.01668">
        <ele>175</ele>
        <time>2013-04-20T08:54:00.770Z</time>
      </trkpt>
      <trkpt lat="49.45533" lon="2.01674">
        <ele>175.1</ele>
        <time>2013-04-20T08:54:02.955Z</time>
      </trkpt>
      <trkpt lat="49.45532" lon="2.01676">
        <ele>175.9</ele>
        <time>2013-04-20T08:54:04.246Z</time>
      </trkpt>
      <trkpt lat="49.45529" lon="2.01681">
        <ele>176.1</ele>
        <time>2013-04-20T08:54:06.942Z</time>
      </trkpt>
      <trkpt lat="49.45528" lon="2.01684">
        <ele>176.9</ele>
        <time>2013-04-20T08:54:07.919Z</time>
      </trkpt>
      <trkpt lat="49.45525" lon="2.01687">
        <ele>172.6</ele>
        <time>2013-04-20T08:54:10.746Z</time>
      </trkpt>
      <trkpt lat="49.45523" lon="2.01689">
        <ele>172.2</ele>
        <time>2013-04-20T08:54:11.742Z</time>
      </trkpt>
      <trkpt lat="49.45521" lon="2.01691">
        <ele>173.9</ele>
        <time>2013-04-20T08:54:12.768Z</time>
      </trkpt>
      <trkpt lat="49.45519" lon="2.01693">
        <ele>171.6</ele>
        <time>2013-04-20T08:54:14.130Z</time>
      </trkpt>
      <trkpt lat="49.45516" lon="2.01697">
        <ele>172.4</ele>
        <time>2013-04-20T08:54:16.246Z</time>
      </trkpt>
      <trkpt lat="49.45514" lon="2.01699">
        <ele>172.9</ele>
        <time>2013-04-20T08:54:16.820Z</time>
      </trkpt>
      <trkpt lat="49.45512" lon="2.01704">
        <ele>175.5</ele>
        <time>2013-04-20T08:54:19.244Z</time>
      </trkpt>
      <trkpt lat="49.45511" lon="2.01706">
        <ele>175.6</ele>
        <time>2013-04-20T08:54:20.120Z</time>
      </trkpt>
      <trkpt lat="49.45508" lon="2.0171">
        <ele>174.6</ele>
        <time>2013-04-20T08:54:30.762Z</time>
      </trkpt>
      <trkpt lat="49.45507" lon="2.01711">
        <ele>176.8</ele>
        <time>2013-04-20T08:54:31.760Z</time>
      </trkpt>
      <trkpt lat="49.45505" lon="2.01715">
        <ele>178.8</ele>
        <time>2013-04-20T08:54:34.793Z</time>
      </trkpt>
      <trkpt lat="49.45504" lon="2.01716">
        <ele>179.6</ele>
        <time>2013-04-20T08:54:35.760Z</time>
      </trkpt>
      <trkpt lat="49.45502" lon="2.01719">
        <ele>178.3</ele>
        <time>2013-04-20T08:54:37.747Z</time>
      </trkpt>
      <trkpt lat="49.45501" lon="2.01721">
        <ele>178.3</ele>
        <time>2013-04-20T08:54:38.761Z</time>
      </trkpt>
      <trkpt lat="49.45498" lon="2.01725">
        <ele>177.7</ele>
        <time>2013-04-20T08:54:40.761Z</time>
      </trkpt>
      <trkpt lat="49.45496" lon="2.01726">
        <ele>176.8</ele>
        <time>2013-04-20T08:54:41.747Z</time>
      </trkpt>
      <trkpt lat="49.45494" lon="2.01729">
        <ele>172.7</ele>
        <time>2013-04-20T08:54:43.757Z</time>
      </trkpt>
      <trkpt lat="49.45492" lon="2.01731">
        <ele>171.6</ele>
        <time>2013-04-20T08:54:44.745Z</time>
      </trkpt>
      <trkpt lat="49.45489" lon="2.01735">
        <ele>170.4</ele>
        <time>2013-04-20T08:54:47.954Z</time>
      </trkpt>
      <trkpt lat="49.45488" lon="2.01736">
        <ele>171.2</ele>
        <time>2013-04-20T08:54:48.949Z</time>
      </trkpt>
      <trkpt lat="49.45486" lon="2.01739">
        <ele>168.2</ele>
        <time>2013-04-20T08:54:50.950Z</time>
      </trkpt>
      <trkpt lat="49.45484" lon="2.01741">
        <ele>168.8</ele>
        <time>2013-04-20T08:54:52.256Z</time>
      </trkpt>
      <trkpt lat="49.45482" lon="2.01742">
        <ele>166.2</ele>
        <time>2013-04-20T08:54:54.956Z</time>
      </trkpt>
      <trkpt lat="49.4548" lon="2.01745">
        <ele>165.8</ele>
        <time>2013-04-20T08:54:56.766Z</time>
      </trkpt>
      <trkpt lat="49.45477" lon="2.01749">
        <ele>170.2</ele>
        <time>2013-04-20T08:54:59.948Z</time>
      </trkpt>
      <trkpt lat="49.45476" lon="2.01751">
        <ele>169.2</ele>
        <time>2013-04-20T08:55:01.256Z</time>
      </trkpt>
      <trkpt lat="49.45474" lon="2.01755">
        <ele>168.8</ele>
        <time>2013-04-20T08:55:02.950Z</time>
      </trkpt>
      <trkpt lat="49.45472" lon="2.01757">
        <ele>168</ele>
        <time>2013-04-20T08:55:04.245Z</time>
      </trkpt>
      <trkpt lat="49.4547" lon="2.0176">
        <ele>166.5</ele>
        <time>2013-04-20T08:55:06.756Z</time>
      </trkpt>
      <trkpt lat="49.45468" lon="2.01764">
        <ele>167.2</ele>
        <time>2013-04-20T08:55:08.764Z</time>
      </trkpt>
      <trkpt lat="49.45466" lon="2.0177">
        <ele>165.7</ele>
        <time>2013-04-20T08:55:12.832Z</time>
      </trkpt>
      <trkpt lat="49.45465" lon="2.0177">
        <ele>165</ele>
        <time>2013-04-20T08:55:13.727Z</time>
      </trkpt>
      <trkpt lat="49.45462" lon="2.01774">
        <ele>154.4</ele>
        <time>2013-04-20T08:55:17.765Z</time>
      </trkpt>
      <trkpt lat="49.4546" lon="2.01777">
        <ele>155.3</ele>
        <time>2013-04-20T08:55:19.769Z</time>
      </trkpt>
      <trkpt lat="49.45458" lon="2.01781">
        <ele>156.7</ele>
        <time>2013-04-20T08:55:21.752Z</time>
      </trkpt>
      <trkpt lat="49.45456" lon="2.01783">
        <ele>156.7</ele>
        <time>2013-04-20T08:55:22.764Z</time>
      </trkpt>
      <trkpt lat="49.45455" lon="2.01785">
        <ele>156.4</ele>
        <time>2013-04-20T08:55:23.761Z</time>
      </trkpt>
      <trkpt lat="49.45453" lon="2.01789">
        <ele>158.6</ele>
        <time>2013-04-20T08:55:25.259Z</time>
      </trkpt>
      <trkpt lat="49.45451" lon="2.01793">
        <ele>158.3</ele>
        <time>2013-04-20T08:55:26.873Z</time>
      </trkpt>
      <trkpt lat="49.4545" lon="2.01795">
        <ele>158.5</ele>
        <time>2013-04-20T08:55:27.960Z</time>
      </trkpt>
      <trkpt lat="49.45448" lon="2.018">
        <ele>159.6</ele>
        <time>2013-04-20T08:55:29.754Z</time>
      </trkpt>
      <trkpt lat="49.45447" lon="2.01802">
        <ele>159.6</ele>
        <time>2013-04-20T08:55:31.751Z</time>
      </trkpt>
      <trkpt lat="49.45445" lon="2.01807">
        <ele>151.9</ele>
        <time>2013-04-20T08:55:32.952Z</time>
      </trkpt>
      <trkpt lat="49.45444" lon="2.0181">
        <ele>151.5</ele>
        <time>2013-04-20T08:55:33.948Z</time>
      </trkpt>
      <trkpt lat="49.45444" lon="2.01811">
        <ele>156.2</ele>
        <time>2013-04-20T08:55:35.814Z</time>
      </trkpt>
      <trkpt lat="49.45441" lon="2.01817">
        <ele>156.2</ele>
        <time>2013-04-20T08:55:38.239Z</time>
      </trkpt>
      <trkpt lat="49.4544" lon="2.01822">
        <ele>158.5</ele>
        <time>2013-04-20T08:55:42.937Z</time>
      </trkpt>
      <trkpt lat="49.45439" lon="2.01824">
        <ele>158.4</ele>
        <time>2013-04-20T08:55:44.758Z</time>
      </trkpt>
      <trkpt lat="49.45436" lon="2.01828">
        <ele>159.1</ele>
        <time>2013-04-20T08:55:49.946Z</time>
      </trkpt>
      <trkpt lat="49.45436" lon="2.01829">
        <ele>158.1</ele>
        <time>2013-04-20T08:55:50.781Z</time>
      </trkpt>
      <trkpt lat="49.45433" lon="2.01833">
        <ele>155.3</ele>
        <time>2013-04-20T08:55:55.222Z</time>
      </trkpt>
      <trkpt lat="49.45432" lon="2.01835">
        <ele>155.2</ele>
        <time>2013-04-20T08:55:56.251Z</time>
      </trkpt>
      <trkpt lat="49.45431" lon="2.0184">
        <ele>158</ele>
        <time>2013-04-20T08:56:03.756Z</time>
      </trkpt>
      <trkpt lat="49.4543" lon="2.01842">
        <ele>158.5</ele>
        <time>2013-04-20T08:56:06.567Z</time>
      </trkpt>
      <trkpt lat="49.45429" lon="2.01844">
        <ele>157.1</ele>
        <time>2013-04-20T08:56:12.771Z</time>
      </trkpt>
      <trkpt lat="49.45425" lon="2.01847">
        <ele>155.1</ele>
        <time>2013-04-20T08:56:15.244Z</time>
      </trkpt>
      <trkpt lat="49.45423" lon="2.0185">
        <ele>154.5</ele>
        <time>2013-04-20T08:56:16.762Z</time>
      </trkpt>
      <trkpt lat="49.45421" lon="2.01854">
        <ele>156.6</ele>
        <time>2013-04-20T08:56:18.742Z</time>
      </trkpt>
      <trkpt lat="49.45419" lon="2.01858">
        <ele>157.9</ele>
        <time>2013-04-20T08:56:20.953Z</time>
      </trkpt>
      <trkpt lat="49.45418" lon="2.01861">
        <ele>159.5</ele>
        <time>2013-04-20T08:56:22.049Z</time>
      </trkpt>
      <trkpt lat="49.45415" lon="2.01865">
        <ele>156.3</ele>
        <time>2013-04-20T08:56:23.923Z</time>
      </trkpt>
      <trkpt lat="49.45414" lon="2.01867">
        <ele>156.3</ele>
        <time>2013-04-20T08:56:25.256Z</time>
      </trkpt>
      <trkpt lat="49.45412" lon="2.0187">
        <ele>158</ele>
        <time>2013-04-20T08:56:26.747Z</time>
      </trkpt>
      <trkpt lat="49.45409" lon="2.01876">
        <ele>159.6</ele>
        <time>2013-04-20T08:56:28.765Z</time>
      </trkpt>
      <trkpt lat="49.45408" lon="2.01879">
        <ele>160.5</ele>
        <time>2013-04-20T08:56:30.746Z</time>
      </trkpt>
      <trkpt lat="49.45405" lon="2.01884">
        <ele>161.4</ele>
        <time>2013-04-20T08:56:31.760Z</time>
      </trkpt>
      <trkpt lat="49.45404" lon="2.01888">
        <ele>162</ele>
        <time>2013-04-20T08:56:32.755Z</time>
      </trkpt>
      <trkpt lat="49.45402" lon="2.01891">
        <ele>162.9</ele>
        <time>2013-04-20T08:56:33.742Z</time>
      </trkpt>
      <trkpt lat="49.454" lon="2.01894">
        <ele>163.9</ele>
        <time>2013-04-20T08:56:34.761Z</time>
      </trkpt>
      <trkpt lat="49.45399" lon="2.01898">
        <ele>164.8</ele>
        <time>2013-04-20T08:56:35.761Z</time>
      </trkpt>
      <trkpt lat="49.45396" lon="2.01901">
        <ele>166.8</ele>
        <time>2013-04-20T08:56:36.755Z</time>
      </trkpt>
      <trkpt lat="49.45394" lon="2.01905">
        <ele>165.1</ele>
        <time>2013-04-20T08:56:37.745Z</time>
      </trkpt>
      <trkpt lat="49.45392" lon="2.01908">
        <ele>163.9</ele>
        <time>2013-04-20T08:56:38.756Z</time>
      </trkpt>
      <trkpt lat="49.45389" lon="2.01911">
        <ele>164.3</ele>
        <time>2013-04-20T08:56:39.956Z</time>
      </trkpt>
      <trkpt lat="49.45387" lon="2.01914">
        <ele>164</ele>
        <time>2013-04-20T08:56:40.955Z</time>
      </trkpt>
      <trkpt lat="49.45385" lon="2.01917">
        <ele>165</ele>
        <time>2013-04-20T08:56:41.834Z</time>
      </trkpt>
      <trkpt lat="49.45383" lon="2.0192">
        <ele>164.2</ele>
        <time>2013-04-20T08:56:44.752Z</time>
      </trkpt>
      <trkpt lat="49.45382" lon="2.01922">
        <ele>164.1</ele>
        <time>2013-04-20T08:56:45.742Z</time>
      </trkpt>
      <trkpt lat="49.4538" lon="2.01924">
        <ele>164.7</ele>
        <time>2013-04-20T08:56:47.758Z</time>
      </trkpt>
      <trkpt lat="49.45378" lon="2.01925">
        <ele>165.3</ele>
        <time>2013-04-20T08:56:48.921Z</time>
      </trkpt>
      <trkpt lat="49.45376" lon="2.01926">
        <ele>165.3</ele>
        <time>2013-04-20T08:56:50.761Z</time>
      </trkpt>
      <trkpt lat="49.45374" lon="2.01929">
        <ele>166.7</ele>
        <time>2013-04-20T08:56:51.836Z</time>
      </trkpt>
      <trkpt lat="49.45371" lon="2.01935">
        <ele>167.9</ele>
        <time>2013-04-20T08:56:54.258Z</time>
      </trkpt>
      <trkpt lat="49.4537" lon="2.01937">
        <ele>168.4</ele>
        <time>2013-04-20T08:56:54.761Z</time>
      </trkpt>
      <trkpt lat="49.45367" lon="2.01939">
        <ele>177</ele>
        <time>2013-04-20T08:56:57.760Z</time>
      </trkpt>
      <trkpt lat="49.45365" lon="2.01942">
        <ele>176.6</ele>
        <time>2013-04-20T08:56:59.118Z</time>
      </trkpt>
      <trkpt lat="49.45363" lon="2.01945">
        <ele>178.9</ele>
        <time>2013-04-20T08:57:00.946Z</time>
      </trkpt>
      <trkpt lat="49.45362" lon="2.01948">
        <ele>178.3</ele>
        <time>2013-04-20T08:57:01.725Z</time>
      </trkpt>
      <trkpt lat="49.4536" lon="2.01953">
        <ele>179.9</ele>
        <time>2013-04-20T08:57:03.954Z</time>
      </trkpt>
      <trkpt lat="49.45359" lon="2.01956">
        <ele>178.4</ele>
        <time>2013-04-20T08:57:04.875Z</time>
      </trkpt>
      <trkpt lat="49.45356" lon="2.01961">
        <ele>177.4</ele>
        <time>2013-04-20T08:57:06.954Z</time>
      </trkpt>
      <trkpt lat="49.45355" lon="2.01964">
        <ele>178</ele>
        <time>2013-04-20T08:57:07.956Z</time>
      </trkpt>
      <trkpt lat="49.45353" lon="2.01968">
        <ele>177.8</ele>
        <time>2013-04-20T08:57:09.825Z</time>
      </trkpt>
      <trkpt lat="49.45352" lon="2.01971">
        <ele>177.9</ele>
        <time>2013-04-20T08:57:10.951Z</time>
      </trkpt>
      <trkpt lat="49.45348" lon="2.01974">
        <ele>177.5</ele>
        <time>2013-04-20T08:57:14.728Z</time>
      </trkpt>
      <trkpt lat="49.45347" lon="2.01977">
        <ele>178.1</ele>
        <time>2013-04-20T08:57:15.949Z</time>
      </trkpt>
      <trkpt lat="49.45345" lon="2.01981">
        <ele>179.4</ele>
        <time>2013-04-20T08:57:18.746Z</time>
      </trkpt>
      <trkpt lat="49.45344" lon="2.01983">
        <ele>178.7</ele>
        <time>2013-04-20T08:57:20.253Z</time>
      </trkpt>
      <trkpt lat="49.45341" lon="2.01987">
        <ele>178.6</ele>
        <time>2013-04-20T08:57:24.758Z</time>
      </trkpt>
      <trkpt lat="49.45339" lon="2.01991">
        <ele>179.5</ele>
        <time>2013-04-20T08:57:26.732Z</time>
      </trkpt>
      <trkpt lat="49.45337" lon="2.01997">
        <ele>179.6</ele>
        <time>2013-04-20T08:57:29.255Z</time>
      </trkpt>
      <trkpt lat="49.45337" lon="2.01999">
        <ele>180</ele>
        <time>2013-04-20T08:57:30.323Z</time>
      </trkpt>
      <trkpt lat="49.45335" lon="2.02004">
        <ele>179.2</ele>
        <time>2013-04-20T08:57:31.761Z</time>
      </trkpt>
      <trkpt lat="49.45333" lon="2.02008">
        <ele>179.7</ele>
        <time>2013-04-20T08:57:34.245Z</time>
      </trkpt>
      <trkpt lat="49.4533" lon="2.02013">
        <ele>179.6</ele>
        <time>2013-04-20T08:57:37.254Z</time>
      </trkpt>
      <trkpt lat="49.45329" lon="2.02014">
        <ele>179.5</ele>
        <time>2013-04-20T08:57:37.747Z</time>
      </trkpt>
      <trkpt lat="49.45328" lon="2.02019">
        <ele>177.3</ele>
        <time>2013-04-20T08:57:39.766Z</time>
      </trkpt>
      <trkpt lat="49.45327" lon="2.02021">
        <ele>176.3</ele>
        <time>2013-04-20T08:57:41.142Z</time>
      </trkpt>
      <trkpt lat="49.45325" lon="2.02021">
        <ele>169.7</ele>
        <time>2013-04-20T08:57:42.763Z</time>
      </trkpt>
      <trkpt lat="49.45322" lon="2.02026">
        <ele>173</ele>
        <time>2013-04-20T08:57:45.030Z</time>
      </trkpt>
      <trkpt lat="49.45321" lon="2.02028">
        <ele>174.2</ele>
        <time>2013-04-20T08:57:46.076Z</time>
      </trkpt>
      <trkpt lat="49.45318" lon="2.0203">
        <ele>175.8</ele>
        <time>2013-04-20T08:57:47.288Z</time>
      </trkpt>
      <trkpt lat="49.45315" lon="2.02033">
        <ele>176.5</ele>
        <time>2013-04-20T08:57:48.741Z</time>
      </trkpt>
      <trkpt lat="49.45313" lon="2.02035">
        <ele>177.5</ele>
        <time>2013-04-20T08:57:49.922Z</time>
      </trkpt>
      <trkpt lat="49.4531" lon="2.02038">
        <ele>175.9</ele>
        <time>2013-04-20T08:57:52.748Z</time>
      </trkpt>
      <trkpt lat="49.45308" lon="2.02042">
        <ele>175.8</ele>
        <time>2013-04-20T08:57:54.765Z</time>
      </trkpt>
      <trkpt lat="49.45305" lon="2.02046">
        <ele>174.8</ele>
        <time>2013-04-20T08:57:57.945Z</time>
      </trkpt>
      <trkpt lat="49.45304" lon="2.02048">
        <ele>177.8</ele>
        <time>2013-04-20T08:57:59.261Z</time>
      </trkpt>
      <trkpt lat="49.45302" lon="2.02052">
        <ele>179.3</ele>
        <time>2013-04-20T08:58:00.747Z</time>
      </trkpt>
      <trkpt lat="49.453" lon="2.02054">
        <ele>180</ele>
        <time>2013-04-20T08:58:03.252Z</time>
      </trkpt>
      <trkpt lat="49.45297" lon="2.02058">
        <ele>181.5</ele>
        <time>2013-04-20T08:58:05.850Z</time>
      </trkpt>
      <trkpt lat="49.45296" lon="2.02059">
        <ele>181.9</ele>
        <time>2013-04-20T08:58:06.754Z</time>
      </trkpt>
      <trkpt lat="49.45294" lon="2.02063">
        <ele>182.3</ele>
        <time>2013-04-20T08:58:10.750Z</time>
      </trkpt>
      <trkpt lat="49.45292" lon="2.02065">
        <ele>179.8</ele>
        <time>2013-04-20T08:58:11.741Z</time>
      </trkpt>
      <trkpt lat="49.4529" lon="2.02068">
        <ele>178.5</ele>
        <time>2013-04-20T08:58:13.957Z</time>
      </trkpt>
      <trkpt lat="49.45289" lon="2.02069">
        <ele>178.3</ele>
        <time>2013-04-20T08:58:15.130Z</time>
      </trkpt>
      <trkpt lat="49.45286" lon="2.02074">
        <ele>175</ele>
        <time>2013-04-20T08:58:17.760Z</time>
      </trkpt>
      <trkpt lat="49.45285" lon="2.02076">
        <ele>174.5</ele>
        <time>2013-04-20T08:58:19.040Z</time>
      </trkpt>
      <trkpt lat="49.45282" lon="2.02081">
        <ele>176.4</ele>
        <time>2013-04-20T08:58:20.762Z</time>
      </trkpt>
      <trkpt lat="49.4528" lon="2.02087">
        <ele>177.7</ele>
        <time>2013-04-20T08:58:22.754Z</time>
      </trkpt>
      <trkpt lat="49.45278" lon="2.02091">
        <ele>173.9</ele>
        <time>2013-04-20T08:58:25.753Z</time>
      </trkpt>
      <trkpt lat="49.45277" lon="2.02095">
        <ele>175.3</ele>
        <time>2013-04-20T08:58:27.941Z</time>
      </trkpt>
      <trkpt lat="49.45275" lon="2.021">
        <ele>175.8</ele>
        <time>2013-04-20T08:58:30.948Z</time>
      </trkpt>
      <trkpt lat="49.45275" lon="2.02102">
        <ele>177.2</ele>
        <time>2013-04-20T08:58:32.281Z</time>
      </trkpt>
      <trkpt lat="49.45274" lon="2.02104">
        <ele>178.5</ele>
        <time>2013-04-20T08:58:33.743Z</time>
      </trkpt>
      <trkpt lat="49.45272" lon="2.02108">
        <ele>179.5</ele>
        <time>2013-04-20T08:58:35.765Z</time>
      </trkpt>
      <trkpt lat="49.4527" lon="2.02112">
        <ele>176</ele>
        <time>2013-04-20T08:58:37.775Z</time>
      </trkpt>
      <trkpt lat="49.45269" lon="2.02113">
        <ele>175.9</ele>
        <time>2013-04-20T08:58:38.816Z</time>
      </trkpt>
      <trkpt lat="49.45267" lon="2.02115">
        <ele>175</ele>
        <time>2013-04-20T08:58:40.756Z</time>
      </trkpt>
      <trkpt lat="49.45265" lon="2.02119">
        <ele>176.1</ele>
        <time>2013-04-20T08:58:42.765Z</time>
      </trkpt>
      <trkpt lat="49.45262" lon="2.02123">
        <ele>176</ele>
        <time>2013-04-20T08:58:45.957Z</time>
      </trkpt>
      <trkpt lat="49.4526" lon="2.02125">
        <ele>176.9</ele>
        <time>2013-04-20T08:58:46.954Z</time>
      </trkpt>
      <trkpt lat="49.45258" lon="2.02129">
        <ele>177.1</ele>
        <time>2013-04-20T08:58:48.755Z</time>
      </trkpt>
      <trkpt lat="49.45257" lon="2.02133">
        <ele>178</ele>
        <time>2013-04-20T08:58:50.785Z</time>
      </trkpt>
      <trkpt lat="49.45255" lon="2.02138">
        <ele>178</ele>
        <time>2013-04-20T08:58:52.757Z</time>
      </trkpt>
      <trkpt lat="49.45254" lon="2.02141">
        <ele>178.4</ele>
        <time>2013-04-20T08:58:53.770Z</time>
      </trkpt>
      <trkpt lat="49.45252" lon="2.02145">
        <ele>178.8</ele>
        <time>2013-04-20T08:58:55.766Z</time>
      </trkpt>
      <trkpt lat="49.4525" lon="2.02149">
        <ele>178.3</ele>
        <time>2013-04-20T08:58:56.925Z</time>
      </trkpt>
      <trkpt lat="49.45249" lon="2.02153">
        <ele>178.7</ele>
        <time>2013-04-20T08:58:58.957Z</time>
      </trkpt>
      <trkpt lat="49.45248" lon="2.02155">
        <ele>178.9</ele>
        <time>2013-04-20T08:59:00.043Z</time>
      </trkpt>
      <trkpt lat="49.45245" lon="2.02161">
        <ele>179.9</ele>
        <time>2013-04-20T08:59:01.858Z</time>
      </trkpt>
      <trkpt lat="49.45243" lon="2.02164">
        <ele>180.2</ele>
        <time>2013-04-20T08:59:02.953Z</time>
      </trkpt>
      <trkpt lat="49.4524" lon="2.02169">
        <ele>180.9</ele>
        <time>2013-04-20T08:59:04.944Z</time>
      </trkpt>
      <trkpt lat="49.45239" lon="2.02171">
        <ele>182.8</ele>
        <time>2013-04-20T08:59:06.257Z</time>
      </trkpt>
      <trkpt lat="49.45236" lon="2.02174">
        <ele>183.4</ele>
        <time>2013-04-20T08:59:08.919Z</time>
      </trkpt>
      <trkpt lat="49.45235" lon="2.02174">
        <ele>183.4</ele>
        <time>2013-04-20T08:59:09.759Z</time>
      </trkpt>
      <trkpt lat="49.45232" lon="2.02179">
        <ele>183.3</ele>
        <time>2013-04-20T08:59:11.956Z</time>
      </trkpt>
      <trkpt lat="49.45231" lon="2.02181">
        <ele>183.4</ele>
        <time>2013-04-20T08:59:12.937Z</time>
      </trkpt>
      <trkpt lat="49.45229" lon="2.02187">
        <ele>182.4</ele>
        <time>2013-04-20T08:59:33.764Z</time>
      </trkpt>
      <trkpt lat="49.45229" lon="2.02188">
        <ele>182.3</ele>
        <time>2013-04-20T08:59:35.256Z</time>
      </trkpt>
      <trkpt lat="49.45227" lon="2.02189">
        <ele>180.3</ele>
        <time>2013-04-20T08:59:36.757Z</time>
      </trkpt>
      <trkpt lat="49.45224" lon="2.02193">
        <ele>180.1</ele>
        <time>2013-04-20T08:59:39.257Z</time>
      </trkpt>
      <trkpt lat="49.45221" lon="2.02197">
        <ele>179.2</ele>
        <time>2013-04-20T08:59:40.951Z</time>
      </trkpt>
      <trkpt lat="49.4522" lon="2.02199">
        <ele>177.8</ele>
        <time>2013-04-20T08:59:41.991Z</time>
      </trkpt>
      <trkpt lat="49.45218" lon="2.02203">
        <ele>178.2</ele>
        <time>2013-04-20T08:59:43.440Z</time>
      </trkpt>
      <trkpt lat="49.45217" lon="2.02205">
        <ele>178.2</ele>
        <time>2013-04-20T08:59:43.754Z</time>
      </trkpt>
      <trkpt lat="49.45215" lon="2.02208">
        <ele>178.1</ele>
        <time>2013-04-20T08:59:44.959Z</time>
      </trkpt>
      <trkpt lat="49.45214" lon="2.0221">
        <ele>178.5</ele>
        <time>2013-04-20T08:59:46.255Z</time>
      </trkpt>
      <trkpt lat="49.45213" lon="2.02212">
        <ele>178.5</ele>
        <time>2013-04-20T08:59:46.747Z</time>
      </trkpt>
      <trkpt lat="49.45209" lon="2.02217">
        <ele>181.1</ele>
        <time>2013-04-20T08:59:48.765Z</time>
      </trkpt>
      <trkpt lat="49.45207" lon="2.02222">
        <ele>182.6</ele>
        <time>2013-04-20T08:59:50.923Z</time>
      </trkpt>
      <trkpt lat="49.45205" lon="2.02224">
        <ele>185.3</ele>
        <time>2013-04-20T08:59:51.874Z</time>
      </trkpt>
      <trkpt lat="49.45203" lon="2.02226">
        <ele>188.9</ele>
        <time>2013-04-20T08:59:53.762Z</time>
      </trkpt>
      <trkpt lat="49.45199" lon="2.0223">
        <ele>189.2</ele>
        <time>2013-04-20T08:59:56.249Z</time>
      </trkpt>
      <trkpt lat="49.45196" lon="2.02233">
        <ele>186.7</ele>
        <time>2013-04-20T08:59:58.755Z</time>
      </trkpt>
      <trkpt lat="49.45194" lon="2.02236">
        <ele>187.9</ele>
        <time>2013-04-20T08:59:59.755Z</time>
      </trkpt>
      <trkpt lat="49.45192" lon="2.0224">
        <ele>186.2</ele>
        <time>2013-04-20T09:00:02.823Z</time>
      </trkpt>
      <trkpt lat="49.45191" lon="2.02242">
        <ele>186.7</ele>
        <time>2013-04-20T09:00:03.854Z</time>
      </trkpt>
      <trkpt lat="49.45188" lon="2.02245">
        <ele>186.2</ele>
        <time>2013-04-20T09:00:07.753Z</time>
      </trkpt>
      <trkpt lat="49.45186" lon="2.02249">
        <ele>186.8</ele>
        <time>2013-04-20T09:00:09.843Z</time>
      </trkpt>
      <trkpt lat="49.45184" lon="2.02254">
        <ele>189</ele>
        <time>2013-04-20T09:00:11.950Z</time>
      </trkpt>
      <trkpt lat="49.45183" lon="2.02257">
        <ele>190.4</ele>
        <time>2013-04-20T09:00:12.783Z</time>
      </trkpt>
      <trkpt lat="49.45181" lon="2.0226">
        <ele>191.7</ele>
        <time>2013-04-20T09:00:13.769Z</time>
      </trkpt>
      <trkpt lat="49.45179" lon="2.02263">
        <ele>191.8</ele>
        <time>2013-04-20T09:00:14.957Z</time>
      </trkpt>
      <trkpt lat="49.45176" lon="2.02266">
        <ele>189.9</ele>
        <time>2013-04-20T09:00:17.957Z</time>
      </trkpt>
      <trkpt lat="49.45175" lon="2.02268">
        <ele>189.2</ele>
        <time>2013-04-20T09:00:19.257Z</time>
      </trkpt>
      <trkpt lat="49.45173" lon="2.02273">
        <ele>186.9</ele>
        <time>2013-04-20T09:00:23.260Z</time>
      </trkpt>
      <trkpt lat="49.45173" lon="2.02274">
        <ele>186.7</ele>
        <time>2013-04-20T09:00:23.760Z</time>
      </trkpt>
      <trkpt lat="49.45172" lon="2.02281">
        <ele>186</ele>
        <time>2013-04-20T09:00:26.952Z</time>
      </trkpt>
      <trkpt lat="49.45172" lon="2.02282">
        <ele>184.6</ele>
        <time>2013-04-20T09:00:28.313Z</time>
      </trkpt>
      <trkpt lat="49.4517" lon="2.02288">
        <ele>183.7</ele>
        <time>2013-04-20T09:00:32.254Z</time>
      </trkpt>
      <trkpt lat="49.4517" lon="2.02288">
        <ele>182.4</ele>
        <time>2013-04-20T09:00:32.758Z</time>
      </trkpt>
      <trkpt lat="49.45168" lon="2.02291">
        <ele>182.1</ele>
        <time>2013-04-20T09:00:35.257Z</time>
      </trkpt>
      <trkpt lat="49.45166" lon="2.02293">
        <ele>183.8</ele>
        <time>2013-04-20T09:00:35.782Z</time>
      </trkpt>
      <trkpt lat="49.45164" lon="2.02294">
        <ele>184</ele>
        <time>2013-04-20T09:00:37.743Z</time>
      </trkpt>
      <trkpt lat="49.4516" lon="2.02295">
        <ele>183.4</ele>
        <time>2013-04-20T09:00:39.765Z</time>
      </trkpt>
      <trkpt lat="49.45157" lon="2.023">
        <ele>185.5</ele>
        <time>2013-04-20T09:00:43.745Z</time>
      </trkpt>
      <trkpt lat="49.45156" lon="2.02303">
        <ele>186.7</ele>
        <time>2013-04-20T09:00:44.784Z</time>
      </trkpt>
      <trkpt lat="49.45153" lon="2.02306">
        <ele>190.5</ele>
        <time>2013-04-20T09:00:54.747Z</time>
      </trkpt>
      <trkpt lat="49.45151" lon="2.02307">
        <ele>192.2</ele>
        <time>2013-04-20T09:00:56.457Z</time>
      </trkpt>
      <trkpt lat="49.45148" lon="2.0231">
        <ele>187.4</ele>
        <time>2013-04-20T09:01:06.242Z</time>
      </trkpt>
      <trkpt lat="49.45147" lon="2.0231">
        <ele>187.1</ele>
        <time>2013-04-20T09:01:07.081Z</time>
      </trkpt>
      <trkpt lat="49.45144" lon="2.02313">
        <ele>186.1</ele>
        <time>2013-04-20T09:01:12.020Z</time>
      </trkpt>
      <trkpt lat="49.45143" lon="2.02314">
        <ele>185.9</ele>
        <time>2013-04-20T09:01:12.767Z</time>
      </trkpt>
      <trkpt lat="49.45141" lon="2.0232">
        <ele>177.4</ele>
        <time>2013-04-20T09:01:16.746Z</time>
      </trkpt>
      <trkpt lat="49.45141" lon="2.02322">
        <ele>177.4</ele>
        <time>2013-04-20T09:01:17.750Z</time>
      </trkpt>
      <trkpt lat="49.45138" lon="2.02326">
        <ele>181.7</ele>
        <time>2013-04-20T09:01:53.947Z</time>
      </trkpt>
      <trkpt lat="49.45137" lon="2.02327">
        <ele>181.8</ele>
        <time>2013-04-20T09:01:54.886Z</time>
      </trkpt>
      <trkpt lat="49.45135" lon="2.02331">
        <ele>177.8</ele>
        <time>2013-04-20T09:01:56.961Z</time>
      </trkpt>
      <trkpt lat="49.45133" lon="2.02335">
        <ele>176.9</ele>
        <time>2013-04-20T09:01:58.767Z</time>
      </trkpt>
      <trkpt lat="49.45131" lon="2.0234">
        <ele>178.2</ele>
        <time>2013-04-20T09:02:01.966Z</time>
      </trkpt>
      <trkpt lat="49.4513" lon="2.02342">
        <ele>177.6</ele>
        <time>2013-04-20T09:02:02.953Z</time>
      </trkpt>
      <trkpt lat="49.45129" lon="2.02344">
        <ele>177.6</ele>
        <time>2013-04-20T09:02:03.949Z</time>
      </trkpt>
      <trkpt lat="49.45127" lon="2.02348">
        <ele>177.3</ele>
        <time>2013-04-20T09:02:05.736Z</time>
      </trkpt>
      <trkpt lat="49.45125" lon="2.02351">
        <ele>177.8</ele>
        <time>2013-04-20T09:02:06.753Z</time>
      </trkpt>
      <trkpt lat="49.45123" lon="2.02356">
        <ele>178.7</ele>
        <time>2013-04-20T09:02:07.722Z</time>
      </trkpt>
      <trkpt lat="49.45122" lon="2.02359">
        <ele>179.1</ele>
        <time>2013-04-20T09:02:08.746Z</time>
      </trkpt>
      <trkpt lat="49.4512" lon="2.02363">
        <ele>180.9</ele>
        <time>2013-04-20T09:02:09.763Z</time>
      </trkpt>
      <trkpt lat="49.45118" lon="2.02366">
        <ele>180</ele>
        <time>2013-04-20T09:02:10.762Z</time>
      </trkpt>
      <trkpt lat="49.45117" lon="2.02369">
        <ele>179.2</ele>
        <time>2013-04-20T09:02:11.952Z</time>
      </trkpt>
      <trkpt lat="49.45115" lon="2.02375">
        <ele>180.1</ele>
        <time>2013-04-20T09:02:13.789Z</time>
      </trkpt>
      <trkpt lat="49.45115" lon="2.02376">
        <ele>180</ele>
        <time>2013-04-20T09:02:14.760Z</time>
      </trkpt>
      <trkpt lat="49.45113" lon="2.02381">
        <ele>181.4</ele>
        <time>2013-04-20T09:02:15.743Z</time>
      </trkpt>
      <trkpt lat="49.45112" lon="2.02383">
        <ele>182.1</ele>
        <time>2013-04-20T09:02:16.950Z</time>
      </trkpt>
      <trkpt lat="49.45111" lon="2.02387">
        <ele>181.6</ele>
        <time>2013-04-20T09:02:18.772Z</time>
      </trkpt>
      <trkpt lat="49.45109" lon="2.0239">
        <ele>181.5</ele>
        <time>2013-04-20T09:02:19.946Z</time>
      </trkpt>
      <trkpt lat="49.45105" lon="2.02397">
        <ele>181.7</ele>
        <time>2013-04-20T09:02:21.765Z</time>
      </trkpt>
      <trkpt lat="49.45102" lon="2.02402">
        <ele>183.1</ele>
        <time>2013-04-20T09:02:24.767Z</time>
      </trkpt>
      <trkpt lat="49.45101" lon="2.02403">
        <ele>183.7</ele>
        <time>2013-04-20T09:02:25.759Z</time>
      </trkpt>
      <trkpt lat="49.45098" lon="2.02407">
        <ele>182.5</ele>
        <time>2013-04-20T09:02:29.256Z</time>
      </trkpt>
      <trkpt lat="49.45097" lon="2.02409">
        <ele>182</ele>
        <time>2013-04-20T09:02:30.251Z</time>
      </trkpt>
      <trkpt lat="49.45095" lon="2.02413">
        <ele>182.6</ele>
        <time>2013-04-20T09:02:31.759Z</time>
      </trkpt>
      <trkpt lat="49.45092" lon="2.02418">
        <ele>183.4</ele>
        <time>2013-04-20T09:02:33.761Z</time>
      </trkpt>
      <trkpt lat="49.45089" lon="2.02422">
        <ele>185.7</ele>
        <time>2013-04-20T09:02:36.859Z</time>
      </trkpt>
      <trkpt lat="49.45088" lon="2.02424">
        <ele>186.3</ele>
        <time>2013-04-20T09:02:37.751Z</time>
      </trkpt>
      <trkpt lat="49.45085" lon="2.02427">
        <ele>184.8</ele>
        <time>2013-04-20T09:02:41.947Z</time>
      </trkpt>
      <trkpt lat="49.45084" lon="2.02427">
        <ele>185.1</ele>
        <time>2013-04-20T09:02:42.947Z</time>
      </trkpt>
      <trkpt lat="49.4508" lon="2.02431">
        <ele>183.8</ele>
        <time>2013-04-20T09:02:45.836Z</time>
      </trkpt>
      <trkpt lat="49.45079" lon="2.02432">
        <ele>182.6</ele>
        <time>2013-04-20T09:02:47.438Z</time>
      </trkpt>
      <trkpt lat="49.45076" lon="2.02438">
        <ele>180.5</ele>
        <time>2013-04-20T09:02:49.755Z</time>
      </trkpt>
      <trkpt lat="49.45075" lon="2.02439">
        <ele>179.8</ele>
        <time>2013-04-20T09:02:50.768Z</time>
      </trkpt>
      <trkpt lat="49.45074" lon="2.02445">
        <ele>178.4</ele>
        <time>2013-04-20T09:02:55.466Z</time>
      </trkpt>
      <trkpt lat="49.45074" lon="2.02446">
        <ele>178.5</ele>
        <time>2013-04-20T09:02:55.754Z</time>
      </trkpt>
      <trkpt lat="49.45071" lon="2.02451">
        <ele>179</ele>
        <time>2013-04-20T09:03:01.788Z</time>
      </trkpt>
      <trkpt lat="49.4507" lon="2.02452">
        <ele>180.1</ele>
        <time>2013-04-20T09:03:02.995Z</time>
      </trkpt>
      <trkpt lat="49.45066" lon="2.02452">
        <ele>177.8</ele>
        <time>2013-04-20T09:03:14.454Z</time>
      </trkpt>
      <trkpt lat="49.45066" lon="2.02453">
        <ele>177.5</ele>
        <time>2013-04-20T09:03:15.452Z</time>
      </trkpt>
      <trkpt lat="49.45063" lon="2.02457">
        <ele>179</ele>
        <time>2013-04-20T09:03:17.819Z</time>
      </trkpt>
      <trkpt lat="49.45062" lon="2.02458">
        <ele>179.7</ele>
        <time>2013-04-20T09:03:18.745Z</time>
      </trkpt>
      <trkpt lat="49.4506" lon="2.02462">
        <ele>179.8</ele>
        <time>2013-04-20T09:03:20.776Z</time>
      </trkpt>
      <trkpt lat="49.45059" lon="2.02464">
        <ele>180.2</ele>
        <time>2013-04-20T09:03:21.754Z</time>
      </trkpt>
      <trkpt lat="49.45057" lon="2.02469">
        <ele>186.1</ele>
        <time>2013-04-20T09:03:24.943Z</time>
      </trkpt>
      <trkpt lat="49.45057" lon="2.02471">
        <ele>186.6</ele>
        <time>2013-04-20T09:03:26.250Z</time>
      </trkpt>
      <trkpt lat="49.45056" lon="2.02477">
        <ele>186.6</ele>
        <time>2013-04-20T09:03:29.754Z</time>
      </trkpt>
      <trkpt lat="49.45055" lon="2.0248">
        <ele>187</ele>
        <time>2013-04-20T09:03:30.836Z</time>
      </trkpt>
      <trkpt lat="49.45053" lon="2.02485">
        <ele>185.8</ele>
        <time>2013-04-20T09:03:32.742Z</time>
      </trkpt>
      <trkpt lat="49.45051" lon="2.02487">
        <ele>186.7</ele>
        <time>2013-04-20T09:03:33.761Z</time>
      </trkpt>
      <trkpt lat="49.45049" lon="2.02491">
        <ele>186.3</ele>
        <time>2013-04-20T09:03:35.816Z</time>
      </trkpt>
      <trkpt lat="49.45047" lon="2.02493">
        <ele>185.7</ele>
        <time>2013-04-20T09:03:36.760Z</time>
      </trkpt>
      <trkpt lat="49.45045" lon="2.02497">
        <ele>184.9</ele>
        <time>2013-04-20T09:03:38.744Z</time>
      </trkpt>
      <trkpt lat="49.45043" lon="2.025">
        <ele>184.7</ele>
        <time>2013-04-20T09:03:40.255Z</time>
      </trkpt>
      <trkpt lat="49.45042" lon="2.02502">
        <ele>185.1</ele>
        <time>2013-04-20T09:03:40.785Z</time>
      </trkpt>
      <trkpt lat="49.45039" lon="2.02506">
        <ele>186.6</ele>
        <time>2013-04-20T09:03:43.239Z</time>
      </trkpt>
      <trkpt lat="49.45035" lon="2.02507">
        <ele>186</ele>
        <time>2013-04-20T09:03:44.800Z</time>
      </trkpt>
      <trkpt lat="49.45033" lon="2.02509">
        <ele>187</ele>
        <time>2013-04-20T09:03:45.766Z</time>
      </trkpt>
      <trkpt lat="49.45031" lon="2.02511">
        <ele>187.8</ele>
        <time>2013-04-20T09:03:47.937Z</time>
      </trkpt>
      <trkpt lat="49.4503" lon="2.02514">
        <ele>188.5</ele>
        <time>2013-04-20T09:03:49.124Z</time>
      </trkpt>
      <trkpt lat="49.45028" lon="2.02518">
        <ele>187.5</ele>
        <time>2013-04-20T09:03:57.759Z</time>
      </trkpt>
      <trkpt lat="49.45027" lon="2.02521">
        <ele>186.3</ele>
        <time>2013-04-20T09:03:59.764Z</time>
      </trkpt>
      <trkpt lat="49.45025" lon="2.02526">
        <ele>185.6</ele>
        <time>2013-04-20T09:04:02.766Z</time>
      </trkpt>
      <trkpt lat="49.45024" lon="2.0253">
        <ele>186.6</ele>
        <time>2013-04-20T09:04:03.766Z</time>
      </trkpt>
      <trkpt lat="49.45022" lon="2.02533">
        <ele>185.8</ele>
        <time>2013-04-20T09:04:04.951Z</time>
      </trkpt>
      <trkpt lat="49.45021" lon="2.02536">
        <ele>186.3</ele>
        <time>2013-04-20T09:04:06.268Z</time>
      </trkpt>
      <trkpt lat="49.45019" lon="2.02539">
        <ele>186.8</ele>
        <time>2013-04-20T09:04:07.951Z</time>
      </trkpt>
      <trkpt lat="49.45017" lon="2.02542">
        <ele>186.9</ele>
        <time>2013-04-20T09:04:08.946Z</time>
      </trkpt>
      <trkpt lat="49.45014" lon="2.02546">
        <ele>197.1</ele>
        <time>2013-04-20T09:04:11.749Z</time>
      </trkpt>
      <trkpt lat="49.45012" lon="2.02548">
        <ele>197.2</ele>
        <time>2013-04-20T09:04:12.916Z</time>
      </trkpt>
      <trkpt lat="49.45011" lon="2.0255">
        <ele>196.7</ele>
        <time>2013-04-20T09:04:13.941Z</time>
      </trkpt>
      <trkpt lat="49.45009" lon="2.02553">
        <ele>195.4</ele>
        <time>2013-04-20T09:04:14.893Z</time>
      </trkpt>
      <trkpt lat="49.45006" lon="2.02557">
        <ele>195.9</ele>
        <time>2013-04-20T09:04:16.747Z</time>
      </trkpt>
      <trkpt lat="49.45003" lon="2.02562">
        <ele>196.7</ele>
        <time>2013-04-20T09:04:19.254Z</time>
      </trkpt>
      <trkpt lat="49.45001" lon="2.02566">
        <ele>197.4</ele>
        <time>2013-04-20T09:04:20.743Z</time>
      </trkpt>
      <trkpt lat="49.44999" lon="2.02569">
        <ele>197.8</ele>
        <time>2013-04-20T09:04:21.956Z</time>
      </trkpt>
      <trkpt lat="49.44998" lon="2.02573">
        <ele>196.4</ele>
        <time>2013-04-20T09:04:23.745Z</time>
      </trkpt>
      <trkpt lat="49.44995" lon="2.02576">
        <ele>194.5</ele>
        <time>2013-04-20T09:04:24.830Z</time>
      </trkpt>
      <trkpt lat="49.44993" lon="2.0258">
        <ele>193.2</ele>
        <time>2013-04-20T09:04:27.249Z</time>
      </trkpt>
      <trkpt lat="49.44991" lon="2.02584">
        <ele>189.6</ele>
        <time>2013-04-20T09:04:28.105Z</time>
      </trkpt>
      <trkpt lat="49.44989" lon="2.02587">
        <ele>188.6</ele>
        <time>2013-04-20T09:04:28.760Z</time>
      </trkpt>
      <trkpt lat="49.44988" lon="2.0259">
        <ele>189.8</ele>
        <time>2013-04-20T09:04:29.754Z</time>
      </trkpt>
      <trkpt lat="49.44985" lon="2.02595">
        <ele>188.8</ele>
        <time>2013-04-20T09:04:32.248Z</time>
      </trkpt>
      <trkpt lat="49.44984" lon="2.02596">
        <ele>187.9</ele>
        <time>2013-04-20T09:04:33.053Z</time>
      </trkpt>
      <trkpt lat="49.44982" lon="2.02601">
        <ele>184.8</ele>
        <time>2013-04-20T09:04:37.253Z</time>
      </trkpt>
      <trkpt lat="49.44982" lon="2.02603">
        <ele>185.9</ele>
        <time>2013-04-20T09:04:37.996Z</time>
      </trkpt>
      <trkpt lat="49.44979" lon="2.02608">
        <ele>187.9</ele>
        <time>2013-04-20T09:04:41.754Z</time>
      </trkpt>
      <trkpt lat="49.44978" lon="2.0261">
        <ele>188</ele>
        <time>2013-04-20T09:04:42.733Z</time>
      </trkpt>
      <trkpt lat="49.44977" lon="2.02613">
        <ele>182.8</ele>
        <time>2013-04-20T09:04:44.523Z</time>
      </trkpt>
      <trkpt lat="49.44976" lon="2.02615">
        <ele>181.6</ele>
        <time>2013-04-20T09:04:45.463Z</time>
      </trkpt>
      <trkpt lat="49.44973" lon="2.02619">
        <ele>185.3</ele>
        <time>2013-04-20T09:04:47.344Z</time>
      </trkpt>
      <trkpt lat="49.44971" lon="2.02621">
        <ele>186.3</ele>
        <time>2013-04-20T09:04:48.226Z</time>
      </trkpt>
      <trkpt lat="49.44968" lon="2.02625">
        <ele>186.8</ele>
        <time>2013-04-20T09:04:50.240Z</time>
      </trkpt>
      <trkpt lat="49.44967" lon="2.02626">
        <ele>186.9</ele>
        <time>2013-04-20T09:04:51.760Z</time>
      </trkpt>
      <trkpt lat="49.44963" lon="2.0263">
        <ele>190.3</ele>
        <time>2013-04-20T09:04:53.956Z</time>
      </trkpt>
      <trkpt lat="49.44962" lon="2.02632">
        <ele>190.8</ele>
        <time>2013-04-20T09:04:54.264Z</time>
      </trkpt>
      <trkpt lat="49.44959" lon="2.02634">
        <ele>192.2</ele>
        <time>2013-04-20T09:04:56.757Z</time>
      </trkpt>
      <trkpt lat="49.44958" lon="2.02635">
        <ele>192.4</ele>
        <time>2013-04-20T09:04:57.248Z</time>
      </trkpt>
      <trkpt lat="49.44957" lon="2.02637">
        <ele>192.6</ele>
        <time>2013-04-20T09:04:58.438Z</time>
      </trkpt>
      <trkpt lat="49.44954" lon="2.02641">
        <ele>193</ele>
        <time>2013-04-20T09:05:00.774Z</time>
      </trkpt>
      <trkpt lat="49.44951" lon="2.02643">
        <ele>193.3</ele>
        <time>2013-04-20T09:05:02.460Z</time>
      </trkpt>
      <trkpt lat="49.44949" lon="2.02648">
        <ele>191.9</ele>
        <time>2013-04-20T09:05:04.248Z</time>
      </trkpt>
      <trkpt lat="49.44946" lon="2.02652">
        <ele>191.3</ele>
        <time>2013-04-20T09:05:06.259Z</time>
      </trkpt>
      <trkpt lat="49.44946" lon="2.02655">
        <ele>191.5</ele>
        <time>2013-04-20T09:05:07.754Z</time>
      </trkpt>
      <trkpt lat="49.44944" lon="2.0266">
        <ele>192.3</ele>
        <time>2013-04-20T09:05:11.260Z</time>
      </trkpt>
      <trkpt lat="49.44943" lon="2.02663">
        <ele>194.1</ele>
        <time>2013-04-20T09:05:12.309Z</time>
      </trkpt>
      <trkpt lat="49.44941" lon="2.02666">
        <ele>195</ele>
        <time>2013-04-20T09:05:14.265Z</time>
      </trkpt>
      <trkpt lat="49.4494" lon="2.02668">
        <ele>195.6</ele>
        <time>2013-04-20T09:05:15.456Z</time>
      </trkpt>
      <trkpt lat="49.44938" lon="2.02672">
        <ele>197.5</ele>
        <time>2013-04-20T09:05:17.419Z</time>
      </trkpt>
      <trkpt lat="49.44937" lon="2.02675">
        <ele>197.3</ele>
        <time>2013-04-20T09:05:18.712Z</time>
      </trkpt>
      <trkpt lat="49.44934" lon="2.0268">
        <ele>195.6</ele>
        <time>2013-04-20T09:05:20.745Z</time>
      </trkpt>
      <trkpt lat="49.44934" lon="2.02682">
        <ele>195.4</ele>
        <time>2013-04-20T09:05:21.291Z</time>
      </trkpt>
      <trkpt lat="49.44931" lon="2.02686">
        <ele>194</ele>
        <time>2013-04-20T09:05:24.450Z</time>
      </trkpt>
      <trkpt lat="49.4493" lon="2.02687">
        <ele>193.7</ele>
        <time>2013-04-20T09:05:25.756Z</time>
      </trkpt>
      <trkpt lat="49.44928" lon="2.02691">
        <ele>194.8</ele>
        <time>2013-04-20T09:05:27.670Z</time>
      </trkpt>
      <trkpt lat="49.44926" lon="2.02693">
        <ele>195.8</ele>
        <time>2013-04-20T09:05:28.761Z</time>
      </trkpt>
      <trkpt lat="49.44924" lon="2.02696">
        <ele>195.6</ele>
        <time>2013-04-20T09:05:30.761Z</time>
      </trkpt>
      <trkpt lat="49.44923" lon="2.02698">
        <ele>195.8</ele>
        <time>2013-04-20T09:05:31.505Z</time>
      </trkpt>
      <trkpt lat="49.4492" lon="2.02702">
        <ele>196.7</ele>
        <time>2013-04-20T09:05:36.442Z</time>
      </trkpt>
      <trkpt lat="49.44919" lon="2.02703">
        <ele>195.8</ele>
        <time>2013-04-20T09:05:37.455Z</time>
      </trkpt>
      <trkpt lat="49.44916" lon="2.02707">
        <ele>194.3</ele>
        <time>2013-04-20T09:05:40.258Z</time>
      </trkpt>
      <trkpt lat="49.44915" lon="2.02709">
        <ele>194.1</ele>
        <time>2013-04-20T09:05:41.250Z</time>
      </trkpt>
      <trkpt lat="49.44913" lon="2.02713">
        <ele>191.1</ele>
        <time>2013-04-20T09:05:44.222Z</time>
      </trkpt>
      <trkpt lat="49.44912" lon="2.02714">
        <ele>194.9</ele>
        <time>2013-04-20T09:05:45.254Z</time>
      </trkpt>
      <trkpt lat="49.44909" lon="2.02717">
        <ele>196.9</ele>
        <time>2013-04-20T09:05:49.436Z</time>
      </trkpt>
      <trkpt lat="49.44908" lon="2.02717">
        <ele>196.5</ele>
        <time>2013-04-20T09:05:50.456Z</time>
      </trkpt>
      <trkpt lat="49.44904" lon="2.02721">
        <ele>196.2</ele>
        <time>2013-04-20T09:05:55.441Z</time>
      </trkpt>
      <trkpt lat="49.44904" lon="2.02722">
        <ele>195.8</ele>
        <time>2013-04-20T09:05:56.753Z</time>
      </trkpt>
      <trkpt lat="49.44902" lon="2.02727">
        <ele>194.8</ele>
        <time>2013-04-20T09:06:00.756Z</time>
      </trkpt>
      <trkpt lat="49.44901" lon="2.02729">
        <ele>193.9</ele>
        <time>2013-04-20T09:06:01.719Z</time>
      </trkpt>
      <trkpt lat="49.44898" lon="2.02732">
        <ele>183.9</ele>
        <time>2013-04-20T09:06:11.251Z</time>
      </trkpt>
      <trkpt lat="49.44897" lon="2.02733">
        <ele>184.2</ele>
        <time>2013-04-20T09:06:12.452Z</time>
      </trkpt>
      <trkpt lat="49.44894" lon="2.02736">
        <ele>184.4</ele>
        <time>2013-04-20T09:06:15.451Z</time>
      </trkpt>
      <trkpt lat="49.44893" lon="2.02737">
        <ele>184.4</ele>
        <time>2013-04-20T09:06:16.442Z</time>
      </trkpt>
      <trkpt lat="49.44889" lon="2.02741">
        <ele>184</ele>
        <time>2013-04-20T09:06:18.452Z</time>
      </trkpt>
      <trkpt lat="49.44888" lon="2.02742">
        <ele>184.4</ele>
        <time>2013-04-20T09:06:19.447Z</time>
      </trkpt>
      <trkpt lat="49.44885" lon="2.02746">
        <ele>177.4</ele>
        <time>2013-04-20T09:06:22.452Z</time>
      </trkpt>
      <trkpt lat="49.44884" lon="2.02748">
        <ele>177</ele>
        <time>2013-04-20T09:06:23.650Z</time>
      </trkpt>
      <trkpt lat="49.44881" lon="2.02752">
        <ele>177.5</ele>
        <time>2013-04-20T09:06:26.452Z</time>
      </trkpt>
      <trkpt lat="49.44879" lon="2.02754">
        <ele>176.8</ele>
        <time>2013-04-20T09:06:27.444Z</time>
      </trkpt>
      <trkpt lat="49.44877" lon="2.02757">
        <ele>175.8</ele>
        <time>2013-04-20T09:06:30.422Z</time>
      </trkpt>
      <trkpt lat="49.44876" lon="2.0276">
        <ele>175.4</ele>
        <time>2013-04-20T09:06:31.439Z</time>
      </trkpt>
      <trkpt lat="49.44874" lon="2.02763">
        <ele>176.4</ele>
        <time>2013-04-20T09:06:32.462Z</time>
      </trkpt>
      <trkpt lat="49.44873" lon="2.02767">
        <ele>177</ele>
        <time>2013-04-20T09:06:33.431Z</time>
      </trkpt>
      <trkpt lat="49.44871" lon="2.0277">
        <ele>177</ele>
        <time>2013-04-20T09:06:34.451Z</time>
      </trkpt>
      <trkpt lat="49.44869" lon="2.02773">
        <ele>176</ele>
        <time>2013-04-20T09:06:35.447Z</time>
      </trkpt>
      <trkpt lat="49.44868" lon="2.02776">
        <ele>175.5</ele>
        <time>2013-04-20T09:06:36.457Z</time>
      </trkpt>
      <trkpt lat="49.44866" lon="2.02779">
        <ele>175.8</ele>
        <time>2013-04-20T09:06:37.450Z</time>
      </trkpt>
      <trkpt lat="49.44862" lon="2.02783">
        <ele>175.6</ele>
        <time>2013-04-20T09:06:39.436Z</time>
      </trkpt>
      <trkpt lat="49.44861" lon="2.02785">
        <ele>174.2</ele>
        <time>2013-04-20T09:06:40.451Z</time>
      </trkpt>
      <trkpt lat="49.44858" lon="2.02788">
        <ele>175.5</ele>
        <time>2013-04-20T09:06:42.441Z</time>
      </trkpt>
      <trkpt lat="49.44857" lon="2.0279">
        <ele>174.8</ele>
        <time>2013-04-20T09:06:43.466Z</time>
      </trkpt>
      <trkpt lat="49.44854" lon="2.02793">
        <ele>173.6</ele>
        <time>2013-04-20T09:06:45.445Z</time>
      </trkpt>
      <trkpt lat="49.44853" lon="2.02795">
        <ele>174.1</ele>
        <time>2013-04-20T09:06:46.477Z</time>
      </trkpt>
      <trkpt lat="49.44851" lon="2.02798">
        <ele>173.9</ele>
        <time>2013-04-20T09:06:48.474Z</time>
      </trkpt>
      <trkpt lat="49.4485" lon="2.02801">
        <ele>174.6</ele>
        <time>2013-04-20T09:06:49.448Z</time>
      </trkpt>
      <trkpt lat="49.44853" lon="2.02797">
        <ele>172.1</ele>
        <time>2013-04-20T09:06:57.441Z</time>
      </trkpt>
      <trkpt lat="49.44854" lon="2.02793">
        <ele>172.6</ele>
        <time>2013-04-20T09:06:58.438Z</time>
      </trkpt>
      <trkpt lat="49.44857" lon="2.02788">
        <ele>172</ele>
        <time>2013-04-20T09:07:06.499Z</time>
      </trkpt>
      <trkpt lat="49.44857" lon="2.02788">
        <ele>171.6</ele>
        <time>2013-04-20T09:07:07.457Z</time>
      </trkpt>
      <trkpt lat="49.44854" lon="2.0279">
        <ele>171.2</ele>
        <time>2013-04-20T09:07:29.464Z</time>
      </trkpt>
      <trkpt lat="49.44853" lon="2.02791">
        <ele>171</ele>
        <time>2013-04-20T09:07:30.444Z</time>
      </trkpt>
      <trkpt lat="49.4485" lon="2.02794">
        <ele>172.5</ele>
        <time>2013-04-20T09:07:32.950Z</time>
      </trkpt>
      <trkpt lat="49.44849" lon="2.02795">
        <ele>172.6</ele>
        <time>2013-04-20T09:07:33.514Z</time>
      </trkpt>
      <trkpt lat="49.44845" lon="2.02799">
        <ele>174.3</ele>
        <time>2013-04-20T09:07:36.459Z</time>
      </trkpt>
      <trkpt lat="49.44843" lon="2.028">
        <ele>173.9</ele>
        <time>2013-04-20T09:07:37.945Z</time>
      </trkpt>
      <trkpt lat="49.4484" lon="2.02804">
        <ele>175.1</ele>
        <time>2013-04-20T09:07:40.952Z</time>
      </trkpt>
      <trkpt lat="49.44838" lon="2.02805">
        <ele>176.2</ele>
        <time>2013-04-20T09:07:41.497Z</time>
      </trkpt>
      <trkpt lat="49.44835" lon="2.02807">
        <ele>176.4</ele>
        <time>2013-04-20T09:07:46.459Z</time>
      </trkpt>
      <trkpt lat="49.44834" lon="2.02808">
        <ele>174.9</ele>
        <time>2013-04-20T09:07:48.103Z</time>
      </trkpt>
      <trkpt lat="49.44831" lon="2.02812">
        <ele>174.1</ele>
        <time>2013-04-20T09:07:50.943Z</time>
      </trkpt>
      <trkpt lat="49.4483" lon="2.02813">
        <ele>174.8</ele>
        <time>2013-04-20T09:07:51.446Z</time>
      </trkpt>
      <trkpt lat="49.44829" lon="2.02818">
        <ele>171.9</ele>
        <time>2013-04-20T09:07:56.455Z</time>
      </trkpt>
      <trkpt lat="49.44828" lon="2.02821">
        <ele>172.6</ele>
        <time>2013-04-20T09:07:58.648Z</time>
      </trkpt>
      <trkpt lat="49.44826" lon="2.02826">
        <ele>164.1</ele>
        <time>2013-04-20T09:08:04.153Z</time>
      </trkpt>
      <trkpt lat="49.44825" lon="2.02826">
        <ele>161.7</ele>
        <time>2013-04-20T09:08:04.454Z</time>
      </trkpt>
      <trkpt lat="49.44822" lon="2.0283">
        <ele>166.3</ele>
        <time>2013-04-20T09:08:07.447Z</time>
      </trkpt>
      <trkpt lat="49.44818" lon="2.02834">
        <ele>167.2</ele>
        <time>2013-04-20T09:08:09.928Z</time>
      </trkpt>
      <trkpt lat="49.44817" lon="2.02834">
        <ele>167.5</ele>
        <time>2013-04-20T09:08:10.459Z</time>
      </trkpt>
      <trkpt lat="49.44814" lon="2.02838">
        <ele>165.1</ele>
        <time>2013-04-20T09:08:12.452Z</time>
      </trkpt>
      <trkpt lat="49.44812" lon="2.02843">
        <ele>171.1</ele>
        <time>2013-04-20T09:08:14.639Z</time>
      </trkpt>
      <trkpt lat="49.4481" lon="2.02844">
        <ele>171.8</ele>
        <time>2013-04-20T09:08:15.676Z</time>
      </trkpt>
      <trkpt lat="49.44808" lon="2.0285">
        <ele>176.1</ele>
        <time>2013-04-20T09:08:18.457Z</time>
      </trkpt>
      <trkpt lat="49.44807" lon="2.02852">
        <ele>176.8</ele>
        <time>2013-04-20T09:08:19.650Z</time>
      </trkpt>
      <trkpt lat="49.44804" lon="2.02857">
        <ele>171.3</ele>
        <time>2013-04-20T09:08:23.540Z</time>
      </trkpt>
      <trkpt lat="49.44803" lon="2.02859">
        <ele>170</ele>
        <time>2013-04-20T09:08:24.569Z</time>
      </trkpt>
      <trkpt lat="49.448" lon="2.02862">
        <ele>176.8</ele>
        <time>2013-04-20T09:08:26.945Z</time>
      </trkpt>
      <trkpt lat="49.44799" lon="2.02864">
        <ele>176.4</ele>
        <time>2013-04-20T09:08:27.422Z</time>
      </trkpt>
      <trkpt lat="49.44797" lon="2.02868">
        <ele>179.5</ele>
        <time>2013-04-20T09:08:31.446Z</time>
      </trkpt>
      <trkpt lat="49.44795" lon="2.0287">
        <ele>180.5</ele>
        <time>2013-04-20T09:08:32.417Z</time>
      </trkpt>
      <trkpt lat="49.44793" lon="2.02874">
        <ele>182.7</ele>
        <time>2013-04-20T09:08:36.497Z</time>
      </trkpt>
      <trkpt lat="49.44791" lon="2.02876">
        <ele>185.1</ele>
        <time>2013-04-20T09:08:37.436Z</time>
      </trkpt>
      <trkpt lat="49.44788" lon="2.02881">
        <ele>186.6</ele>
        <time>2013-04-20T09:08:40.647Z</time>
      </trkpt>
      <trkpt lat="49.44786" lon="2.02883">
        <ele>187.1</ele>
        <time>2013-04-20T09:08:41.518Z</time>
      </trkpt>
      <trkpt lat="49.44785" lon="2.02886">
        <ele>187.2</ele>
        <time>2013-04-20T09:08:42.951Z</time>
      </trkpt>
      <trkpt lat="49.44783" lon="2.02888">
        <ele>187.2</ele>
        <time>2013-04-20T09:08:43.939Z</time>
      </trkpt>
      <trkpt lat="49.4478" lon="2.02892">
        <ele>187.6</ele>
        <time>2013-04-20T09:08:45.947Z</time>
      </trkpt>
      <trkpt lat="49.44778" lon="2.02894">
        <ele>188.1</ele>
        <time>2013-04-20T09:08:46.480Z</time>
      </trkpt>
      <trkpt lat="49.44776" lon="2.02896">
        <ele>185.1</ele>
        <time>2013-04-20T09:08:49.457Z</time>
      </trkpt>
      <trkpt lat="49.44774" lon="2.02897">
        <ele>184</ele>
        <time>2013-04-20T09:08:50.940Z</time>
      </trkpt>
      <trkpt lat="49.44771" lon="2.02901">
        <ele>179.7</ele>
        <time>2013-04-20T09:08:54.735Z</time>
      </trkpt>
      <trkpt lat="49.4477" lon="2.02903">
        <ele>179.2</ele>
        <time>2013-04-20T09:08:56.137Z</time>
      </trkpt>
      <trkpt lat="49.44768" lon="2.02908">
        <ele>178.7</ele>
        <time>2013-04-20T09:08:59.150Z</time>
      </trkpt>
      <trkpt lat="49.44767" lon="2.02909">
        <ele>178.3</ele>
        <time>2013-04-20T09:08:59.672Z</time>
      </trkpt>
      <trkpt lat="49.44764" lon="2.02913">
        <ele>182.8</ele>
        <time>2013-04-20T09:09:02.485Z</time>
      </trkpt>
      <trkpt lat="49.44762" lon="2.02914">
        <ele>182.6</ele>
        <time>2013-04-20T09:09:04.150Z</time>
      </trkpt>
      <trkpt lat="49.44759" lon="2.02917">
        <ele>181</ele>
        <time>2013-04-20T09:09:06.461Z</time>
      </trkpt>
      <trkpt lat="49.44757" lon="2.02918">
        <ele>180.9</ele>
        <time>2013-04-20T09:09:07.472Z</time>
      </trkpt>
      <trkpt lat="49.44755" lon="2.02921">
        <ele>181.8</ele>
        <time>2013-04-20T09:09:09.569Z</time>
      </trkpt>
      <trkpt lat="49.44753" lon="2.02922">
        <ele>181.7</ele>
        <time>2013-04-20T09:09:11.137Z</time>
      </trkpt>
      <trkpt lat="49.4475" lon="2.02926">
        <ele>182.3</ele>
        <time>2013-04-20T09:09:13.933Z</time>
      </trkpt>
      <trkpt lat="49.44748" lon="2.02927">
        <ele>182.1</ele>
        <time>2013-04-20T09:09:14.498Z</time>
      </trkpt>
      <trkpt lat="49.44747" lon="2.02931">
        <ele>182.6</ele>
        <time>2013-04-20T09:09:16.446Z</time>
      </trkpt>
      <trkpt lat="49.44745" lon="2.02933">
        <ele>182.8</ele>
        <time>2013-04-20T09:09:17.434Z</time>
      </trkpt>
      <trkpt lat="49.44742" lon="2.02936">
        <ele>184.3</ele>
        <time>2013-04-20T09:09:19.951Z</time>
      </trkpt>
      <trkpt lat="49.44741" lon="2.02937">
        <ele>184.3</ele>
        <time>2013-04-20T09:09:20.945Z</time>
      </trkpt>
      <trkpt lat="49.44738" lon="2.02939">
        <ele>185.7</ele>
        <time>2013-04-20T09:09:23.426Z</time>
      </trkpt>
      <trkpt lat="49.44736" lon="2.02942">
        <ele>186</ele>
        <time>2013-04-20T09:09:24.437Z</time>
      </trkpt>
      <trkpt lat="49.44735" lon="2.02943">
        <ele>185.9</ele>
        <time>2013-04-20T09:09:25.643Z</time>
      </trkpt>
      <trkpt lat="49.44731" lon="2.02946">
        <ele>182.7</ele>
        <time>2013-04-20T09:09:27.455Z</time>
      </trkpt>
      <trkpt lat="49.44729" lon="2.02948">
        <ele>184.6</ele>
        <time>2013-04-20T09:09:29.451Z</time>
      </trkpt>
      <trkpt lat="49.44727" lon="2.0295">
        <ele>184.2</ele>
        <time>2013-04-20T09:09:30.950Z</time>
      </trkpt>
      <trkpt lat="49.44724" lon="2.02952">
        <ele>185.1</ele>
        <time>2013-04-20T09:09:34.519Z</time>
      </trkpt>
      <trkpt lat="49.44723" lon="2.02955">
        <ele>185.6</ele>
        <time>2013-04-20T09:09:36.157Z</time>
      </trkpt>
      <trkpt lat="49.4472" lon="2.02959">
        <ele>185.4</ele>
        <time>2013-04-20T09:09:38.541Z</time>
      </trkpt>
      <trkpt lat="49.44719" lon="2.0296">
        <ele>185.3</ele>
        <time>2013-04-20T09:09:39.441Z</time>
      </trkpt>
      <trkpt lat="49.44715" lon="2.02965">
        <ele>184.2</ele>
        <time>2013-04-20T09:09:42.447Z</time>
      </trkpt>
      <trkpt lat="49.44714" lon="2.02967">
        <ele>184.1</ele>
        <time>2013-04-20T09:09:43.448Z</time>
      </trkpt>
      <trkpt lat="49.44712" lon="2.0297">
        <ele>185.2</ele>
        <time>2013-04-20T09:09:44.718Z</time>
      </trkpt>
      <trkpt lat="49.44711" lon="2.02972">
        <ele>186</ele>
        <time>2013-04-20T09:09:46.151Z</time>
      </trkpt>
      <trkpt lat="49.44709" lon="2.02975">
        <ele>186.7</ele>
        <time>2013-04-20T09:09:46.435Z</time>
      </trkpt>
      <trkpt lat="49.44707" lon="2.02977">
        <ele>186.2</ele>
        <time>2013-04-20T09:09:47.465Z</time>
      </trkpt>
      <trkpt lat="49.44704" lon="2.02982">
        <ele>187.6</ele>
        <time>2013-04-20T09:09:50.443Z</time>
      </trkpt>
      <trkpt lat="49.44703" lon="2.02983">
        <ele>188</ele>
        <time>2013-04-20T09:09:51.643Z</time>
      </trkpt>
      <trkpt lat="49.447" lon="2.02987">
        <ele>188.3</ele>
        <time>2013-04-20T09:09:54.620Z</time>
      </trkpt>
      <trkpt lat="49.44699" lon="2.02988">
        <ele>189.4</ele>
        <time>2013-04-20T09:09:55.948Z</time>
      </trkpt>
      <trkpt lat="49.44697" lon="2.02991">
        <ele>187.9</ele>
        <time>2013-04-20T09:09:59.155Z</time>
      </trkpt>
      <trkpt lat="49.44696" lon="2.02992">
        <ele>188.6</ele>
        <time>2013-04-20T09:09:59.567Z</time>
      </trkpt>
      <trkpt lat="49.44693" lon="2.02997">
        <ele>187.8</ele>
        <time>2013-04-20T09:10:02.862Z</time>
      </trkpt>
      <trkpt lat="49.44692" lon="2.02999">
        <ele>189</ele>
        <time>2013-04-20T09:10:04.152Z</time>
      </trkpt>
      <trkpt lat="49.44689" lon="2.03003">
        <ele>190.9</ele>
        <time>2013-04-20T09:10:07.457Z</time>
      </trkpt>
      <trkpt lat="49.44688" lon="2.03005">
        <ele>191.7</ele>
        <time>2013-04-20T09:10:09.145Z</time>
      </trkpt>
      <trkpt lat="49.44684" lon="2.03009">
        <ele>192.4</ele>
        <time>2013-04-20T09:10:11.458Z</time>
      </trkpt>
      <trkpt lat="49.44684" lon="2.03011">
        <ele>192.9</ele>
        <time>2013-04-20T09:10:12.749Z</time>
      </trkpt>
      <trkpt lat="49.44681" lon="2.03016">
        <ele>192</ele>
        <time>2013-04-20T09:10:16.453Z</time>
      </trkpt>
      <trkpt lat="49.4468" lon="2.03018">
        <ele>192.6</ele>
        <time>2013-04-20T09:10:17.676Z</time>
      </trkpt>
      <trkpt lat="49.44678" lon="2.0302">
        <ele>193.1</ele>
        <time>2013-04-20T09:10:19.452Z</time>
      </trkpt>
      <trkpt lat="49.44677" lon="2.03022">
        <ele>193</ele>
        <time>2013-04-20T09:10:20.462Z</time>
      </trkpt>
      <trkpt lat="49.44675" lon="2.03025">
        <ele>192.7</ele>
        <time>2013-04-20T09:10:22.656Z</time>
      </trkpt>
      <trkpt lat="49.44673" lon="2.03027">
        <ele>192.5</ele>
        <time>2013-04-20T09:10:23.951Z</time>
      </trkpt>
      <trkpt lat="49.4467" lon="2.03032">
        <ele>193</ele>
        <time>2013-04-20T09:10:27.122Z</time>
      </trkpt>
      <trkpt lat="49.44669" lon="2.03033">
        <ele>192.8</ele>
        <time>2013-04-20T09:10:27.579Z</time>
      </trkpt>
      <trkpt lat="49.44666" lon="2.03035">
        <ele>190.4</ele>
        <time>2013-04-20T09:10:30.153Z</time>
      </trkpt>
      <trkpt lat="49.44664" lon="2.03037">
        <ele>190</ele>
        <time>2013-04-20T09:10:30.866Z</time>
      </trkpt>
      <trkpt lat="49.44661" lon="2.03041">
        <ele>187.3</ele>
        <time>2013-04-20T09:10:32.447Z</time>
      </trkpt>
      <trkpt lat="49.4466" lon="2.03043">
        <ele>186.6</ele>
        <time>2013-04-20T09:10:34.160Z</time>
      </trkpt>
      <trkpt lat="49.44658" lon="2.03047">
        <ele>185.7</ele>
        <time>2013-04-20T09:10:35.462Z</time>
      </trkpt>
      <trkpt lat="49.44657" lon="2.03049">
        <ele>186</ele>
        <time>2013-04-20T09:10:36.950Z</time>
      </trkpt>
      <trkpt lat="49.44655" lon="2.03053">
        <ele>185.2</ele>
        <time>2013-04-20T09:10:39.106Z</time>
      </trkpt>
      <trkpt lat="49.44653" lon="2.03054">
        <ele>185.5</ele>
        <time>2013-04-20T09:10:40.198Z</time>
      </trkpt>
      <trkpt lat="49.4465" lon="2.03058">
        <ele>184.5</ele>
        <time>2013-04-20T09:10:42.460Z</time>
      </trkpt>
      <trkpt lat="49.44649" lon="2.0306">
        <ele>182.2</ele>
        <time>2013-04-20T09:10:44.050Z</time>
      </trkpt>
      <trkpt lat="49.44646" lon="2.03061">
        <ele>179.6</ele>
        <time>2013-04-20T09:10:48.884Z</time>
      </trkpt>
      <trkpt lat="49.44645" lon="2.03062">
        <ele>181.4</ele>
        <time>2013-04-20T09:10:50.150Z</time>
      </trkpt>
      <trkpt lat="49.44641" lon="2.03065">
        <ele>182.9</ele>
        <time>2013-04-20T09:10:51.441Z</time>
      </trkpt>
      <trkpt lat="49.4464" lon="2.03067">
        <ele>180.3</ele>
        <time>2013-04-20T09:10:52.459Z</time>
      </trkpt>
      <trkpt lat="49.44637" lon="2.0307">
        <ele>180</ele>
        <time>2013-04-20T09:10:55.143Z</time>
      </trkpt>
      <trkpt lat="49.44636" lon="2.03072">
        <ele>179.1</ele>
        <time>2013-04-20T09:10:55.577Z</time>
      </trkpt>
      <trkpt lat="49.44633" lon="2.03076">
        <ele>176.3</ele>
        <time>2013-04-20T09:10:58.872Z</time>
      </trkpt>
      <trkpt lat="49.44632" lon="2.03078">
        <ele>175.6</ele>
        <time>2013-04-20T09:11:00.126Z</time>
      </trkpt>
      <trkpt lat="49.4463" lon="2.03082">
        <ele>173.4</ele>
        <time>2013-04-20T09:11:03.434Z</time>
      </trkpt>
      <trkpt lat="49.44629" lon="2.03083">
        <ele>173.4</ele>
        <time>2013-04-20T09:11:04.447Z</time>
      </trkpt>
      <trkpt lat="49.44626" lon="2.03087">
        <ele>175.5</ele>
        <time>2013-04-20T09:11:07.456Z</time>
      </trkpt>
      <trkpt lat="49.44625" lon="2.03089">
        <ele>173.6</ele>
        <time>2013-04-20T09:11:08.754Z</time>
      </trkpt>
      <trkpt lat="49.44622" lon="2.03094">
        <ele>173.3</ele>
        <time>2013-04-20T09:11:12.041Z</time>
      </trkpt>
      <trkpt lat="49.4462" lon="2.03096">
        <ele>174.1</ele>
        <time>2013-04-20T09:11:13.147Z</time>
      </trkpt>
      <trkpt lat="49.44617" lon="2.03099">
        <ele>173.1</ele>
        <time>2013-04-20T09:11:16.150Z</time>
      </trkpt>
      <trkpt lat="49.44616" lon="2.03101">
        <ele>173.6</ele>
        <time>2013-04-20T09:11:17.007Z</time>
      </trkpt>
      <trkpt lat="49.44613" lon="2.03104">
        <ele>172</ele>
        <time>2013-04-20T09:11:19.604Z</time>
      </trkpt>
      <trkpt lat="49.44612" lon="2.03106">
        <ele>172.7</ele>
        <time>2013-04-20T09:11:21.149Z</time>
      </trkpt>
      <trkpt lat="49.44609" lon="2.0311">
        <ele>170.6</ele>
        <time>2013-04-20T09:11:24.666Z</time>
      </trkpt>
      <trkpt lat="49.44608" lon="2.03111">
        <ele>169.4</ele>
        <time>2013-04-20T09:11:25.439Z</time>
      </trkpt>
      <trkpt lat="49.44606" lon="2.03113">
        <ele>168.7</ele>
        <time>2013-04-20T09:11:27.452Z</time>
      </trkpt>
      <trkpt lat="49.44604" lon="2.03115">
        <ele>168.5</ele>
        <time>2013-04-20T09:11:28.459Z</time>
      </trkpt>
      <trkpt lat="49.44602" lon="2.03119">
        <ele>168.5</ele>
        <time>2013-04-20T09:11:31.453Z</time>
      </trkpt>
      <trkpt lat="49.44601" lon="2.03121">
        <ele>167.7</ele>
        <time>2013-04-20T09:11:32.452Z</time>
      </trkpt>
      <trkpt lat="49.44598" lon="2.03126">
        <ele>164.7</ele>
        <time>2013-04-20T09:11:36.785Z</time>
      </trkpt>
      <trkpt lat="49.44598" lon="2.03128">
        <ele>165.6</ele>
        <time>2013-04-20T09:11:37.803Z</time>
      </trkpt>
      <trkpt lat="49.44596" lon="2.03133">
        <ele>169.8</ele>
        <time>2013-04-20T09:11:40.465Z</time>
      </trkpt>
      <trkpt lat="49.44594" lon="2.03135">
        <ele>171.1</ele>
        <time>2013-04-20T09:11:41.703Z</time>
      </trkpt>
      <trkpt lat="49.44592" lon="2.03139">
        <ele>171.6</ele>
        <time>2013-04-20T09:11:43.441Z</time>
      </trkpt>
      <trkpt lat="49.4459" lon="2.03141">
        <ele>172.5</ele>
        <time>2013-04-20T09:11:44.949Z</time>
      </trkpt>
      <trkpt lat="49.44587" lon="2.03144">
        <ele>171.1</ele>
        <time>2013-04-20T09:11:48.152Z</time>
      </trkpt>
      <trkpt lat="49.44586" lon="2.03145">
        <ele>170.1</ele>
        <time>2013-04-20T09:11:48.456Z</time>
      </trkpt>
      <trkpt lat="49.44584" lon="2.03149">
        <ele>171</ele>
        <time>2013-04-20T09:11:51.610Z</time>
      </trkpt>
      <trkpt lat="49.44583" lon="2.03151">
        <ele>171.1</ele>
        <time>2013-04-20T09:11:53.151Z</time>
      </trkpt>
      <trkpt lat="49.44581" lon="2.03154">
        <ele>170.6</ele>
        <time>2013-04-20T09:11:54.467Z</time>
      </trkpt>
      <trkpt lat="49.44579" lon="2.03158">
        <ele>172.5</ele>
        <time>2013-04-20T09:11:56.544Z</time>
      </trkpt>
      <trkpt lat="49.44575" lon="2.03161">
        <ele>174.6</ele>
        <time>2013-04-20T09:11:59.839Z</time>
      </trkpt>
      <trkpt lat="49.44574" lon="2.03162">
        <ele>174.8</ele>
        <time>2013-04-20T09:12:00.454Z</time>
      </trkpt>
      <trkpt lat="49.44571" lon="2.03166">
        <ele>175.5</ele>
        <time>2013-04-20T09:12:03.947Z</time>
      </trkpt>
      <trkpt lat="49.4457" lon="2.03169">
        <ele>176.3</ele>
        <time>2013-04-20T09:12:04.752Z</time>
      </trkpt>
      <trkpt lat="49.44567" lon="2.03173">
        <ele>177.7</ele>
        <time>2013-04-20T09:12:06.464Z</time>
      </trkpt>
      <trkpt lat="49.44566" lon="2.03175">
        <ele>177.8</ele>
        <time>2013-04-20T09:12:08.017Z</time>
      </trkpt>
      <trkpt lat="49.44563" lon="2.03177">
        <ele>177.6</ele>
        <time>2013-04-20T09:12:09.447Z</time>
      </trkpt>
      <trkpt lat="49.44562" lon="2.03179">
        <ele>177.8</ele>
        <time>2013-04-20T09:12:10.936Z</time>
      </trkpt>
      <trkpt lat="49.44559" lon="2.03183">
        <ele>177</ele>
        <time>2013-04-20T09:12:13.029Z</time>
      </trkpt>
      <trkpt lat="49.44558" lon="2.03185">
        <ele>177</ele>
        <time>2013-04-20T09:12:13.442Z</time>
      </trkpt>
      <trkpt lat="49.44555" lon="2.03189">
        <ele>177.6</ele>
        <time>2013-04-20T09:12:15.463Z</time>
      </trkpt>
      <trkpt lat="49.44554" lon="2.0319">
        <ele>177.9</ele>
        <time>2013-04-20T09:12:16.951Z</time>
      </trkpt>
      <trkpt lat="49.44552" lon="2.03194">
        <ele>177.5</ele>
        <time>2013-04-20T09:12:18.455Z</time>
      </trkpt>
      <trkpt lat="49.4455" lon="2.03196">
        <ele>178</ele>
        <time>2013-04-20T09:12:19.420Z</time>
      </trkpt>
      <trkpt lat="49.44548" lon="2.03198">
        <ele>183.2</ele>
        <time>2013-04-20T09:12:21.443Z</time>
      </trkpt>
      <trkpt lat="49.44546" lon="2.032">
        <ele>183.1</ele>
        <time>2013-04-20T09:12:22.464Z</time>
      </trkpt>
      <trkpt lat="49.44544" lon="2.03204">
        <ele>180.6</ele>
        <time>2013-04-20T09:12:26.169Z</time>
      </trkpt>
      <trkpt lat="49.44543" lon="2.03205">
        <ele>180.2</ele>
        <time>2013-04-20T09:12:27.147Z</time>
      </trkpt>
      <trkpt lat="49.44541" lon="2.0321">
        <ele>181.1</ele>
        <time>2013-04-20T09:12:29.451Z</time>
      </trkpt>
      <trkpt lat="49.44539" lon="2.03211">
        <ele>180.7</ele>
        <time>2013-04-20T09:12:31.210Z</time>
      </trkpt>
      <trkpt lat="49.44536" lon="2.03215">
        <ele>179.8</ele>
        <time>2013-04-20T09:12:33.948Z</time>
      </trkpt>
      <trkpt lat="49.44534" lon="2.03215">
        <ele>179.2</ele>
        <time>2013-04-20T09:12:34.513Z</time>
      </trkpt>
      <trkpt lat="49.4453" lon="2.03219">
        <ele>180.3</ele>
        <time>2013-04-20T09:12:37.735Z</time>
      </trkpt>
      <trkpt lat="49.44529" lon="2.0322">
        <ele>180</ele>
        <time>2013-04-20T09:12:38.946Z</time>
      </trkpt>
      <trkpt lat="49.44527" lon="2.03224">
        <ele>179.8</ele>
        <time>2013-04-20T09:12:40.935Z</time>
      </trkpt>
      <trkpt lat="49.44526" lon="2.03226">
        <ele>180.3</ele>
        <time>2013-04-20T09:12:42.151Z</time>
      </trkpt>
      <trkpt lat="49.44523" lon="2.03231">
        <ele>179</ele>
        <time>2013-04-20T09:12:44.596Z</time>
      </trkpt>
      <trkpt lat="49.44521" lon="2.03232">
        <ele>178.8</ele>
        <time>2013-04-20T09:12:45.539Z</time>
      </trkpt>
      <trkpt lat="49.44518" lon="2.03237">
        <ele>178.8</ele>
        <time>2013-04-20T09:12:48.455Z</time>
      </trkpt>
      <trkpt lat="49.44517" lon="2.03238">
        <ele>178.3</ele>
        <time>2013-04-20T09:12:49.531Z</time>
      </trkpt>
      <trkpt lat="49.44515" lon="2.03243">
        <ele>176</ele>
        <time>2013-04-20T09:12:53.136Z</time>
      </trkpt>
      <trkpt lat="49.44514" lon="2.03244">
        <ele>175.6</ele>
        <time>2013-04-20T09:12:53.457Z</time>
      </trkpt>
      <trkpt lat="49.44511" lon="2.03249">
        <ele>176.9</ele>
        <time>2013-04-20T09:12:56.954Z</time>
      </trkpt>
      <trkpt lat="49.4451" lon="2.03251">
        <ele>176.5</ele>
        <time>2013-04-20T09:12:57.970Z</time>
      </trkpt>
      <trkpt lat="49.44507" lon="2.03254">
        <ele>176.8</ele>
        <time>2013-04-20T09:13:00.448Z</time>
      </trkpt>
      <trkpt lat="49.44507" lon="2.03255">
        <ele>176.7</ele>
        <time>2013-04-20T09:13:01.629Z</time>
      </trkpt>
      <trkpt lat="49.44504" lon="2.03258">
        <ele>176.2</ele>
        <time>2013-04-20T09:13:03.435Z</time>
      </trkpt>
      <trkpt lat="49.44503" lon="2.0326">
        <ele>175.3</ele>
        <time>2013-04-20T09:13:04.532Z</time>
      </trkpt>
      <trkpt lat="49.445" lon="2.03265">
        <ele>172.8</ele>
        <time>2013-04-20T09:13:07.520Z</time>
      </trkpt>
      <trkpt lat="49.44499" lon="2.03267">
        <ele>171.4</ele>
        <time>2013-04-20T09:13:08.520Z</time>
      </trkpt>
      <trkpt lat="49.44496" lon="2.03271">
        <ele>173.4</ele>
        <time>2013-04-20T09:13:11.530Z</time>
      </trkpt>
      <trkpt lat="49.44495" lon="2.03274">
        <ele>170.8</ele>
        <time>2013-04-20T09:13:13.589Z</time>
      </trkpt>
      <trkpt lat="49.44493" lon="2.03278">
        <ele>168.3</ele>
        <time>2013-04-20T09:13:16.628Z</time>
      </trkpt>
      <trkpt lat="49.44492" lon="2.03281">
        <ele>166.9</ele>
        <time>2013-04-20T09:13:17.639Z</time>
      </trkpt>
      <trkpt lat="49.4449" lon="2.03285">
        <ele>163.4</ele>
        <time>2013-04-20T09:13:21.046Z</time>
      </trkpt>
      <trkpt lat="49.44488" lon="2.03286">
        <ele>163.6</ele>
        <time>2013-04-20T09:13:21.745Z</time>
      </trkpt>
      <trkpt lat="49.44487" lon="2.03288">
        <ele>167.2</ele>
        <time>2013-04-20T09:13:23.015Z</time>
      </trkpt>
      <trkpt lat="49.44486" lon="2.03292">
        <ele>169.5</ele>
        <time>2013-04-20T09:13:23.557Z</time>
      </trkpt>
      <trkpt lat="49.44483" lon="2.03295">
        <ele>167.5</ele>
        <time>2013-04-20T09:13:26.622Z</time>
      </trkpt>
      <trkpt lat="49.44482" lon="2.03296">
        <ele>167.4</ele>
        <time>2013-04-20T09:13:27.548Z</time>
      </trkpt>
      <trkpt lat="49.44479" lon="2.03299">
        <ele>167.5</ele>
        <time>2013-04-20T09:13:30.057Z</time>
      </trkpt>
      <trkpt lat="49.44478" lon="2.033">
        <ele>167.2</ele>
        <time>2013-04-20T09:13:30.754Z</time>
      </trkpt>
      <trkpt lat="49.44475" lon="2.03303">
        <ele>168.6</ele>
        <time>2013-04-20T09:13:33.537Z</time>
      </trkpt>
      <trkpt lat="49.44474" lon="2.03305">
        <ele>169</ele>
        <time>2013-04-20T09:13:34.566Z</time>
      </trkpt>
      <trkpt lat="49.44471" lon="2.03309">
        <ele>169.3</ele>
        <time>2013-04-20T09:13:36.540Z</time>
      </trkpt>
      <trkpt lat="49.4447" lon="2.0331">
        <ele>169.9</ele>
        <time>2013-04-20T09:13:37.743Z</time>
      </trkpt>
      <trkpt lat="49.44467" lon="2.03314">
        <ele>163.2</ele>
        <time>2013-04-20T09:13:40.535Z</time>
      </trkpt>
      <trkpt lat="49.44465" lon="2.03316">
        <ele>160.6</ele>
        <time>2013-04-20T09:13:42.549Z</time>
      </trkpt>
      <trkpt lat="49.44461" lon="2.03318">
        <ele>163.5</ele>
        <time>2013-04-20T09:13:45.555Z</time>
      </trkpt>
      <trkpt lat="49.4446" lon="2.0332">
        <ele>167.3</ele>
        <time>2013-04-20T09:13:46.566Z</time>
      </trkpt>
      <trkpt lat="49.44457" lon="2.03324">
        <ele>168.9</ele>
        <time>2013-04-20T09:13:48.623Z</time>
      </trkpt>
      <trkpt lat="49.44456" lon="2.03325">
        <ele>169.3</ele>
        <time>2013-04-20T09:13:49.551Z</time>
      </trkpt>
      <trkpt lat="49.44454" lon="2.03329">
        <ele>168.4</ele>
        <time>2013-04-20T09:13:52.069Z</time>
      </trkpt>
      <trkpt lat="49.44453" lon="2.03331">
        <ele>167.3</ele>
        <time>2013-04-20T09:13:53.048Z</time>
      </trkpt>
      <trkpt lat="49.4445" lon="2.03335">
        <ele>167.4</ele>
        <time>2013-04-20T09:13:57.052Z</time>
      </trkpt>
      <trkpt lat="49.44449" lon="2.03336">
        <ele>167.5</ele>
        <time>2013-04-20T09:13:57.534Z</time>
      </trkpt>
      <trkpt lat="49.44446" lon="2.0334">
        <ele>169.4</ele>
        <time>2013-04-20T09:14:00.551Z</time>
      </trkpt>
      <trkpt lat="49.44444" lon="2.03344">
        <ele>162.5</ele>
        <time>2013-04-20T09:14:01.566Z</time>
      </trkpt>
      <trkpt lat="49.44443" lon="2.03345">
        <ele>159.5</ele>
        <time>2013-04-20T09:14:02.508Z</time>
      </trkpt>
      <trkpt lat="49.44441" lon="2.03349">
        <ele>158.9</ele>
        <time>2013-04-20T09:14:05.071Z</time>
      </trkpt>
      <trkpt lat="49.44438" lon="2.03353">
        <ele>162.4</ele>
        <time>2013-04-20T09:14:07.845Z</time>
      </trkpt>
      <trkpt lat="49.44437" lon="2.03354">
        <ele>162.6</ele>
        <time>2013-04-20T09:14:09.051Z</time>
      </trkpt>
      <trkpt lat="49.44434" lon="2.03358">
        <ele>164.8</ele>
        <time>2013-04-20T09:14:15.038Z</time>
      </trkpt>
      <trkpt lat="49.44433" lon="2.03358">
        <ele>164.6</ele>
        <time>2013-04-20T09:14:15.555Z</time>
      </trkpt>
      <trkpt lat="49.44431" lon="2.03362">
        <ele>165.3</ele>
        <time>2013-04-20T09:14:19.551Z</time>
      </trkpt>
      <trkpt lat="49.44428" lon="2.03362">
        <ele>161.8</ele>
        <time>2013-04-20T09:14:20.622Z</time>
      </trkpt>
      <trkpt lat="49.44424" lon="2.03363">
        <ele>161.3</ele>
        <time>2013-04-20T09:14:23.057Z</time>
      </trkpt>
      <trkpt lat="49.44423" lon="2.03364">
        <ele>161.6</ele>
        <time>2013-04-20T09:14:24.042Z</time>
      </trkpt>
      <trkpt lat="49.44419" lon="2.03366">
        <ele>162.5</ele>
        <time>2013-04-20T09:14:27.540Z</time>
      </trkpt>
      <trkpt lat="49.44418" lon="2.03368">
        <ele>163.2</ele>
        <time>2013-04-20T09:14:28.745Z</time>
      </trkpt>
      <trkpt lat="49.44416" lon="2.03373">
        <ele>162.4</ele>
        <time>2013-04-20T09:14:30.619Z</time>
      </trkpt>
      <trkpt lat="49.44415" lon="2.03374">
        <ele>161.1</ele>
        <time>2013-04-20T09:14:31.547Z</time>
      </trkpt>
      <trkpt lat="49.44412" lon="2.03378">
        <ele>157.2</ele>
        <time>2013-04-20T09:14:34.239Z</time>
      </trkpt>
      <trkpt lat="49.4441" lon="2.03378">
        <ele>154.7</ele>
        <time>2013-04-20T09:14:34.556Z</time>
      </trkpt>
      <trkpt lat="49.44407" lon="2.03383">
        <ele>157</ele>
        <time>2013-04-20T09:14:37.027Z</time>
      </trkpt>
      <trkpt lat="49.44407" lon="2.03383">
        <ele>156.8</ele>
        <time>2013-04-20T09:14:37.561Z</time>
      </trkpt>
      <trkpt lat="49.44404" lon="2.03387">
        <ele>159</ele>
        <time>2013-04-20T09:14:41.554Z</time>
      </trkpt>
      <trkpt lat="49.44403" lon="2.03388">
        <ele>159.2</ele>
        <time>2013-04-20T09:14:42.748Z</time>
      </trkpt>
      <trkpt lat="49.44402" lon="2.03394">
        <ele>155.4</ele>
        <time>2013-04-20T09:14:45.570Z</time>
      </trkpt>
      <trkpt lat="49.44401" lon="2.03395">
        <ele>154.3</ele>
        <time>2013-04-20T09:14:46.548Z</time>
      </trkpt>
      <trkpt lat="49.44401" lon="2.03398">
        <ele>157.9</ele>
        <time>2013-04-20T09:14:48.541Z</time>
      </trkpt>
      <trkpt lat="49.444" lon="2.03402">
        <ele>161.1</ele>
        <time>2013-04-20T09:14:51.023Z</time>
      </trkpt>
      <trkpt lat="49.44398" lon="2.03407">
        <ele>162</ele>
        <time>2013-04-20T09:14:53.736Z</time>
      </trkpt>
      <trkpt lat="49.44397" lon="2.03409">
        <ele>161.9</ele>
        <time>2013-04-20T09:14:55.050Z</time>
      </trkpt>
      <trkpt lat="49.44395" lon="2.03415">
        <ele>162.4</ele>
        <time>2013-04-20T09:14:58.543Z</time>
      </trkpt>
      <trkpt lat="49.44394" lon="2.03417">
        <ele>163.4</ele>
        <time>2013-04-20T09:14:59.747Z</time>
      </trkpt>
      <trkpt lat="49.44391" lon="2.03421">
        <ele>163.7</ele>
        <time>2013-04-20T09:15:02.861Z</time>
      </trkpt>
      <trkpt lat="49.4439" lon="2.03422">
        <ele>163.4</ele>
        <time>2013-04-20T09:15:04.055Z</time>
      </trkpt>
      <trkpt lat="49.44387" lon="2.03425">
        <ele>162.6</ele>
        <time>2013-04-20T09:15:06.046Z</time>
      </trkpt>
      <trkpt lat="49.44386" lon="2.03426">
        <ele>163.3</ele>
        <time>2013-04-20T09:15:06.688Z</time>
      </trkpt>
      <trkpt lat="49.44383" lon="2.03431">
        <ele>162.2</ele>
        <time>2013-04-20T09:15:09.745Z</time>
      </trkpt>
      <trkpt lat="49.44381" lon="2.03433">
        <ele>162.3</ele>
        <time>2013-04-20T09:15:10.558Z</time>
      </trkpt>
      <trkpt lat="49.44379" lon="2.03437">
        <ele>162.6</ele>
        <time>2013-04-20T09:15:13.753Z</time>
      </trkpt>
      <trkpt lat="49.44378" lon="2.03439">
        <ele>163</ele>
        <time>2013-04-20T09:15:15.039Z</time>
      </trkpt>
      <trkpt lat="49.44375" lon="2.03443">
        <ele>164.9</ele>
        <time>2013-04-20T09:15:16.896Z</time>
      </trkpt>
      <trkpt lat="49.44374" lon="2.03445">
        <ele>165.7</ele>
        <time>2013-04-20T09:15:17.547Z</time>
      </trkpt>
      <trkpt lat="49.44371" lon="2.03449">
        <ele>168</ele>
        <time>2013-04-20T09:15:19.577Z</time>
      </trkpt>
      <trkpt lat="49.4437" lon="2.03452">
        <ele>169</ele>
        <time>2013-04-20T09:15:20.771Z</time>
      </trkpt>
      <trkpt lat="49.44369" lon="2.03453">
        <ele>169.3</ele>
        <time>2013-04-20T09:15:21.545Z</time>
      </trkpt>
      <trkpt lat="49.44366" lon="2.03458">
        <ele>169.2</ele>
        <time>2013-04-20T09:15:24.051Z</time>
      </trkpt>
      <trkpt lat="49.44365" lon="2.03459">
        <ele>169.2</ele>
        <time>2013-04-20T09:15:24.552Z</time>
      </trkpt>
      <trkpt lat="49.44362" lon="2.03464">
        <ele>170.9</ele>
        <time>2013-04-20T09:15:26.564Z</time>
      </trkpt>
      <trkpt lat="49.44359" lon="2.03469">
        <ele>172</ele>
        <time>2013-04-20T09:15:28.611Z</time>
      </trkpt>
      <trkpt lat="49.44358" lon="2.03471">
        <ele>172.4</ele>
        <time>2013-04-20T09:15:29.822Z</time>
      </trkpt>
      <trkpt lat="49.44356" lon="2.03474">
        <ele>173.4</ele>
        <time>2013-04-20T09:15:31.751Z</time>
      </trkpt>
      <trkpt lat="49.44354" lon="2.03476">
        <ele>172.7</ele>
        <time>2013-04-20T09:15:32.745Z</time>
      </trkpt>
      <trkpt lat="49.44352" lon="2.03478">
        <ele>171.5</ele>
        <time>2013-04-20T09:15:35.552Z</time>
      </trkpt>
      <trkpt lat="49.44351" lon="2.0348">
        <ele>174.2</ele>
        <time>2013-04-20T09:15:37.078Z</time>
      </trkpt>
      <trkpt lat="49.44348" lon="2.03485">
        <ele>172.6</ele>
        <time>2013-04-20T09:15:39.975Z</time>
      </trkpt>
      <trkpt lat="49.44346" lon="2.03486">
        <ele>171.3</ele>
        <time>2013-04-20T09:15:41.254Z</time>
      </trkpt>
      <trkpt lat="49.44343" lon="2.03489">
        <ele>171.4</ele>
        <time>2013-04-20T09:15:42.568Z</time>
      </trkpt>
      <trkpt lat="49.44342" lon="2.0349">
        <ele>171.4</ele>
        <time>2013-04-20T09:15:43.551Z</time>
      </trkpt>
      <trkpt lat="49.4434" lon="2.03494">
        <ele>171</ele>
        <time>2013-04-20T09:15:46.235Z</time>
      </trkpt>
      <trkpt lat="49.44339" lon="2.03495">
        <ele>170.8</ele>
        <time>2013-04-20T09:15:46.554Z</time>
      </trkpt>
      <trkpt lat="49.44337" lon="2.03501">
        <ele>173.3</ele>
        <time>2013-04-20T09:15:52.047Z</time>
      </trkpt>
      <trkpt lat="49.44337" lon="2.03501">
        <ele>173</ele>
        <time>2013-04-20T09:15:52.759Z</time>
      </trkpt>
      <trkpt lat="49.44333" lon="2.03503">
        <ele>170.2</ele>
        <time>2013-04-20T09:16:00.555Z</time>
      </trkpt>
      <trkpt lat="49.44332" lon="2.03503">
        <ele>171</ele>
        <time>2013-04-20T09:16:01.552Z</time>
      </trkpt>
      <trkpt lat="49.44329" lon="2.03506">
        <ele>176</ele>
        <time>2013-04-20T09:16:05.563Z</time>
      </trkpt>
      <trkpt lat="49.44328" lon="2.03507">
        <ele>176</ele>
        <time>2013-04-20T09:16:06.548Z</time>
      </trkpt>
      <trkpt lat="49.44326" lon="2.03511">
        <ele>175.4</ele>
        <time>2013-04-20T09:16:08.554Z</time>
      </trkpt>
      <trkpt lat="49.44325" lon="2.03512">
        <ele>176</ele>
        <time>2013-04-20T09:16:09.751Z</time>
      </trkpt>
      <trkpt lat="49.44321" lon="2.03515">
        <ele>183.4</ele>
        <time>2013-04-20T09:16:15.533Z</time>
      </trkpt>
      <trkpt lat="49.4432" lon="2.03517">
        <ele>182.3</ele>
        <time>2013-04-20T09:16:16.547Z</time>
      </trkpt>
      <trkpt lat="49.44318" lon="2.03522">
        <ele>181.1</ele>
        <time>2013-04-20T09:16:20.969Z</time>
      </trkpt>
      <trkpt lat="49.44318" lon="2.03523">
        <ele>180.4</ele>
        <time>2013-04-20T09:16:21.548Z</time>
      </trkpt>
      <trkpt lat="49.44316" lon="2.03528">
        <ele>179.9</ele>
        <time>2013-04-20T09:16:24.782Z</time>
      </trkpt>
      <trkpt lat="49.44316" lon="2.0353">
        <ele>178.7</ele>
        <time>2013-04-20T09:16:26.049Z</time>
      </trkpt>
      <trkpt lat="49.44314" lon="2.03535">
        <ele>177.2</ele>
        <time>2013-04-20T09:16:29.927Z</time>
      </trkpt>
      <trkpt lat="49.44313" lon="2.03536">
        <ele>178.5</ele>
        <time>2013-04-20T09:16:31.046Z</time>
      </trkpt>
      <trkpt lat="49.4431" lon="2.03539">
        <ele>177.8</ele>
        <time>2013-04-20T09:16:34.714Z</time>
      </trkpt>
      <trkpt lat="49.44309" lon="2.0354">
        <ele>177.7</ele>
        <time>2013-04-20T09:16:35.751Z</time>
      </trkpt>
      <trkpt lat="49.44306" lon="2.03543">
        <ele>177.7</ele>
        <time>2013-04-20T09:16:38.547Z</time>
      </trkpt>
      <trkpt lat="49.44303" lon="2.03545">
        <ele>177.9</ele>
        <time>2013-04-20T09:16:40.749Z</time>
      </trkpt>
      <trkpt lat="49.44299" lon="2.03547">
        <ele>185</ele>
        <time>2013-04-20T09:16:43.546Z</time>
      </trkpt>
      <trkpt lat="49.44297" lon="2.0355">
        <ele>185.1</ele>
        <time>2013-04-20T09:16:44.746Z</time>
      </trkpt>
      <trkpt lat="49.44294" lon="2.03552">
        <ele>183.8</ele>
        <time>2013-04-20T09:16:48.546Z</time>
      </trkpt>
      <trkpt lat="49.44293" lon="2.03553">
        <ele>183.6</ele>
        <time>2013-04-20T09:16:49.534Z</time>
      </trkpt>
      <trkpt lat="49.44289" lon="2.03555">
        <ele>184.6</ele>
        <time>2013-04-20T09:16:53.756Z</time>
      </trkpt>
      <trkpt lat="49.44288" lon="2.03556">
        <ele>185.9</ele>
        <time>2013-04-20T09:16:54.745Z</time>
      </trkpt>
      <trkpt lat="49.44284" lon="2.03558">
        <ele>186.1</ele>
        <time>2013-04-20T09:16:59.042Z</time>
      </trkpt>
      <trkpt lat="49.44284" lon="2.03559">
        <ele>186.3</ele>
        <time>2013-04-20T09:16:59.546Z</time>
      </trkpt>
      <trkpt lat="49.4428" lon="2.03562">
        <ele>187.4</ele>
        <time>2013-04-20T09:17:04.742Z</time>
      </trkpt>
      <trkpt lat="49.4428" lon="2.03564">
        <ele>186.8</ele>
        <time>2013-04-20T09:17:06.537Z</time>
      </trkpt>
      <trkpt lat="49.44278" lon="2.03568">
        <ele>189</ele>
        <time>2013-04-20T09:17:16.561Z</time>
      </trkpt>
      <trkpt lat="49.44277" lon="2.03569">
        <ele>188.8</ele>
        <time>2013-04-20T09:17:18.048Z</time>
      </trkpt>
      <trkpt lat="49.44273" lon="2.03572">
        <ele>188.5</ele>
        <time>2013-04-20T09:17:25.746Z</time>
      </trkpt>
      <trkpt lat="49.44272" lon="2.03574">
        <ele>188.2</ele>
        <time>2013-04-20T09:17:27.039Z</time>
      </trkpt>
      <trkpt lat="49.44269" lon="2.03578">
        <ele>187.7</ele>
        <time>2013-04-20T09:17:30.067Z</time>
      </trkpt>
      <trkpt lat="49.44268" lon="2.0358">
        <ele>187.2</ele>
        <time>2013-04-20T09:17:31.059Z</time>
      </trkpt>
      <trkpt lat="49.44265" lon="2.03584">
        <ele>187.2</ele>
        <time>2013-04-20T09:17:32.645Z</time>
      </trkpt>
      <trkpt lat="49.44263" lon="2.03587">
        <ele>186.7</ele>
        <time>2013-04-20T09:17:33.933Z</time>
      </trkpt>
      <trkpt lat="49.44261" lon="2.03591">
        <ele>186.8</ele>
        <time>2013-04-20T09:17:35.597Z</time>
      </trkpt>
      <trkpt lat="49.4426" lon="2.03593">
        <ele>187.3</ele>
        <time>2013-04-20T09:17:36.744Z</time>
      </trkpt>
      <trkpt lat="49.44258" lon="2.03598">
        <ele>187.9</ele>
        <time>2013-04-20T09:17:38.741Z</time>
      </trkpt>
      <trkpt lat="49.44256" lon="2.03602">
        <ele>184</ele>
        <time>2013-04-20T09:17:40.553Z</time>
      </trkpt>
      <trkpt lat="49.44253" lon="2.03607">
        <ele>185.7</ele>
        <time>2013-04-20T09:17:42.561Z</time>
      </trkpt>
      <trkpt lat="49.44252" lon="2.03609">
        <ele>184.4</ele>
        <time>2013-04-20T09:17:43.563Z</time>
      </trkpt>
      <trkpt lat="49.44251" lon="2.03611">
        <ele>186.2</ele>
        <time>2013-04-20T09:17:45.711Z</time>
      </trkpt>
      <trkpt lat="49.44248" lon="2.03615">
        <ele>189.1</ele>
        <time>2013-04-20T09:17:47.539Z</time>
      </trkpt>
      <trkpt lat="49.44247" lon="2.03618">
        <ele>186.8</ele>
        <time>2013-04-20T09:17:49.540Z</time>
      </trkpt>
      <trkpt lat="49.44245" lon="2.03622">
        <ele>188</ele>
        <time>2013-04-20T09:17:51.578Z</time>
      </trkpt>
      <trkpt lat="49.44242" lon="2.03627">
        <ele>186.3</ele>
        <time>2013-04-20T09:17:54.713Z</time>
      </trkpt>
      <trkpt lat="49.44241" lon="2.03628">
        <ele>185.4</ele>
        <time>2013-04-20T09:17:55.671Z</time>
      </trkpt>
      <trkpt lat="49.44239" lon="2.03631">
        <ele>183.9</ele>
        <time>2013-04-20T09:17:59.546Z</time>
      </trkpt>
      <trkpt lat="49.44232" lon="2.03643">
        <ele>173.9</ele>
        <time>2013-04-20T09:18:02.044Z</time>
      </trkpt>
      <trkpt lat="49.44229" lon="2.03647">
        <ele>175.1</ele>
        <time>2013-04-20T09:18:04.247Z</time>
      </trkpt>
      <trkpt lat="49.44228" lon="2.03648">
        <ele>176.3</ele>
        <time>2013-04-20T09:18:04.637Z</time>
      </trkpt>
      <trkpt lat="49.44225" lon="2.03652">
        <ele>176.7</ele>
        <time>2013-04-20T09:18:07.752Z</time>
      </trkpt>
      <trkpt lat="49.44225" lon="2.03653">
        <ele>177.2</ele>
        <time>2013-04-20T09:18:09.031Z</time>
      </trkpt>
      <trkpt lat="49.44223" lon="2.03655">
        <ele>178</ele>
        <time>2013-04-20T09:18:10.550Z</time>
      </trkpt>
      <trkpt lat="49.4422" lon="2.03656">
        <ele>178.4</ele>
        <time>2013-04-20T09:18:12.737Z</time>
      </trkpt>
      <trkpt lat="49.44217" lon="2.03659">
        <ele>177.7</ele>
        <time>2013-04-20T09:18:16.155Z</time>
      </trkpt>
      <trkpt lat="49.44216" lon="2.0366">
        <ele>177.5</ele>
        <time>2013-04-20T09:18:16.553Z</time>
      </trkpt>
      <trkpt lat="49.44214" lon="2.03663">
        <ele>179.5</ele>
        <time>2013-04-20T09:18:18.731Z</time>
      </trkpt>
      <trkpt lat="49.44213" lon="2.03666">
        <ele>180.5</ele>
        <time>2013-04-20T09:18:20.004Z</time>
      </trkpt>
      <trkpt lat="49.44211" lon="2.0367">
        <ele>181.7</ele>
        <time>2013-04-20T09:18:21.804Z</time>
      </trkpt>
      <trkpt lat="49.4421" lon="2.03671">
        <ele>179.8</ele>
        <time>2013-04-20T09:18:22.585Z</time>
      </trkpt>
      <trkpt lat="49.44209" lon="2.03672">
        <ele>178</ele>
        <time>2013-04-20T09:18:23.532Z</time>
      </trkpt>
      <trkpt lat="49.44206" lon="2.03676">
        <ele>178.2</ele>
        <time>2013-04-20T09:18:25.745Z</time>
      </trkpt>
      <trkpt lat="49.44203" lon="2.03678">
        <ele>184.3</ele>
        <time>2013-04-20T09:18:32.546Z</time>
      </trkpt>
      <trkpt lat="49.44202" lon="2.03679">
        <ele>184.4</ele>
        <time>2013-04-20T09:18:33.515Z</time>
      </trkpt>
      <trkpt lat="49.442" lon="2.03682">
        <ele>182.4</ele>
        <time>2013-04-20T09:18:37.538Z</time>
      </trkpt>
      <trkpt lat="49.44199" lon="2.03684">
        <ele>184.9</ele>
        <time>2013-04-20T09:18:38.503Z</time>
      </trkpt>
      <trkpt lat="49.44196" lon="2.03687">
        <ele>185.9</ele>
        <time>2013-04-20T09:18:40.742Z</time>
      </trkpt>
      <trkpt lat="49.44195" lon="2.0369">
        <ele>187.9</ele>
        <time>2013-04-20T09:18:41.732Z</time>
      </trkpt>
      <trkpt lat="49.44193" lon="2.03694">
        <ele>189.3</ele>
        <time>2013-04-20T09:18:44.045Z</time>
      </trkpt>
      <trkpt lat="49.44192" lon="2.03696">
        <ele>189.7</ele>
        <time>2013-04-20T09:18:45.045Z</time>
      </trkpt>
      <trkpt lat="49.44188" lon="2.03699">
        <ele>191.8</ele>
        <time>2013-04-20T09:18:48.514Z</time>
      </trkpt>
      <trkpt lat="49.44187" lon="2.03699">
        <ele>190.7</ele>
        <time>2013-04-20T09:18:49.534Z</time>
      </trkpt>
      <trkpt lat="49.44184" lon="2.03701">
        <ele>188.1</ele>
        <time>2013-04-20T09:18:53.257Z</time>
      </trkpt>
      <trkpt lat="49.44183" lon="2.03702">
        <ele>187.6</ele>
        <time>2013-04-20T09:18:53.540Z</time>
      </trkpt>
      <trkpt lat="49.4418" lon="2.03706">
        <ele>187.9</ele>
        <time>2013-04-20T09:18:55.819Z</time>
      </trkpt>
      <trkpt lat="49.44178" lon="2.03708">
        <ele>188.4</ele>
        <time>2013-04-20T09:18:57.056Z</time>
      </trkpt>
      <trkpt lat="49.44176" lon="2.03713">
        <ele>188</ele>
        <time>2013-04-20T09:18:58.750Z</time>
      </trkpt>
      <trkpt lat="49.44174" lon="2.03719">
        <ele>189.8</ele>
        <time>2013-04-20T09:19:00.641Z</time>
      </trkpt>
      <trkpt lat="49.44172" lon="2.03726">
        <ele>191.1</ele>
        <time>2013-04-20T09:19:03.745Z</time>
      </trkpt>
      <trkpt lat="49.44171" lon="2.03729">
        <ele>190.4</ele>
        <time>2013-04-20T09:19:05.529Z</time>
      </trkpt>
      <trkpt lat="49.44169" lon="2.03734">
        <ele>192.4</ele>
        <time>2013-04-20T09:19:08.636Z</time>
      </trkpt>
      <trkpt lat="49.44168" lon="2.03736">
        <ele>193.3</ele>
        <time>2013-04-20T09:19:09.562Z</time>
      </trkpt>
      <trkpt lat="49.44167" lon="2.03736">
        <ele>193.3</ele>
        <time>2013-04-20T09:19:10.546Z</time>
      </trkpt>
      <trkpt lat="49.44164" lon="2.0374">
        <ele>195.8</ele>
        <time>2013-04-20T09:19:11.752Z</time>
      </trkpt>
      <trkpt lat="49.4416" lon="2.03744">
        <ele>195</ele>
        <time>2013-04-20T09:19:13.784Z</time>
      </trkpt>
      <trkpt lat="49.44159" lon="2.03746">
        <ele>194.9</ele>
        <time>2013-04-20T09:19:15.032Z</time>
      </trkpt>
      <trkpt lat="49.44157" lon="2.03748">
        <ele>195.6</ele>
        <time>2013-04-20T09:19:16.741Z</time>
      </trkpt>
      <trkpt lat="49.44153" lon="2.03755">
        <ele>198.8</ele>
        <time>2013-04-20T09:19:18.541Z</time>
      </trkpt>
      <trkpt lat="49.44152" lon="2.03757">
        <ele>198.8</ele>
        <time>2013-04-20T09:19:21.039Z</time>
      </trkpt>
      <trkpt lat="49.4415" lon="2.0376">
        <ele>199.1</ele>
        <time>2013-04-20T09:19:22.042Z</time>
      </trkpt>
      <trkpt lat="49.44153" lon="2.03755">
        <ele>190.6</ele>
        <time>2013-04-20T09:19:30.536Z</time>
      </trkpt>
      <trkpt lat="49.44154" lon="2.03753">
        <ele>190.5</ele>
        <time>2013-04-20T09:19:31.548Z</time>
      </trkpt>
      <trkpt lat="49.44149" lon="2.03752">
        <ele>187.5</ele>
        <time>2013-04-20T09:20:19.531Z</time>
      </trkpt>
      <trkpt lat="49.44148" lon="2.03755">
        <ele>185.4</ele>
        <time>2013-04-20T09:20:20.545Z</time>
      </trkpt>
      <trkpt lat="49.44146" lon="2.03759">
        <ele>184.9</ele>
        <time>2013-04-20T09:20:22.542Z</time>
      </trkpt>
      <trkpt lat="49.44145" lon="2.03761">
        <ele>183.7</ele>
        <time>2013-04-20T09:20:23.535Z</time>
      </trkpt>
      <trkpt lat="49.44142" lon="2.03765">
        <ele>185.2</ele>
        <time>2013-04-20T09:20:25.547Z</time>
      </trkpt>
      <trkpt lat="49.4414" lon="2.03767">
        <ele>186.3</ele>
        <time>2013-04-20T09:20:26.541Z</time>
      </trkpt>
      <trkpt lat="49.44137" lon="2.03771">
        <ele>186</ele>
        <time>2013-04-20T09:20:29.542Z</time>
      </trkpt>
      <trkpt lat="49.44136" lon="2.03772">
        <ele>183.9</ele>
        <time>2013-04-20T09:20:30.544Z</time>
      </trkpt>
      <trkpt lat="49.44133" lon="2.03777">
        <ele>182.1</ele>
        <time>2013-04-20T09:20:33.544Z</time>
      </trkpt>
      <trkpt lat="49.44132" lon="2.03779">
        <ele>183.1</ele>
        <time>2013-04-20T09:20:34.750Z</time>
      </trkpt>
      <trkpt lat="49.4413" lon="2.03782">
        <ele>184.5</ele>
        <time>2013-04-20T09:20:36.749Z</time>
      </trkpt>
      <trkpt lat="49.44128" lon="2.03784">
        <ele>184.6</ele>
        <time>2013-04-20T09:20:38.047Z</time>
      </trkpt>
      <trkpt lat="49.44125" lon="2.03787">
        <ele>183.5</ele>
        <time>2013-04-20T09:20:43.532Z</time>
      </trkpt>
      <trkpt lat="49.44122" lon="2.03789">
        <ele>183.5</ele>
        <time>2013-04-20T09:20:45.745Z</time>
      </trkpt>
      <trkpt lat="49.44119" lon="2.03793">
        <ele>183.1</ele>
        <time>2013-04-20T09:20:48.725Z</time>
      </trkpt>
      <trkpt lat="49.44117" lon="2.03796">
        <ele>182.4</ele>
        <time>2013-04-20T09:20:50.559Z</time>
      </trkpt>
      <trkpt lat="49.44113" lon="2.03799">
        <ele>183.8</ele>
        <time>2013-04-20T09:20:53.587Z</time>
      </trkpt>
      <trkpt lat="49.44111" lon="2.03801">
        <ele>183.9</ele>
        <time>2013-04-20T09:20:54.873Z</time>
      </trkpt>
      <trkpt lat="49.44109" lon="2.03804">
        <ele>184.5</ele>
        <time>2013-04-20T09:20:56.540Z</time>
      </trkpt>
      <trkpt lat="49.44108" lon="2.03807">
        <ele>184.7</ele>
        <time>2013-04-20T09:20:57.739Z</time>
      </trkpt>
      <trkpt lat="49.44105" lon="2.0381">
        <ele>186.6</ele>
        <time>2013-04-20T09:21:02.559Z</time>
      </trkpt>
      <trkpt lat="49.44102" lon="2.03813">
        <ele>187.2</ele>
        <time>2013-04-20T09:21:04.588Z</time>
      </trkpt>
      <trkpt lat="49.44099" lon="2.03818">
        <ele>188.2</ele>
        <time>2013-04-20T09:21:07.046Z</time>
      </trkpt>
      <trkpt lat="49.44097" lon="2.0382">
        <ele>189.1</ele>
        <time>2013-04-20T09:21:07.672Z</time>
      </trkpt>
      <trkpt lat="49.44096" lon="2.03823">
        <ele>189.8</ele>
        <time>2013-04-20T09:21:08.958Z</time>
      </trkpt>
      <trkpt lat="49.44094" lon="2.03826">
        <ele>188.1</ele>
        <time>2013-04-20T09:21:10.047Z</time>
      </trkpt>
      <trkpt lat="49.44092" lon="2.03831">
        <ele>188.2</ele>
        <time>2013-04-20T09:21:11.748Z</time>
      </trkpt>
      <trkpt lat="49.44091" lon="2.03833">
        <ele>190.9</ele>
        <time>2013-04-20T09:21:13.531Z</time>
      </trkpt>
      <trkpt lat="49.44089" lon="2.03836">
        <ele>188.5</ele>
        <time>2013-04-20T09:21:16.037Z</time>
      </trkpt>
      <trkpt lat="49.44088" lon="2.03838">
        <ele>189</ele>
        <time>2013-04-20T09:21:16.641Z</time>
      </trkpt>
      <trkpt lat="49.44084" lon="2.0384">
        <ele>192.5</ele>
        <time>2013-04-20T09:21:20.554Z</time>
      </trkpt>
      <trkpt lat="49.44083" lon="2.03842">
        <ele>192.4</ele>
        <time>2013-04-20T09:21:21.549Z</time>
      </trkpt>
      <trkpt lat="49.4408" lon="2.03846">
        <ele>196.9</ele>
        <time>2013-04-20T09:21:24.546Z</time>
      </trkpt>
      <trkpt lat="49.44079" lon="2.03847">
        <ele>197.3</ele>
        <time>2013-04-20T09:21:25.557Z</time>
      </trkpt>
      <trkpt lat="49.44077" lon="2.0385">
        <ele>198</ele>
        <time>2013-04-20T09:21:27.558Z</time>
      </trkpt>
      <trkpt lat="49.44075" lon="2.03852">
        <ele>198.2</ele>
        <time>2013-04-20T09:21:28.555Z</time>
      </trkpt>
      <trkpt lat="49.44072" lon="2.03857">
        <ele>198.6</ele>
        <time>2013-04-20T09:21:30.550Z</time>
      </trkpt>
      <trkpt lat="49.44071" lon="2.03859">
        <ele>199.1</ele>
        <time>2013-04-20T09:21:31.541Z</time>
      </trkpt>
      <trkpt lat="49.44068" lon="2.03864">
        <ele>199.9</ele>
        <time>2013-04-20T09:21:34.554Z</time>
      </trkpt>
      <trkpt lat="49.44067" lon="2.03866">
        <ele>199.6</ele>
        <time>2013-04-20T09:21:35.555Z</time>
      </trkpt>
      <trkpt lat="49.44065" lon="2.0387">
        <ele>199.7</ele>
        <time>2013-04-20T09:21:37.556Z</time>
      </trkpt>
      <trkpt lat="49.44063" lon="2.03872">
        <ele>199.6</ele>
        <time>2013-04-20T09:21:38.656Z</time>
      </trkpt>
      <trkpt lat="49.44061" lon="2.03877">
        <ele>200.2</ele>
        <time>2013-04-20T09:21:41.046Z</time>
      </trkpt>
      <trkpt lat="49.44061" lon="2.03878">
        <ele>200.2</ele>
        <time>2013-04-20T09:21:41.519Z</time>
      </trkpt>
      <trkpt lat="49.44058" lon="2.03883">
        <ele>199.1</ele>
        <time>2013-04-20T09:21:44.555Z</time>
      </trkpt>
      <trkpt lat="49.44055" lon="2.03886">
        <ele>195.6</ele>
        <time>2013-04-20T09:21:46.258Z</time>
      </trkpt>
      <trkpt lat="49.44054" lon="2.03887">
        <ele>195.5</ele>
        <time>2013-04-20T09:21:46.568Z</time>
      </trkpt>
      <trkpt lat="49.44052" lon="2.03891">
        <ele>195.8</ele>
        <time>2013-04-20T09:21:48.866Z</time>
      </trkpt>
      <trkpt lat="49.44049" lon="2.03896">
        <ele>194.9</ele>
        <time>2013-04-20T09:21:51.627Z</time>
      </trkpt>
      <trkpt lat="49.44046" lon="2.039">
        <ele>199</ele>
        <time>2013-04-20T09:21:52.562Z</time>
      </trkpt>
      <trkpt lat="49.44043" lon="2.03905">
        <ele>199.9</ele>
        <time>2013-04-20T09:21:55.022Z</time>
      </trkpt>
      <trkpt lat="49.44042" lon="2.03907">
        <ele>199</ele>
        <time>2013-04-20T09:21:56.047Z</time>
      </trkpt>
      <trkpt lat="49.44039" lon="2.03911">
        <ele>198.2</ele>
        <time>2013-04-20T09:21:58.554Z</time>
      </trkpt>
      <trkpt lat="49.44038" lon="2.03912">
        <ele>198.7</ele>
        <time>2013-04-20T09:21:59.752Z</time>
      </trkpt>
      <trkpt lat="49.44035" lon="2.03917">
        <ele>198</ele>
        <time>2013-04-20T09:22:03.752Z</time>
      </trkpt>
      <trkpt lat="49.44033" lon="2.03919">
        <ele>196.1</ele>
        <time>2013-04-20T09:22:05.279Z</time>
      </trkpt>
      <trkpt lat="49.4403" lon="2.03921">
        <ele>194.7</ele>
        <time>2013-04-20T09:22:06.552Z</time>
      </trkpt>
      <trkpt lat="49.44028" lon="2.03924">
        <ele>194.7</ele>
        <time>2013-04-20T09:22:08.713Z</time>
      </trkpt>
      <trkpt lat="49.44024" lon="2.03927">
        <ele>194.5</ele>
        <time>2013-04-20T09:22:13.059Z</time>
      </trkpt>
      <trkpt lat="49.44023" lon="2.03929">
        <ele>194.8</ele>
        <time>2013-04-20T09:22:14.107Z</time>
      </trkpt>
      <trkpt lat="49.44023" lon="2.03929">
        <ele>195.3</ele>
        <time>2013-04-20T09:22:14.521Z</time>
      </trkpt>
      <trkpt lat="49.4402" lon="2.03935">
        <ele>196.3</ele>
        <time>2013-04-20T09:22:17.045Z</time>
      </trkpt>
      <trkpt lat="49.44017" lon="2.0394">
        <ele>196.9</ele>
        <time>2013-04-20T09:22:18.747Z</time>
      </trkpt>
      <trkpt lat="49.44016" lon="2.03943">
        <ele>197</ele>
        <time>2013-04-20T09:22:19.592Z</time>
      </trkpt>
      <trkpt lat="49.44014" lon="2.03948">
        <ele>197.9</ele>
        <time>2013-04-20T09:22:23.047Z</time>
      </trkpt>
      <trkpt lat="49.44013" lon="2.0395">
        <ele>196.2</ele>
        <time>2013-04-20T09:22:24.058Z</time>
      </trkpt>
      <trkpt lat="49.44011" lon="2.03953">
        <ele>188.8</ele>
        <time>2013-04-20T09:22:28.576Z</time>
      </trkpt>
      <trkpt lat="49.4401" lon="2.03953">
        <ele>187.4</ele>
        <time>2013-04-20T09:22:29.563Z</time>
      </trkpt>
      <trkpt lat="49.44006" lon="2.03955">
        <ele>184.3</ele>
        <time>2013-04-20T09:22:37.545Z</time>
      </trkpt>
      <trkpt lat="49.44005" lon="2.03956">
        <ele>184.2</ele>
        <time>2013-04-20T09:22:38.552Z</time>
      </trkpt>
      <trkpt lat="49.44002" lon="2.0396">
        <ele>185.5</ele>
        <time>2013-04-20T09:22:40.551Z</time>
      </trkpt>
      <trkpt lat="49.44" lon="2.03963">
        <ele>186</ele>
        <time>2013-04-20T09:22:41.545Z</time>
      </trkpt>
      <trkpt lat="49.43999" lon="2.03965">
        <ele>186.7</ele>
        <time>2013-04-20T09:22:42.541Z</time>
      </trkpt>
      <trkpt lat="49.43996" lon="2.03968">
        <ele>187.7</ele>
        <time>2013-04-20T09:22:43.551Z</time>
      </trkpt>
      <trkpt lat="49.43994" lon="2.03972">
        <ele>187.5</ele>
        <time>2013-04-20T09:22:45.544Z</time>
      </trkpt>
      <trkpt lat="49.43992" lon="2.03975">
        <ele>190.7</ele>
        <time>2013-04-20T09:22:46.538Z</time>
      </trkpt>
      <trkpt lat="49.43989" lon="2.0398">
        <ele>193.5</ele>
        <time>2013-04-20T09:22:48.547Z</time>
      </trkpt>
      <trkpt lat="49.43987" lon="2.03981">
        <ele>191.1</ele>
        <time>2013-04-20T09:22:49.544Z</time>
      </trkpt>
      <trkpt lat="49.43984" lon="2.03985">
        <ele>188.9</ele>
        <time>2013-04-20T09:22:51.573Z</time>
      </trkpt>
      <trkpt lat="49.43983" lon="2.03986">
        <ele>189.2</ele>
        <time>2013-04-20T09:22:52.549Z</time>
      </trkpt>
      <trkpt lat="49.4398" lon="2.03991">
        <ele>190.8</ele>
        <time>2013-04-20T09:22:55.750Z</time>
      </trkpt>
      <trkpt lat="49.43978" lon="2.03993">
        <ele>190.9</ele>
        <time>2013-04-20T09:22:56.695Z</time>
      </trkpt>
      <trkpt lat="49.43975" lon="2.03997">
        <ele>188.2</ele>
        <time>2013-04-20T09:22:59.601Z</time>
      </trkpt>
      <trkpt lat="49.43974" lon="2.03998">
        <ele>188.2</ele>
        <time>2013-04-20T09:23:00.547Z</time>
      </trkpt>
      <trkpt lat="49.43971" lon="2.04001">
        <ele>187.6</ele>
        <time>2013-04-20T09:23:18.542Z</time>
      </trkpt>
      <trkpt lat="49.4397" lon="2.04002">
        <ele>185.8</ele>
        <time>2013-04-20T09:23:19.541Z</time>
      </trkpt>
      <trkpt lat="49.43968" lon="2.04004">
        <ele>181.1</ele>
        <time>2013-04-20T09:23:22.554Z</time>
      </trkpt>
      <trkpt lat="49.43964" lon="2.04007">
        <ele>185.4</ele>
        <time>2013-04-20T09:23:24.739Z</time>
      </trkpt>
      <trkpt lat="49.43962" lon="2.04011">
        <ele>186.2</ele>
        <time>2013-04-20T09:23:27.043Z</time>
      </trkpt>
      <trkpt lat="49.43961" lon="2.04012">
        <ele>187.2</ele>
        <time>2013-04-20T09:23:27.539Z</time>
      </trkpt>
      <trkpt lat="49.43958" lon="2.04017">
        <ele>186.8</ele>
        <time>2013-04-20T09:23:30.028Z</time>
      </trkpt>
      <trkpt lat="49.43958" lon="2.04018">
        <ele>187</ele>
        <time>2013-04-20T09:23:30.545Z</time>
      </trkpt>
      <trkpt lat="49.43955" lon="2.04021">
        <ele>186.3</ele>
        <time>2013-04-20T09:23:32.574Z</time>
      </trkpt>
      <trkpt lat="49.43954" lon="2.04022">
        <ele>185.1</ele>
        <time>2013-04-20T09:23:33.552Z</time>
      </trkpt>
      <trkpt lat="49.43951" lon="2.04025">
        <ele>184.8</ele>
        <time>2013-04-20T09:23:36.048Z</time>
      </trkpt>
      <trkpt lat="49.4395" lon="2.04025">
        <ele>184.4</ele>
        <time>2013-04-20T09:23:36.555Z</time>
      </trkpt>
      <trkpt lat="49.43946" lon="2.04028">
        <ele>186.1</ele>
        <time>2013-04-20T09:23:38.748Z</time>
      </trkpt>
      <trkpt lat="49.43945" lon="2.04029">
        <ele>186</ele>
        <time>2013-04-20T09:23:39.740Z</time>
      </trkpt>
      <trkpt lat="49.43942" lon="2.04033">
        <ele>186.2</ele>
        <time>2013-04-20T09:23:41.568Z</time>
      </trkpt>
      <trkpt lat="49.4394" lon="2.04035">
        <ele>186.3</ele>
        <time>2013-04-20T09:23:42.566Z</time>
      </trkpt>
      <trkpt lat="49.43937" lon="2.04038">
        <ele>184.9</ele>
        <time>2013-04-20T09:23:46.044Z</time>
      </trkpt>
      <trkpt lat="49.43936" lon="2.0404">
        <ele>184.8</ele>
        <time>2013-04-20T09:23:46.642Z</time>
      </trkpt>
      <trkpt lat="49.43933" lon="2.04044">
        <ele>183.1</ele>
        <time>2013-04-20T09:23:49.747Z</time>
      </trkpt>
      <trkpt lat="49.43932" lon="2.04046">
        <ele>182.4</ele>
        <time>2013-04-20T09:23:51.238Z</time>
      </trkpt>
      <trkpt lat="49.4393" lon="2.04048">
        <ele>181.8</ele>
        <time>2013-04-20T09:23:52.547Z</time>
      </trkpt>
      <trkpt lat="49.43929" lon="2.04052">
        <ele>182.6</ele>
        <time>2013-04-20T09:23:55.238Z</time>
      </trkpt>
      <trkpt lat="49.43927" lon="2.04057">
        <ele>184.4</ele>
        <time>2013-04-20T09:23:58.535Z</time>
      </trkpt>
      <trkpt lat="49.43926" lon="2.04058">
        <ele>184</ele>
        <time>2013-04-20T09:23:59.543Z</time>
      </trkpt>
      <trkpt lat="49.43922" lon="2.0406">
        <ele>179.9</ele>
        <time>2013-04-20T09:24:05.506Z</time>
      </trkpt>
      <trkpt lat="49.43922" lon="2.04062">
        <ele>179.9</ele>
        <time>2013-04-20T09:24:06.630Z</time>
      </trkpt>
      <trkpt lat="49.43921" lon="2.04067">
        <ele>179.8</ele>
        <time>2013-04-20T09:24:08.552Z</time>
      </trkpt>
      <trkpt lat="49.43921" lon="2.0407">
        <ele>179.8</ele>
        <time>2013-04-20T09:24:09.537Z</time>
      </trkpt>
      <trkpt lat="49.43921" lon="2.04076">
        <ele>180.4</ele>
        <time>2013-04-20T09:24:11.543Z</time>
      </trkpt>
      <trkpt lat="49.4392" lon="2.04078">
        <ele>177.8</ele>
        <time>2013-04-20T09:24:12.537Z</time>
      </trkpt>
      <trkpt lat="49.43919" lon="2.04084">
        <ele>178.1</ele>
        <time>2013-04-20T09:24:15.512Z</time>
      </trkpt>
      <trkpt lat="49.4392" lon="2.04085">
        <ele>176.4</ele>
        <time>2013-04-20T09:24:16.641Z</time>
      </trkpt>
      <trkpt lat="49.43921" lon="2.04092">
        <ele>176.8</ele>
        <time>2013-04-20T09:24:20.620Z</time>
      </trkpt>
      <trkpt lat="49.4392" lon="2.04095">
        <ele>178.8</ele>
        <time>2013-04-20T09:24:21.734Z</time>
      </trkpt>
      <trkpt lat="49.43919" lon="2.04101">
        <ele>179.4</ele>
        <time>2013-04-20T09:24:23.741Z</time>
      </trkpt>
      <trkpt lat="49.43919" lon="2.04105">
        <ele>179.7</ele>
        <time>2013-04-20T09:24:24.712Z</time>
      </trkpt>
      <trkpt lat="49.43918" lon="2.04111">
        <ele>182</ele>
        <time>2013-04-20T09:24:26.607Z</time>
      </trkpt>
      <trkpt lat="49.43919" lon="2.04112">
        <ele>183</ele>
        <time>2013-04-20T09:24:27.536Z</time>
      </trkpt>
      <trkpt lat="49.43918" lon="2.04117">
        <ele>181.4</ele>
        <time>2013-04-20T09:24:31.721Z</time>
      </trkpt>
      <trkpt lat="49.43918" lon="2.04119">
        <ele>182.2</ele>
        <time>2013-04-20T09:24:32.998Z</time>
      </trkpt>
      <trkpt lat="49.43917" lon="2.04125">
        <ele>178.7</ele>
        <time>2013-04-20T09:24:35.538Z</time>
      </trkpt>
      <trkpt lat="49.43917" lon="2.04126">
        <ele>178.1</ele>
        <time>2013-04-20T09:24:36.548Z</time>
      </trkpt>
      <trkpt lat="49.43916" lon="2.04131">
        <ele>179.9</ele>
        <time>2013-04-20T09:24:38.541Z</time>
      </trkpt>
      <trkpt lat="49.43916" lon="2.04134">
        <ele>180.8</ele>
        <time>2013-04-20T09:24:39.534Z</time>
      </trkpt>
      <trkpt lat="49.43915" lon="2.04139">
        <ele>181.5</ele>
        <time>2013-04-20T09:24:41.547Z</time>
      </trkpt>
      <trkpt lat="49.43915" lon="2.04141">
        <ele>182.8</ele>
        <time>2013-04-20T09:24:42.539Z</time>
      </trkpt>
      <trkpt lat="49.43914" lon="2.04146">
        <ele>182.8</ele>
        <time>2013-04-20T09:24:44.547Z</time>
      </trkpt>
      <trkpt lat="49.43914" lon="2.04148">
        <ele>183</ele>
        <time>2013-04-20T09:24:45.563Z</time>
      </trkpt>
      <trkpt lat="49.43914" lon="2.04153">
        <ele>181.2</ele>
        <time>2013-04-20T09:24:48.744Z</time>
      </trkpt>
      <trkpt lat="49.43914" lon="2.04155">
        <ele>180.5</ele>
        <time>2013-04-20T09:24:49.660Z</time>
      </trkpt>
      <trkpt lat="49.43913" lon="2.04159">
        <ele>180.5</ele>
        <time>2013-04-20T09:24:51.573Z</time>
      </trkpt>
      <trkpt lat="49.43912" lon="2.04162">
        <ele>180.4</ele>
        <time>2013-04-20T09:24:52.744Z</time>
      </trkpt>
      <trkpt lat="49.43911" lon="2.04165">
        <ele>180</ele>
        <time>2013-04-20T09:24:54.539Z</time>
      </trkpt>
      <trkpt lat="49.43909" lon="2.04169">
        <ele>180</ele>
        <time>2013-04-20T09:24:56.551Z</time>
      </trkpt>
      <trkpt lat="49.43908" lon="2.04176">
        <ele>180.5</ele>
        <time>2013-04-20T09:24:59.552Z</time>
      </trkpt>
      <trkpt lat="49.43908" lon="2.04178">
        <ele>177.8</ele>
        <time>2013-04-20T09:25:00.538Z</time>
      </trkpt>
      <trkpt lat="49.43909" lon="2.04184">
        <ele>177</ele>
        <time>2013-04-20T09:25:02.509Z</time>
      </trkpt>
      <trkpt lat="49.43908" lon="2.04186">
        <ele>177.8</ele>
        <time>2013-04-20T09:25:03.547Z</time>
      </trkpt>
      <trkpt lat="49.43907" lon="2.04192">
        <ele>178.8</ele>
        <time>2013-04-20T09:25:05.530Z</time>
      </trkpt>
      <trkpt lat="49.43907" lon="2.04195">
        <ele>178.9</ele>
        <time>2013-04-20T09:25:06.546Z</time>
      </trkpt>
      <trkpt lat="49.43906" lon="2.04201">
        <ele>178.5</ele>
        <time>2013-04-20T09:25:08.546Z</time>
      </trkpt>
      <trkpt lat="49.43906" lon="2.04204">
        <ele>173.3</ele>
        <time>2013-04-20T09:25:09.737Z</time>
      </trkpt>
      <trkpt lat="49.43905" lon="2.04209">
        <ele>171</ele>
        <time>2013-04-20T09:25:11.543Z</time>
      </trkpt>
      <trkpt lat="49.43904" lon="2.04212">
        <ele>170.9</ele>
        <time>2013-04-20T09:25:12.742Z</time>
      </trkpt>
      <trkpt lat="49.43904" lon="2.04216">
        <ele>163.3</ele>
        <time>2013-04-20T09:25:14.553Z</time>
      </trkpt>
      <trkpt lat="49.43904" lon="2.0422">
        <ele>162.3</ele>
        <time>2013-04-20T09:25:16.556Z</time>
      </trkpt>
      <trkpt lat="49.43904" lon="2.04224">
        <ele>167.1</ele>
        <time>2013-04-20T09:25:18.552Z</time>
      </trkpt>
      <trkpt lat="49.43904" lon="2.04227">
        <ele>163.8</ele>
        <time>2013-04-20T09:25:20.828Z</time>
      </trkpt>
      <trkpt lat="49.43905" lon="2.04233">
        <ele>161.2</ele>
        <time>2013-04-20T09:25:24.669Z</time>
      </trkpt>
      <trkpt lat="49.43904" lon="2.04237">
        <ele>171.8</ele>
        <time>2013-04-20T09:25:26.542Z</time>
      </trkpt>
      <trkpt lat="49.43904" lon="2.04243">
        <ele>168.6</ele>
        <time>2013-04-20T09:25:29.757Z</time>
      </trkpt>
      <trkpt lat="49.43904" lon="2.04244">
        <ele>168</ele>
        <time>2013-04-20T09:25:30.748Z</time>
      </trkpt>
      <trkpt lat="49.43904" lon="2.0425">
        <ele>165.7</ele>
        <time>2013-04-20T09:25:33.552Z</time>
      </trkpt>
      <trkpt lat="49.43904" lon="2.04252">
        <ele>165.6</ele>
        <time>2013-04-20T09:25:34.562Z</time>
      </trkpt>
      <trkpt lat="49.43905" lon="2.04258">
        <ele>165.4</ele>
        <time>2013-04-20T09:25:38.512Z</time>
      </trkpt>
      <trkpt lat="49.43905" lon="2.04261">
        <ele>165.4</ele>
        <time>2013-04-20T09:25:40.556Z</time>
      </trkpt>
      <trkpt lat="49.43904" lon="2.04264">
        <ele>164.8</ele>
        <time>2013-04-20T09:25:42.542Z</time>
      </trkpt>
      <trkpt lat="49.43903" lon="2.04268">
        <ele>164.4</ele>
        <time>2013-04-20T09:25:43.606Z</time>
      </trkpt>
      <trkpt lat="49.43902" lon="2.04274">
        <ele>164.2</ele>
        <time>2013-04-20T09:25:45.547Z</time>
      </trkpt>
      <trkpt lat="49.43902" lon="2.04278">
        <ele>163.4</ele>
        <time>2013-04-20T09:25:46.554Z</time>
      </trkpt>
      <trkpt lat="49.43901" lon="2.04283">
        <ele>162.1</ele>
        <time>2013-04-20T09:25:48.598Z</time>
      </trkpt>
      <trkpt lat="49.43901" lon="2.04287">
        <ele>161.8</ele>
        <time>2013-04-20T09:25:49.751Z</time>
      </trkpt>
      <trkpt lat="49.43901" lon="2.04292">
        <ele>160.7</ele>
        <time>2013-04-20T09:25:51.548Z</time>
      </trkpt>
      <trkpt lat="49.43901" lon="2.04297">
        <ele>160.6</ele>
        <time>2013-04-20T09:25:52.554Z</time>
      </trkpt>
      <trkpt lat="49.439" lon="2.04303">
        <ele>160.5</ele>
        <time>2013-04-20T09:25:54.545Z</time>
      </trkpt>
      <trkpt lat="49.43899" lon="2.04306">
        <ele>159.4</ele>
        <time>2013-04-20T09:25:55.531Z</time>
      </trkpt>
      <trkpt lat="49.43899" lon="2.04312">
        <ele>158.5</ele>
        <time>2013-04-20T09:25:58.528Z</time>
      </trkpt>
      <trkpt lat="49.43899" lon="2.04313">
        <ele>159.8</ele>
        <time>2013-04-20T09:25:59.545Z</time>
      </trkpt>
      <trkpt lat="49.439" lon="2.0432">
        <ele>161.8</ele>
        <time>2013-04-20T09:26:02.528Z</time>
      </trkpt>
      <trkpt lat="49.43899" lon="2.04321">
        <ele>162.1</ele>
        <time>2013-04-20T09:26:03.543Z</time>
      </trkpt>
      <trkpt lat="49.43898" lon="2.04328">
        <ele>161.7</ele>
        <time>2013-04-20T09:26:05.566Z</time>
      </trkpt>
      <trkpt lat="49.43897" lon="2.0433">
        <ele>161.6</ele>
        <time>2013-04-20T09:26:06.557Z</time>
      </trkpt>
      <trkpt lat="49.43896" lon="2.04335">
        <ele>157.7</ele>
        <time>2013-04-20T09:26:08.547Z</time>
      </trkpt>
      <trkpt lat="49.43896" lon="2.04338">
        <ele>158.4</ele>
        <time>2013-04-20T09:26:09.546Z</time>
      </trkpt>
      <trkpt lat="49.43894" lon="2.04344">
        <ele>156.3</ele>
        <time>2013-04-20T09:26:12.748Z</time>
      </trkpt>
      <trkpt lat="49.43894" lon="2.04347">
        <ele>155.9</ele>
        <time>2013-04-20T09:26:14.032Z</time>
      </trkpt>
      <trkpt lat="49.43893" lon="2.04353">
        <ele>155.1</ele>
        <time>2013-04-20T09:26:16.552Z</time>
      </trkpt>
      <trkpt lat="49.43893" lon="2.04355">
        <ele>156</ele>
        <time>2013-04-20T09:26:17.744Z</time>
      </trkpt>
      <trkpt lat="49.43892" lon="2.04361">
        <ele>154.6</ele>
        <time>2013-04-20T09:26:19.743Z</time>
      </trkpt>
      <trkpt lat="49.43892" lon="2.04362">
        <ele>153.3</ele>
        <time>2013-04-20T09:26:21.071Z</time>
      </trkpt>
      <trkpt lat="49.43891" lon="2.04368">
        <ele>154</ele>
        <time>2013-04-20T09:26:24.567Z</time>
      </trkpt>
      <trkpt lat="49.43891" lon="2.0437">
        <ele>154.4</ele>
        <time>2013-04-20T09:26:26.048Z</time>
      </trkpt>
      <trkpt lat="49.4389" lon="2.04375">
        <ele>163</ele>
        <time>2013-04-20T09:26:31.557Z</time>
      </trkpt>
      <trkpt lat="49.4389" lon="2.04376">
        <ele>162.4</ele>
        <time>2013-04-20T09:26:32.556Z</time>
      </trkpt>
      <trkpt lat="49.43889" lon="2.04378">
        <ele>158.1</ele>
        <time>2013-04-20T09:26:36.738Z</time>
      </trkpt>
      <trkpt lat="49.43888" lon="2.04383">
        <ele>157.4</ele>
        <time>2013-04-20T09:26:38.550Z</time>
      </trkpt>
      <trkpt lat="49.43886" lon="2.04388">
        <ele>157.3</ele>
        <time>2013-04-20T09:26:40.552Z</time>
      </trkpt>
      <trkpt lat="49.43886" lon="2.04392">
        <ele>155.3</ele>
        <time>2013-04-20T09:26:41.516Z</time>
      </trkpt>
      <trkpt lat="49.43885" lon="2.04396">
        <ele>155.5</ele>
        <time>2013-04-20T09:26:42.742Z</time>
      </trkpt>
      <trkpt lat="49.43884" lon="2.044">
        <ele>155.2</ele>
        <time>2013-04-20T09:26:44.035Z</time>
      </trkpt>
      <trkpt lat="49.43884" lon="2.04403">
        <ele>155.5</ele>
        <time>2013-04-20T09:26:45.051Z</time>
      </trkpt>
      <trkpt lat="49.43883" lon="2.04406">
        <ele>156.5</ele>
        <time>2013-04-20T09:26:46.041Z</time>
      </trkpt>
      <trkpt lat="49.43882" lon="2.04412">
        <ele>158.6</ele>
        <time>2013-04-20T09:26:48.560Z</time>
      </trkpt>
      <trkpt lat="49.43881" lon="2.04415">
        <ele>159.3</ele>
        <time>2013-04-20T09:26:49.516Z</time>
      </trkpt>
      <trkpt lat="49.4388" lon="2.04421">
        <ele>160.2</ele>
        <time>2013-04-20T09:26:55.551Z</time>
      </trkpt>
      <trkpt lat="49.4388" lon="2.04424">
        <ele>160.7</ele>
        <time>2013-04-20T09:26:57.742Z</time>
      </trkpt>
      <trkpt lat="49.4388" lon="2.04427">
        <ele>160.8</ele>
        <time>2013-04-20T09:26:59.581Z</time>
      </trkpt>
      <trkpt lat="49.43878" lon="2.04433">
        <ele>162.2</ele>
        <time>2013-04-20T09:27:02.029Z</time>
      </trkpt>
      <trkpt lat="49.43877" lon="2.04437">
        <ele>162.3</ele>
        <time>2013-04-20T09:27:03.731Z</time>
      </trkpt>
      <trkpt lat="49.43875" lon="2.04444">
        <ele>159</ele>
        <time>2013-04-20T09:27:05.553Z</time>
      </trkpt>
      <trkpt lat="49.43874" lon="2.0445">
        <ele>158.5</ele>
        <time>2013-04-20T09:27:07.747Z</time>
      </trkpt>
      <trkpt lat="49.43873" lon="2.04453">
        <ele>160.6</ele>
        <time>2013-04-20T09:27:09.046Z</time>
      </trkpt>
      <trkpt lat="49.43872" lon="2.04455">
        <ele>161.8</ele>
        <time>2013-04-20T09:27:09.535Z</time>
      </trkpt>
      <trkpt lat="49.4387" lon="2.04463">
        <ele>161.3</ele>
        <time>2013-04-20T09:27:11.709Z</time>
      </trkpt>
      <trkpt lat="49.43869" lon="2.04469">
        <ele>159.7</ele>
        <time>2013-04-20T09:27:13.576Z</time>
      </trkpt>
      <trkpt lat="49.43869" lon="2.04472">
        <ele>160.2</ele>
        <time>2013-04-20T09:27:14.835Z</time>
      </trkpt>
      <trkpt lat="49.43868" lon="2.04478">
        <ele>159.5</ele>
        <time>2013-04-20T09:27:17.047Z</time>
      </trkpt>
      <trkpt lat="49.43868" lon="2.04481">
        <ele>159.3</ele>
        <time>2013-04-20T09:27:18.035Z</time>
      </trkpt>
      <trkpt lat="49.43868" lon="2.04485">
        <ele>158.4</ele>
        <time>2013-04-20T09:27:19.547Z</time>
      </trkpt>
      <trkpt lat="49.43868" lon="2.0449">
        <ele>157.2</ele>
        <time>2013-04-20T09:27:22.050Z</time>
      </trkpt>
      <trkpt lat="49.43868" lon="2.04493">
        <ele>157</ele>
        <time>2013-04-20T09:27:23.549Z</time>
      </trkpt>
      <trkpt lat="49.43866" lon="2.04499">
        <ele>159.7</ele>
        <time>2013-04-20T09:27:25.740Z</time>
      </trkpt>
      <trkpt lat="49.43865" lon="2.04503">
        <ele>163.6</ele>
        <time>2013-04-20T09:27:27.548Z</time>
      </trkpt>
      <trkpt lat="49.43863" lon="2.04508">
        <ele>163.5</ele>
        <time>2013-04-20T09:27:30.052Z</time>
      </trkpt>
      <trkpt lat="49.43862" lon="2.04514">
        <ele>163.7</ele>
        <time>2013-04-20T09:27:31.560Z</time>
      </trkpt>
      <trkpt lat="49.43862" lon="2.04516">
        <ele>163.8</ele>
        <time>2013-04-20T09:27:32.506Z</time>
      </trkpt>
      <trkpt lat="49.43863" lon="2.0452">
        <ele>161.4</ele>
        <time>2013-04-20T09:27:34.522Z</time>
      </trkpt>
      <trkpt lat="49.43863" lon="2.04523">
        <ele>161.9</ele>
        <time>2013-04-20T09:27:35.556Z</time>
      </trkpt>
      <trkpt lat="49.43863" lon="2.04528">
        <ele>158.6</ele>
        <time>2013-04-20T09:27:37.893Z</time>
      </trkpt>
      <trkpt lat="49.43864" lon="2.04531">
        <ele>156.3</ele>
        <time>2013-04-20T09:27:39.041Z</time>
      </trkpt>
      <trkpt lat="49.43865" lon="2.04535">
        <ele>154.2</ele>
        <time>2013-04-20T09:27:40.538Z</time>
      </trkpt>
      <trkpt lat="49.43865" lon="2.0454">
        <ele>154.8</ele>
        <time>2013-04-20T09:27:42.607Z</time>
      </trkpt>
      <trkpt lat="49.43865" lon="2.04546">
        <ele>154.3</ele>
        <time>2013-04-20T09:27:44.551Z</time>
      </trkpt>
      <trkpt lat="49.43864" lon="2.04548">
        <ele>155.6</ele>
        <time>2013-04-20T09:27:45.548Z</time>
      </trkpt>
      <trkpt lat="49.43864" lon="2.04554">
        <ele>154.9</ele>
        <time>2013-04-20T09:27:47.727Z</time>
      </trkpt>
      <trkpt lat="49.43864" lon="2.04557">
        <ele>154.8</ele>
        <time>2013-04-20T09:27:48.560Z</time>
      </trkpt>
      <trkpt lat="49.43865" lon="2.04559">
        <ele>154.4</ele>
        <time>2013-04-20T09:27:49.544Z</time>
      </trkpt>
      <trkpt lat="49.43865" lon="2.04564">
        <ele>152.6</ele>
        <time>2013-04-20T09:27:51.941Z</time>
      </trkpt>
      <trkpt lat="49.43864" lon="2.04568">
        <ele>154.3</ele>
        <time>2013-04-20T09:27:53.545Z</time>
      </trkpt>
      <trkpt lat="49.43864" lon="2.04571">
        <ele>154.6</ele>
        <time>2013-04-20T09:27:54.742Z</time>
      </trkpt>
      <trkpt lat="49.43864" lon="2.04576">
        <ele>153.6</ele>
        <time>2013-04-20T09:27:56.555Z</time>
      </trkpt>
      <trkpt lat="49.43863" lon="2.04578">
        <ele>153.4</ele>
        <time>2013-04-20T09:27:57.560Z</time>
      </trkpt>
      <trkpt lat="49.43863" lon="2.04585">
        <ele>150.9</ele>
        <time>2013-04-20T09:28:03.038Z</time>
      </trkpt>
      <trkpt lat="49.43863" lon="2.04586">
        <ele>152</ele>
        <time>2013-04-20T09:28:04.047Z</time>
      </trkpt>
      <trkpt lat="49.43863" lon="2.04591">
        <ele>149.8</ele>
        <time>2013-04-20T09:28:05.512Z</time>
      </trkpt>
      <trkpt lat="49.43863" lon="2.04594">
        <ele>149.9</ele>
        <time>2013-04-20T09:28:06.526Z</time>
      </trkpt>
      <trkpt lat="49.43862" lon="2.04598">
        <ele>153.1</ele>
        <time>2013-04-20T09:28:08.042Z</time>
      </trkpt>
      <trkpt lat="49.43862" lon="2.04601">
        <ele>153.7</ele>
        <time>2013-04-20T09:28:08.567Z</time>
      </trkpt>
      <trkpt lat="49.43861" lon="2.04607">
        <ele>153.5</ele>
        <time>2013-04-20T09:28:10.511Z</time>
      </trkpt>
      <trkpt lat="49.4386" lon="2.04609">
        <ele>153.6</ele>
        <time>2013-04-20T09:28:11.544Z</time>
      </trkpt>
      <trkpt lat="49.4386" lon="2.04611">
        <ele>153.6</ele>
        <time>2013-04-20T09:28:12.737Z</time>
      </trkpt>
      <trkpt lat="49.43859" lon="2.04617">
        <ele>152.1</ele>
        <time>2013-04-20T09:28:14.511Z</time>
      </trkpt>
      <trkpt lat="49.43859" lon="2.04623">
        <ele>153.2</ele>
        <time>2013-04-20T09:28:17.241Z</time>
      </trkpt>
      <trkpt lat="49.43859" lon="2.04625">
        <ele>151.9</ele>
        <time>2013-04-20T09:28:17.550Z</time>
      </trkpt>
      <trkpt lat="49.4386" lon="2.0463">
        <ele>150.9</ele>
        <time>2013-04-20T09:28:19.524Z</time>
      </trkpt>
      <trkpt lat="49.4386" lon="2.04633">
        <ele>149.2</ele>
        <time>2013-04-20T09:28:20.555Z</time>
      </trkpt>
      <trkpt lat="49.4386" lon="2.04635">
        <ele>148.5</ele>
        <time>2013-04-20T09:28:21.527Z</time>
      </trkpt>
      <trkpt lat="49.43861" lon="2.04641">
        <ele>148.8</ele>
        <time>2013-04-20T09:28:23.949Z</time>
      </trkpt>
      <trkpt lat="49.43862" lon="2.04648">
        <ele>149.7</ele>
        <time>2013-04-20T09:28:25.554Z</time>
      </trkpt>
      <trkpt lat="49.43861" lon="2.04653">
        <ele>151.1</ele>
        <time>2013-04-20T09:28:27.278Z</time>
      </trkpt>
      <trkpt lat="49.43861" lon="2.04656">
        <ele>151.9</ele>
        <time>2013-04-20T09:28:27.524Z</time>
      </trkpt>
      <trkpt lat="49.4386" lon="2.04661">
        <ele>150.3</ele>
        <time>2013-04-20T09:28:28.556Z</time>
      </trkpt>
      <trkpt lat="49.43859" lon="2.04668">
        <ele>150</ele>
        <time>2013-04-20T09:28:30.550Z</time>
      </trkpt>
      <trkpt lat="49.43859" lon="2.04671">
        <ele>149.9</ele>
        <time>2013-04-20T09:28:31.514Z</time>
      </trkpt>
      <trkpt lat="49.43859" lon="2.04676">
        <ele>150.2</ele>
        <time>2013-04-20T09:28:33.551Z</time>
      </trkpt>
      <trkpt lat="49.43859" lon="2.04678">
        <ele>149.5</ele>
        <time>2013-04-20T09:28:34.551Z</time>
      </trkpt>
      <trkpt lat="49.43859" lon="2.04682">
        <ele>147.8</ele>
        <time>2013-04-20T09:28:36.513Z</time>
      </trkpt>
      <trkpt lat="49.43858" lon="2.04685">
        <ele>147.9</ele>
        <time>2013-04-20T09:28:37.549Z</time>
      </trkpt>
      <trkpt lat="49.43858" lon="2.04691">
        <ele>146.6</ele>
        <time>2013-04-20T09:28:40.566Z</time>
      </trkpt>
      <trkpt lat="49.43859" lon="2.04693">
        <ele>146.8</ele>
        <time>2013-04-20T09:28:41.534Z</time>
      </trkpt>
      <trkpt lat="49.43859" lon="2.04699">
        <ele>147.1</ele>
        <time>2013-04-20T09:28:45.022Z</time>
      </trkpt>
      <trkpt lat="49.43859" lon="2.04702">
        <ele>146.8</ele>
        <time>2013-04-20T09:28:45.652Z</time>
      </trkpt>
      <trkpt lat="49.43858" lon="2.04705">
        <ele>146.7</ele>
        <time>2013-04-20T09:28:46.584Z</time>
      </trkpt>
      <trkpt lat="49.43857" lon="2.04711">
        <ele>146.8</ele>
        <time>2013-04-20T09:28:49.231Z</time>
      </trkpt>
      <trkpt lat="49.43857" lon="2.04714">
        <ele>147.2</ele>
        <time>2013-04-20T09:28:50.546Z</time>
      </trkpt>
      <trkpt lat="49.43856" lon="2.04718">
        <ele>147</ele>
        <time>2013-04-20T09:28:52.037Z</time>
      </trkpt>
      <trkpt lat="49.43856" lon="2.04724">
        <ele>145.7</ele>
        <time>2013-04-20T09:28:54.595Z</time>
      </trkpt>
      <trkpt lat="49.43856" lon="2.04728">
        <ele>145.3</ele>
        <time>2013-04-20T09:28:57.050Z</time>
      </trkpt>
      <trkpt lat="49.43855" lon="2.04734">
        <ele>142.5</ele>
        <time>2013-04-20T09:28:59.737Z</time>
      </trkpt>
      <trkpt lat="49.43854" lon="2.04739">
        <ele>141.7</ele>
        <time>2013-04-20T09:29:02.046Z</time>
      </trkpt>
      <trkpt lat="49.43854" lon="2.04746">
        <ele>143.8</ele>
        <time>2013-04-20T09:29:04.836Z</time>
      </trkpt>
      <trkpt lat="49.43854" lon="2.04747">
        <ele>144.4</ele>
        <time>2013-04-20T09:29:05.546Z</time>
      </trkpt>
      <trkpt lat="49.43856" lon="2.04753">
        <ele>145.8</ele>
        <time>2013-04-20T09:29:08.554Z</time>
      </trkpt>
      <trkpt lat="49.43856" lon="2.04754">
        <ele>145.9</ele>
        <time>2013-04-20T09:29:09.547Z</time>
      </trkpt>
      <trkpt lat="49.43856" lon="2.04758">
        <ele>148.4</ele>
        <time>2013-04-20T09:29:12.546Z</time>
      </trkpt>
      <trkpt lat="49.43855" lon="2.04762">
        <ele>148.5</ele>
        <time>2013-04-20T09:29:14.538Z</time>
      </trkpt>
      <trkpt lat="49.43855" lon="2.04769">
        <ele>145.8</ele>
        <time>2013-04-20T09:29:17.538Z</time>
      </trkpt>
      <trkpt lat="49.43857" lon="2.04771">
        <ele>141.8</ele>
        <time>2013-04-20T09:29:18.566Z</time>
      </trkpt>
      <trkpt lat="49.4386" lon="2.04772">
        <ele>139.3</ele>
        <time>2013-04-20T09:29:20.634Z</time>
      </trkpt>
      <trkpt lat="49.4386" lon="2.04776">
        <ele>142.5</ele>
        <time>2013-04-20T09:29:21.742Z</time>
      </trkpt>
      <trkpt lat="49.43862" lon="2.04781">
        <ele>143.5</ele>
        <time>2013-04-20T09:29:23.551Z</time>
      </trkpt>
      <trkpt lat="49.43863" lon="2.04783">
        <ele>144</ele>
        <time>2013-04-20T09:29:24.541Z</time>
      </trkpt>
      <trkpt lat="49.43864" lon="2.04786">
        <ele>143.6</ele>
        <time>2013-04-20T09:29:25.616Z</time>
      </trkpt>
      <trkpt lat="49.43865" lon="2.04789">
        <ele>144.7</ele>
        <time>2013-04-20T09:29:26.531Z</time>
      </trkpt>
      <trkpt lat="49.43865" lon="2.04793">
        <ele>144.3</ele>
        <time>2013-04-20T09:29:27.544Z</time>
      </trkpt>
      <trkpt lat="49.43865" lon="2.04796">
        <ele>143.1</ele>
        <time>2013-04-20T09:29:28.538Z</time>
      </trkpt>
      <trkpt lat="49.43864" lon="2.04801">
        <ele>140.6</ele>
        <time>2013-04-20T09:29:30.607Z</time>
      </trkpt>
      <trkpt lat="49.43864" lon="2.04804">
        <ele>140</ele>
        <time>2013-04-20T09:29:31.558Z</time>
      </trkpt>
      <trkpt lat="49.43862" lon="2.04809">
        <ele>141</ele>
        <time>2013-04-20T09:29:34.236Z</time>
      </trkpt>
      <trkpt lat="49.43861" lon="2.04812">
        <ele>140.5</ele>
        <time>2013-04-20T09:29:35.237Z</time>
      </trkpt>
      <trkpt lat="49.4386" lon="2.04817">
        <ele>139.8</ele>
        <time>2013-04-20T09:29:36.548Z</time>
      </trkpt>
      <trkpt lat="49.43859" lon="2.04819">
        <ele>139.6</ele>
        <time>2013-04-20T09:29:37.544Z</time>
      </trkpt>
      <trkpt lat="49.43858" lon="2.04824">
        <ele>139.3</ele>
        <time>2013-04-20T09:29:39.545Z</time>
      </trkpt>
      <trkpt lat="49.43859" lon="2.04827">
        <ele>137.6</ele>
        <time>2013-04-20T09:29:40.742Z</time>
      </trkpt>
      <trkpt lat="49.4386" lon="2.04833">
        <ele>135.7</ele>
        <time>2013-04-20T09:29:43.726Z</time>
      </trkpt>
      <trkpt lat="49.4386" lon="2.04835">
        <ele>135.9</ele>
        <time>2013-04-20T09:29:44.563Z</time>
      </trkpt>
      <trkpt lat="49.4386" lon="2.0484">
        <ele>135.4</ele>
        <time>2013-04-20T09:29:46.568Z</time>
      </trkpt>
      <trkpt lat="49.4386" lon="2.04843">
        <ele>135</ele>
        <time>2013-04-20T09:29:47.541Z</time>
      </trkpt>
      <trkpt lat="49.43862" lon="2.04846">
        <ele>134.9</ele>
        <time>2013-04-20T09:29:48.534Z</time>
      </trkpt>
      <trkpt lat="49.43865" lon="2.04851">
        <ele>135.3</ele>
        <time>2013-04-20T09:29:50.742Z</time>
      </trkpt>
      <trkpt lat="49.43867" lon="2.04855">
        <ele>136.3</ele>
        <time>2013-04-20T09:29:51.579Z</time>
      </trkpt>
      <trkpt lat="49.43868" lon="2.04857">
        <ele>136.4</ele>
        <time>2013-04-20T09:29:52.552Z</time>
      </trkpt>
      <trkpt lat="49.43868" lon="2.04864">
        <ele>135.2</ele>
        <time>2013-04-20T09:29:54.535Z</time>
      </trkpt>
      <trkpt lat="49.43869" lon="2.04867">
        <ele>134.9</ele>
        <time>2013-04-20T09:29:55.507Z</time>
      </trkpt>
      <trkpt lat="49.43869" lon="2.0487">
        <ele>134.8</ele>
        <time>2013-04-20T09:29:56.549Z</time>
      </trkpt>
      <trkpt lat="49.43869" lon="2.04875">
        <ele>135.7</ele>
        <time>2013-04-20T09:29:58.041Z</time>
      </trkpt>
      <trkpt lat="49.43867" lon="2.04878">
        <ele>133.5</ele>
        <time>2013-04-20T09:29:59.533Z</time>
      </trkpt>
      <trkpt lat="49.43867" lon="2.04883">
        <ele>135.5</ele>
        <time>2013-04-20T09:30:02.041Z</time>
      </trkpt>
      <trkpt lat="49.43864" lon="2.04888">
        <ele>134.5</ele>
        <time>2013-04-20T09:30:03.840Z</time>
      </trkpt>
      <trkpt lat="49.43864" lon="2.0489">
        <ele>133.7</ele>
        <time>2013-04-20T09:30:05.069Z</time>
      </trkpt>
      <trkpt lat="49.43863" lon="2.04896">
        <ele>130</ele>
        <time>2013-04-20T09:30:07.616Z</time>
      </trkpt>
      <trkpt lat="49.43863" lon="2.04898">
        <ele>129.8</ele>
        <time>2013-04-20T09:30:08.889Z</time>
      </trkpt>
      <trkpt lat="49.43864" lon="2.04903">
        <ele>130.4</ele>
        <time>2013-04-20T09:30:10.511Z</time>
      </trkpt>
      <trkpt lat="49.43865" lon="2.04905">
        <ele>130.5</ele>
        <time>2013-04-20T09:30:11.528Z</time>
      </trkpt>
      <trkpt lat="49.43863" lon="2.04911">
        <ele>127.2</ele>
        <time>2013-04-20T09:30:14.545Z</time>
      </trkpt>
      <trkpt lat="49.43863" lon="2.04913">
        <ele>126.8</ele>
        <time>2013-04-20T09:30:15.543Z</time>
      </trkpt>
      <trkpt lat="49.43863" lon="2.04917">
        <ele>127</ele>
        <time>2013-04-20T09:30:17.542Z</time>
      </trkpt>
      <trkpt lat="49.43864" lon="2.04922">
        <ele>127.5</ele>
        <time>2013-04-20T09:30:19.552Z</time>
      </trkpt>
      <trkpt lat="49.43864" lon="2.04929">
        <ele>124.4</ele>
        <time>2013-04-20T09:30:23.005Z</time>
      </trkpt>
      <trkpt lat="49.43864" lon="2.04932">
        <ele>125.6</ele>
        <time>2013-04-20T09:30:24.124Z</time>
      </trkpt>
      <trkpt lat="49.43866" lon="2.04936">
        <ele>126.5</ele>
        <time>2013-04-20T09:30:25.541Z</time>
      </trkpt>
      <trkpt lat="49.43868" lon="2.04939">
        <ele>126.6</ele>
        <time>2013-04-20T09:30:26.835Z</time>
      </trkpt>
      <trkpt lat="49.43869" lon="2.04944">
        <ele>126.8</ele>
        <time>2013-04-20T09:30:29.126Z</time>
      </trkpt>
      <trkpt lat="49.4387" lon="2.04947">
        <ele>127.4</ele>
        <time>2013-04-20T09:30:30.034Z</time>
      </trkpt>
      <trkpt lat="49.4387" lon="2.04952">
        <ele>127.8</ele>
        <time>2013-04-20T09:30:31.950Z</time>
      </trkpt>
      <trkpt lat="49.43871" lon="2.04954">
        <ele>126.4</ele>
        <time>2013-04-20T09:30:33.241Z</time>
      </trkpt>
      <trkpt lat="49.43871" lon="2.04959">
        <ele>125.9</ele>
        <time>2013-04-20T09:30:34.549Z</time>
      </trkpt>
      <trkpt lat="49.43872" lon="2.04961">
        <ele>125.3</ele>
        <time>2013-04-20T09:30:35.560Z</time>
      </trkpt>
      <trkpt lat="49.43874" lon="2.04966">
        <ele>126</ele>
        <time>2013-04-20T09:30:37.557Z</time>
      </trkpt>
      <trkpt lat="49.43875" lon="2.04968">
        <ele>126.3</ele>
        <time>2013-04-20T09:30:39.041Z</time>
      </trkpt>
      <trkpt lat="49.43876" lon="2.04974">
        <ele>125.3</ele>
        <time>2013-04-20T09:30:40.929Z</time>
      </trkpt>
      <trkpt lat="49.43876" lon="2.04976">
        <ele>125.8</ele>
        <time>2013-04-20T09:30:42.197Z</time>
      </trkpt>
      <trkpt lat="49.43875" lon="2.0498">
        <ele>124</ele>
        <time>2013-04-20T09:30:43.568Z</time>
      </trkpt>
      <trkpt lat="49.43875" lon="2.04984">
        <ele>123.8</ele>
        <time>2013-04-20T09:30:46.047Z</time>
      </trkpt>
      <trkpt lat="49.43876" lon="2.04989">
        <ele>122.8</ele>
        <time>2013-04-20T09:30:49.555Z</time>
      </trkpt>
      <trkpt lat="49.43877" lon="2.0499">
        <ele>122.5</ele>
        <time>2013-04-20T09:30:50.506Z</time>
      </trkpt>
      <trkpt lat="49.43879" lon="2.04996">
        <ele>123.5</ele>
        <time>2013-04-20T09:30:53.716Z</time>
      </trkpt>
      <trkpt lat="49.4388" lon="2.04998">
        <ele>124.1</ele>
        <time>2013-04-20T09:30:55.010Z</time>
      </trkpt>
      <trkpt lat="49.4388" lon="2.05004">
        <ele>123.7</ele>
        <time>2013-04-20T09:30:56.566Z</time>
      </trkpt>
      <trkpt lat="49.4388" lon="2.05006">
        <ele>122.5</ele>
        <time>2013-04-20T09:30:57.560Z</time>
      </trkpt>
      <trkpt lat="49.43878" lon="2.05011">
        <ele>120.5</ele>
        <time>2013-04-20T09:31:00.099Z</time>
      </trkpt>
      <trkpt lat="49.43878" lon="2.05014">
        <ele>118.9</ele>
        <time>2013-04-20T09:31:00.529Z</time>
      </trkpt>
      <trkpt lat="49.43879" lon="2.05017">
        <ele>120.9</ele>
        <time>2013-04-20T09:31:02.230Z</time>
      </trkpt>
      <trkpt lat="49.4388" lon="2.0502">
        <ele>120.7</ele>
        <time>2013-04-20T09:31:02.665Z</time>
      </trkpt>
      <trkpt lat="49.43882" lon="2.05026">
        <ele>120.5</ele>
        <time>2013-04-20T09:31:05.212Z</time>
      </trkpt>
      <trkpt lat="49.43882" lon="2.05028">
        <ele>120.1</ele>
        <time>2013-04-20T09:31:05.590Z</time>
      </trkpt>
      <trkpt lat="49.43884" lon="2.05033">
        <ele>121.4</ele>
        <time>2013-04-20T09:31:07.534Z</time>
      </trkpt>
      <trkpt lat="49.43884" lon="2.05036">
        <ele>120.9</ele>
        <time>2013-04-20T09:31:08.556Z</time>
      </trkpt>
      <trkpt lat="49.43884" lon="2.0504">
        <ele>119.5</ele>
        <time>2013-04-20T09:31:11.089Z</time>
      </trkpt>
      <trkpt lat="49.43884" lon="2.05043">
        <ele>119.3</ele>
        <time>2013-04-20T09:31:11.633Z</time>
      </trkpt>
      <trkpt lat="49.43884" lon="2.05049">
        <ele>117.3</ele>
        <time>2013-04-20T09:31:15.233Z</time>
      </trkpt>
      <trkpt lat="49.43884" lon="2.05051">
        <ele>117.8</ele>
        <time>2013-04-20T09:31:16.250Z</time>
      </trkpt>
      <trkpt lat="49.43884" lon="2.05057">
        <ele>116.8</ele>
        <time>2013-04-20T09:31:19.248Z</time>
      </trkpt>
      <trkpt lat="49.43885" lon="2.05059">
        <ele>116.6</ele>
        <time>2013-04-20T09:31:19.580Z</time>
      </trkpt>
      <trkpt lat="49.43886" lon="2.05065">
        <ele>115.3</ele>
        <time>2013-04-20T09:31:23.162Z</time>
      </trkpt>
      <trkpt lat="49.43886" lon="2.05067">
        <ele>114.3</ele>
        <time>2013-04-20T09:31:23.547Z</time>
      </trkpt>
      <trkpt lat="49.4389" lon="2.05067">
        <ele>116.3</ele>
        <time>2013-04-20T09:31:25.536Z</time>
      </trkpt>
      <trkpt lat="49.4389" lon="2.0507">
        <ele>117.4</ele>
        <time>2013-04-20T09:31:26.995Z</time>
      </trkpt>
      <trkpt lat="49.43892" lon="2.05074">
        <ele>118.9</ele>
        <time>2013-04-20T09:31:28.554Z</time>
      </trkpt>
      <trkpt lat="49.43892" lon="2.05077">
        <ele>118.7</ele>
        <time>2013-04-20T09:31:29.567Z</time>
      </trkpt>
      <trkpt lat="49.43893" lon="2.05083">
        <ele>118.9</ele>
        <time>2013-04-20T09:31:32.127Z</time>
      </trkpt>
      <trkpt lat="49.43893" lon="2.05086">
        <ele>118.8</ele>
        <time>2013-04-20T09:31:33.246Z</time>
      </trkpt>
      <trkpt lat="49.43894" lon="2.05092">
        <ele>119.7</ele>
        <time>2013-04-20T09:31:34.528Z</time>
      </trkpt>
      <trkpt lat="49.43894" lon="2.05095">
        <ele>119.6</ele>
        <time>2013-04-20T09:31:35.542Z</time>
      </trkpt>
      <trkpt lat="49.43894" lon="2.05101">
        <ele>118.8</ele>
        <time>2013-04-20T09:31:38.547Z</time>
      </trkpt>
      <trkpt lat="49.43896" lon="2.05104">
        <ele>120</ele>
        <time>2013-04-20T09:31:38.792Z</time>
      </trkpt>
      <trkpt lat="49.43897" lon="2.05109">
        <ele>121.2</ele>
        <time>2013-04-20T09:31:40.786Z</time>
      </trkpt>
      <trkpt lat="49.43897" lon="2.05112">
        <ele>121.8</ele>
        <time>2013-04-20T09:31:41.791Z</time>
      </trkpt>
      <trkpt lat="49.439" lon="2.05117">
        <ele>120.7</ele>
        <time>2013-04-20T09:31:43.804Z</time>
      </trkpt>
      <trkpt lat="49.439" lon="2.05118">
        <ele>120.4</ele>
        <time>2013-04-20T09:31:44.849Z</time>
      </trkpt>
      <trkpt lat="49.43901" lon="2.05123">
        <ele>120.9</ele>
        <time>2013-04-20T09:31:47.394Z</time>
      </trkpt>
      <trkpt lat="49.43902" lon="2.05125">
        <ele>121.5</ele>
        <time>2013-04-20T09:31:48.035Z</time>
      </trkpt>
      <trkpt lat="49.43903" lon="2.05131">
        <ele>121.5</ele>
        <time>2013-04-20T09:31:49.974Z</time>
      </trkpt>
      <trkpt lat="49.43903" lon="2.05134">
        <ele>121.1</ele>
        <time>2013-04-20T09:31:51.234Z</time>
      </trkpt>
      <trkpt lat="49.43904" lon="2.05139">
        <ele>123.3</ele>
        <time>2013-04-20T09:31:52.813Z</time>
      </trkpt>
      <trkpt lat="49.43905" lon="2.05141">
        <ele>124</ele>
        <time>2013-04-20T09:31:53.831Z</time>
      </trkpt>
      <trkpt lat="49.43905" lon="2.05147">
        <ele>123.9</ele>
        <time>2013-04-20T09:31:55.812Z</time>
      </trkpt>
      <trkpt lat="49.43905" lon="2.0515">
        <ele>124.3</ele>
        <time>2013-04-20T09:31:56.902Z</time>
      </trkpt>
      <trkpt lat="49.43906" lon="2.05156">
        <ele>123.3</ele>
        <time>2013-04-20T09:31:59.810Z</time>
      </trkpt>
      <trkpt lat="49.43906" lon="2.05158">
        <ele>124.2</ele>
        <time>2013-04-20T09:32:00.827Z</time>
      </trkpt>
      <trkpt lat="49.43907" lon="2.05163">
        <ele>124.9</ele>
        <time>2013-04-20T09:32:02.815Z</time>
      </trkpt>
      <trkpt lat="49.43908" lon="2.05166">
        <ele>125</ele>
        <time>2013-04-20T09:32:03.809Z</time>
      </trkpt>
      <trkpt lat="49.43909" lon="2.05171">
        <ele>124.5</ele>
        <time>2013-04-20T09:32:05.947Z</time>
      </trkpt>
      <trkpt lat="49.43909" lon="2.05173">
        <ele>124.4</ele>
        <time>2013-04-20T09:32:06.794Z</time>
      </trkpt>
      <trkpt lat="49.43909" lon="2.05179">
        <ele>122.2</ele>
        <time>2013-04-20T09:32:09.177Z</time>
      </trkpt>
      <trkpt lat="49.4391" lon="2.05181">
        <ele>123</ele>
        <time>2013-04-20T09:32:09.845Z</time>
      </trkpt>
      <trkpt lat="49.43909" lon="2.05187">
        <ele>122.6</ele>
        <time>2013-04-20T09:32:13.024Z</time>
      </trkpt>
      <trkpt lat="49.43908" lon="2.05189">
        <ele>122.4</ele>
        <time>2013-04-20T09:32:14.286Z</time>
      </trkpt>
      <trkpt lat="49.43909" lon="2.05194">
        <ele>122.9</ele>
        <time>2013-04-20T09:32:15.827Z</time>
      </trkpt>
      <trkpt lat="49.43908" lon="2.05196">
        <ele>123.1</ele>
        <time>2013-04-20T09:32:16.870Z</time>
      </trkpt>
      <trkpt lat="49.4391" lon="2.05201">
        <ele>124</ele>
        <time>2013-04-20T09:32:19.328Z</time>
      </trkpt>
      <trkpt lat="49.43911" lon="2.05204">
        <ele>123.7</ele>
        <time>2013-04-20T09:32:20.037Z</time>
      </trkpt>
      <trkpt lat="49.43913" lon="2.05209">
        <ele>124.1</ele>
        <time>2013-04-20T09:32:23.284Z</time>
      </trkpt>
      <trkpt lat="49.43913" lon="2.05212">
        <ele>118.5</ele>
        <time>2013-04-20T09:32:23.896Z</time>
      </trkpt>
      <trkpt lat="49.43916" lon="2.05217">
        <ele>121</ele>
        <time>2013-04-20T09:32:26.829Z</time>
      </trkpt>
      <trkpt lat="49.43917" lon="2.0522">
        <ele>120.6</ele>
        <time>2013-04-20T09:32:28.373Z</time>
      </trkpt>
      <trkpt lat="49.43919" lon="2.05224">
        <ele>119.7</ele>
        <time>2013-04-20T09:32:29.824Z</time>
      </trkpt>
      <trkpt lat="49.4392" lon="2.05226">
        <ele>119</ele>
        <time>2013-04-20T09:32:30.904Z</time>
      </trkpt>
      <trkpt lat="49.43922" lon="2.05232">
        <ele>119.5</ele>
        <time>2013-04-20T09:32:34.019Z</time>
      </trkpt>
      <trkpt lat="49.43923" lon="2.05234">
        <ele>119.7</ele>
        <time>2013-04-20T09:32:35.028Z</time>
      </trkpt>
      <trkpt lat="49.43923" lon="2.05239">
        <ele>120.1</ele>
        <time>2013-04-20T09:32:37.347Z</time>
      </trkpt>
      <trkpt lat="49.43924" lon="2.05241">
        <ele>120.7</ele>
        <time>2013-04-20T09:32:37.844Z</time>
      </trkpt>
      <trkpt lat="49.43924" lon="2.05247">
        <ele>117.4</ele>
        <time>2013-04-20T09:32:41.019Z</time>
      </trkpt>
      <trkpt lat="49.43925" lon="2.0525">
        <ele>117.5</ele>
        <time>2013-04-20T09:32:41.854Z</time>
      </trkpt>
      <trkpt lat="49.43927" lon="2.05254">
        <ele>118.3</ele>
        <time>2013-04-20T09:32:43.854Z</time>
      </trkpt>
      <trkpt lat="49.43929" lon="2.05258">
        <ele>119.7</ele>
        <time>2013-04-20T09:32:45.828Z</time>
      </trkpt>
      <trkpt lat="49.43931" lon="2.05261">
        <ele>119.7</ele>
        <time>2013-04-20T09:32:48.028Z</time>
      </trkpt>
      <trkpt lat="49.43933" lon="2.05263">
        <ele>120.2</ele>
        <time>2013-04-20T09:32:48.944Z</time>
      </trkpt>
      <trkpt lat="49.43933" lon="2.05269">
        <ele>116.1</ele>
        <time>2013-04-20T09:32:52.041Z</time>
      </trkpt>
      <trkpt lat="49.43934" lon="2.05272">
        <ele>116.1</ele>
        <time>2013-04-20T09:32:53.018Z</time>
      </trkpt>
      <trkpt lat="49.43933" lon="2.05279">
        <ele>116.2</ele>
        <time>2013-04-20T09:32:55.850Z</time>
      </trkpt>
      <trkpt lat="49.43935" lon="2.05281">
        <ele>117.3</ele>
        <time>2013-04-20T09:32:57.181Z</time>
      </trkpt>
      <trkpt lat="49.43938" lon="2.05285">
        <ele>118</ele>
        <time>2013-04-20T09:32:59.140Z</time>
      </trkpt>
      <trkpt lat="49.43938" lon="2.05286">
        <ele>118</ele>
        <time>2013-04-20T09:32:59.813Z</time>
      </trkpt>
      <trkpt lat="49.43941" lon="2.0529">
        <ele>117.7</ele>
        <time>2013-04-20T09:33:02.305Z</time>
      </trkpt>
      <trkpt lat="49.43942" lon="2.05292">
        <ele>117.9</ele>
        <time>2013-04-20T09:33:02.943Z</time>
      </trkpt>
      <trkpt lat="49.43944" lon="2.05296">
        <ele>118.3</ele>
        <time>2013-04-20T09:33:04.860Z</time>
      </trkpt>
      <trkpt lat="49.43945" lon="2.05298">
        <ele>119.1</ele>
        <time>2013-04-20T09:33:06.024Z</time>
      </trkpt>
      <trkpt lat="49.43948" lon="2.05303">
        <ele>120.6</ele>
        <time>2013-04-20T09:33:08.062Z</time>
      </trkpt>
      <trkpt lat="49.43949" lon="2.05304">
        <ele>120.6</ele>
        <time>2013-04-20T09:33:08.830Z</time>
      </trkpt>
      <trkpt lat="49.43952" lon="2.05309">
        <ele>122</ele>
        <time>2013-04-20T09:33:11.023Z</time>
      </trkpt>
      <trkpt lat="49.43952" lon="2.05311">
        <ele>122.6</ele>
        <time>2013-04-20T09:33:11.899Z</time>
      </trkpt>
      <trkpt lat="49.43954" lon="2.05316">
        <ele>123.3</ele>
        <time>2013-04-20T09:33:13.840Z</time>
      </trkpt>
      <trkpt lat="49.43954" lon="2.05318">
        <ele>123.4</ele>
        <time>2013-04-20T09:33:15.034Z</time>
      </trkpt>
      <trkpt lat="49.43956" lon="2.05322">
        <ele>126.4</ele>
        <time>2013-04-20T09:33:17.030Z</time>
      </trkpt>
      <trkpt lat="49.43957" lon="2.05325">
        <ele>126</ele>
        <time>2013-04-20T09:33:18.288Z</time>
      </trkpt>
      <trkpt lat="49.43958" lon="2.05329">
        <ele>126.3</ele>
        <time>2013-04-20T09:33:19.831Z</time>
      </trkpt>
      <trkpt lat="49.4396" lon="2.05333">
        <ele>125.8</ele>
        <time>2013-04-20T09:33:22.023Z</time>
      </trkpt>
      <trkpt lat="49.43961" lon="2.05338">
        <ele>127</ele>
        <time>2013-04-20T09:33:24.822Z</time>
      </trkpt>
      <trkpt lat="49.43962" lon="2.05341">
        <ele>127.4</ele>
        <time>2013-04-20T09:33:25.813Z</time>
      </trkpt>
      <trkpt lat="49.43964" lon="2.05344">
        <ele>129.9</ele>
        <time>2013-04-20T09:33:27.018Z</time>
      </trkpt>
      <trkpt lat="49.43966" lon="2.05346">
        <ele>129.7</ele>
        <time>2013-04-20T09:33:27.888Z</time>
      </trkpt>
      <trkpt lat="49.43969" lon="2.0535">
        <ele>130.9</ele>
        <time>2013-04-20T09:33:30.450Z</time>
      </trkpt>
      <trkpt lat="49.4397" lon="2.05352">
        <ele>130.8</ele>
        <time>2013-04-20T09:33:30.830Z</time>
      </trkpt>
      <trkpt lat="49.43973" lon="2.05356">
        <ele>128.8</ele>
        <time>2013-04-20T09:33:32.999Z</time>
      </trkpt>
      <trkpt lat="49.43973" lon="2.05357">
        <ele>128.2</ele>
        <time>2013-04-20T09:33:33.815Z</time>
      </trkpt>
      <trkpt lat="49.43975" lon="2.05361">
        <ele>127.7</ele>
        <time>2013-04-20T09:33:36.200Z</time>
      </trkpt>
      <trkpt lat="49.43975" lon="2.05364">
        <ele>127.7</ele>
        <time>2013-04-20T09:33:36.854Z</time>
      </trkpt>
      <trkpt lat="49.43977" lon="2.05367">
        <ele>126</ele>
        <time>2013-04-20T09:33:39.015Z</time>
      </trkpt>
      <trkpt lat="49.43978" lon="2.05371">
        <ele>127</ele>
        <time>2013-04-20T09:33:40.850Z</time>
      </trkpt>
      <trkpt lat="49.43979" lon="2.05376">
        <ele>127.8</ele>
        <time>2013-04-20T09:33:43.253Z</time>
      </trkpt>
      <trkpt lat="49.4398" lon="2.05378">
        <ele>128.3</ele>
        <time>2013-04-20T09:33:43.865Z</time>
      </trkpt>
      <trkpt lat="49.4398" lon="2.05384">
        <ele>123.9</ele>
        <time>2013-04-20T09:33:46.834Z</time>
      </trkpt>
      <trkpt lat="49.43981" lon="2.05386">
        <ele>123.2</ele>
        <time>2013-04-20T09:33:48.020Z</time>
      </trkpt>
      <trkpt lat="49.43981" lon="2.05391">
        <ele>121.6</ele>
        <time>2013-04-20T09:33:50.310Z</time>
      </trkpt>
      <trkpt lat="49.43981" lon="2.05396">
        <ele>121.9</ele>
        <time>2013-04-20T09:33:51.849Z</time>
      </trkpt>
      <trkpt lat="49.43981" lon="2.05402">
        <ele>117.5</ele>
        <time>2013-04-20T09:33:56.829Z</time>
      </trkpt>
      <trkpt lat="49.4398" lon="2.05404">
        <ele>117.5</ele>
        <time>2013-04-20T09:33:57.974Z</time>
      </trkpt>
      <trkpt lat="49.4398" lon="2.0541">
        <ele>115.6</ele>
        <time>2013-04-20T09:34:02.320Z</time>
      </trkpt>
      <trkpt lat="49.4398" lon="2.05413">
        <ele>115.9</ele>
        <time>2013-04-20T09:34:03.079Z</time>
      </trkpt>
      <trkpt lat="49.43981" lon="2.05417">
        <ele>115.5</ele>
        <time>2013-04-20T09:34:04.980Z</time>
      </trkpt>
      <trkpt lat="49.43982" lon="2.0542">
        <ele>116.2</ele>
        <time>2013-04-20T09:34:06.261Z</time>
      </trkpt>
      <trkpt lat="49.43984" lon="2.05425">
        <ele>118.1</ele>
        <time>2013-04-20T09:34:07.813Z</time>
      </trkpt>
      <trkpt lat="49.43984" lon="2.05429">
        <ele>117.3</ele>
        <time>2013-04-20T09:34:08.884Z</time>
      </trkpt>
      <trkpt lat="49.43985" lon="2.05435">
        <ele>117.4</ele>
        <time>2013-04-20T09:34:11.419Z</time>
      </trkpt>
      <trkpt lat="49.43985" lon="2.05437">
        <ele>116.7</ele>
        <time>2013-04-20T09:34:11.829Z</time>
      </trkpt>
      <trkpt lat="49.43986" lon="2.05439">
        <ele>116.4</ele>
        <time>2013-04-20T09:34:12.824Z</time>
      </trkpt>
      <trkpt lat="49.43988" lon="2.05445">
        <ele>118.3</ele>
        <time>2013-04-20T09:34:15.234Z</time>
      </trkpt>
      <trkpt lat="49.43991" lon="2.0545">
        <ele>119.8</ele>
        <time>2013-04-20T09:34:16.830Z</time>
      </trkpt>
      <trkpt lat="49.43993" lon="2.05453">
        <ele>120.1</ele>
        <time>2013-04-20T09:34:17.834Z</time>
      </trkpt>
      <trkpt lat="49.43995" lon="2.05458">
        <ele>117.6</ele>
        <time>2013-04-20T09:34:20.352Z</time>
      </trkpt>
      <trkpt lat="49.43996" lon="2.05461">
        <ele>117.1</ele>
        <time>2013-04-20T09:34:20.992Z</time>
      </trkpt>
      <trkpt lat="49.43997" lon="2.05463">
        <ele>117.5</ele>
        <time>2013-04-20T09:34:21.821Z</time>
      </trkpt>
      <trkpt lat="49.43998" lon="2.05468">
        <ele>118.4</ele>
        <time>2013-04-20T09:34:24.200Z</time>
      </trkpt>
      <trkpt lat="49.43999" lon="2.05473">
        <ele>119.2</ele>
        <time>2013-04-20T09:34:25.849Z</time>
      </trkpt>
      <trkpt lat="49.44001" lon="2.05475">
        <ele>119.8</ele>
        <time>2013-04-20T09:34:26.791Z</time>
      </trkpt>
      <trkpt lat="49.44003" lon="2.0548">
        <ele>120.1</ele>
        <time>2013-04-20T09:34:28.817Z</time>
      </trkpt>
      <trkpt lat="49.44003" lon="2.05482">
        <ele>117.5</ele>
        <time>2013-04-20T09:34:29.957Z</time>
      </trkpt>
      <trkpt lat="49.44005" lon="2.05487">
        <ele>117.1</ele>
        <time>2013-04-20T09:34:31.851Z</time>
      </trkpt>
      <trkpt lat="49.44006" lon="2.05489">
        <ele>116.9</ele>
        <time>2013-04-20T09:34:33.116Z</time>
      </trkpt>
      <trkpt lat="49.44007" lon="2.05492">
        <ele>117.5</ele>
        <time>2013-04-20T09:34:34.845Z</time>
      </trkpt>
      <trkpt lat="49.44008" lon="2.05494">
        <ele>116.7</ele>
        <time>2013-04-20T09:34:36.351Z</time>
      </trkpt>
      <trkpt lat="49.4401" lon="2.05497">
        <ele>115.7</ele>
        <time>2013-04-20T09:34:37.840Z</time>
      </trkpt>
      <trkpt lat="49.44011" lon="2.055">
        <ele>115.9</ele>
        <time>2013-04-20T09:34:38.825Z</time>
      </trkpt>
      <trkpt lat="49.44013" lon="2.05504">
        <ele>115.5</ele>
        <time>2013-04-20T09:34:42.137Z</time>
      </trkpt>
      <trkpt lat="49.44014" lon="2.05505">
        <ele>115.1</ele>
        <time>2013-04-20T09:34:42.829Z</time>
      </trkpt>
      <trkpt lat="49.44017" lon="2.05508">
        <ele>117.2</ele>
        <time>2013-04-20T09:34:45.339Z</time>
      </trkpt>
      <trkpt lat="49.44018" lon="2.05509">
        <ele>117.9</ele>
        <time>2013-04-20T09:34:45.845Z</time>
      </trkpt>
      <trkpt lat="49.44021" lon="2.05513">
        <ele>117.5</ele>
        <time>2013-04-20T09:34:47.904Z</time>
      </trkpt>
      <trkpt lat="49.44022" lon="2.05514">
        <ele>117.2</ele>
        <time>2013-04-20T09:34:49.021Z</time>
      </trkpt>
      <trkpt lat="49.44025" lon="2.05518">
        <ele>116.1</ele>
        <time>2013-04-20T09:34:51.095Z</time>
      </trkpt>
      <trkpt lat="49.44025" lon="2.05519">
        <ele>116.1</ele>
        <time>2013-04-20T09:34:52.358Z</time>
      </trkpt>
      <trkpt lat="49.44027" lon="2.05524">
        <ele>115.2</ele>
        <time>2013-04-20T09:34:54.881Z</time>
      </trkpt>
      <trkpt lat="49.44028" lon="2.05525">
        <ele>115.9</ele>
        <time>2013-04-20T09:34:55.841Z</time>
      </trkpt>
      <trkpt lat="49.44032" lon="2.05529">
        <ele>115.5</ele>
        <time>2013-04-20T09:34:58.830Z</time>
      </trkpt>
      <trkpt lat="49.44034" lon="2.05531">
        <ele>117.2</ele>
        <time>2013-04-20T09:35:00.097Z</time>
      </trkpt>
      <trkpt lat="49.44038" lon="2.05533">
        <ele>118.1</ele>
        <time>2013-04-20T09:35:01.853Z</time>
      </trkpt>
      <trkpt lat="49.44038" lon="2.05533">
        <ele>117.7</ele>
        <time>2013-04-20T09:35:02.818Z</time>
      </trkpt>
      <trkpt lat="49.44041" lon="2.05535">
        <ele>114.9</ele>
        <time>2013-04-20T09:35:05.119Z</time>
      </trkpt>
      <trkpt lat="49.44042" lon="2.05536">
        <ele>114.8</ele>
        <time>2013-04-20T09:35:05.853Z</time>
      </trkpt>
      <trkpt lat="49.44045" lon="2.0554">
        <ele>113.9</ele>
        <time>2013-04-20T09:35:10.279Z</time>
      </trkpt>
      <trkpt lat="49.44046" lon="2.05541">
        <ele>113.8</ele>
        <time>2013-04-20T09:35:10.911Z</time>
      </trkpt>
      <trkpt lat="49.44049" lon="2.05546">
        <ele>114.1</ele>
        <time>2013-04-20T09:35:13.828Z</time>
      </trkpt>
      <trkpt lat="49.44049" lon="2.05548">
        <ele>114.3</ele>
        <time>2013-04-20T09:35:15.119Z</time>
      </trkpt>
      <trkpt lat="49.44051" lon="2.05552">
        <ele>112.8</ele>
        <time>2013-04-20T09:35:17.837Z</time>
      </trkpt>
      <trkpt lat="49.44052" lon="2.05554">
        <ele>113.1</ele>
        <time>2013-04-20T09:35:18.812Z</time>
      </trkpt>
      <trkpt lat="49.44053" lon="2.0556">
        <ele>112</ele>
        <time>2013-04-20T09:35:22.022Z</time>
      </trkpt>
      <trkpt lat="49.44052" lon="2.05564">
        <ele>112.9</ele>
        <time>2013-04-20T09:35:23.810Z</time>
      </trkpt>
      <trkpt lat="49.44051" lon="2.0557">
        <ele>113.6</ele>
        <time>2013-04-20T09:35:26.809Z</time>
      </trkpt>
      <trkpt lat="49.4405" lon="2.05571">
        <ele>112.5</ele>
        <time>2013-04-20T09:35:27.839Z</time>
      </trkpt>
      <trkpt lat="49.44047" lon="2.05575">
        <ele>112.9</ele>
        <time>2013-04-20T09:35:31.830Z</time>
      </trkpt>
      <trkpt lat="49.44047" lon="2.05578">
        <ele>115.3</ele>
        <time>2013-04-20T09:35:33.314Z</time>
      </trkpt>
      <trkpt lat="49.44046" lon="2.05583">
        <ele>114.7</ele>
        <time>2013-04-20T09:35:34.829Z</time>
      </trkpt>
      <trkpt lat="49.44047" lon="2.05587">
        <ele>115.5</ele>
        <time>2013-04-20T09:35:35.831Z</time>
      </trkpt>
      <trkpt lat="49.44047" lon="2.05592">
        <ele>115</ele>
        <time>2013-04-20T09:35:38.309Z</time>
      </trkpt>
      <trkpt lat="49.44047" lon="2.05594">
        <ele>115.6</ele>
        <time>2013-04-20T09:35:39.054Z</time>
      </trkpt>
      <trkpt lat="49.44045" lon="2.05599">
        <ele>116.5</ele>
        <time>2013-04-20T09:35:42.022Z</time>
      </trkpt>
      <trkpt lat="49.44044" lon="2.05601">
        <ele>116</ele>
        <time>2013-04-20T09:35:43.840Z</time>
      </trkpt>
      <trkpt lat="49.44041" lon="2.05604">
        <ele>113.5</ele>
        <time>2013-04-20T09:35:47.826Z</time>
      </trkpt>
      <trkpt lat="49.4404" lon="2.05605">
        <ele>113.3</ele>
        <time>2013-04-20T09:35:48.818Z</time>
      </trkpt>
      <trkpt lat="49.44038" lon="2.05608">
        <ele>114.8</ele>
        <time>2013-04-20T09:35:50.991Z</time>
      </trkpt>
      <trkpt lat="49.44036" lon="2.0561">
        <ele>115.1</ele>
        <time>2013-04-20T09:35:51.842Z</time>
      </trkpt>
      <trkpt lat="49.44034" lon="2.05615">
        <ele>114.1</ele>
        <time>2013-04-20T09:35:55.152Z</time>
      </trkpt>
      <trkpt lat="49.44033" lon="2.05616">
        <ele>113.6</ele>
        <time>2013-04-20T09:35:55.825Z</time>
      </trkpt>
      <trkpt lat="49.4403" lon="2.05622">
        <ele>113.2</ele>
        <time>2013-04-20T09:35:59.823Z</time>
      </trkpt>
      <trkpt lat="49.44028" lon="2.05625">
        <ele>110.6</ele>
        <time>2013-04-20T09:36:02.533Z</time>
      </trkpt>
      <trkpt lat="49.44026" lon="2.0563">
        <ele>111.8</ele>
        <time>2013-04-20T09:36:03.953Z</time>
      </trkpt>
      <trkpt lat="49.44024" lon="2.05632">
        <ele>112.1</ele>
        <time>2013-04-20T09:36:04.866Z</time>
      </trkpt>
      <trkpt lat="49.44023" lon="2.05637">
        <ele>112.2</ele>
        <time>2013-04-20T09:36:07.821Z</time>
      </trkpt>
      <trkpt lat="49.44021" lon="2.05639">
        <ele>111.3</ele>
        <time>2013-04-20T09:36:09.042Z</time>
      </trkpt>
      <trkpt lat="49.44018" lon="2.05644">
        <ele>110.1</ele>
        <time>2013-04-20T09:36:14.826Z</time>
      </trkpt>
      <trkpt lat="49.44017" lon="2.05644">
        <ele>110.1</ele>
        <time>2013-04-20T09:36:16.027Z</time>
      </trkpt>
      <trkpt lat="49.44014" lon="2.05649">
        <ele>113.5</ele>
        <time>2013-04-20T09:36:18.820Z</time>
      </trkpt>
      <trkpt lat="49.44013" lon="2.0565">
        <ele>111.6</ele>
        <time>2013-04-20T09:36:19.822Z</time>
      </trkpt>
      <trkpt lat="49.44011" lon="2.05653">
        <ele>111.4</ele>
        <time>2013-04-20T09:36:21.012Z</time>
      </trkpt>
      <trkpt lat="49.44008" lon="2.05657">
        <ele>112.6</ele>
        <time>2013-04-20T09:36:23.228Z</time>
      </trkpt>
      <trkpt lat="49.44005" lon="2.05661">
        <ele>112.1</ele>
        <time>2013-04-20T09:36:27.831Z</time>
      </trkpt>
      <trkpt lat="49.44004" lon="2.05662">
        <ele>114.3</ele>
        <time>2013-04-20T09:36:28.986Z</time>
      </trkpt>
      <trkpt lat="49.44002" lon="2.05665">
        <ele>113.4</ele>
        <time>2013-04-20T09:36:30.903Z</time>
      </trkpt>
      <trkpt lat="49.44" lon="2.05667">
        <ele>114.3</ele>
        <time>2013-04-20T09:36:32.265Z</time>
      </trkpt>
      <trkpt lat="49.43998" lon="2.0567">
        <ele>117.2</ele>
        <time>2013-04-20T09:36:34.094Z</time>
      </trkpt>
      <trkpt lat="49.43997" lon="2.05672">
        <ele>117.9</ele>
        <time>2013-04-20T09:36:35.407Z</time>
      </trkpt>
      <trkpt lat="49.43994" lon="2.05675">
        <ele>117.3</ele>
        <time>2013-04-20T09:36:37.314Z</time>
      </trkpt>
      <trkpt lat="49.43993" lon="2.05677">
        <ele>117.4</ele>
        <time>2013-04-20T09:36:37.948Z</time>
      </trkpt>
      <trkpt lat="49.43991" lon="2.05681">
        <ele>117</ele>
        <time>2013-04-20T09:36:40.839Z</time>
      </trkpt>
      <trkpt lat="49.4399" lon="2.05682">
        <ele>117.5</ele>
        <time>2013-04-20T09:36:41.903Z</time>
      </trkpt>
      <trkpt lat="49.43987" lon="2.05686">
        <ele>117.7</ele>
        <time>2013-04-20T09:36:43.843Z</time>
      </trkpt>
      <trkpt lat="49.43986" lon="2.05687">
        <ele>117.3</ele>
        <time>2013-04-20T09:36:44.838Z</time>
      </trkpt>
      <trkpt lat="49.43984" lon="2.05692">
        <ele>117.8</ele>
        <time>2013-04-20T09:36:46.839Z</time>
      </trkpt>
      <trkpt lat="49.43983" lon="2.05693">
        <ele>118</ele>
        <time>2013-04-20T09:36:47.827Z</time>
      </trkpt>
      <trkpt lat="49.43981" lon="2.05698">
        <ele>118.6</ele>
        <time>2013-04-20T09:36:50.111Z</time>
      </trkpt>
      <trkpt lat="49.4398" lon="2.057">
        <ele>118.9</ele>
        <time>2013-04-20T09:36:50.830Z</time>
      </trkpt>
      <trkpt lat="49.43978" lon="2.05705">
        <ele>118.1</ele>
        <time>2013-04-20T09:36:53.836Z</time>
      </trkpt>
      <trkpt lat="49.43977" lon="2.05706">
        <ele>118.2</ele>
        <time>2013-04-20T09:36:54.830Z</time>
      </trkpt>
      <trkpt lat="49.43975" lon="2.05711">
        <ele>117.4</ele>
        <time>2013-04-20T09:36:56.819Z</time>
      </trkpt>
      <trkpt lat="49.43975" lon="2.05713">
        <ele>117.1</ele>
        <time>2013-04-20T09:36:57.845Z</time>
      </trkpt>
      <trkpt lat="49.43973" lon="2.05719">
        <ele>116.7</ele>
        <time>2013-04-20T09:37:00.817Z</time>
      </trkpt>
      <trkpt lat="49.43972" lon="2.05721">
        <ele>117</ele>
        <time>2013-04-20T09:37:02.267Z</time>
      </trkpt>
      <trkpt lat="49.4397" lon="2.05726">
        <ele>117.5</ele>
        <time>2013-04-20T09:37:04.190Z</time>
      </trkpt>
      <trkpt lat="49.43969" lon="2.05728">
        <ele>118</ele>
        <time>2013-04-20T09:37:04.817Z</time>
      </trkpt>
      <trkpt lat="49.43967" lon="2.05733">
        <ele>118</ele>
        <time>2013-04-20T09:37:07.795Z</time>
      </trkpt>
      <trkpt lat="49.43966" lon="2.05735">
        <ele>117.3</ele>
        <time>2013-04-20T09:37:08.840Z</time>
      </trkpt>
      <trkpt lat="49.43965" lon="2.05739">
        <ele>116.7</ele>
        <time>2013-04-20T09:37:11.911Z</time>
      </trkpt>
      <trkpt lat="49.43964" lon="2.05741">
        <ele>117</ele>
        <time>2013-04-20T09:37:12.840Z</time>
      </trkpt>
      <trkpt lat="49.43962" lon="2.05747">
        <ele>113</ele>
        <time>2013-04-20T09:37:16.991Z</time>
      </trkpt>
      <trkpt lat="49.43963" lon="2.05748">
        <ele>115</ele>
        <time>2013-04-20T09:37:18.298Z</time>
      </trkpt>
      <trkpt lat="49.43963" lon="2.05752">
        <ele>113</ele>
        <time>2013-04-20T09:37:25.839Z</time>
      </trkpt>
      <trkpt lat="49.43962" lon="2.05755">
        <ele>113.5</ele>
        <time>2013-04-20T09:37:26.835Z</time>
      </trkpt>
      <trkpt lat="49.43962" lon="2.05762">
        <ele>112.6</ele>
        <time>2013-04-20T09:37:29.897Z</time>
      </trkpt>
      <trkpt lat="49.43963" lon="2.05763">
        <ele>111.5</ele>
        <time>2013-04-20T09:37:30.811Z</time>
      </trkpt>
      <trkpt lat="49.43962" lon="2.05769">
        <ele>110.5</ele>
        <time>2013-04-20T09:37:33.821Z</time>
      </trkpt>
      <trkpt lat="49.43963" lon="2.05771">
        <ele>110.3</ele>
        <time>2013-04-20T09:37:34.928Z</time>
      </trkpt>
      <trkpt lat="49.43962" lon="2.05776">
        <ele>107.7</ele>
        <time>2013-04-20T09:37:38.098Z</time>
      </trkpt>
      <trkpt lat="49.43962" lon="2.05778">
        <ele>107.9</ele>
        <time>2013-04-20T09:37:38.813Z</time>
      </trkpt>
      <trkpt lat="49.43961" lon="2.05784">
        <ele>108.4</ele>
        <time>2013-04-20T09:37:43.229Z</time>
      </trkpt>
      <trkpt lat="49.4396" lon="2.05786">
        <ele>106.4</ele>
        <time>2013-04-20T09:37:43.899Z</time>
      </trkpt>
      <trkpt lat="49.43959" lon="2.0579">
        <ele>107.3</ele>
        <time>2013-04-20T09:37:45.829Z</time>
      </trkpt>
      <trkpt lat="49.43958" lon="2.05792">
        <ele>106.1</ele>
        <time>2013-04-20T09:37:46.843Z</time>
      </trkpt>
      <trkpt lat="49.43957" lon="2.05794">
        <ele>105.3</ele>
        <time>2013-04-20T09:37:47.802Z</time>
      </trkpt>
      <trkpt lat="49.43956" lon="2.05799">
        <ele>106</ele>
        <time>2013-04-20T09:37:50.280Z</time>
      </trkpt>
      <trkpt lat="49.43954" lon="2.05803">
        <ele>106.5</ele>
        <time>2013-04-20T09:37:51.886Z</time>
      </trkpt>
      <trkpt lat="49.43953" lon="2.05806">
        <ele>106.9</ele>
        <time>2013-04-20T09:37:52.821Z</time>
      </trkpt>
      <trkpt lat="49.43952" lon="2.0581">
        <ele>107.1</ele>
        <time>2013-04-20T09:37:55.010Z</time>
      </trkpt>
      <trkpt lat="49.43951" lon="2.05813">
        <ele>107.4</ele>
        <time>2013-04-20T09:37:56.848Z</time>
      </trkpt>
      <trkpt lat="49.43948" lon="2.05818">
        <ele>108</ele>
        <time>2013-04-20T09:38:06.255Z</time>
      </trkpt>
      <trkpt lat="49.43948" lon="2.05819">
        <ele>108.1</ele>
        <time>2013-04-20T09:38:06.832Z</time>
      </trkpt>
      <trkpt lat="49.43945" lon="2.05822">
        <ele>108.8</ele>
        <time>2013-04-20T09:38:10.825Z</time>
      </trkpt>
      <trkpt lat="49.43944" lon="2.05824">
        <ele>109.9</ele>
        <time>2013-04-20T09:38:11.818Z</time>
      </trkpt>
      <trkpt lat="49.43943" lon="2.05827">
        <ele>110.4</ele>
        <time>2013-04-20T09:38:12.808Z</time>
      </trkpt>
      <trkpt lat="49.43941" lon="2.0583">
        <ele>112</ele>
        <time>2013-04-20T09:38:15.224Z</time>
      </trkpt>
      <trkpt lat="49.43939" lon="2.05835">
        <ele>112.7</ele>
        <time>2013-04-20T09:38:17.014Z</time>
      </trkpt>
      <trkpt lat="49.43938" lon="2.05837">
        <ele>114.3</ele>
        <time>2013-04-20T09:38:18.321Z</time>
      </trkpt>
      <trkpt lat="49.43936" lon="2.05841">
        <ele>115</ele>
        <time>2013-04-20T09:38:19.096Z</time>
      </trkpt>
      <trkpt lat="49.43934" lon="2.05844">
        <ele>115.8</ele>
        <time>2013-04-20T09:38:19.811Z</time>
      </trkpt>
      <trkpt lat="49.43932" lon="2.05849">
        <ele>112.9</ele>
        <time>2013-04-20T09:38:22.939Z</time>
      </trkpt>
      <trkpt lat="49.43931" lon="2.0585">
        <ele>113.9</ele>
        <time>2013-04-20T09:38:23.806Z</time>
      </trkpt>
      <trkpt lat="49.4393" lon="2.05854">
        <ele>115.3</ele>
        <time>2013-04-20T09:38:25.825Z</time>
      </trkpt>
      <trkpt lat="49.43929" lon="2.05856">
        <ele>115.2</ele>
        <time>2013-04-20T09:38:26.820Z</time>
      </trkpt>
      <trkpt lat="49.43926" lon="2.0586">
        <ele>115.7</ele>
        <time>2013-04-20T09:38:29.339Z</time>
      </trkpt>
      <trkpt lat="49.43925" lon="2.05863">
        <ele>115.8</ele>
        <time>2013-04-20T09:38:30.007Z</time>
      </trkpt>
      <trkpt lat="49.43924" lon="2.05864">
        <ele>115.8</ele>
        <time>2013-04-20T09:38:30.816Z</time>
      </trkpt>
      <trkpt lat="49.4392" lon="2.05868">
        <ele>116.7</ele>
        <time>2013-04-20T09:38:31.878Z</time>
      </trkpt>
      <trkpt lat="49.43918" lon="2.0587">
        <ele>117.2</ele>
        <time>2013-04-20T09:38:32.858Z</time>
      </trkpt>
      <trkpt lat="49.43917" lon="2.05873">
        <ele>116</ele>
        <time>2013-04-20T09:38:33.830Z</time>
      </trkpt>
      <trkpt lat="49.43913" lon="2.05877">
        <ele>116</ele>
        <time>2013-04-20T09:38:35.812Z</time>
      </trkpt>
      <trkpt lat="49.43911" lon="2.0588">
        <ele>115.7</ele>
        <time>2013-04-20T09:38:36.987Z</time>
      </trkpt>
      <trkpt lat="49.43908" lon="2.05882">
        <ele>115.6</ele>
        <time>2013-04-20T09:38:38.939Z</time>
      </trkpt>
      <trkpt lat="49.43907" lon="2.05883">
        <ele>115.2</ele>
        <time>2013-04-20T09:38:40.196Z</time>
      </trkpt>
      <trkpt lat="49.43904" lon="2.05884">
        <ele>115.1</ele>
        <time>2013-04-20T09:38:41.822Z</time>
      </trkpt>
      <trkpt lat="49.43902" lon="2.05887">
        <ele>116.1</ele>
        <time>2013-04-20T09:38:43.025Z</time>
      </trkpt>
      <trkpt lat="49.43898" lon="2.05889">
        <ele>115.6</ele>
        <time>2013-04-20T09:38:44.838Z</time>
      </trkpt>
      <trkpt lat="49.43896" lon="2.05892">
        <ele>117.7</ele>
        <time>2013-04-20T09:38:45.831Z</time>
      </trkpt>
      <trkpt lat="49.43892" lon="2.059">
        <ele>118.6</ele>
        <time>2013-04-20T09:38:47.259Z</time>
      </trkpt>
      <trkpt lat="49.4389" lon="2.05901">
        <ele>118.9</ele>
        <time>2013-04-20T09:38:47.953Z</time>
      </trkpt>
      <trkpt lat="49.43887" lon="2.05902">
        <ele>118.9</ele>
        <time>2013-04-20T09:38:48.832Z</time>
      </trkpt>
      <trkpt lat="49.43884" lon="2.05902">
        <ele>118.3</ele>
        <time>2013-04-20T09:38:50.810Z</time>
      </trkpt>
      <trkpt lat="49.43882" lon="2.05903">
        <ele>118.3</ele>
        <time>2013-04-20T09:38:52.088Z</time>
      </trkpt>
      <trkpt lat="49.43878" lon="2.05905">
        <ele>117.4</ele>
        <time>2013-04-20T09:38:55.013Z</time>
      </trkpt>
      <trkpt lat="49.43878" lon="2.05906">
        <ele>117.2</ele>
        <time>2013-04-20T09:38:56.183Z</time>
      </trkpt>
      <trkpt lat="49.43875" lon="2.05908">
        <ele>115.9</ele>
        <time>2013-04-20T09:38:57.787Z</time>
      </trkpt>
      <trkpt lat="49.43873" lon="2.05911">
        <ele>118.6</ele>
        <time>2013-04-20T09:38:59.398Z</time>
      </trkpt>
      <trkpt lat="49.43869" lon="2.05914">
        <ele>120.4</ele>
        <time>2013-04-20T09:39:05.847Z</time>
      </trkpt>
      <trkpt lat="49.43868" lon="2.05915">
        <ele>121.5</ele>
        <time>2013-04-20T09:39:06.825Z</time>
      </trkpt>
      <trkpt lat="49.43864" lon="2.05918">
        <ele>120.6</ele>
        <time>2013-04-20T09:39:10.272Z</time>
      </trkpt>
      <trkpt lat="49.43863" lon="2.05919">
        <ele>121.6</ele>
        <time>2013-04-20T09:39:10.906Z</time>
      </trkpt>
      <trkpt lat="49.4386" lon="2.0592">
        <ele>124.2</ele>
        <time>2013-04-20T09:39:12.855Z</time>
      </trkpt>
      <trkpt lat="49.43858" lon="2.05921">
        <ele>124.6</ele>
        <time>2013-04-20T09:39:14.028Z</time>
      </trkpt>
      <trkpt lat="49.43854" lon="2.05923">
        <ele>124.1</ele>
        <time>2013-04-20T09:39:16.791Z</time>
      </trkpt>
      <trkpt lat="49.43853" lon="2.05923">
        <ele>124</ele>
        <time>2013-04-20T09:39:17.974Z</time>
      </trkpt>
      <trkpt lat="49.43849" lon="2.05925">
        <ele>123.4</ele>
        <time>2013-04-20T09:39:21.185Z</time>
      </trkpt>
      <trkpt lat="49.43848" lon="2.05925">
        <ele>123</ele>
        <time>2013-04-20T09:39:21.843Z</time>
      </trkpt>
      <trkpt lat="49.43845" lon="2.05928">
        <ele>124</ele>
        <time>2013-04-20T09:39:25.830Z</time>
      </trkpt>
      <trkpt lat="49.43844" lon="2.05929">
        <ele>122.3</ele>
        <time>2013-04-20T09:39:28.210Z</time>
      </trkpt>
      <trkpt lat="49.43841" lon="2.05933">
        <ele>122.1</ele>
        <time>2013-04-20T09:39:29.828Z</time>
      </trkpt>
      <trkpt lat="49.4384" lon="2.05933">
        <ele>120.8</ele>
        <time>2013-04-20T09:39:30.825Z</time>
      </trkpt>
      <trkpt lat="49.43836" lon="2.05936">
        <ele>119.6</ele>
        <time>2013-04-20T09:39:33.825Z</time>
      </trkpt>
      <trkpt lat="49.43835" lon="2.05937">
        <ele>119.2</ele>
        <time>2013-04-20T09:39:34.787Z</time>
      </trkpt>
      <trkpt lat="49.43831" lon="2.05938">
        <ele>118.7</ele>
        <time>2013-04-20T09:39:37.829Z</time>
      </trkpt>
      <trkpt lat="49.4383" lon="2.05939">
        <ele>118.3</ele>
        <time>2013-04-20T09:39:38.829Z</time>
      </trkpt>
      <trkpt lat="49.43827" lon="2.05941">
        <ele>117.6</ele>
        <time>2013-04-20T09:39:41.830Z</time>
      </trkpt>
      <trkpt lat="49.43825" lon="2.05942">
        <ele>117.4</ele>
        <time>2013-04-20T09:39:42.814Z</time>
      </trkpt>
      <trkpt lat="49.43822" lon="2.05945">
        <ele>117</ele>
        <time>2013-04-20T09:39:45.836Z</time>
      </trkpt>
      <trkpt lat="49.43821" lon="2.05946">
        <ele>114.7</ele>
        <time>2013-04-20T09:39:47.111Z</time>
      </trkpt>
      <trkpt lat="49.43818" lon="2.05951">
        <ele>113.9</ele>
        <time>2013-04-20T09:39:49.947Z</time>
      </trkpt>
      <trkpt lat="49.43817" lon="2.05951">
        <ele>113.2</ele>
        <time>2013-04-20T09:39:50.815Z</time>
      </trkpt>
      <trkpt lat="49.43815" lon="2.05953">
        <ele>113.8</ele>
        <time>2013-04-20T09:39:53.028Z</time>
      </trkpt>
      <trkpt lat="49.43813" lon="2.05954">
        <ele>115.3</ele>
        <time>2013-04-20T09:39:54.319Z</time>
      </trkpt>
      <trkpt lat="49.43809" lon="2.05956">
        <ele>116.7</ele>
        <time>2013-04-20T09:39:56.379Z</time>
      </trkpt>
      <trkpt lat="49.43807" lon="2.05957">
        <ele>116.7</ele>
        <time>2013-04-20T09:39:56.801Z</time>
      </trkpt>
      <trkpt lat="49.43804" lon="2.05958">
        <ele>117.7</ele>
        <time>2013-04-20T09:39:57.842Z</time>
      </trkpt>
      <trkpt lat="49.43802" lon="2.0596">
        <ele>118.7</ele>
        <time>2013-04-20T09:39:58.925Z</time>
      </trkpt>
      <trkpt lat="49.43798" lon="2.05963">
        <ele>119.5</ele>
        <time>2013-04-20T09:40:00.853Z</time>
      </trkpt>
      <trkpt lat="49.43796" lon="2.05965">
        <ele>118.5</ele>
        <time>2013-04-20T09:40:02.097Z</time>
      </trkpt>
      <trkpt lat="49.43792" lon="2.05968">
        <ele>120.3</ele>
        <time>2013-04-20T09:40:03.826Z</time>
      </trkpt>
      <trkpt lat="49.43791" lon="2.05969">
        <ele>120.5</ele>
        <time>2013-04-20T09:40:05.300Z</time>
      </trkpt>
      <trkpt lat="49.43787" lon="2.05969">
        <ele>120.1</ele>
        <time>2013-04-20T09:40:09.841Z</time>
      </trkpt>
      <trkpt lat="49.43785" lon="2.0597">
        <ele>119.7</ele>
        <time>2013-04-20T09:40:10.825Z</time>
      </trkpt>
      <trkpt lat="49.43783" lon="2.05973">
        <ele>121.8</ele>
        <time>2013-04-20T09:40:13.832Z</time>
      </trkpt>
      <trkpt lat="49.4378" lon="2.05977">
        <ele>120</ele>
        <time>2013-04-20T09:40:15.831Z</time>
      </trkpt>
      <trkpt lat="49.43777" lon="2.0598">
        <ele>117.4</ele>
        <time>2013-04-20T09:40:18.120Z</time>
      </trkpt>
      <trkpt lat="49.43775" lon="2.05981">
        <ele>117.3</ele>
        <time>2013-04-20T09:40:19.394Z</time>
      </trkpt>
      <trkpt lat="49.43772" lon="2.05984">
        <ele>115</ele>
        <time>2013-04-20T09:40:20.806Z</time>
      </trkpt>
      <trkpt lat="49.43769" lon="2.05986">
        <ele>115.6</ele>
        <time>2013-04-20T09:40:23.242Z</time>
      </trkpt>
      <trkpt lat="49.43765" lon="2.0599">
        <ele>114.8</ele>
        <time>2013-04-20T09:40:36.057Z</time>
      </trkpt>
      <trkpt lat="49.43765" lon="2.0599">
        <ele>114.8</ele>
        <time>2013-04-20T09:40:37.344Z</time>
      </trkpt>
      <trkpt lat="49.43764" lon="2.05995">
        <ele>111.8</ele>
        <time>2013-04-20T09:40:40.880Z</time>
      </trkpt>
      <trkpt lat="49.43764" lon="2.05999">
        <ele>109.3</ele>
        <time>2013-04-20T09:40:42.297Z</time>
      </trkpt>
      <trkpt lat="49.43764" lon="2.06005">
        <ele>108.6</ele>
        <time>2013-04-20T09:40:43.811Z</time>
      </trkpt>
      <trkpt lat="49.43765" lon="2.06011">
        <ele>107.5</ele>
        <time>2013-04-20T09:40:46.295Z</time>
      </trkpt>
      <trkpt lat="49.43766" lon="2.06017">
        <ele>107.5</ele>
        <time>2013-04-20T09:40:47.888Z</time>
      </trkpt>
      <trkpt lat="49.43767" lon="2.06021">
        <ele>107.5</ele>
        <time>2013-04-20T09:40:48.820Z</time>
      </trkpt>
      <trkpt lat="49.43769" lon="2.06027">
        <ele>106</ele>
        <time>2013-04-20T09:40:51.308Z</time>
      </trkpt>
      <trkpt lat="49.43769" lon="2.06029">
        <ele>105.9</ele>
        <time>2013-04-20T09:40:51.872Z</time>
      </trkpt>
      <trkpt lat="49.4377" lon="2.06031">
        <ele>104.9</ele>
        <time>2013-04-20T09:40:53.021Z</time>
      </trkpt>
      <trkpt lat="49.43771" lon="2.06037">
        <ele>107.4</ele>
        <time>2013-04-20T09:40:54.803Z</time>
      </trkpt>
      <trkpt lat="49.43771" lon="2.06042">
        <ele>106.2</ele>
        <time>2013-04-20T09:40:56.822Z</time>
      </trkpt>
      <trkpt lat="49.43772" lon="2.06045">
        <ele>105.4</ele>
        <time>2013-04-20T09:40:57.826Z</time>
      </trkpt>
      <trkpt lat="49.43773" lon="2.0605">
        <ele>107.1</ele>
        <time>2013-04-20T09:40:59.825Z</time>
      </trkpt>
      <trkpt lat="49.43774" lon="2.06053">
        <ele>106.9</ele>
        <time>2013-04-20T09:41:00.820Z</time>
      </trkpt>
      <trkpt lat="49.43775" lon="2.06058">
        <ele>107.1</ele>
        <time>2013-04-20T09:41:02.915Z</time>
      </trkpt>
      <trkpt lat="49.43776" lon="2.0606">
        <ele>107.5</ele>
        <time>2013-04-20T09:41:03.834Z</time>
      </trkpt>
      <trkpt lat="49.43778" lon="2.06066">
        <ele>106.5</ele>
        <time>2013-04-20T09:41:06.903Z</time>
      </trkpt>
      <trkpt lat="49.43779" lon="2.06068">
        <ele>107</ele>
        <time>2013-04-20T09:41:07.829Z</time>
      </trkpt>
      <trkpt lat="49.43781" lon="2.06074">
        <ele>107.4</ele>
        <time>2013-04-20T09:41:11.261Z</time>
      </trkpt>
      <trkpt lat="49.43782" lon="2.06076">
        <ele>107.9</ele>
        <time>2013-04-20T09:41:11.853Z</time>
      </trkpt>
      <trkpt lat="49.43783" lon="2.06081">
        <ele>105.6</ele>
        <time>2013-04-20T09:41:15.157Z</time>
      </trkpt>
      <trkpt lat="49.43785" lon="2.06083">
        <ele>106.1</ele>
        <time>2013-04-20T09:41:15.825Z</time>
      </trkpt>
      <trkpt lat="49.43786" lon="2.06089">
        <ele>105.9</ele>
        <time>2013-04-20T09:41:18.826Z</time>
      </trkpt>
      <trkpt lat="49.43787" lon="2.06093">
        <ele>107.1</ele>
        <time>2013-04-20T09:41:19.823Z</time>
      </trkpt>
      <trkpt lat="49.43788" lon="2.06096">
        <ele>107.1</ele>
        <time>2013-04-20T09:41:21.831Z</time>
      </trkpt>
      <trkpt lat="49.43788" lon="2.06099">
        <ele>106.1</ele>
        <time>2013-04-20T09:41:23.381Z</time>
      </trkpt>
      <trkpt lat="49.43789" lon="2.06105">
        <ele>107.3</ele>
        <time>2013-04-20T09:41:25.830Z</time>
      </trkpt>
      <trkpt lat="49.4379" lon="2.06107">
        <ele>107.7</ele>
        <time>2013-04-20T09:41:26.820Z</time>
      </trkpt>
      <trkpt lat="49.43792" lon="2.06113">
        <ele>106.5</ele>
        <time>2013-04-20T09:41:30.352Z</time>
      </trkpt>
      <trkpt lat="49.43793" lon="2.06115">
        <ele>107.8</ele>
        <time>2013-04-20T09:41:31.097Z</time>
      </trkpt>
      <trkpt lat="49.43796" lon="2.06119">
        <ele>107.8</ele>
        <time>2013-04-20T09:41:32.995Z</time>
      </trkpt>
      <trkpt lat="49.43796" lon="2.06121">
        <ele>107.6</ele>
        <time>2013-04-20T09:41:33.826Z</time>
      </trkpt>
      <trkpt lat="49.43798" lon="2.06125">
        <ele>107.5</ele>
        <time>2013-04-20T09:41:36.215Z</time>
      </trkpt>
      <trkpt lat="49.43799" lon="2.06127">
        <ele>107.8</ele>
        <time>2013-04-20T09:41:36.854Z</time>
      </trkpt>
      <trkpt lat="49.43801" lon="2.06132">
        <ele>107.8</ele>
        <time>2013-04-20T09:41:39.819Z</time>
      </trkpt>
      <trkpt lat="49.43802" lon="2.06134">
        <ele>108.1</ele>
        <time>2013-04-20T09:41:41.405Z</time>
      </trkpt>
      <trkpt lat="49.43803" lon="2.06137">
        <ele>107.8</ele>
        <time>2013-04-20T09:41:42.788Z</time>
      </trkpt>
      <trkpt lat="49.43804" lon="2.0614">
        <ele>107.4</ele>
        <time>2013-04-20T09:41:44.822Z</time>
      </trkpt>
      <trkpt lat="49.43807" lon="2.06143">
        <ele>106.4</ele>
        <time>2013-04-20T09:41:46.893Z</time>
      </trkpt>
      <trkpt lat="49.43808" lon="2.06144">
        <ele>105.8</ele>
        <time>2013-04-20T09:41:47.808Z</time>
      </trkpt>
      <trkpt lat="49.43809" lon="2.06148">
        <ele>105.3</ele>
        <time>2013-04-20T09:41:49.813Z</time>
      </trkpt>
      <trkpt lat="49.43811" lon="2.0615">
        <ele>105.5</ele>
        <time>2013-04-20T09:41:51.010Z</time>
      </trkpt>
      <trkpt lat="49.43811" lon="2.06156">
        <ele>102.3</ele>
        <time>2013-04-20T09:41:53.797Z</time>
      </trkpt>
      <trkpt lat="49.43812" lon="2.06158">
        <ele>99.8</ele>
        <time>2013-04-20T09:41:54.814Z</time>
      </trkpt>
      <trkpt lat="49.4381" lon="2.06164">
        <ele>96.7</ele>
        <time>2013-04-20T09:41:57.945Z</time>
      </trkpt>
      <trkpt lat="49.43811" lon="2.06166">
        <ele>96.6</ele>
        <time>2013-04-20T09:41:59.021Z</time>
      </trkpt>
      <trkpt lat="49.43811" lon="2.06172">
        <ele>96.6</ele>
        <time>2013-04-20T09:42:01.853Z</time>
      </trkpt>
      <trkpt lat="49.43811" lon="2.06175">
        <ele>96.6</ele>
        <time>2013-04-20T09:42:02.806Z</time>
      </trkpt>
      <trkpt lat="49.43813" lon="2.0618">
        <ele>97.6</ele>
        <time>2013-04-20T09:42:05.004Z</time>
      </trkpt>
      <trkpt lat="49.43813" lon="2.06181">
        <ele>97.7</ele>
        <time>2013-04-20T09:42:05.813Z</time>
      </trkpt>
      <trkpt lat="49.43815" lon="2.06186">
        <ele>98.6</ele>
        <time>2013-04-20T09:42:08.194Z</time>
      </trkpt>
      <trkpt lat="49.43816" lon="2.06188">
        <ele>99</ele>
        <time>2013-04-20T09:42:08.934Z</time>
      </trkpt>
      <trkpt lat="49.43818" lon="2.06193">
        <ele>99.3</ele>
        <time>2013-04-20T09:42:11.827Z</time>
      </trkpt>
      <trkpt lat="49.43818" lon="2.06195">
        <ele>99.7</ele>
        <time>2013-04-20T09:42:13.069Z</time>
      </trkpt>
      <trkpt lat="49.43818" lon="2.06201">
        <ele>96.6</ele>
        <time>2013-04-20T09:42:15.887Z</time>
      </trkpt>
      <trkpt lat="49.43818" lon="2.06203">
        <ele>97.1</ele>
        <time>2013-04-20T09:42:17.021Z</time>
      </trkpt>
      <trkpt lat="49.43818" lon="2.06209">
        <ele>98.5</ele>
        <time>2013-04-20T09:42:20.017Z</time>
      </trkpt>
      <trkpt lat="49.43819" lon="2.06212">
        <ele>98.9</ele>
        <time>2013-04-20T09:42:21.018Z</time>
      </trkpt>
      <trkpt lat="49.43821" lon="2.06217">
        <ele>99.6</ele>
        <time>2013-04-20T09:42:23.827Z</time>
      </trkpt>
      <trkpt lat="49.43823" lon="2.0622">
        <ele>99.2</ele>
        <time>2013-04-20T09:42:24.844Z</time>
      </trkpt>
      <trkpt lat="49.43824" lon="2.06223">
        <ele>99.6</ele>
        <time>2013-04-20T09:42:27.026Z</time>
      </trkpt>
      <trkpt lat="49.43826" lon="2.06226">
        <ele>100.1</ele>
        <time>2013-04-20T09:42:28.804Z</time>
      </trkpt>
      <trkpt lat="49.43828" lon="2.06228">
        <ele>101.9</ele>
        <time>2013-04-20T09:42:29.838Z</time>
      </trkpt>
      <trkpt lat="49.4383" lon="2.0623">
        <ele>102.2</ele>
        <time>2013-04-20T09:42:31.200Z</time>
      </trkpt>
      <trkpt lat="49.43831" lon="2.06234">
        <ele>100.4</ele>
        <time>2013-04-20T09:42:32.811Z</time>
      </trkpt>
      <trkpt lat="49.43833" lon="2.06236">
        <ele>100.1</ele>
        <time>2013-04-20T09:42:33.879Z</time>
      </trkpt>
      <trkpt lat="49.43834" lon="2.06239">
        <ele>101</ele>
        <time>2013-04-20T09:42:36.025Z</time>
      </trkpt>
      <trkpt lat="49.43836" lon="2.06244">
        <ele>103.1</ele>
        <time>2013-04-20T09:42:37.836Z</time>
      </trkpt>
      <trkpt lat="49.43838" lon="2.06247">
        <ele>102.3</ele>
        <time>2013-04-20T09:42:40.025Z</time>
      </trkpt>
      <trkpt lat="49.43839" lon="2.06249">
        <ele>102</ele>
        <time>2013-04-20T09:42:40.870Z</time>
      </trkpt>
      <trkpt lat="49.43842" lon="2.06254">
        <ele>101.2</ele>
        <time>2013-04-20T09:42:43.805Z</time>
      </trkpt>
      <trkpt lat="49.43843" lon="2.06256">
        <ele>101.7</ele>
        <time>2013-04-20T09:42:45.029Z</time>
      </trkpt>
      <trkpt lat="49.43846" lon="2.06259">
        <ele>101.8</ele>
        <time>2013-04-20T09:42:47.870Z</time>
      </trkpt>
      <trkpt lat="49.43848" lon="2.0626">
        <ele>102.5</ele>
        <time>2013-04-20T09:42:49.184Z</time>
      </trkpt>
      <trkpt lat="49.43852" lon="2.06263">
        <ele>102.6</ele>
        <time>2013-04-20T09:42:52.993Z</time>
      </trkpt>
      <trkpt lat="49.43852" lon="2.06264">
        <ele>102.8</ele>
        <time>2013-04-20T09:42:54.282Z</time>
      </trkpt>
      <trkpt lat="49.43855" lon="2.06268">
        <ele>106.1</ele>
        <time>2013-04-20T09:42:56.849Z</time>
      </trkpt>
      <trkpt lat="49.43856" lon="2.06268">
        <ele>106.8</ele>
        <time>2013-04-20T09:42:57.822Z</time>
      </trkpt>
      <trkpt lat="49.43859" lon="2.0627">
        <ele>107.2</ele>
        <time>2013-04-20T09:42:59.819Z</time>
      </trkpt>
      <trkpt lat="49.43862" lon="2.0627">
        <ele>108.4</ele>
        <time>2013-04-20T09:43:00.825Z</time>
      </trkpt>
      <trkpt lat="49.43865" lon="2.06271">
        <ele>108.8</ele>
        <time>2013-04-20T09:43:03.229Z</time>
      </trkpt>
      <trkpt lat="49.43867" lon="2.06271">
        <ele>108.7</ele>
        <time>2013-04-20T09:43:03.898Z</time>
      </trkpt>
      <trkpt lat="49.4387" lon="2.06272">
        <ele>107.8</ele>
        <time>2013-04-20T09:43:05.853Z</time>
      </trkpt>
      <trkpt lat="49.43871" lon="2.06273">
        <ele>108.9</ele>
        <time>2013-04-20T09:43:07.073Z</time>
      </trkpt>
      <trkpt lat="49.43875" lon="2.06275">
        <ele>107.4</ele>
        <time>2013-04-20T09:43:09.812Z</time>
      </trkpt>
      <trkpt lat="49.43877" lon="2.06276">
        <ele>107.4</ele>
        <time>2013-04-20T09:43:10.961Z</time>
      </trkpt>
      <trkpt lat="49.43881" lon="2.06277">
        <ele>109</ele>
        <time>2013-04-20T09:43:13.784Z</time>
      </trkpt>
      <trkpt lat="49.43883" lon="2.06278">
        <ele>110.1</ele>
        <time>2013-04-20T09:43:14.824Z</time>
      </trkpt>
      <trkpt lat="49.43887" lon="2.06279">
        <ele>112.5</ele>
        <time>2013-04-20T09:43:17.304Z</time>
      </trkpt>
      <trkpt lat="49.43888" lon="2.0628">
        <ele>112.6</ele>
        <time>2013-04-20T09:43:17.962Z</time>
      </trkpt>
      <trkpt lat="49.43892" lon="2.06281">
        <ele>112.1</ele>
        <time>2013-04-20T09:43:19.881Z</time>
      </trkpt>
      <trkpt lat="49.43894" lon="2.06281">
        <ele>112.1</ele>
        <time>2013-04-20T09:43:20.819Z</time>
      </trkpt>
      <trkpt lat="49.43897" lon="2.06283">
        <ele>110.4</ele>
        <time>2013-04-20T09:43:22.838Z</time>
      </trkpt>
      <trkpt lat="49.43898" lon="2.06283">
        <ele>110.3</ele>
        <time>2013-04-20T09:43:24.354Z</time>
      </trkpt>
      <trkpt lat="49.43902" lon="2.06284">
        <ele>112.5</ele>
        <time>2013-04-20T09:43:25.800Z</time>
      </trkpt>
      <trkpt lat="49.43903" lon="2.06284">
        <ele>113.4</ele>
        <time>2013-04-20T09:43:26.900Z</time>
      </trkpt>
      <trkpt lat="49.43907" lon="2.06283">
        <ele>114</ele>
        <time>2013-04-20T09:43:28.886Z</time>
      </trkpt>
      <trkpt lat="49.43909" lon="2.06283">
        <ele>113.5</ele>
        <time>2013-04-20T09:43:30.131Z</time>
      </trkpt>
      <trkpt lat="49.43913" lon="2.06283">
        <ele>117.1</ele>
        <time>2013-04-20T09:43:32.807Z</time>
      </trkpt>
      <trkpt lat="49.43916" lon="2.06283">
        <ele>121.5</ele>
        <time>2013-04-20T09:43:35.236Z</time>
      </trkpt>
      <trkpt lat="49.4392" lon="2.06283">
        <ele>121.2</ele>
        <time>2013-04-20T09:43:38.325Z</time>
      </trkpt>
      <trkpt lat="49.43922" lon="2.06283">
        <ele>121.1</ele>
        <time>2013-04-20T09:43:39.102Z</time>
      </trkpt>
      <trkpt lat="49.43925" lon="2.06284">
        <ele>120.7</ele>
        <time>2013-04-20T09:43:42.027Z</time>
      </trkpt>
      <trkpt lat="49.43927" lon="2.06284">
        <ele>119</ele>
        <time>2013-04-20T09:43:42.933Z</time>
      </trkpt>
      <trkpt lat="49.43931" lon="2.06284">
        <ele>120.9</ele>
        <time>2013-04-20T09:43:45.825Z</time>
      </trkpt>
      <trkpt lat="49.43933" lon="2.06285">
        <ele>122.1</ele>
        <time>2013-04-20T09:43:46.855Z</time>
      </trkpt>
      <trkpt lat="49.43936" lon="2.06284">
        <ele>122.8</ele>
        <time>2013-04-20T09:43:49.350Z</time>
      </trkpt>
      <trkpt lat="49.43938" lon="2.06284">
        <ele>123.8</ele>
        <time>2013-04-20T09:43:49.891Z</time>
      </trkpt>
      <trkpt lat="49.43942" lon="2.06282">
        <ele>122.8</ele>
        <time>2013-04-20T09:43:53.141Z</time>
      </trkpt>
      <trkpt lat="49.43943" lon="2.06281">
        <ele>122.6</ele>
        <time>2013-04-20T09:43:53.842Z</time>
      </trkpt>
      <trkpt lat="49.43947" lon="2.06281">
        <ele>118.7</ele>
        <time>2013-04-20T09:43:56.989Z</time>
      </trkpt>
      <trkpt lat="49.43948" lon="2.06282">
        <ele>119.5</ele>
        <time>2013-04-20T09:43:58.300Z</time>
      </trkpt>
      <trkpt lat="49.43951" lon="2.06285">
        <ele>119.7</ele>
        <time>2013-04-20T09:44:00.177Z</time>
      </trkpt>
      <trkpt lat="49.43952" lon="2.06286">
        <ele>120</ele>
        <time>2013-04-20T09:44:00.847Z</time>
      </trkpt>
      <trkpt lat="49.43955" lon="2.06289">
        <ele>119.7</ele>
        <time>2013-04-20T09:44:02.811Z</time>
      </trkpt>
      <trkpt lat="49.43956" lon="2.06291">
        <ele>119.2</ele>
        <time>2013-04-20T09:44:04.106Z</time>
      </trkpt>
      <trkpt lat="49.43959" lon="2.06295">
        <ele>118.4</ele>
        <time>2013-04-20T09:44:06.831Z</time>
      </trkpt>
      <trkpt lat="49.4396" lon="2.06297">
        <ele>118.5</ele>
        <time>2013-04-20T09:44:07.840Z</time>
      </trkpt>
      <trkpt lat="49.43962" lon="2.06302">
        <ele>116.7</ele>
        <time>2013-04-20T09:44:10.825Z</time>
      </trkpt>
      <trkpt lat="49.43963" lon="2.06304">
        <ele>116.5</ele>
        <time>2013-04-20T09:44:12.391Z</time>
      </trkpt>
      <trkpt lat="49.43963" lon="2.0631">
        <ele>113.6</ele>
        <time>2013-04-20T09:44:15.826Z</time>
      </trkpt>
      <trkpt lat="49.43964" lon="2.06312">
        <ele>113.9</ele>
        <time>2013-04-20T09:44:16.812Z</time>
      </trkpt>
      <trkpt lat="49.43965" lon="2.06317">
        <ele>111.9</ele>
        <time>2013-04-20T09:44:19.826Z</time>
      </trkpt>
      <trkpt lat="49.43967" lon="2.06319">
        <ele>113.5</ele>
        <time>2013-04-20T09:44:21.023Z</time>
      </trkpt>
      <trkpt lat="49.43968" lon="2.06323">
        <ele>112.3</ele>
        <time>2013-04-20T09:44:23.249Z</time>
      </trkpt>
      <trkpt lat="49.43969" lon="2.06325">
        <ele>111.8</ele>
        <time>2013-04-20T09:44:23.883Z</time>
      </trkpt>
      <trkpt lat="49.43971" lon="2.06331">
        <ele>111.1</ele>
        <time>2013-04-20T09:44:26.826Z</time>
      </trkpt>
      <trkpt lat="49.43972" lon="2.06333">
        <ele>108.9</ele>
        <time>2013-04-20T09:44:28.025Z</time>
      </trkpt>
      <trkpt lat="49.43974" lon="2.06337">
        <ele>110.9</ele>
        <time>2013-04-20T09:44:30.262Z</time>
      </trkpt>
      <trkpt lat="49.43974" lon="2.06338">
        <ele>111</ele>
        <time>2013-04-20T09:44:30.827Z</time>
      </trkpt>
      <trkpt lat="49.43977" lon="2.06341">
        <ele>110.9</ele>
        <time>2013-04-20T09:44:32.857Z</time>
      </trkpt>
      <trkpt lat="49.43978" lon="2.06343">
        <ele>111.1</ele>
        <time>2013-04-20T09:44:33.847Z</time>
      </trkpt>
      <trkpt lat="49.4398" lon="2.06348">
        <ele>111</ele>
        <time>2013-04-20T09:44:37.305Z</time>
      </trkpt>
      <trkpt lat="49.43981" lon="2.0635">
        <ele>111</ele>
        <time>2013-04-20T09:44:37.972Z</time>
      </trkpt>
      <trkpt lat="49.43983" lon="2.06354">
        <ele>110.2</ele>
        <time>2013-04-20T09:44:39.871Z</time>
      </trkpt>
      <trkpt lat="49.43984" lon="2.06356">
        <ele>109.9</ele>
        <time>2013-04-20T09:44:40.850Z</time>
      </trkpt>
      <trkpt lat="49.43986" lon="2.06361">
        <ele>109.7</ele>
        <time>2013-04-20T09:44:42.829Z</time>
      </trkpt>
      <trkpt lat="49.43987" lon="2.06363">
        <ele>110.5</ele>
        <time>2013-04-20T09:44:43.853Z</time>
      </trkpt>
      <trkpt lat="49.43989" lon="2.06367">
        <ele>111</ele>
        <time>2013-04-20T09:44:46.278Z</time>
      </trkpt>
      <trkpt lat="49.4399" lon="2.06369">
        <ele>110</ele>
        <time>2013-04-20T09:44:46.904Z</time>
      </trkpt>
      <trkpt lat="49.43991" lon="2.06375">
        <ele>108.4</ele>
        <time>2013-04-20T09:44:50.107Z</time>
      </trkpt>
      <trkpt lat="49.43992" lon="2.06377">
        <ele>108.4</ele>
        <time>2013-04-20T09:44:50.823Z</time>
      </trkpt>
      <trkpt lat="49.43994" lon="2.06382">
        <ele>106</ele>
        <time>2013-04-20T09:44:53.826Z</time>
      </trkpt>
      <trkpt lat="49.43995" lon="2.06383">
        <ele>107.1</ele>
        <time>2013-04-20T09:44:55.018Z</time>
      </trkpt>
      <trkpt lat="49.43996" lon="2.06387">
        <ele>108.6</ele>
        <time>2013-04-20T09:44:57.028Z</time>
      </trkpt>
      <trkpt lat="49.43997" lon="2.06389">
        <ele>109.3</ele>
        <time>2013-04-20T09:44:57.841Z</time>
      </trkpt>
      <trkpt lat="49.43999" lon="2.06393">
        <ele>106.9</ele>
        <time>2013-04-20T09:44:59.810Z</time>
      </trkpt>
      <trkpt lat="49.44" lon="2.06397">
        <ele>107.3</ele>
        <time>2013-04-20T09:45:02.283Z</time>
      </trkpt>
      <trkpt lat="49.44003" lon="2.06401">
        <ele>108.5</ele>
        <time>2013-04-20T09:45:04.858Z</time>
      </trkpt>
      <trkpt lat="49.44004" lon="2.06403">
        <ele>108.7</ele>
        <time>2013-04-20T09:45:05.835Z</time>
      </trkpt>
      <trkpt lat="49.44008" lon="2.06404">
        <ele>110.7</ele>
        <time>2013-04-20T09:45:08.050Z</time>
      </trkpt>
      <trkpt lat="49.44009" lon="2.06405">
        <ele>110.3</ele>
        <time>2013-04-20T09:45:09.317Z</time>
      </trkpt>
      <trkpt lat="49.44013" lon="2.06405">
        <ele>110.3</ele>
        <time>2013-04-20T09:45:11.245Z</time>
      </trkpt>
      <trkpt lat="49.44015" lon="2.06405">
        <ele>111</ele>
        <time>2013-04-20T09:45:11.855Z</time>
      </trkpt>
      <trkpt lat="49.44018" lon="2.06406">
        <ele>112.7</ele>
        <time>2013-04-20T09:45:13.853Z</time>
      </trkpt>
      <trkpt lat="49.4402" lon="2.06406">
        <ele>113.5</ele>
        <time>2013-04-20T09:45:15.067Z</time>
      </trkpt>
      <trkpt lat="49.44024" lon="2.06405">
        <ele>115.2</ele>
        <time>2013-04-20T09:45:17.015Z</time>
      </trkpt>
      <trkpt lat="49.44026" lon="2.06404">
        <ele>115</ele>
        <time>2013-04-20T09:45:18.289Z</time>
      </trkpt>
      <trkpt lat="49.4403" lon="2.06404">
        <ele>115.2</ele>
        <time>2013-04-20T09:45:20.840Z</time>
      </trkpt>
      <trkpt lat="49.44031" lon="2.06403">
        <ele>115.9</ele>
        <time>2013-04-20T09:45:22.134Z</time>
      </trkpt>
      <trkpt lat="49.44034" lon="2.06403">
        <ele>117.7</ele>
        <time>2013-04-20T09:45:24.040Z</time>
      </trkpt>
      <trkpt lat="49.44036" lon="2.06403">
        <ele>118</ele>
        <time>2013-04-20T09:45:25.309Z</time>
      </trkpt>
      <trkpt lat="49.44039" lon="2.06403">
        <ele>119.5</ele>
        <time>2013-04-20T09:45:27.306Z</time>
      </trkpt>
      <trkpt lat="49.44041" lon="2.06403">
        <ele>119.2</ele>
        <time>2013-04-20T09:45:27.894Z</time>
      </trkpt>
      <trkpt lat="49.44044" lon="2.06402">
        <ele>119.8</ele>
        <time>2013-04-20T09:45:29.854Z</time>
      </trkpt>
      <trkpt lat="49.44046" lon="2.06401">
        <ele>120</ele>
        <time>2013-04-20T09:45:31.064Z</time>
      </trkpt>
      <trkpt lat="49.44049" lon="2.06399">
        <ele>121.6</ele>
        <time>2013-04-20T09:45:33.021Z</time>
      </trkpt>
      <trkpt lat="49.44051" lon="2.06398">
        <ele>121.2</ele>
        <time>2013-04-20T09:45:34.263Z</time>
      </trkpt>
      <trkpt lat="49.44055" lon="2.06397">
        <ele>119.3</ele>
        <time>2013-04-20T09:45:36.845Z</time>
      </trkpt>
      <trkpt lat="49.44057" lon="2.06397">
        <ele>119.8</ele>
        <time>2013-04-20T09:45:38.127Z</time>
      </trkpt>
      <trkpt lat="49.4406" lon="2.06396">
        <ele>118.4</ele>
        <time>2013-04-20T09:45:40.039Z</time>
      </trkpt>
      <trkpt lat="49.44061" lon="2.06396">
        <ele>119.1</ele>
        <time>2013-04-20T09:45:41.340Z</time>
      </trkpt>
      <trkpt lat="49.44065" lon="2.06396">
        <ele>119.9</ele>
        <time>2013-04-20T09:45:43.233Z</time>
      </trkpt>
      <trkpt lat="49.44066" lon="2.06396">
        <ele>120</ele>
        <time>2013-04-20T09:45:43.865Z</time>
      </trkpt>
      <trkpt lat="49.4407" lon="2.06394">
        <ele>118.6</ele>
        <time>2013-04-20T09:45:47.819Z</time>
      </trkpt>
      <trkpt lat="49.44071" lon="2.06393">
        <ele>117.9</ele>
        <time>2013-04-20T09:45:48.808Z</time>
      </trkpt>
      <trkpt lat="49.44075" lon="2.06392">
        <ele>116.9</ele>
        <time>2013-04-20T09:45:51.815Z</time>
      </trkpt>
      <trkpt lat="49.44075" lon="2.06391">
        <ele>116.5</ele>
        <time>2013-04-20T09:45:52.807Z</time>
      </trkpt>
      <trkpt lat="49.44079" lon="2.06389">
        <ele>117.2</ele>
        <time>2013-04-20T09:45:55.857Z</time>
      </trkpt>
      <trkpt lat="49.4408" lon="2.06388">
        <ele>117.6</ele>
        <time>2013-04-20T09:45:57.132Z</time>
      </trkpt>
      <trkpt lat="49.44084" lon="2.06386">
        <ele>117.2</ele>
        <time>2013-04-20T09:46:00.384Z</time>
      </trkpt>
      <trkpt lat="49.44085" lon="2.06386">
        <ele>117.9</ele>
        <time>2013-04-20T09:46:00.981Z</time>
      </trkpt>
      <trkpt lat="49.44088" lon="2.06386">
        <ele>116.3</ele>
        <time>2013-04-20T09:46:02.921Z</time>
      </trkpt>
      <trkpt lat="49.44089" lon="2.06385">
        <ele>116.7</ele>
        <time>2013-04-20T09:46:04.198Z</time>
      </trkpt>
      <trkpt lat="49.44094" lon="2.06384">
        <ele>117.1</ele>
        <time>2013-04-20T09:46:07.365Z</time>
      </trkpt>
      <trkpt lat="49.44095" lon="2.06384">
        <ele>117.4</ele>
        <time>2013-04-20T09:46:08.015Z</time>
      </trkpt>
      <trkpt lat="49.44099" lon="2.06382">
        <ele>117</ele>
        <time>2013-04-20T09:46:10.849Z</time>
      </trkpt>
      <trkpt lat="49.441" lon="2.06381">
        <ele>116.6</ele>
        <time>2013-04-20T09:46:11.845Z</time>
      </trkpt>
      <trkpt lat="49.44104" lon="2.06378">
        <ele>116.9</ele>
        <time>2013-04-20T09:46:14.838Z</time>
      </trkpt>
      <trkpt lat="49.44105" lon="2.06377">
        <ele>117.3</ele>
        <time>2013-04-20T09:46:15.840Z</time>
      </trkpt>
      <trkpt lat="49.44109" lon="2.06377">
        <ele>117.6</ele>
        <time>2013-04-20T09:46:18.811Z</time>
      </trkpt>
      <trkpt lat="49.4411" lon="2.06378">
        <ele>117.4</ele>
        <time>2013-04-20T09:46:19.824Z</time>
      </trkpt>
      <trkpt lat="49.44114" lon="2.0638">
        <ele>117.9</ele>
        <time>2013-04-20T09:46:22.806Z</time>
      </trkpt>
      <trkpt lat="49.44115" lon="2.06381">
        <ele>117.7</ele>
        <time>2013-04-20T09:46:23.825Z</time>
      </trkpt>
      <trkpt lat="49.44117" lon="2.06386">
        <ele>117.2</ele>
        <time>2013-04-20T09:46:26.806Z</time>
      </trkpt>
      <trkpt lat="49.44117" lon="2.06389">
        <ele>116.8</ele>
        <time>2013-04-20T09:46:27.856Z</time>
      </trkpt>
      <trkpt lat="49.44117" lon="2.06394">
        <ele>117.4</ele>
        <time>2013-04-20T09:46:30.404Z</time>
      </trkpt>
      <trkpt lat="49.44117" lon="2.06396">
        <ele>117.2</ele>
        <time>2013-04-20T09:46:31.059Z</time>
      </trkpt>
      <trkpt lat="49.44117" lon="2.06401">
        <ele>116.1</ele>
        <time>2013-04-20T09:46:32.835Z</time>
      </trkpt>
      <trkpt lat="49.44118" lon="2.06403">
        <ele>116.7</ele>
        <time>2013-04-20T09:46:34.271Z</time>
      </trkpt>
      <trkpt lat="49.44118" lon="2.06409">
        <ele>115.7</ele>
        <time>2013-04-20T09:46:35.876Z</time>
      </trkpt>
      <trkpt lat="49.44118" lon="2.06411">
        <ele>115.3</ele>
        <time>2013-04-20T09:46:36.818Z</time>
      </trkpt>
      <trkpt lat="49.44118" lon="2.06416">
        <ele>115.8</ele>
        <time>2013-04-20T09:46:38.824Z</time>
      </trkpt>
      <trkpt lat="49.44118" lon="2.06418">
        <ele>115.9</ele>
        <time>2013-04-20T09:46:39.820Z</time>
      </trkpt>
      <trkpt lat="49.44118" lon="2.06425">
        <ele>114.7</ele>
        <time>2013-04-20T09:46:42.921Z</time>
      </trkpt>
      <trkpt lat="49.44118" lon="2.06427">
        <ele>114.6</ele>
        <time>2013-04-20T09:46:43.835Z</time>
      </trkpt>
      <trkpt lat="49.44117" lon="2.06432">
        <ele>112.8</ele>
        <time>2013-04-20T09:46:47.248Z</time>
      </trkpt>
      <trkpt lat="49.44117" lon="2.06434">
        <ele>113.1</ele>
        <time>2013-04-20T09:46:47.872Z</time>
      </trkpt>
      <trkpt lat="49.44117" lon="2.06439">
        <ele>115.1</ele>
        <time>2013-04-20T09:46:51.032Z</time>
      </trkpt>
      <trkpt lat="49.44117" lon="2.06442">
        <ele>114</ele>
        <time>2013-04-20T09:46:52.019Z</time>
      </trkpt>
      <trkpt lat="49.44118" lon="2.06448">
        <ele>113.2</ele>
        <time>2013-04-20T09:46:54.820Z</time>
      </trkpt>
      <trkpt lat="49.44118" lon="2.06449">
        <ele>106.3</ele>
        <time>2013-04-20T09:46:56.017Z</time>
      </trkpt>
      <trkpt lat="49.44119" lon="2.06455">
        <ele>107.7</ele>
        <time>2013-04-20T09:46:58.836Z</time>
      </trkpt>
      <trkpt lat="49.4412" lon="2.06457">
        <ele>108.5</ele>
        <time>2013-04-20T09:46:59.843Z</time>
      </trkpt>
      <trkpt lat="49.44122" lon="2.06462">
        <ele>109.7</ele>
        <time>2013-04-20T09:47:01.861Z</time>
      </trkpt>
      <trkpt lat="49.44123" lon="2.06464">
        <ele>110</ele>
        <time>2013-04-20T09:47:03.285Z</time>
      </trkpt>
      <trkpt lat="49.44124" lon="2.06471">
        <ele>108.4</ele>
        <time>2013-04-20T09:47:06.832Z</time>
      </trkpt>
      <trkpt lat="49.44124" lon="2.06473">
        <ele>108.4</ele>
        <time>2013-04-20T09:47:07.811Z</time>
      </trkpt>
      <trkpt lat="49.44126" lon="2.06479">
        <ele>107.7</ele>
        <time>2013-04-20T09:47:10.923Z</time>
      </trkpt>
      <trkpt lat="49.44125" lon="2.06481">
        <ele>108.4</ele>
        <time>2013-04-20T09:47:11.882Z</time>
      </trkpt>
      <trkpt lat="49.44126" lon="2.06486">
        <ele>107.9</ele>
        <time>2013-04-20T09:47:14.108Z</time>
      </trkpt>
      <trkpt lat="49.44127" lon="2.06488">
        <ele>107.6</ele>
        <time>2013-04-20T09:47:14.791Z</time>
      </trkpt>
      <trkpt lat="49.44129" lon="2.06492">
        <ele>109</ele>
        <time>2013-04-20T09:47:16.824Z</time>
      </trkpt>
      <trkpt lat="49.44131" lon="2.06496">
        <ele>108.3</ele>
        <time>2013-04-20T09:47:19.208Z</time>
      </trkpt>
      <trkpt lat="49.44133" lon="2.06501">
        <ele>108.1</ele>
        <time>2013-04-20T09:47:21.824Z</time>
      </trkpt>
      <trkpt lat="49.44133" lon="2.06503">
        <ele>107.2</ele>
        <time>2013-04-20T09:47:22.986Z</time>
      </trkpt>
      <trkpt lat="49.44135" lon="2.06508">
        <ele>107.1</ele>
        <time>2013-04-20T09:47:26.291Z</time>
      </trkpt>
      <trkpt lat="49.44135" lon="2.06509">
        <ele>106.9</ele>
        <time>2013-04-20T09:47:26.809Z</time>
      </trkpt>
      <trkpt lat="49.44137" lon="2.06514">
        <ele>108.7</ele>
        <time>2013-04-20T09:47:28.819Z</time>
      </trkpt>
      <trkpt lat="49.44138" lon="2.06516">
        <ele>106.4</ele>
        <time>2013-04-20T09:47:29.827Z</time>
      </trkpt>
      <trkpt lat="49.44138" lon="2.06522">
        <ele>101.6</ele>
        <time>2013-04-20T09:47:32.811Z</time>
      </trkpt>
      <trkpt lat="49.44137" lon="2.06523">
        <ele>100.4</ele>
        <time>2013-04-20T09:47:33.810Z</time>
      </trkpt>
      <trkpt lat="49.44138" lon="2.06529">
        <ele>100.2</ele>
        <time>2013-04-20T09:47:36.823Z</time>
      </trkpt>
      <trkpt lat="49.44139" lon="2.06531">
        <ele>99.8</ele>
        <time>2013-04-20T09:47:37.810Z</time>
      </trkpt>
      <trkpt lat="49.44142" lon="2.06534">
        <ele>97.2</ele>
        <time>2013-04-20T09:47:40.786Z</time>
      </trkpt>
      <trkpt lat="49.44144" lon="2.06535">
        <ele>96.4</ele>
        <time>2013-04-20T09:47:41.805Z</time>
      </trkpt>
      <trkpt lat="49.44147" lon="2.06535">
        <ele>95.8</ele>
        <time>2013-04-20T09:47:44.017Z</time>
      </trkpt>
      <trkpt lat="49.44148" lon="2.06537">
        <ele>95.6</ele>
        <time>2013-04-20T09:47:44.901Z</time>
      </trkpt>
      <trkpt lat="49.44151" lon="2.06542">
        <ele>91.8</ele>
        <time>2013-04-20T09:47:47.821Z</time>
      </trkpt>
      <trkpt lat="49.44151" lon="2.06543">
        <ele>91.5</ele>
        <time>2013-04-20T09:47:48.811Z</time>
      </trkpt>
      <trkpt lat="49.44152" lon="2.06548">
        <ele>92.2</ele>
        <time>2013-04-20T09:47:50.791Z</time>
      </trkpt>
      <trkpt lat="49.44153" lon="2.06551">
        <ele>92</ele>
        <time>2013-04-20T09:47:51.789Z</time>
      </trkpt>
      <trkpt lat="49.44153" lon="2.06556">
        <ele>91.2</ele>
        <time>2013-04-20T09:47:53.842Z</time>
      </trkpt>
      <trkpt lat="49.44153" lon="2.06559">
        <ele>91.7</ele>
        <time>2013-04-20T09:47:54.826Z</time>
      </trkpt>
      <trkpt lat="49.44153" lon="2.06564">
        <ele>94</ele>
        <time>2013-04-20T09:47:56.805Z</time>
      </trkpt>
      <trkpt lat="49.44153" lon="2.06566">
        <ele>93.8</ele>
        <time>2013-04-20T09:47:57.824Z</time>
      </trkpt>
      <trkpt lat="49.44152" lon="2.06571">
        <ele>94</ele>
        <time>2013-04-20T09:47:59.814Z</time>
      </trkpt>
      <trkpt lat="49.44152" lon="2.06573">
        <ele>92.8</ele>
        <time>2013-04-20T09:48:00.851Z</time>
      </trkpt>
      <trkpt lat="49.44154" lon="2.06579">
        <ele>91.4</ele>
        <time>2013-04-20T09:48:04.115Z</time>
      </trkpt>
      <trkpt lat="49.44155" lon="2.06581">
        <ele>92.1</ele>
        <time>2013-04-20T09:48:05.057Z</time>
      </trkpt>
      <trkpt lat="49.44157" lon="2.06584">
        <ele>92.9</ele>
        <time>2013-04-20T09:48:06.792Z</time>
      </trkpt>
      <trkpt lat="49.44161" lon="2.06584">
        <ele>93.2</ele>
        <time>2013-04-20T09:48:09.146Z</time>
      </trkpt>
      <trkpt lat="49.44165" lon="2.06583">
        <ele>93.4</ele>
        <time>2013-04-20T09:48:10.823Z</time>
      </trkpt>
      <trkpt lat="49.44167" lon="2.06583">
        <ele>95</ele>
        <time>2013-04-20T09:48:12.026Z</time>
      </trkpt>
      <trkpt lat="49.44168" lon="2.06589">
        <ele>97.4</ele>
        <time>2013-04-20T09:48:15.811Z</time>
      </trkpt>
      <trkpt lat="49.44166" lon="2.06592">
        <ele>98</ele>
        <time>2013-04-20T09:48:16.838Z</time>
      </trkpt>
      <trkpt lat="49.44165" lon="2.06597">
        <ele>99.8</ele>
        <time>2013-04-20T09:48:19.369Z</time>
      </trkpt>
      <trkpt lat="49.44164" lon="2.066">
        <ele>99.1</ele>
        <time>2013-04-20T09:48:20.053Z</time>
      </trkpt>
      <trkpt lat="49.44162" lon="2.06605">
        <ele>96.6</ele>
        <time>2013-04-20T09:48:23.828Z</time>
      </trkpt>
      <trkpt lat="49.44162" lon="2.06606">
        <ele>96.4</ele>
        <time>2013-04-20T09:48:25.026Z</time>
      </trkpt>
      <trkpt lat="49.44159" lon="2.06612">
        <ele>97.7</ele>
        <time>2013-04-20T09:48:28.338Z</time>
      </trkpt>
      <trkpt lat="49.44158" lon="2.06614">
        <ele>98.3</ele>
        <time>2013-04-20T09:48:29.062Z</time>
      </trkpt>
      <trkpt lat="49.44156" lon="2.06618">
        <ele>98.8</ele>
        <time>2013-04-20T09:48:30.811Z</time>
      </trkpt>
      <trkpt lat="49.44153" lon="2.06621">
        <ele>96</ele>
        <time>2013-04-20T09:48:31.816Z</time>
      </trkpt>
      <trkpt lat="49.44149" lon="2.06623">
        <ele>94.5</ele>
        <time>2013-04-20T09:48:33.813Z</time>
      </trkpt>
      <trkpt lat="49.44147" lon="2.06624">
        <ele>97.2</ele>
        <time>2013-04-20T09:48:34.804Z</time>
      </trkpt>
      <trkpt lat="49.44144" lon="2.06627">
        <ele>96.4</ele>
        <time>2013-04-20T09:48:36.813Z</time>
      </trkpt>
      <trkpt lat="49.44141" lon="2.06629">
        <ele>98</ele>
        <time>2013-04-20T09:48:38.413Z</time>
      </trkpt>
      <trkpt lat="49.44138" lon="2.06631">
        <ele>98</ele>
        <time>2013-04-20T09:48:39.787Z</time>
      </trkpt>
      <trkpt lat="49.44136" lon="2.06634">
        <ele>99.5</ele>
        <time>2013-04-20T09:48:40.971Z</time>
      </trkpt>
      <trkpt lat="49.44132" lon="2.06636">
        <ele>101</ele>
        <time>2013-04-20T09:48:42.906Z</time>
      </trkpt>
      <trkpt lat="49.44131" lon="2.06637">
        <ele>102.4</ele>
        <time>2013-04-20T09:48:44.146Z</time>
      </trkpt>
      <trkpt lat="49.44128" lon="2.06639">
        <ele>103.1</ele>
        <time>2013-04-20T09:48:46.098Z</time>
      </trkpt>
      <trkpt lat="49.44127" lon="2.0664">
        <ele>102.4</ele>
        <time>2013-04-20T09:48:46.797Z</time>
      </trkpt>
      <trkpt lat="49.44123" lon="2.06643">
        <ele>105.5</ele>
        <time>2013-04-20T09:48:49.926Z</time>
      </trkpt>
      <trkpt lat="49.44122" lon="2.06644">
        <ele>106.4</ele>
        <time>2013-04-20T09:48:50.905Z</time>
      </trkpt>
      <trkpt lat="49.44117" lon="2.06646">
        <ele>107.9</ele>
        <time>2013-04-20T09:48:53.846Z</time>
      </trkpt>
      <trkpt lat="49.44116" lon="2.06647">
        <ele>108</ele>
        <time>2013-04-20T09:48:54.824Z</time>
      </trkpt>
      <trkpt lat="49.44112" lon="2.06649">
        <ele>109.1</ele>
        <time>2013-04-20T09:48:56.958Z</time>
      </trkpt>
      <trkpt lat="49.4411" lon="2.06649">
        <ele>110.5</ele>
        <time>2013-04-20T09:48:58.251Z</time>
      </trkpt>
      <trkpt lat="49.44107" lon="2.06651">
        <ele>109.9</ele>
        <time>2013-04-20T09:49:00.884Z</time>
      </trkpt>
      <trkpt lat="49.44106" lon="2.06652">
        <ele>109.7</ele>
        <time>2013-04-20T09:49:02.113Z</time>
      </trkpt>
      <trkpt lat="49.44104" lon="2.06657">
        <ele>111.5</ele>
        <time>2013-04-20T09:49:05.963Z</time>
      </trkpt>
      <trkpt lat="49.44103" lon="2.06658">
        <ele>110.9</ele>
        <time>2013-04-20T09:49:06.838Z</time>
      </trkpt>
      <trkpt lat="49.44101" lon="2.06661">
        <ele>111.9</ele>
        <time>2013-04-20T09:49:08.839Z</time>
      </trkpt>
      <trkpt lat="49.44099" lon="2.06663">
        <ele>112.4</ele>
        <time>2013-04-20T09:49:09.836Z</time>
      </trkpt>
      <trkpt lat="49.44096" lon="2.06668">
        <ele>112.2</ele>
        <time>2013-04-20T09:49:15.817Z</time>
      </trkpt>
      <trkpt lat="49.44096" lon="2.06668">
        <ele>112.6</ele>
        <time>2013-04-20T09:49:16.858Z</time>
      </trkpt>
      <trkpt lat="49.44093" lon="2.06673">
        <ele>113.3</ele>
        <time>2013-04-20T09:49:24.828Z</time>
      </trkpt>
      <trkpt lat="49.44092" lon="2.06675">
        <ele>113.3</ele>
        <time>2013-04-20T09:49:25.922Z</time>
      </trkpt>
      <trkpt lat="49.44089" lon="2.0668">
        <ele>113.9</ele>
        <time>2013-04-20T09:49:28.836Z</time>
      </trkpt>
      <trkpt lat="49.44089" lon="2.06681">
        <ele>114</ele>
        <time>2013-04-20T09:49:29.816Z</time>
      </trkpt>
      <trkpt lat="49.44087" lon="2.06686">
        <ele>113</ele>
        <time>2013-04-20T09:49:34.810Z</time>
      </trkpt>
      <trkpt lat="49.44086" lon="2.06688">
        <ele>113.5</ele>
        <time>2013-04-20T09:49:36.198Z</time>
      </trkpt>
      <trkpt lat="49.44084" lon="2.06692">
        <ele>113.9</ele>
        <time>2013-04-20T09:49:45.806Z</time>
      </trkpt>
      <trkpt lat="49.44083" lon="2.06694">
        <ele>113.9</ele>
        <time>2013-04-20T09:49:46.792Z</time>
      </trkpt>
      <trkpt lat="49.44082" lon="2.06699">
        <ele>115.6</ele>
        <time>2013-04-20T09:49:49.802Z</time>
      </trkpt>
      <trkpt lat="49.44082" lon="2.06702">
        <ele>115</ele>
        <time>2013-04-20T09:49:50.894Z</time>
      </trkpt>
      <trkpt lat="49.44081" lon="2.06709">
        <ele>114.5</ele>
        <time>2013-04-20T09:49:54.122Z</time>
      </trkpt>
      <trkpt lat="49.44081" lon="2.06711">
        <ele>113.1</ele>
        <time>2013-04-20T09:49:54.841Z</time>
      </trkpt>
      <trkpt lat="49.4408" lon="2.06716">
        <ele>112.8</ele>
        <time>2013-04-20T09:49:56.811Z</time>
      </trkpt>
      <trkpt lat="49.4408" lon="2.06719">
        <ele>112.6</ele>
        <time>2013-04-20T09:49:57.786Z</time>
      </trkpt>
      <trkpt lat="49.4408" lon="2.06724">
        <ele>115.2</ele>
        <time>2013-04-20T09:49:59.824Z</time>
      </trkpt>
      <trkpt lat="49.4408" lon="2.06727">
        <ele>115</ele>
        <time>2013-04-20T09:50:00.806Z</time>
      </trkpt>
      <trkpt lat="49.4408" lon="2.06732">
        <ele>113.9</ele>
        <time>2013-04-20T09:50:02.837Z</time>
      </trkpt>
      <trkpt lat="49.44081" lon="2.06735">
        <ele>113.8</ele>
        <time>2013-04-20T09:50:04.374Z</time>
      </trkpt>
      <trkpt lat="49.44081" lon="2.06739">
        <ele>112.4</ele>
        <time>2013-04-20T09:50:05.810Z</time>
      </trkpt>
      <trkpt lat="49.44081" lon="2.06744">
        <ele>110.4</ele>
        <time>2013-04-20T09:50:08.015Z</time>
      </trkpt>
      <trkpt lat="49.44082" lon="2.06749">
        <ele>108.9</ele>
        <time>2013-04-20T09:50:10.094Z</time>
      </trkpt>
      <trkpt lat="49.44082" lon="2.06752">
        <ele>108.9</ele>
        <time>2013-04-20T09:50:11.327Z</time>
      </trkpt>
      <trkpt lat="49.44083" lon="2.06758">
        <ele>106.5</ele>
        <time>2013-04-20T09:50:13.978Z</time>
      </trkpt>
      <trkpt lat="49.44083" lon="2.06759">
        <ele>106</ele>
        <time>2013-04-20T09:50:15.016Z</time>
      </trkpt>
      <trkpt lat="49.44084" lon="2.06765">
        <ele>103.4</ele>
        <time>2013-04-20T09:50:18.453Z</time>
      </trkpt>
      <trkpt lat="49.44084" lon="2.06767">
        <ele>101.7</ele>
        <time>2013-04-20T09:50:18.838Z</time>
      </trkpt>
      <trkpt lat="49.44084" lon="2.06772">
        <ele>102.1</ele>
        <time>2013-04-20T09:50:22.273Z</time>
      </trkpt>
      <trkpt lat="49.44083" lon="2.06774">
        <ele>101.6</ele>
        <time>2013-04-20T09:50:22.817Z</time>
      </trkpt>
      <trkpt lat="49.44085" lon="2.06779">
        <ele>99.9</ele>
        <time>2013-04-20T09:50:26.114Z</time>
      </trkpt>
      <trkpt lat="49.44085" lon="2.0678">
        <ele>100</ele>
        <time>2013-04-20T09:50:27.309Z</time>
      </trkpt>
      <trkpt lat="49.44087" lon="2.06784">
        <ele>100.6</ele>
        <time>2013-04-20T09:50:29.023Z</time>
      </trkpt>
      <trkpt lat="49.44089" lon="2.06787">
        <ele>100.7</ele>
        <time>2013-04-20T09:50:31.232Z</time>
      </trkpt>
      <trkpt lat="49.44091" lon="2.06791">
        <ele>100.7</ele>
        <time>2013-04-20T09:50:33.023Z</time>
      </trkpt>
      <trkpt lat="49.44093" lon="2.06793">
        <ele>101.3</ele>
        <time>2013-04-20T09:50:34.318Z</time>
      </trkpt>
      <trkpt lat="49.44093" lon="2.068">
        <ele>99.9</ele>
        <time>2013-04-20T09:50:37.831Z</time>
      </trkpt>
      <trkpt lat="49.44093" lon="2.06801">
        <ele>99.7</ele>
        <time>2013-04-20T09:50:38.810Z</time>
      </trkpt>
      <trkpt lat="49.44094" lon="2.06806">
        <ele>95.2</ele>
        <time>2013-04-20T09:50:41.814Z</time>
      </trkpt>
      <trkpt lat="49.44096" lon="2.06807">
        <ele>96.4</ele>
        <time>2013-04-20T09:50:43.020Z</time>
      </trkpt>
      <trkpt lat="49.44099" lon="2.06811">
        <ele>97.4</ele>
        <time>2013-04-20T09:50:45.304Z</time>
      </trkpt>
      <trkpt lat="49.44101" lon="2.06813">
        <ele>98.8</ele>
        <time>2013-04-20T09:50:45.825Z</time>
      </trkpt>
      <trkpt lat="49.44103" lon="2.06814">
        <ele>99.8</ele>
        <time>2013-04-20T09:50:47.282Z</time>
      </trkpt>
      <trkpt lat="49.44106" lon="2.06815">
        <ele>99.7</ele>
        <time>2013-04-20T09:50:47.889Z</time>
      </trkpt>
      <trkpt lat="49.44109" lon="2.06821">
        <ele>97.5</ele>
        <time>2013-04-20T09:50:51.066Z</time>
      </trkpt>
      <trkpt lat="49.44109" lon="2.06822">
        <ele>97.1</ele>
        <time>2013-04-20T09:50:51.825Z</time>
      </trkpt>
      <trkpt lat="49.44108" lon="2.06828">
        <ele>94</ele>
        <time>2013-04-20T09:50:54.800Z</time>
      </trkpt>
      <trkpt lat="49.44108" lon="2.06831">
        <ele>94.2</ele>
        <time>2013-04-20T09:50:56.020Z</time>
      </trkpt>
      <trkpt lat="49.44109" lon="2.06837">
        <ele>94.1</ele>
        <time>2013-04-20T09:50:58.850Z</time>
      </trkpt>
      <trkpt lat="49.4411" lon="2.06839">
        <ele>94.2</ele>
        <time>2013-04-20T09:51:00.097Z</time>
      </trkpt>
      <trkpt lat="49.44112" lon="2.06844">
        <ele>95.1</ele>
        <time>2013-04-20T09:51:01.979Z</time>
      </trkpt>
      <trkpt lat="49.44112" lon="2.06846">
        <ele>95.5</ele>
        <time>2013-04-20T09:51:02.826Z</time>
      </trkpt>
      <trkpt lat="49.44114" lon="2.06851">
        <ele>91.3</ele>
        <time>2013-04-20T09:51:05.110Z</time>
      </trkpt>
      <trkpt lat="49.44114" lon="2.06852">
        <ele>88.9</ele>
        <time>2013-04-20T09:51:05.825Z</time>
      </trkpt>
      <trkpt lat="49.44116" lon="2.06856">
        <ele>90.1</ele>
        <time>2013-04-20T09:51:07.858Z</time>
      </trkpt>
      <trkpt lat="49.44117" lon="2.06858">
        <ele>90.4</ele>
        <time>2013-04-20T09:51:08.798Z</time>
      </trkpt>
      <trkpt lat="49.44119" lon="2.06862">
        <ele>87.8</ele>
        <time>2013-04-20T09:51:10.820Z</time>
      </trkpt>
      <trkpt lat="49.4412" lon="2.06864">
        <ele>87.4</ele>
        <time>2013-04-20T09:51:11.815Z</time>
      </trkpt>
      <trkpt lat="49.44121" lon="2.06869">
        <ele>85.3</ele>
        <time>2013-04-20T09:51:14.822Z</time>
      </trkpt>
      <trkpt lat="49.44124" lon="2.06873">
        <ele>86.9</ele>
        <time>2013-04-20T09:51:17.132Z</time>
      </trkpt>
      <trkpt lat="49.44127" lon="2.06877">
        <ele>86.5</ele>
        <time>2013-04-20T09:51:19.113Z</time>
      </trkpt>
      <trkpt lat="49.44128" lon="2.06879">
        <ele>86.5</ele>
        <time>2013-04-20T09:51:20.343Z</time>
      </trkpt>
      <trkpt lat="49.4413" lon="2.06885">
        <ele>82.8</ele>
        <time>2013-04-20T09:51:23.808Z</time>
      </trkpt>
      <trkpt lat="49.44131" lon="2.06886">
        <ele>82.2</ele>
        <time>2013-04-20T09:51:24.894Z</time>
      </trkpt>
      <trkpt lat="49.44132" lon="2.06892">
        <ele>81.9</ele>
        <time>2013-04-20T09:51:28.824Z</time>
      </trkpt>
      <trkpt lat="49.44133" lon="2.06893">
        <ele>82.5</ele>
        <time>2013-04-20T09:51:29.824Z</time>
      </trkpt>
      <trkpt lat="49.44135" lon="2.06898">
        <ele>80.3</ele>
        <time>2013-04-20T09:51:32.824Z</time>
      </trkpt>
      <trkpt lat="49.44136" lon="2.06899">
        <ele>80.9</ele>
        <time>2013-04-20T09:51:33.811Z</time>
      </trkpt>
      <trkpt lat="49.44139" lon="2.06902">
        <ele>79</ele>
        <time>2013-04-20T09:51:35.804Z</time>
      </trkpt>
      <trkpt lat="49.4414" lon="2.06904">
        <ele>78.5</ele>
        <time>2013-04-20T09:51:36.781Z</time>
      </trkpt>
      <trkpt lat="49.44143" lon="2.06909">
        <ele>79.2</ele>
        <time>2013-04-20T09:51:40.383Z</time>
      </trkpt>
      <trkpt lat="49.44144" lon="2.0691">
        <ele>79.5</ele>
        <time>2013-04-20T09:51:41.020Z</time>
      </trkpt>
      <trkpt lat="49.44145" lon="2.06916">
        <ele>74.7</ele>
        <time>2013-04-20T09:51:44.829Z</time>
      </trkpt>
      <trkpt lat="49.44146" lon="2.06918">
        <ele>74.7</ele>
        <time>2013-04-20T09:51:46.135Z</time>
      </trkpt>
      <trkpt lat="49.44148" lon="2.06923">
        <ele>75</ele>
        <time>2013-04-20T09:51:48.822Z</time>
      </trkpt>
      <trkpt lat="49.4415" lon="2.06925">
        <ele>75.4</ele>
        <time>2013-04-20T09:51:49.819Z</time>
      </trkpt>
      <trkpt lat="49.44152" lon="2.0693">
        <ele>76.6</ele>
        <time>2013-04-20T09:51:51.848Z</time>
      </trkpt>
      <trkpt lat="49.44152" lon="2.06932">
        <ele>75.6</ele>
        <time>2013-04-20T09:51:52.835Z</time>
      </trkpt>
      <trkpt lat="49.44154" lon="2.06937">
        <ele>75.3</ele>
        <time>2013-04-20T09:51:56.023Z</time>
      </trkpt>
      <trkpt lat="49.44153" lon="2.0694">
        <ele>70.6</ele>
        <time>2013-04-20T09:51:57.808Z</time>
      </trkpt>
      <trkpt lat="49.44155" lon="2.06945">
        <ele>74.3</ele>
        <time>2013-04-20T09:52:00.855Z</time>
      </trkpt>
      <trkpt lat="49.44156" lon="2.06946">
        <ele>73.7</ele>
        <time>2013-04-20T09:52:01.801Z</time>
      </trkpt>
      <trkpt lat="49.44158" lon="2.06951">
        <ele>75.9</ele>
        <time>2013-04-20T09:52:04.816Z</time>
      </trkpt>
      <trkpt lat="49.4416" lon="2.06953">
        <ele>76.7</ele>
        <time>2013-04-20T09:52:05.937Z</time>
      </trkpt>
      <trkpt lat="49.44163" lon="2.06958">
        <ele>77.7</ele>
        <time>2013-04-20T09:52:09.131Z</time>
      </trkpt>
      <trkpt lat="49.44164" lon="2.0696">
        <ele>78.6</ele>
        <time>2013-04-20T09:52:09.846Z</time>
      </trkpt>
      <trkpt lat="49.44165" lon="2.06964">
        <ele>79.1</ele>
        <time>2013-04-20T09:52:12.385Z</time>
      </trkpt>
      <trkpt lat="49.44166" lon="2.06967">
        <ele>77.1</ele>
        <time>2013-04-20T09:52:12.997Z</time>
      </trkpt>
      <trkpt lat="49.44167" lon="2.06971">
        <ele>76.7</ele>
        <time>2013-04-20T09:52:14.917Z</time>
      </trkpt>
      <trkpt lat="49.44168" lon="2.06973">
        <ele>76.4</ele>
        <time>2013-04-20T09:52:16.212Z</time>
      </trkpt>
      <trkpt lat="49.4417" lon="2.06979">
        <ele>75.2</ele>
        <time>2013-04-20T09:52:19.381Z</time>
      </trkpt>
      <trkpt lat="49.4417" lon="2.0698">
        <ele>75</ele>
        <time>2013-04-20T09:52:20.051Z</time>
      </trkpt>
      <trkpt lat="49.44173" lon="2.06986">
        <ele>74.2</ele>
        <time>2013-04-20T09:52:22.964Z</time>
      </trkpt>
      <trkpt lat="49.44173" lon="2.06987">
        <ele>73.4</ele>
        <time>2013-04-20T09:52:23.857Z</time>
      </trkpt>
      <trkpt lat="49.44175" lon="2.06993">
        <ele>72.4</ele>
        <time>2013-04-20T09:52:26.837Z</time>
      </trkpt>
      <trkpt lat="49.44175" lon="2.06995">
        <ele>72</ele>
        <time>2013-04-20T09:52:28.346Z</time>
      </trkpt>
      <trkpt lat="49.44177" lon="2.06998">
        <ele>73.2</ele>
        <time>2013-04-20T09:52:30.248Z</time>
      </trkpt>
      <trkpt lat="49.44178" lon="2.07">
        <ele>74.5</ele>
        <time>2013-04-20T09:52:30.892Z</time>
      </trkpt>
      <trkpt lat="49.44181" lon="2.07003">
        <ele>75.3</ele>
        <time>2013-04-20T09:52:32.820Z</time>
      </trkpt>
      <trkpt lat="49.44182" lon="2.07005">
        <ele>76.3</ele>
        <time>2013-04-20T09:52:34.003Z</time>
      </trkpt>
      <trkpt lat="49.44184" lon="2.0701">
        <ele>75</ele>
        <time>2013-04-20T09:52:35.837Z</time>
      </trkpt>
      <trkpt lat="49.44186" lon="2.07012">
        <ele>76.2</ele>
        <time>2013-04-20T09:52:37.122Z</time>
      </trkpt>
      <trkpt lat="49.44186" lon="2.07017">
        <ele>74</ele>
        <time>2013-04-20T09:52:38.811Z</time>
      </trkpt>
      <trkpt lat="49.44187" lon="2.07019">
        <ele>74</ele>
        <time>2013-04-20T09:52:40.010Z</time>
      </trkpt>
      <trkpt lat="49.44188" lon="2.07023">
        <ele>74.8</ele>
        <time>2013-04-20T09:52:42.277Z</time>
      </trkpt>
      <trkpt lat="49.44189" lon="2.07026">
        <ele>73.3</ele>
        <time>2013-04-20T09:52:42.920Z</time>
      </trkpt>
      <trkpt lat="49.44189" lon="2.0703">
        <ele>72.2</ele>
        <time>2013-04-20T09:52:44.832Z</time>
      </trkpt>
      <trkpt lat="49.44188" lon="2.07033">
        <ele>70.1</ele>
        <time>2013-04-20T09:52:46.100Z</time>
      </trkpt>
      <trkpt lat="49.44188" lon="2.07038">
        <ele>68.9</ele>
        <time>2013-04-20T09:52:48.006Z</time>
      </trkpt>
      <trkpt lat="49.44189" lon="2.0704">
        <ele>70.4</ele>
        <time>2013-04-20T09:52:49.320Z</time>
      </trkpt>
      <trkpt lat="49.4419" lon="2.07045">
        <ele>70.7</ele>
        <time>2013-04-20T09:52:50.839Z</time>
      </trkpt>
      <trkpt lat="49.44191" lon="2.07048">
        <ele>71</ele>
        <time>2013-04-20T09:52:51.864Z</time>
      </trkpt>
      <trkpt lat="49.44191" lon="2.07053">
        <ele>68.1</ele>
        <time>2013-04-20T09:52:53.849Z</time>
      </trkpt>
      <trkpt lat="49.44192" lon="2.07055">
        <ele>67.8</ele>
        <time>2013-04-20T09:52:54.828Z</time>
      </trkpt>
      <trkpt lat="49.44192" lon="2.0706">
        <ele>65.3</ele>
        <time>2013-04-20T09:52:58.022Z</time>
      </trkpt>
      <trkpt lat="49.44194" lon="2.07063">
        <ele>67.5</ele>
        <time>2013-04-20T09:53:00.201Z</time>
      </trkpt>
      <trkpt lat="49.44196" lon="2.07066">
        <ele>70.6</ele>
        <time>2013-04-20T09:53:01.807Z</time>
      </trkpt>
      <trkpt lat="49.44198" lon="2.07068">
        <ele>72.4</ele>
        <time>2013-04-20T09:53:02.802Z</time>
      </trkpt>
      <trkpt lat="49.44199" lon="2.07072">
        <ele>73</ele>
        <time>2013-04-20T09:53:04.818Z</time>
      </trkpt>
      <trkpt lat="49.44199" lon="2.07074">
        <ele>69.6</ele>
        <time>2013-04-20T09:53:05.800Z</time>
      </trkpt>
      <trkpt lat="49.44202" lon="2.07079">
        <ele>69.7</ele>
        <time>2013-04-20T09:53:09.945Z</time>
      </trkpt>
      <trkpt lat="49.44202" lon="2.07081">
        <ele>68.2</ele>
        <time>2013-04-20T09:53:11.186Z</time>
      </trkpt>
      <trkpt lat="49.44204" lon="2.07085">
        <ele>66.5</ele>
        <time>2013-04-20T09:53:13.894Z</time>
      </trkpt>
      <trkpt lat="49.44205" lon="2.07087">
        <ele>67.4</ele>
        <time>2013-04-20T09:53:15.026Z</time>
      </trkpt>
      <trkpt lat="49.44207" lon="2.07091">
        <ele>66.6</ele>
        <time>2013-04-20T09:53:16.984Z</time>
      </trkpt>
      <trkpt lat="49.44207" lon="2.07093">
        <ele>66.4</ele>
        <time>2013-04-20T09:53:17.825Z</time>
      </trkpt>
      <trkpt lat="49.44209" lon="2.07099">
        <ele>67.8</ele>
        <time>2013-04-20T09:53:19.828Z</time>
      </trkpt>
      <trkpt lat="49.4421" lon="2.07099">
        <ele>67.3</ele>
        <time>2013-04-20T09:53:20.893Z</time>
      </trkpt>
      <trkpt lat="49.44213" lon="2.07103">
        <ele>69</ele>
        <time>2013-04-20T09:53:24.028Z</time>
      </trkpt>
      <trkpt lat="49.44214" lon="2.07105">
        <ele>70.6</ele>
        <time>2013-04-20T09:53:25.337Z</time>
      </trkpt>
      <trkpt lat="49.44217" lon="2.07111">
        <ele>72.5</ele>
        <time>2013-04-20T09:53:27.848Z</time>
      </trkpt>
      <trkpt lat="49.44217" lon="2.07113">
        <ele>74.2</ele>
        <time>2013-04-20T09:53:29.052Z</time>
      </trkpt>
      <trkpt lat="49.4422" lon="2.07118">
        <ele>76.2</ele>
        <time>2013-04-20T09:53:30.817Z</time>
      </trkpt>
      <trkpt lat="49.44221" lon="2.0712">
        <ele>78.1</ele>
        <time>2013-04-20T09:53:31.889Z</time>
      </trkpt>
      <trkpt lat="49.44224" lon="2.07124">
        <ele>80.1</ele>
        <time>2013-04-20T09:53:33.829Z</time>
      </trkpt>
      <trkpt lat="49.44226" lon="2.07126">
        <ele>81.5</ele>
        <time>2013-04-20T09:53:34.826Z</time>
      </trkpt>
      <trkpt lat="49.44229" lon="2.0713">
        <ele>82.7</ele>
        <time>2013-04-20T09:53:36.854Z</time>
      </trkpt>
      <trkpt lat="49.4423" lon="2.07132">
        <ele>83.5</ele>
        <time>2013-04-20T09:53:37.840Z</time>
      </trkpt>
      <trkpt lat="49.44232" lon="2.07139">
        <ele>84.8</ele>
        <time>2013-04-20T09:53:41.334Z</time>
      </trkpt>
      <trkpt lat="49.44231" lon="2.0714">
        <ele>85.7</ele>
        <time>2013-04-20T09:53:41.821Z</time>
      </trkpt>
      <trkpt lat="49.44233" lon="2.07146">
        <ele>84.5</ele>
        <time>2013-04-20T09:53:45.166Z</time>
      </trkpt>
      <trkpt lat="49.44233" lon="2.07147">
        <ele>84.1</ele>
        <time>2013-04-20T09:53:45.824Z</time>
      </trkpt>
      <trkpt lat="49.44236" lon="2.07151">
        <ele>85.9</ele>
        <time>2013-04-20T09:53:47.916Z</time>
      </trkpt>
      <trkpt lat="49.44237" lon="2.07153">
        <ele>86.5</ele>
        <time>2013-04-20T09:53:49.021Z</time>
      </trkpt>
      <trkpt lat="49.44239" lon="2.07157">
        <ele>88.2</ele>
        <time>2013-04-20T09:53:50.911Z</time>
      </trkpt>
      <trkpt lat="49.44241" lon="2.07159">
        <ele>89.5</ele>
        <time>2013-04-20T09:53:52.013Z</time>
      </trkpt>
      <trkpt lat="49.44243" lon="2.07163">
        <ele>91</ele>
        <time>2013-04-20T09:53:53.833Z</time>
      </trkpt>
      <trkpt lat="49.44244" lon="2.07165">
        <ele>92.6</ele>
        <time>2013-04-20T09:53:55.017Z</time>
      </trkpt>
      <trkpt lat="49.44247" lon="2.07169">
        <ele>94.7</ele>
        <time>2013-04-20T09:53:56.837Z</time>
      </trkpt>
      <trkpt lat="49.44247" lon="2.0717">
        <ele>94.7</ele>
        <time>2013-04-20T09:53:57.816Z</time>
      </trkpt>
      <trkpt lat="49.4425" lon="2.07174">
        <ele>95.7</ele>
        <time>2013-04-20T09:53:59.888Z</time>
      </trkpt>
      <trkpt lat="49.44251" lon="2.07176">
        <ele>96.2</ele>
        <time>2013-04-20T09:54:01.166Z</time>
      </trkpt>
      <trkpt lat="49.44253" lon="2.0718">
        <ele>95.1</ele>
        <time>2013-04-20T09:54:03.031Z</time>
      </trkpt>
      <trkpt lat="49.44254" lon="2.07183">
        <ele>95.8</ele>
        <time>2013-04-20T09:54:04.361Z</time>
      </trkpt>
      <trkpt lat="49.44255" lon="2.07187">
        <ele>96.9</ele>
        <time>2013-04-20T09:54:05.806Z</time>
      </trkpt>
      <trkpt lat="49.44256" lon="2.0719">
        <ele>97.7</ele>
        <time>2013-04-20T09:54:06.827Z</time>
      </trkpt>
      <trkpt lat="49.44257" lon="2.07194">
        <ele>98.4</ele>
        <time>2013-04-20T09:54:08.815Z</time>
      </trkpt>
      <trkpt lat="49.44258" lon="2.07196">
        <ele>98.5</ele>
        <time>2013-04-20T09:54:09.798Z</time>
      </trkpt>
      <trkpt lat="49.4426" lon="2.07202">
        <ele>99.4</ele>
        <time>2013-04-20T09:54:11.838Z</time>
      </trkpt>
      <trkpt lat="49.44261" lon="2.07204">
        <ele>100.6</ele>
        <time>2013-04-20T09:54:12.812Z</time>
      </trkpt>
      <trkpt lat="49.44263" lon="2.07209">
        <ele>103.6</ele>
        <time>2013-04-20T09:54:15.032Z</time>
      </trkpt>
      <trkpt lat="49.44264" lon="2.07213">
        <ele>104.2</ele>
        <time>2013-04-20T09:54:16.363Z</time>
      </trkpt>
      <trkpt lat="49.44266" lon="2.07217">
        <ele>103.8</ele>
        <time>2013-04-20T09:54:17.821Z</time>
      </trkpt>
      <trkpt lat="49.44268" lon="2.0722">
        <ele>105.6</ele>
        <time>2013-04-20T09:54:20.182Z</time>
      </trkpt>
      <trkpt lat="49.44272" lon="2.07224">
        <ele>107.1</ele>
        <time>2013-04-20T09:54:30.812Z</time>
      </trkpt>
      <trkpt lat="49.44272" lon="2.07224">
        <ele>107.3</ele>
        <time>2013-04-20T09:54:32.021Z</time>
      </trkpt>
      <trkpt lat="49.44275" lon="2.07222">
        <ele>108.2</ele>
        <time>2013-04-20T09:54:38.023Z</time>
      </trkpt>
      <trkpt lat="49.44277" lon="2.07221">
        <ele>109.2</ele>
        <time>2013-04-20T09:54:39.017Z</time>
      </trkpt>
      <trkpt lat="49.44281" lon="2.07219">
        <ele>110.6</ele>
        <time>2013-04-20T09:54:41.322Z</time>
      </trkpt>
      <trkpt lat="49.44283" lon="2.07218">
        <ele>110.1</ele>
        <time>2013-04-20T09:54:41.836Z</time>
      </trkpt>
      <trkpt lat="49.44286" lon="2.07217">
        <ele>110.3</ele>
        <time>2013-04-20T09:54:43.803Z</time>
      </trkpt>
      <trkpt lat="49.44288" lon="2.07217">
        <ele>110.6</ele>
        <time>2013-04-20T09:54:45.024Z</time>
      </trkpt>
      <trkpt lat="49.44291" lon="2.07214">
        <ele>110.5</ele>
        <time>2013-04-20T09:54:46.891Z</time>
      </trkpt>
      <trkpt lat="49.44293" lon="2.07213">
        <ele>110.7</ele>
        <time>2013-04-20T09:54:47.781Z</time>
      </trkpt>
      <trkpt lat="49.44296" lon="2.07212">
        <ele>112.1</ele>
        <time>2013-04-20T09:54:50.020Z</time>
      </trkpt>
      <trkpt lat="49.44298" lon="2.07211">
        <ele>113.3</ele>
        <time>2013-04-20T09:54:50.944Z</time>
      </trkpt>
      <trkpt lat="49.44302" lon="2.07209">
        <ele>113</ele>
        <time>2013-04-20T09:54:53.842Z</time>
      </trkpt>
      <trkpt lat="49.44302" lon="2.07208">
        <ele>113</ele>
        <time>2013-04-20T09:54:54.800Z</time>
      </trkpt>
      <trkpt lat="49.44306" lon="2.07206">
        <ele>112.9</ele>
        <time>2013-04-20T09:54:58.800Z</time>
      </trkpt>
      <trkpt lat="49.44307" lon="2.07206">
        <ele>113.1</ele>
        <time>2013-04-20T09:54:59.832Z</time>
      </trkpt>
      <trkpt lat="49.44311" lon="2.07203">
        <ele>110.9</ele>
        <time>2013-04-20T09:55:02.804Z</time>
      </trkpt>
      <trkpt lat="49.44313" lon="2.07203">
        <ele>111</ele>
        <time>2013-04-20T09:55:04.026Z</time>
      </trkpt>
      <trkpt lat="49.44315" lon="2.07201">
        <ele>111.3</ele>
        <time>2013-04-20T09:55:05.811Z</time>
      </trkpt>
      <trkpt lat="49.44318" lon="2.072">
        <ele>111.6</ele>
        <time>2013-04-20T09:55:06.804Z</time>
      </trkpt>
      <trkpt lat="49.44321" lon="2.07198">
        <ele>110.7</ele>
        <time>2013-04-20T09:55:08.910Z</time>
      </trkpt>
      <trkpt lat="49.44322" lon="2.07197">
        <ele>110.6</ele>
        <time>2013-04-20T09:55:09.821Z</time>
      </trkpt>
      <trkpt lat="49.44325" lon="2.07193">
        <ele>110.5</ele>
        <time>2013-04-20T09:55:13.009Z</time>
      </trkpt>
      <trkpt lat="49.44326" lon="2.07192">
        <ele>110.9</ele>
        <time>2013-04-20T09:55:13.933Z</time>
      </trkpt>
      <trkpt lat="49.44329" lon="2.07188">
        <ele>111.6</ele>
        <time>2013-04-20T09:55:17.095Z</time>
      </trkpt>
      <trkpt lat="49.4433" lon="2.07187">
        <ele>110.3</ele>
        <time>2013-04-20T09:55:17.850Z</time>
      </trkpt>
      <trkpt lat="49.44334" lon="2.07183">
        <ele>111.9</ele>
        <time>2013-04-20T09:55:21.001Z</time>
      </trkpt>
      <trkpt lat="49.44335" lon="2.07182">
        <ele>112.2</ele>
        <time>2013-04-20T09:55:22.011Z</time>
      </trkpt>
      <trkpt lat="49.44338" lon="2.07179">
        <ele>112.4</ele>
        <time>2013-04-20T09:55:24.176Z</time>
      </trkpt>
      <trkpt lat="49.44339" lon="2.07179">
        <ele>112.5</ele>
        <time>2013-04-20T09:55:24.854Z</time>
      </trkpt>
      <trkpt lat="49.44342" lon="2.07177">
        <ele>111.9</ele>
        <time>2013-04-20T09:55:26.010Z</time>
      </trkpt>
      <trkpt lat="49.44344" lon="2.07175">
        <ele>110.1</ele>
        <time>2013-04-20T09:55:27.309Z</time>
      </trkpt>
      <trkpt lat="49.44346" lon="2.07174">
        <ele>109.9</ele>
        <time>2013-04-20T09:55:27.786Z</time>
      </trkpt>
      <trkpt lat="49.44348" lon="2.07172">
        <ele>109.3</ele>
        <time>2013-04-20T09:55:28.808Z</time>
      </trkpt>
      <trkpt lat="49.4435" lon="2.0717">
        <ele>112.1</ele>
        <time>2013-04-20T09:55:30.824Z</time>
      </trkpt>
      <trkpt lat="49.44353" lon="2.07168">
        <ele>113</ele>
        <time>2013-04-20T09:55:31.853Z</time>
      </trkpt>
      <trkpt lat="49.44356" lon="2.07164">
        <ele>111.3</ele>
        <time>2013-04-20T09:55:35.807Z</time>
      </trkpt>
      <trkpt lat="49.44357" lon="2.07163">
        <ele>112.1</ele>
        <time>2013-04-20T09:55:38.298Z</time>
      </trkpt>
      <trkpt lat="49.44361" lon="2.0716">
        <ele>109.4</ele>
        <time>2013-04-20T09:55:44.842Z</time>
      </trkpt>
      <trkpt lat="49.44362" lon="2.07159">
        <ele>110.5</ele>
        <time>2013-04-20T09:55:45.956Z</time>
      </trkpt>
      <trkpt lat="49.44365" lon="2.07155">
        <ele>111.1</ele>
        <time>2013-04-20T09:55:52.017Z</time>
      </trkpt>
      <trkpt lat="49.44366" lon="2.07154">
        <ele>111.4</ele>
        <time>2013-04-20T09:55:52.971Z</time>
      </trkpt>
      <trkpt lat="49.4437" lon="2.07151">
        <ele>111.1</ele>
        <time>2013-04-20T09:55:56.273Z</time>
      </trkpt>
      <trkpt lat="49.44371" lon="2.0715">
        <ele>112.2</ele>
        <time>2013-04-20T09:55:56.847Z</time>
      </trkpt>
      <trkpt lat="49.44375" lon="2.07146">
        <ele>112.6</ele>
        <time>2013-04-20T09:56:00.095Z</time>
      </trkpt>
      <trkpt lat="49.44376" lon="2.07145">
        <ele>113.3</ele>
        <time>2013-04-20T09:56:01.318Z</time>
      </trkpt>
      <trkpt lat="49.44379" lon="2.07143">
        <ele>113.4</ele>
        <time>2013-04-20T09:56:03.010Z</time>
      </trkpt>
      <trkpt lat="49.44381" lon="2.07141">
        <ele>114.1</ele>
        <time>2013-04-20T09:56:04.817Z</time>
      </trkpt>
      <trkpt lat="49.44384" lon="2.07139">
        <ele>115.2</ele>
        <time>2013-04-20T09:56:07.117Z</time>
      </trkpt>
      <trkpt lat="49.44386" lon="2.07138">
        <ele>115.2</ele>
        <time>2013-04-20T09:56:08.342Z</time>
      </trkpt>
      <trkpt lat="49.44389" lon="2.07135">
        <ele>114.7</ele>
        <time>2013-04-20T09:56:10.279Z</time>
      </trkpt>
      <trkpt lat="49.44391" lon="2.07134">
        <ele>114.6</ele>
        <time>2013-04-20T09:56:10.916Z</time>
      </trkpt>
      <trkpt lat="49.44394" lon="2.07131">
        <ele>114.5</ele>
        <time>2013-04-20T09:56:12.852Z</time>
      </trkpt>
      <trkpt lat="49.44395" lon="2.0713">
        <ele>114.2</ele>
        <time>2013-04-20T09:56:14.101Z</time>
      </trkpt>
      <trkpt lat="49.44399" lon="2.07126">
        <ele>115.5</ele>
        <time>2013-04-20T09:56:17.930Z</time>
      </trkpt>
      <trkpt lat="49.44401" lon="2.07124">
        <ele>112.9</ele>
        <time>2013-04-20T09:56:19.241Z</time>
      </trkpt>
      <trkpt lat="49.44403" lon="2.07122">
        <ele>111.9</ele>
        <time>2013-04-20T09:56:21.063Z</time>
      </trkpt>
      <trkpt lat="49.44405" lon="2.07121">
        <ele>112.6</ele>
        <time>2013-04-20T09:56:21.840Z</time>
      </trkpt>
      <trkpt lat="49.44408" lon="2.07119">
        <ele>115.6</ele>
        <time>2013-04-20T09:56:25.007Z</time>
      </trkpt>
      <trkpt lat="49.44409" lon="2.07118">
        <ele>116.1</ele>
        <time>2013-04-20T09:56:26.010Z</time>
      </trkpt>
      <trkpt lat="49.44413" lon="2.07114">
        <ele>114.4</ele>
        <time>2013-04-20T09:56:29.801Z</time>
      </trkpt>
      <trkpt lat="49.44414" lon="2.07113">
        <ele>115.1</ele>
        <time>2013-04-20T09:56:31.023Z</time>
      </trkpt>
      <trkpt lat="49.44418" lon="2.0711">
        <ele>115.2</ele>
        <time>2013-04-20T09:56:35.024Z</time>
      </trkpt>
      <trkpt lat="49.44419" lon="2.07109">
        <ele>115.1</ele>
        <time>2013-04-20T09:56:35.902Z</time>
      </trkpt>
      <trkpt lat="49.44421" lon="2.07107">
        <ele>114.9</ele>
        <time>2013-04-20T09:56:38.321Z</time>
      </trkpt>
      <trkpt lat="49.44423" lon="2.07105">
        <ele>115.1</ele>
        <time>2013-04-20T09:56:39.051Z</time>
      </trkpt>
      <trkpt lat="49.44426" lon="2.07101">
        <ele>115.4</ele>
        <time>2013-04-20T09:56:42.024Z</time>
      </trkpt>
      <trkpt lat="49.44428" lon="2.07099">
        <ele>114</ele>
        <time>2013-04-20T09:56:43.849Z</time>
      </trkpt>
      <trkpt lat="49.44431" lon="2.07097">
        <ele>113.4</ele>
        <time>2013-04-20T09:56:47.001Z</time>
      </trkpt>
      <trkpt lat="49.44432" lon="2.07096">
        <ele>113.2</ele>
        <time>2013-04-20T09:56:47.791Z</time>
      </trkpt>
      <trkpt lat="49.44436" lon="2.07095">
        <ele>113.3</ele>
        <time>2013-04-20T09:56:49.948Z</time>
      </trkpt>
      <trkpt lat="49.44437" lon="2.07093">
        <ele>114.6</ele>
        <time>2013-04-20T09:56:51.206Z</time>
      </trkpt>
      <trkpt lat="49.4444" lon="2.07089">
        <ele>114.8</ele>
        <time>2013-04-20T09:56:53.859Z</time>
      </trkpt>
      <trkpt lat="49.44443" lon="2.07088">
        <ele>114.1</ele>
        <time>2013-04-20T09:56:54.812Z</time>
      </trkpt>
      <trkpt lat="49.44446" lon="2.07086">
        <ele>113.2</ele>
        <time>2013-04-20T09:56:56.825Z</time>
      </trkpt>
      <trkpt lat="49.44447" lon="2.07085">
        <ele>113.5</ele>
        <time>2013-04-20T09:56:57.838Z</time>
      </trkpt>
      <trkpt lat="49.44451" lon="2.07081">
        <ele>112.6</ele>
        <time>2013-04-20T09:57:01.842Z</time>
      </trkpt>
      <trkpt lat="49.44452" lon="2.07081">
        <ele>112.2</ele>
        <time>2013-04-20T09:57:02.810Z</time>
      </trkpt>
      <trkpt lat="49.44456" lon="2.07079">
        <ele>110.8</ele>
        <time>2013-04-20T09:57:05.820Z</time>
      </trkpt>
      <trkpt lat="49.44458" lon="2.07078">
        <ele>110.8</ele>
        <time>2013-04-20T09:57:06.810Z</time>
      </trkpt>
      <trkpt lat="49.44461" lon="2.07075">
        <ele>109.9</ele>
        <time>2013-04-20T09:57:08.820Z</time>
      </trkpt>
      <trkpt lat="49.44462" lon="2.07074">
        <ele>110</ele>
        <time>2013-04-20T09:57:09.912Z</time>
      </trkpt>
      <trkpt lat="49.44465" lon="2.0707">
        <ele>110.7</ele>
        <time>2013-04-20T09:57:12.859Z</time>
      </trkpt>
      <trkpt lat="49.44466" lon="2.07068">
        <ele>111</ele>
        <time>2013-04-20T09:57:13.810Z</time>
      </trkpt>
      <trkpt lat="49.44469" lon="2.07063">
        <ele>110.1</ele>
        <time>2013-04-20T09:57:16.825Z</time>
      </trkpt>
      <trkpt lat="49.44469" lon="2.07062">
        <ele>110.5</ele>
        <time>2013-04-20T09:57:18.019Z</time>
      </trkpt>
      <trkpt lat="49.44473" lon="2.07059">
        <ele>111</ele>
        <time>2013-04-20T09:57:21.920Z</time>
      </trkpt>
      <trkpt lat="49.44474" lon="2.07059">
        <ele>111.2</ele>
        <time>2013-04-20T09:57:22.828Z</time>
      </trkpt>
      <trkpt lat="49.44478" lon="2.0706">
        <ele>111.5</ele>
        <time>2013-04-20T09:57:25.805Z</time>
      </trkpt>
      <trkpt lat="49.44478" lon="2.07064">
        <ele>108.9</ele>
        <time>2013-04-20T09:57:27.040Z</time>
      </trkpt>
      <trkpt lat="49.44479" lon="2.07068">
        <ele>109</ele>
        <time>2013-04-20T09:57:28.810Z</time>
      </trkpt>
      <trkpt lat="49.4448" lon="2.0707">
        <ele>108.5</ele>
        <time>2013-04-20T09:57:29.824Z</time>
      </trkpt>
      <trkpt lat="49.44481" lon="2.07075">
        <ele>109.8</ele>
        <time>2013-04-20T09:57:31.824Z</time>
      </trkpt>
      <trkpt lat="49.44482" lon="2.07077">
        <ele>110</ele>
        <time>2013-04-20T09:57:32.807Z</time>
      </trkpt>
      <trkpt lat="49.44485" lon="2.07082">
        <ele>109.5</ele>
        <time>2013-04-20T09:57:34.872Z</time>
      </trkpt>
      <trkpt lat="49.44486" lon="2.07083">
        <ele>109.8</ele>
        <time>2013-04-20T09:57:35.815Z</time>
      </trkpt>
      <trkpt lat="49.44489" lon="2.07089">
        <ele>109.8</ele>
        <time>2013-04-20T09:57:38.818Z</time>
      </trkpt>
      <trkpt lat="49.4449" lon="2.0709">
        <ele>109.9</ele>
        <time>2013-04-20T09:57:39.820Z</time>
      </trkpt>
      <trkpt lat="49.44491" lon="2.07096">
        <ele>110.9</ele>
        <time>2013-04-20T09:57:42.842Z</time>
      </trkpt>
      <trkpt lat="49.44491" lon="2.07098">
        <ele>110.5</ele>
        <time>2013-04-20T09:57:43.811Z</time>
      </trkpt>
      <trkpt lat="49.44492" lon="2.07104">
        <ele>108.4</ele>
        <time>2013-04-20T09:57:47.808Z</time>
      </trkpt>
      <trkpt lat="49.44493" lon="2.07106">
        <ele>109.1</ele>
        <time>2013-04-20T09:57:49.010Z</time>
      </trkpt>
      <trkpt lat="49.44495" lon="2.07111">
        <ele>108.4</ele>
        <time>2013-04-20T09:57:53.010Z</time>
      </trkpt>
      <trkpt lat="49.44497" lon="2.07113">
        <ele>109.1</ele>
        <time>2013-04-20T09:57:53.819Z</time>
      </trkpt>
      <trkpt lat="49.44499" lon="2.07118">
        <ele>107.1</ele>
        <time>2013-04-20T09:57:56.816Z</time>
      </trkpt>
      <trkpt lat="49.44499" lon="2.0712">
        <ele>106.6</ele>
        <time>2013-04-20T09:57:57.816Z</time>
      </trkpt>
      <trkpt lat="49.44501" lon="2.07123">
        <ele>108.4</ele>
        <time>2013-04-20T09:57:59.781Z</time>
      </trkpt>
      <trkpt lat="49.44503" lon="2.07125">
        <ele>110.1</ele>
        <time>2013-04-20T09:58:00.825Z</time>
      </trkpt>
      <trkpt lat="49.44506" lon="2.07128">
        <ele>110.9</ele>
        <time>2013-04-20T09:58:03.090Z</time>
      </trkpt>
      <trkpt lat="49.44507" lon="2.07128">
        <ele>112.5</ele>
        <time>2013-04-20T09:58:04.351Z</time>
      </trkpt>
      <trkpt lat="49.4451" lon="2.0713">
        <ele>112.9</ele>
        <time>2013-04-20T09:58:06.015Z</time>
      </trkpt>
      <trkpt lat="49.44512" lon="2.07132">
        <ele>115.3</ele>
        <time>2013-04-20T09:58:06.932Z</time>
      </trkpt>
      <trkpt lat="49.44514" lon="2.07133">
        <ele>117.1</ele>
        <time>2013-04-20T09:58:08.193Z</time>
      </trkpt>
      <trkpt lat="49.44516" lon="2.07135">
        <ele>117.7</ele>
        <time>2013-04-20T09:58:08.846Z</time>
      </trkpt>
      <trkpt lat="49.44517" lon="2.07136">
        <ele>118.4</ele>
        <time>2013-04-20T09:58:09.818Z</time>
      </trkpt>
      <trkpt lat="49.4452" lon="2.07138">
        <ele>118</ele>
        <time>2013-04-20T09:58:10.804Z</time>
      </trkpt>
      <trkpt lat="49.44522" lon="2.07141">
        <ele>117.5</ele>
        <time>2013-04-20T09:58:12.817Z</time>
      </trkpt>
      <trkpt lat="49.44523" lon="2.07143">
        <ele>117.4</ele>
        <time>2013-04-20T09:58:13.814Z</time>
      </trkpt>
      <trkpt lat="49.44526" lon="2.07148">
        <ele>116.3</ele>
        <time>2013-04-20T09:58:16.821Z</time>
      </trkpt>
      <trkpt lat="49.44526" lon="2.0715">
        <ele>117</ele>
        <time>2013-04-20T09:58:18.146Z</time>
      </trkpt>
      <trkpt lat="49.44529" lon="2.07154">
        <ele>116.5</ele>
        <time>2013-04-20T09:58:21.891Z</time>
      </trkpt>
      <trkpt lat="49.4453" lon="2.07155">
        <ele>117.1</ele>
        <time>2013-04-20T09:58:23.318Z</time>
      </trkpt>
      <trkpt lat="49.44534" lon="2.07156">
        <ele>118.7</ele>
        <time>2013-04-20T09:58:25.839Z</time>
      </trkpt>
      <trkpt lat="49.44535" lon="2.07156">
        <ele>120.5</ele>
        <time>2013-04-20T09:58:26.825Z</time>
      </trkpt>
      <trkpt lat="49.44539" lon="2.07155">
        <ele>120.1</ele>
        <time>2013-04-20T09:58:28.843Z</time>
      </trkpt>
      <trkpt lat="49.4454" lon="2.07154">
        <ele>120</ele>
        <time>2013-04-20T09:58:29.799Z</time>
      </trkpt>
      <trkpt lat="49.44543" lon="2.07151">
        <ele>117.7</ele>
        <time>2013-04-20T09:58:31.843Z</time>
      </trkpt>
      <trkpt lat="49.44544" lon="2.0715">
        <ele>118.6</ele>
        <time>2013-04-20T09:58:32.887Z</time>
      </trkpt>
      <trkpt lat="49.44547" lon="2.07145">
        <ele>118.7</ele>
        <time>2013-04-20T09:58:35.817Z</time>
      </trkpt>
      <trkpt lat="49.44547" lon="2.07144">
        <ele>117.8</ele>
        <time>2013-04-20T09:58:36.804Z</time>
      </trkpt>
      <trkpt lat="49.4455" lon="2.07139">
        <ele>114.9</ele>
        <time>2013-04-20T09:58:41.834Z</time>
      </trkpt>
      <trkpt lat="49.44551" lon="2.07139">
        <ele>117.3</ele>
        <time>2013-04-20T09:58:43.110Z</time>
      </trkpt>
      <trkpt lat="49.44555" lon="2.07139">
        <ele>118.5</ele>
        <time>2013-04-20T09:58:46.910Z</time>
      </trkpt>
      <trkpt lat="49.44556" lon="2.07138">
        <ele>118.5</ele>
        <time>2013-04-20T09:58:48.225Z</time>
      </trkpt>
      <trkpt lat="49.44559" lon="2.07133">
        <ele>121.2</ele>
        <time>2013-04-20T09:58:53.352Z</time>
      </trkpt>
      <trkpt lat="49.44559" lon="2.07131">
        <ele>122</ele>
        <time>2013-04-20T09:58:53.992Z</time>
      </trkpt>
      <trkpt lat="49.44561" lon="2.07128">
        <ele>122.5</ele>
        <time>2013-04-20T09:58:55.939Z</time>
      </trkpt>
      <trkpt lat="49.44562" lon="2.07126">
        <ele>124.5</ele>
        <time>2013-04-20T09:58:57.191Z</time>
      </trkpt>
      <trkpt lat="49.44566" lon="2.07122">
        <ele>123.2</ele>
        <time>2013-04-20T09:59:00.823Z</time>
      </trkpt>
      <trkpt lat="49.44566" lon="2.07122">
        <ele>122.1</ele>
        <time>2013-04-20T09:59:01.816Z</time>
      </trkpt>
      <trkpt lat="49.44569" lon="2.07118">
        <ele>124.6</ele>
        <time>2013-04-20T09:59:06.788Z</time>
      </trkpt>
      <trkpt lat="49.4457" lon="2.07117">
        <ele>124.4</ele>
        <time>2013-04-20T09:59:07.800Z</time>
      </trkpt>
      <trkpt lat="49.44573" lon="2.07114">
        <ele>121.7</ele>
        <time>2013-04-20T09:59:10.802Z</time>
      </trkpt>
      <trkpt lat="49.44574" lon="2.07114">
        <ele>120.6</ele>
        <time>2013-04-20T09:59:11.800Z</time>
      </trkpt>
      <trkpt lat="49.44577" lon="2.07112">
        <ele>119.9</ele>
        <time>2013-04-20T09:59:15.130Z</time>
      </trkpt>
      <trkpt lat="49.44578" lon="2.07111">
        <ele>119.1</ele>
        <time>2013-04-20T09:59:15.838Z</time>
      </trkpt>
      <trkpt lat="49.44581" lon="2.07106">
        <ele>120.9</ele>
        <time>2013-04-20T09:59:20.253Z</time>
      </trkpt>
      <trkpt lat="49.44581" lon="2.07104">
        <ele>122.3</ele>
        <time>2013-04-20T09:59:20.874Z</time>
      </trkpt>
      <trkpt lat="49.44583" lon="2.07098">
        <ele>127.1</ele>
        <time>2013-04-20T09:59:25.985Z</time>
      </trkpt>
      <trkpt lat="49.44584" lon="2.07097">
        <ele>128</ele>
        <time>2013-04-20T09:59:27.345Z</time>
      </trkpt>
      <trkpt lat="49.44586" lon="2.07093">
        <ele>128.2</ele>
        <time>2013-04-20T09:59:28.845Z</time>
      </trkpt>
      <trkpt lat="49.44587" lon="2.07091">
        <ele>127.4</ele>
        <time>2013-04-20T09:59:29.855Z</time>
      </trkpt>
      <trkpt lat="49.4459" lon="2.07088">
        <ele>126.6</ele>
        <time>2013-04-20T09:59:31.837Z</time>
      </trkpt>
      <trkpt lat="49.44591" lon="2.07087">
        <ele>126.5</ele>
        <time>2013-04-20T09:59:32.842Z</time>
      </trkpt>
      <trkpt lat="49.44594" lon="2.07085">
        <ele>127.2</ele>
        <time>2013-04-20T09:59:34.828Z</time>
      </trkpt>
      <trkpt lat="49.44595" lon="2.07084">
        <ele>126.3</ele>
        <time>2013-04-20T09:59:36.220Z</time>
      </trkpt>
      <trkpt lat="49.44599" lon="2.07081">
        <ele>124.8</ele>
        <time>2013-04-20T09:59:38.844Z</time>
      </trkpt>
      <trkpt lat="49.44599" lon="2.07079">
        <ele>123.8</ele>
        <time>2013-04-20T09:59:39.832Z</time>
      </trkpt>
      <trkpt lat="49.44601" lon="2.07075">
        <ele>123</ele>
        <time>2013-04-20T09:59:42.817Z</time>
      </trkpt>
      <trkpt lat="49.44601" lon="2.07073">
        <ele>121.8</ele>
        <time>2013-04-20T09:59:43.869Z</time>
      </trkpt>
      <trkpt lat="49.44604" lon="2.07069">
        <ele>119.6</ele>
        <time>2013-04-20T09:59:47.109Z</time>
      </trkpt>
      <trkpt lat="49.44605" lon="2.07068">
        <ele>117.8</ele>
        <time>2013-04-20T09:59:47.828Z</time>
      </trkpt>
      <trkpt lat="49.44608" lon="2.07064">
        <ele>117.2</ele>
        <time>2013-04-20T09:59:50.954Z</time>
      </trkpt>
      <trkpt lat="49.44609" lon="2.07064">
        <ele>113.7</ele>
        <time>2013-04-20T09:59:52.215Z</time>
      </trkpt>
      <trkpt lat="49.44612" lon="2.0706">
        <ele>114.2</ele>
        <time>2013-04-20T09:59:56.839Z</time>
      </trkpt>
      <trkpt lat="49.44614" lon="2.0706">
        <ele>112.8</ele>
        <time>2013-04-20T09:59:57.821Z</time>
      </trkpt>
      <trkpt lat="49.44617" lon="2.07056">
        <ele>114.3</ele>
        <time>2013-04-20T10:00:00.795Z</time>
      </trkpt>
      <trkpt lat="49.44619" lon="2.07055">
        <ele>115</ele>
        <time>2013-04-20T10:00:01.827Z</time>
      </trkpt>
      <trkpt lat="49.44622" lon="2.0705">
        <ele>114.2</ele>
        <time>2013-04-20T10:00:04.815Z</time>
      </trkpt>
      <trkpt lat="49.44623" lon="2.07049">
        <ele>114</ele>
        <time>2013-04-20T10:00:06.014Z</time>
      </trkpt>
      <trkpt lat="49.44625" lon="2.07046">
        <ele>114.5</ele>
        <time>2013-04-20T10:00:08.226Z</time>
      </trkpt>
      <trkpt lat="49.44627" lon="2.07044">
        <ele>115.9</ele>
        <time>2013-04-20T10:00:08.862Z</time>
      </trkpt>
      <trkpt lat="49.44629" lon="2.07039">
        <ele>117.2</ele>
        <time>2013-04-20T10:00:10.815Z</time>
      </trkpt>
      <trkpt lat="49.4463" lon="2.07038">
        <ele>114.6</ele>
        <time>2013-04-20T10:00:12.073Z</time>
      </trkpt>
      <trkpt lat="49.44633" lon="2.07037">
        <ele>111.2</ele>
        <time>2013-04-20T10:00:13.955Z</time>
      </trkpt>
      <trkpt lat="49.44635" lon="2.07037">
        <ele>109.5</ele>
        <time>2013-04-20T10:00:14.802Z</time>
      </trkpt>
      <trkpt lat="49.44639" lon="2.07037">
        <ele>105.2</ele>
        <time>2013-04-20T10:00:19.133Z</time>
      </trkpt>
      <trkpt lat="49.4464" lon="2.07037">
        <ele>103.8</ele>
        <time>2013-04-20T10:00:19.841Z</time>
      </trkpt>
      <trkpt lat="49.44643" lon="2.07033">
        <ele>105</ele>
        <time>2013-04-20T10:00:22.973Z</time>
      </trkpt>
      <trkpt lat="49.44643" lon="2.07031">
        <ele>105.4</ele>
        <time>2013-04-20T10:00:23.794Z</time>
      </trkpt>
      <trkpt lat="49.44645" lon="2.07027">
        <ele>105.7</ele>
        <time>2013-04-20T10:00:25.823Z</time>
      </trkpt>
      <trkpt lat="49.44646" lon="2.07024">
        <ele>105.8</ele>
        <time>2013-04-20T10:00:26.833Z</time>
      </trkpt>
      <trkpt lat="49.44648" lon="2.07021">
        <ele>106.4</ele>
        <time>2013-04-20T10:00:28.822Z</time>
      </trkpt>
      <trkpt lat="49.44649" lon="2.07018">
        <ele>106.4</ele>
        <time>2013-04-20T10:00:29.978Z</time>
      </trkpt>
      <trkpt lat="49.44652" lon="2.07014">
        <ele>106.9</ele>
        <time>2013-04-20T10:00:32.818Z</time>
      </trkpt>
      <trkpt lat="49.44653" lon="2.07012">
        <ele>107</ele>
        <time>2013-04-20T10:00:33.842Z</time>
      </trkpt>
      <trkpt lat="49.44657" lon="2.07009">
        <ele>105.5</ele>
        <time>2013-04-20T10:00:37.039Z</time>
      </trkpt>
      <trkpt lat="49.44658" lon="2.07007">
        <ele>106</ele>
        <time>2013-04-20T10:00:38.339Z</time>
      </trkpt>
      <trkpt lat="49.44661" lon="2.07005">
        <ele>105</ele>
        <time>2013-04-20T10:00:39.828Z</time>
      </trkpt>
      <trkpt lat="49.44662" lon="2.07004">
        <ele>104.6</ele>
        <time>2013-04-20T10:00:40.868Z</time>
      </trkpt>
      <trkpt lat="49.44664" lon="2.07002">
        <ele>104.7</ele>
        <time>2013-04-20T10:00:43.082Z</time>
      </trkpt>
      <trkpt lat="49.44667" lon="2.07">
        <ele>103.1</ele>
        <time>2013-04-20T10:00:44.846Z</time>
      </trkpt>
      <trkpt lat="49.44669" lon="2.06997">
        <ele>104.5</ele>
        <time>2013-04-20T10:00:46.820Z</time>
      </trkpt>
      <trkpt lat="49.4467" lon="2.06995">
        <ele>102.8</ele>
        <time>2013-04-20T10:00:49.198Z</time>
      </trkpt>
      <trkpt lat="49.44672" lon="2.0699">
        <ele>106.3</ele>
        <time>2013-04-20T10:00:52.413Z</time>
      </trkpt>
      <trkpt lat="49.44673" lon="2.06987">
        <ele>108</ele>
        <time>2013-04-20T10:00:52.786Z</time>
      </trkpt>
      <trkpt lat="49.44675" lon="2.06981">
        <ele>109.7</ele>
        <time>2013-04-20T10:00:55.807Z</time>
      </trkpt>
      <trkpt lat="49.44674" lon="2.06976">
        <ele>115.4</ele>
        <time>2013-04-20T10:00:56.854Z</time>
      </trkpt>
      <trkpt lat="49.44676" lon="2.06971">
        <ele>111.9</ele>
        <time>2013-04-20T10:00:59.808Z</time>
      </trkpt>
      <trkpt lat="49.4468" lon="2.06975">
        <ele>107.8</ele>
        <time>2013-04-20T10:01:01.078Z</time>
      </trkpt>
      <trkpt lat="49.44683" lon="2.06974">
        <ele>111.7</ele>
        <time>2013-04-20T10:01:02.852Z</time>
      </trkpt>
      <trkpt lat="49.44684" lon="2.06974">
        <ele>113.8</ele>
        <time>2013-04-20T10:01:03.807Z</time>
      </trkpt>
      <trkpt lat="49.44686" lon="2.0697">
        <ele>115.5</ele>
        <time>2013-04-20T10:01:05.842Z</time>
      </trkpt>
      <trkpt lat="49.44687" lon="2.06967">
        <ele>115.9</ele>
        <time>2013-04-20T10:01:06.822Z</time>
      </trkpt>
      <trkpt lat="49.44688" lon="2.06962">
        <ele>116.2</ele>
        <time>2013-04-20T10:01:08.824Z</time>
      </trkpt>
      <trkpt lat="49.44688" lon="2.06958">
        <ele>121.4</ele>
        <time>2013-04-20T10:01:10.311Z</time>
      </trkpt>
      <trkpt lat="49.44689" lon="2.06953">
        <ele>123.4</ele>
        <time>2013-04-20T10:01:12.040Z</time>
      </trkpt>
      <trkpt lat="49.4469" lon="2.06951">
        <ele>123.5</ele>
        <time>2013-04-20T10:01:12.899Z</time>
      </trkpt>
      <trkpt lat="49.44691" lon="2.06946">
        <ele>120.7</ele>
        <time>2013-04-20T10:01:16.065Z</time>
      </trkpt>
      <trkpt lat="49.44692" lon="2.06942">
        <ele>123.6</ele>
        <time>2013-04-20T10:01:17.403Z</time>
      </trkpt>
      <trkpt lat="49.44695" lon="2.0694">
        <ele>121.4</ele>
        <time>2013-04-20T10:01:21.022Z</time>
      </trkpt>
      <trkpt lat="49.44696" lon="2.06939">
        <ele>122.9</ele>
        <time>2013-04-20T10:01:21.872Z</time>
      </trkpt>
      <trkpt lat="49.44697" lon="2.06932">
        <ele>122.2</ele>
        <time>2013-04-20T10:01:24.878Z</time>
      </trkpt>
      <trkpt lat="49.44698" lon="2.06931">
        <ele>122.4</ele>
        <time>2013-04-20T10:01:26.002Z</time>
      </trkpt>
      <trkpt lat="49.44699" lon="2.06926">
        <ele>122.9</ele>
        <time>2013-04-20T10:01:28.240Z</time>
      </trkpt>
      <trkpt lat="49.447" lon="2.06924">
        <ele>123</ele>
        <time>2013-04-20T10:01:28.830Z</time>
      </trkpt>
      <trkpt lat="49.44703" lon="2.06918">
        <ele>122.3</ele>
        <time>2013-04-20T10:01:32.051Z</time>
      </trkpt>
      <trkpt lat="49.44704" lon="2.06916">
        <ele>122.4</ele>
        <time>2013-04-20T10:01:33.015Z</time>
      </trkpt>
      <trkpt lat="49.44705" lon="2.06913">
        <ele>123.1</ele>
        <time>2013-04-20T10:01:34.822Z</time>
      </trkpt>
      <trkpt lat="49.44706" lon="2.06911">
        <ele>123.2</ele>
        <time>2013-04-20T10:01:35.906Z</time>
      </trkpt>
      <trkpt lat="49.44709" lon="2.06907">
        <ele>119.4</ele>
        <time>2013-04-20T10:01:39.096Z</time>
      </trkpt>
      <trkpt lat="49.44711" lon="2.06907">
        <ele>118.3</ele>
        <time>2013-04-20T10:01:39.783Z</time>
      </trkpt>
      <trkpt lat="49.44712" lon="2.06901">
        <ele>122.4</ele>
        <time>2013-04-20T10:01:42.963Z</time>
      </trkpt>
      <trkpt lat="49.44713" lon="2.069">
        <ele>122.5</ele>
        <time>2013-04-20T10:01:43.874Z</time>
      </trkpt>
      <trkpt lat="49.44715" lon="2.06895">
        <ele>122.9</ele>
        <time>2013-04-20T10:01:46.849Z</time>
      </trkpt>
      <trkpt lat="49.44716" lon="2.06894">
        <ele>122.6</ele>
        <time>2013-04-20T10:01:47.819Z</time>
      </trkpt>
      <trkpt lat="49.44718" lon="2.06891">
        <ele>124</ele>
        <time>2013-04-20T10:01:49.983Z</time>
      </trkpt>
      <trkpt lat="49.44719" lon="2.06889">
        <ele>124.6</ele>
        <time>2013-04-20T10:01:51.273Z</time>
      </trkpt>
      <trkpt lat="49.44722" lon="2.06886">
        <ele>126.1</ele>
        <time>2013-04-20T10:01:53.844Z</time>
      </trkpt>
      <trkpt lat="49.44723" lon="2.06885">
        <ele>127</ele>
        <time>2013-04-20T10:01:54.800Z</time>
      </trkpt>
      <trkpt lat="49.44726" lon="2.06882">
        <ele>127</ele>
        <time>2013-04-20T10:01:58.336Z</time>
      </trkpt>
      <trkpt lat="49.44727" lon="2.06881">
        <ele>126.9</ele>
        <time>2013-04-20T10:01:58.811Z</time>
      </trkpt>
      <trkpt lat="49.4473" lon="2.06877">
        <ele>126.3</ele>
        <time>2013-04-20T10:02:02.002Z</time>
      </trkpt>
      <trkpt lat="49.4473" lon="2.06875">
        <ele>128.8</ele>
        <time>2013-04-20T10:02:02.844Z</time>
      </trkpt>
      <trkpt lat="49.44731" lon="2.06871">
        <ele>130.9</ele>
        <time>2013-04-20T10:02:04.804Z</time>
      </trkpt>
      <trkpt lat="49.44732" lon="2.06867">
        <ele>130.7</ele>
        <time>2013-04-20T10:02:07.297Z</time>
      </trkpt>
      <trkpt lat="49.44734" lon="2.06863">
        <ele>131.5</ele>
        <time>2013-04-20T10:02:09.191Z</time>
      </trkpt>
      <trkpt lat="49.44735" lon="2.06861">
        <ele>131.7</ele>
        <time>2013-04-20T10:02:09.830Z</time>
      </trkpt>
      <trkpt lat="49.44737" lon="2.06857">
        <ele>131.1</ele>
        <time>2013-04-20T10:02:12.016Z</time>
      </trkpt>
      <trkpt lat="49.4474" lon="2.06854">
        <ele>130.8</ele>
        <time>2013-04-20T10:02:13.873Z</time>
      </trkpt>
      <trkpt lat="49.44743" lon="2.06851">
        <ele>131.1</ele>
        <time>2013-04-20T10:02:16.824Z</time>
      </trkpt>
      <trkpt lat="49.44744" lon="2.06849">
        <ele>131.2</ele>
        <time>2013-04-20T10:02:18.168Z</time>
      </trkpt>
      <trkpt lat="49.44747" lon="2.06846">
        <ele>128.4</ele>
        <time>2013-04-20T10:02:21.318Z</time>
      </trkpt>
      <trkpt lat="49.44748" lon="2.06845">
        <ele>128.2</ele>
        <time>2013-04-20T10:02:22.002Z</time>
      </trkpt>
      <trkpt lat="49.44751" lon="2.0684">
        <ele>129.4</ele>
        <time>2013-04-20T10:02:24.815Z</time>
      </trkpt>
      <trkpt lat="49.44753" lon="2.06837">
        <ele>128.6</ele>
        <time>2013-04-20T10:02:27.135Z</time>
      </trkpt>
      <trkpt lat="49.44756" lon="2.06833">
        <ele>128</ele>
        <time>2013-04-20T10:02:30.015Z</time>
      </trkpt>
      <trkpt lat="49.44758" lon="2.0683">
        <ele>126.8</ele>
        <time>2013-04-20T10:02:31.829Z</time>
      </trkpt>
      <trkpt lat="49.44761" lon="2.06827">
        <ele>125.4</ele>
        <time>2013-04-20T10:02:34.848Z</time>
      </trkpt>
      <trkpt lat="49.44762" lon="2.06825">
        <ele>125.9</ele>
        <time>2013-04-20T10:02:36.092Z</time>
      </trkpt>
      <trkpt lat="49.44765" lon="2.06821">
        <ele>126.8</ele>
        <time>2013-04-20T10:02:39.261Z</time>
      </trkpt>
      <trkpt lat="49.44766" lon="2.0682">
        <ele>126.8</ele>
        <time>2013-04-20T10:02:39.818Z</time>
      </trkpt>
      <trkpt lat="49.44768" lon="2.06816">
        <ele>127.8</ele>
        <time>2013-04-20T10:02:41.905Z</time>
      </trkpt>
      <trkpt lat="49.44769" lon="2.06814">
        <ele>128.2</ele>
        <time>2013-04-20T10:02:43.107Z</time>
      </trkpt>
      <trkpt lat="49.44771" lon="2.0681">
        <ele>128</ele>
        <time>2013-04-20T10:02:46.040Z</time>
      </trkpt>
      <trkpt lat="49.44773" lon="2.06809">
        <ele>127.2</ele>
        <time>2013-04-20T10:02:46.978Z</time>
      </trkpt>
      <trkpt lat="49.44776" lon="2.06807">
        <ele>126.1</ele>
        <time>2013-04-20T10:02:49.824Z</time>
      </trkpt>
      <trkpt lat="49.44777" lon="2.06806">
        <ele>123.9</ele>
        <time>2013-04-20T10:02:51.019Z</time>
      </trkpt>
      <trkpt lat="49.4478" lon="2.06803">
        <ele>123.6</ele>
        <time>2013-04-20T10:02:53.967Z</time>
      </trkpt>
      <trkpt lat="49.44782" lon="2.06802">
        <ele>123.3</ele>
        <time>2013-04-20T10:02:54.821Z</time>
      </trkpt>
      <trkpt lat="49.44784" lon="2.06798">
        <ele>124.2</ele>
        <time>2013-04-20T10:02:57.214Z</time>
      </trkpt>
      <trkpt lat="49.44786" lon="2.06797">
        <ele>123.7</ele>
        <time>2013-04-20T10:02:57.828Z</time>
      </trkpt>
      <trkpt lat="49.44788" lon="2.06791">
        <ele>123.6</ele>
        <time>2013-04-20T10:03:01.039Z</time>
      </trkpt>
      <trkpt lat="49.44789" lon="2.0679">
        <ele>122.4</ele>
        <time>2013-04-20T10:03:02.343Z</time>
      </trkpt>
      <trkpt lat="49.44791" lon="2.06785">
        <ele>120.9</ele>
        <time>2013-04-20T10:03:04.836Z</time>
      </trkpt>
      <trkpt lat="49.44792" lon="2.06784">
        <ele>120.4</ele>
        <time>2013-04-20T10:03:05.822Z</time>
      </trkpt>
      <trkpt lat="49.44794" lon="2.06779">
        <ele>126.4</ele>
        <time>2013-04-20T10:03:09.379Z</time>
      </trkpt>
      <trkpt lat="49.44795" lon="2.06778">
        <ele>127.6</ele>
        <time>2013-04-20T10:03:09.985Z</time>
      </trkpt>
      <trkpt lat="49.44799" lon="2.06774">
        <ele>127</ele>
        <time>2013-04-20T10:03:13.839Z</time>
      </trkpt>
      <trkpt lat="49.44799" lon="2.06772">
        <ele>128.7</ele>
        <time>2013-04-20T10:03:15.108Z</time>
      </trkpt>
      <trkpt lat="49.44801" lon="2.06767">
        <ele>130.4</ele>
        <time>2013-04-20T10:03:18.307Z</time>
      </trkpt>
      <trkpt lat="49.44802" lon="2.06765">
        <ele>130.7</ele>
        <time>2013-04-20T10:03:19.030Z</time>
      </trkpt>
      <trkpt lat="49.44805" lon="2.0676">
        <ele>130.6</ele>
        <time>2013-04-20T10:03:23.013Z</time>
      </trkpt>
      <trkpt lat="49.44808" lon="2.06757">
        <ele>132.2</ele>
        <time>2013-04-20T10:03:24.815Z</time>
      </trkpt>
      <trkpt lat="49.4481" lon="2.06754">
        <ele>133</ele>
        <time>2013-04-20T10:03:27.015Z</time>
      </trkpt>
      <trkpt lat="49.44812" lon="2.0675">
        <ele>133.2</ele>
        <time>2013-04-20T10:03:29.188Z</time>
      </trkpt>
      <trkpt lat="49.44815" lon="2.06745">
        <ele>133.9</ele>
        <time>2013-04-20T10:03:32.021Z</time>
      </trkpt>
      <trkpt lat="49.44816" lon="2.06744">
        <ele>133.8</ele>
        <time>2013-04-20T10:03:33.031Z</time>
      </trkpt>
      <trkpt lat="49.44818" lon="2.06739">
        <ele>133.7</ele>
        <time>2013-04-20T10:03:38.142Z</time>
      </trkpt>
      <trkpt lat="49.44819" lon="2.06737">
        <ele>133.6</ele>
        <time>2013-04-20T10:03:38.803Z</time>
      </trkpt>
      <trkpt lat="49.44822" lon="2.06733">
        <ele>135.3</ele>
        <time>2013-04-20T10:03:41.997Z</time>
      </trkpt>
      <trkpt lat="49.44823" lon="2.06732">
        <ele>135.8</ele>
        <time>2013-04-20T10:03:42.803Z</time>
      </trkpt>
      <trkpt lat="49.44826" lon="2.06727">
        <ele>133.7</ele>
        <time>2013-04-20T10:03:46.833Z</time>
      </trkpt>
      <trkpt lat="49.44827" lon="2.06725">
        <ele>135.4</ele>
        <time>2013-04-20T10:03:47.816Z</time>
      </trkpt>
      <trkpt lat="49.4483" lon="2.06721">
        <ele>133.3</ele>
        <time>2013-04-20T10:03:52.224Z</time>
      </trkpt>
      <trkpt lat="49.44831" lon="2.06719">
        <ele>134.6</ele>
        <time>2013-04-20T10:03:52.861Z</time>
      </trkpt>
      <trkpt lat="49.44834" lon="2.06719">
        <ele>132.4</ele>
        <time>2013-04-20T10:03:54.873Z</time>
      </trkpt>
      <trkpt lat="49.44835" lon="2.06718">
        <ele>131.6</ele>
        <time>2013-04-20T10:03:56.017Z</time>
      </trkpt>
      <trkpt lat="49.44839" lon="2.06715">
        <ele>132</ele>
        <time>2013-04-20T10:03:59.079Z</time>
      </trkpt>
      <trkpt lat="49.44841" lon="2.06713">
        <ele>125.4</ele>
        <time>2013-04-20T10:04:00.798Z</time>
      </trkpt>
      <trkpt lat="49.44842" lon="2.0671">
        <ele>131.3</ele>
        <time>2013-04-20T10:04:02.821Z</time>
      </trkpt>
      <trkpt lat="49.44844" lon="2.06708">
        <ele>132.6</ele>
        <time>2013-04-20T10:04:03.825Z</time>
      </trkpt>
      <trkpt lat="49.44846" lon="2.06704">
        <ele>134.3</ele>
        <time>2013-04-20T10:04:05.831Z</time>
      </trkpt>
      <trkpt lat="49.44847" lon="2.06701">
        <ele>136.4</ele>
        <time>2013-04-20T10:04:06.911Z</time>
      </trkpt>
      <trkpt lat="49.44849" lon="2.06696">
        <ele>138.5</ele>
        <time>2013-04-20T10:04:10.101Z</time>
      </trkpt>
      <trkpt lat="49.4485" lon="2.06694">
        <ele>138.1</ele>
        <time>2013-04-20T10:04:11.318Z</time>
      </trkpt>
      <trkpt lat="49.44853" lon="2.06689">
        <ele>136.9</ele>
        <time>2013-04-20T10:04:15.306Z</time>
      </trkpt>
      <trkpt lat="49.44854" lon="2.06687">
        <ele>136.3</ele>
        <time>2013-04-20T10:04:17.185Z</time>
      </trkpt>
      <trkpt lat="49.44857" lon="2.06682">
        <ele>137.7</ele>
        <time>2013-04-20T10:04:21.085Z</time>
      </trkpt>
      <trkpt lat="49.44858" lon="2.06681">
        <ele>138.2</ele>
        <time>2013-04-20T10:04:22.308Z</time>
      </trkpt>
      <trkpt lat="49.44861" lon="2.06678">
        <ele>137.3</ele>
        <time>2013-04-20T10:04:27.402Z</time>
      </trkpt>
      <trkpt lat="49.44862" lon="2.06678">
        <ele>136.8</ele>
        <time>2013-04-20T10:04:28.067Z</time>
      </trkpt>
      <trkpt lat="49.44863" lon="2.06683">
        <ele>136</ele>
        <time>2013-04-20T10:04:30.799Z</time>
      </trkpt>
      <trkpt lat="49.44862" lon="2.06686">
        <ele>134.1</ele>
        <time>2013-04-20T10:04:31.784Z</time>
      </trkpt>
      <trkpt lat="49.44862" lon="2.06686">
        <ele>133.9</ele>
        <time>2013-04-20T10:04:38.929Z</time>
      </trkpt>
    </trkseg>
  </trk>
</gpx>